<?xml version="1.0" encoding="UTF-8" standalone="no" ?>
<gpx xmlns="http://www.topografix.com/GPX/1/1" xmlns:xsi="http://www.w3.org/2001/XMLSchema-instance" xsi:schemaLocation="http://www.topografix.com/GPX/1/1 http://www.topografix.com/GPX/1/1/gpx.xsd" version="1.1" creator="VisuGPX - https://www.visugpx.com">
  <metadata>
    <name>Croix de l'Almet, depuis le Reposoir</name>
  </metadata>
  <trk>
    <name><![CDATA[Croix de l'Almet, depuis le Reposoir_1]]></name>
    <trkseg>
      <trkpt lat="46.00204" lon="6.50498">
        <ele>1340.4</ele>
        <time>2021-03-23T07:23:54Z</time>
      </trkpt>
      <trkpt lat="46.00204" lon="6.50493">
        <ele>1347</ele>
        <time>2021-03-23T07:24:23Z</time>
      </trkpt>
      <trkpt lat="46.00205" lon="6.5049">
        <ele>1347</ele>
        <time>2021-03-23T07:24:26Z</time>
      </trkpt>
      <trkpt lat="46.00205" lon="6.50487">
        <ele>1346.8</ele>
        <time>2021-03-23T07:24:28Z</time>
      </trkpt>
      <trkpt lat="46.00206" lon="6.50484">
        <ele>1347</ele>
        <time>2021-03-23T07:24:30Z</time>
      </trkpt>
      <trkpt lat="46.00207" lon="6.50481">
        <ele>1347</ele>
        <time>2021-03-23T07:24:32Z</time>
      </trkpt>
      <trkpt lat="46.00208" lon="6.50479">
        <ele>1347</ele>
        <time>2021-03-23T07:24:34Z</time>
      </trkpt>
      <trkpt lat="46.00209" lon="6.50477">
        <ele>1347</ele>
        <time>2021-03-23T07:24:36Z</time>
      </trkpt>
      <trkpt lat="46.00211" lon="6.50474">
        <ele>1347.2</ele>
        <time>2021-03-23T07:24:38Z</time>
      </trkpt>
      <trkpt lat="46.00212" lon="6.50471">
        <ele>1347.2</ele>
        <time>2021-03-23T07:24:40Z</time>
      </trkpt>
      <trkpt lat="46.00213" lon="6.50468">
        <ele>1347.4</ele>
        <time>2021-03-23T07:24:42Z</time>
      </trkpt>
      <trkpt lat="46.00214" lon="6.50466">
        <ele>1347.4</ele>
        <time>2021-03-23T07:24:44Z</time>
      </trkpt>
      <trkpt lat="46.00215" lon="6.50463">
        <ele>1347.4</ele>
        <time>2021-03-23T07:24:46Z</time>
      </trkpt>
      <trkpt lat="46.00216" lon="6.5046">
        <ele>1347.4</ele>
        <time>2021-03-23T07:24:48Z</time>
      </trkpt>
      <trkpt lat="46.00217" lon="6.50458">
        <ele>1347.6</ele>
        <time>2021-03-23T07:24:50Z</time>
      </trkpt>
      <trkpt lat="46.00218" lon="6.50456">
        <ele>1347.8</ele>
        <time>2021-03-23T07:24:52Z</time>
      </trkpt>
      <trkpt lat="46.00219" lon="6.50453">
        <ele>1347.8</ele>
        <time>2021-03-23T07:24:54Z</time>
      </trkpt>
      <trkpt lat="46.00219" lon="6.5045">
        <ele>1348.2</ele>
        <time>2021-03-23T07:24:56Z</time>
      </trkpt>
      <trkpt lat="46.0022" lon="6.50446">
        <ele>1348.4</ele>
        <time>2021-03-23T07:24:59Z</time>
      </trkpt>
      <trkpt lat="46.0022" lon="6.50444">
        <ele>1348.6</ele>
        <time>2021-03-23T07:25:01Z</time>
      </trkpt>
      <trkpt lat="46.00221" lon="6.50441">
        <ele>1348.6</ele>
        <time>2021-03-23T07:25:03Z</time>
      </trkpt>
      <trkpt lat="46.00222" lon="6.50438">
        <ele>1348.6</ele>
        <time>2021-03-23T07:25:05Z</time>
      </trkpt>
      <trkpt lat="46.00223" lon="6.50436">
        <ele>1349.2</ele>
        <time>2021-03-23T07:25:07Z</time>
      </trkpt>
      <trkpt lat="46.00224" lon="6.50433">
        <ele>1349.4</ele>
        <time>2021-03-23T07:25:09Z</time>
      </trkpt>
      <trkpt lat="46.00225" lon="6.5043">
        <ele>1349.6</ele>
        <time>2021-03-23T07:25:12Z</time>
      </trkpt>
      <trkpt lat="46.00226" lon="6.50427">
        <ele>1349.6</ele>
        <time>2021-03-23T07:25:14Z</time>
      </trkpt>
      <trkpt lat="46.00227" lon="6.50424">
        <ele>1349.8</ele>
        <time>2021-03-23T07:25:16Z</time>
      </trkpt>
      <trkpt lat="46.00228" lon="6.50421">
        <ele>1350</ele>
        <time>2021-03-23T07:25:18Z</time>
      </trkpt>
      <trkpt lat="46.00229" lon="6.50419">
        <ele>1350.4</ele>
        <time>2021-03-23T07:25:21Z</time>
      </trkpt>
      <trkpt lat="46.00231" lon="6.50416">
        <ele>1351.2</ele>
        <time>2021-03-23T07:26:06Z</time>
      </trkpt>
      <trkpt lat="46.00232" lon="6.50413">
        <ele>1351.4</ele>
        <time>2021-03-23T07:26:09Z</time>
      </trkpt>
      <trkpt lat="46.00232" lon="6.5041">
        <ele>1351.4</ele>
        <time>2021-03-23T07:26:12Z</time>
      </trkpt>
      <trkpt lat="46.00233" lon="6.50407">
        <ele>1351.6</ele>
        <time>2021-03-23T07:26:15Z</time>
      </trkpt>
      <trkpt lat="46.00234" lon="6.50405">
        <ele>1351.6</ele>
        <time>2021-03-23T07:26:22Z</time>
      </trkpt>
      <trkpt lat="46.00235" lon="6.50402">
        <ele>1351.4</ele>
        <time>2021-03-23T07:26:25Z</time>
      </trkpt>
      <trkpt lat="46.00237" lon="6.50399">
        <ele>1351.4</ele>
        <time>2021-03-23T07:26:28Z</time>
      </trkpt>
      <trkpt lat="46.00239" lon="6.50397">
        <ele>1351.6</ele>
        <time>2021-03-23T07:26:31Z</time>
      </trkpt>
      <trkpt lat="46.0024" lon="6.50395">
        <ele>1351.6</ele>
        <time>2021-03-23T07:26:33Z</time>
      </trkpt>
      <trkpt lat="46.00242" lon="6.50393">
        <ele>1351.8</ele>
        <time>2021-03-23T07:26:36Z</time>
      </trkpt>
      <trkpt lat="46.00244" lon="6.50391">
        <ele>1352</ele>
        <time>2021-03-23T07:26:39Z</time>
      </trkpt>
      <trkpt lat="46.00246" lon="6.5039">
        <ele>1351.8</ele>
        <time>2021-03-23T07:26:42Z</time>
      </trkpt>
      <trkpt lat="46.00247" lon="6.50387">
        <ele>1352.6</ele>
        <time>2021-03-23T07:26:46Z</time>
      </trkpt>
      <trkpt lat="46.00248" lon="6.50384">
        <ele>1352.8</ele>
        <time>2021-03-23T07:26:49Z</time>
      </trkpt>
      <trkpt lat="46.00249" lon="6.50382">
        <ele>1353.2</ele>
        <time>2021-03-23T07:26:57Z</time>
      </trkpt>
      <trkpt lat="46.00249" lon="6.50379">
        <ele>1353.6</ele>
        <time>2021-03-23T07:27:02Z</time>
      </trkpt>
      <trkpt lat="46.00249" lon="6.50375">
        <ele>1353.6</ele>
        <time>2021-03-23T07:27:08Z</time>
      </trkpt>
      <trkpt lat="46.00249" lon="6.50373">
        <ele>1353.8</ele>
        <time>2021-03-23T07:27:13Z</time>
      </trkpt>
      <trkpt lat="46.0025" lon="6.5037">
        <ele>1353.4</ele>
        <time>2021-03-23T07:27:17Z</time>
      </trkpt>
      <trkpt lat="46.00252" lon="6.50369">
        <ele>1354.4</ele>
        <time>2021-03-23T07:28:32Z</time>
      </trkpt>
      <trkpt lat="46.00253" lon="6.50366">
        <ele>1354.6</ele>
        <time>2021-03-23T07:28:42Z</time>
      </trkpt>
      <trkpt lat="46.00251" lon="6.50365">
        <ele>1353.4</ele>
        <time>2021-03-23T07:29:58Z</time>
      </trkpt>
      <trkpt lat="46.00253" lon="6.50364">
        <ele>1353.4</ele>
        <time>2021-03-23T07:30:41Z</time>
      </trkpt>
      <trkpt lat="46.00255" lon="6.50362">
        <ele>1353.6</ele>
        <time>2021-03-23T07:30:44Z</time>
      </trkpt>
      <trkpt lat="46.00257" lon="6.5036">
        <ele>1353.6</ele>
        <time>2021-03-23T07:30:46Z</time>
      </trkpt>
      <trkpt lat="46.00259" lon="6.50358">
        <ele>1353.6</ele>
        <time>2021-03-23T07:30:49Z</time>
      </trkpt>
      <trkpt lat="46.0026" lon="6.50356">
        <ele>1353.6</ele>
        <time>2021-03-23T07:30:52Z</time>
      </trkpt>
      <trkpt lat="46.00261" lon="6.50352">
        <ele>1353.6</ele>
        <time>2021-03-23T07:30:55Z</time>
      </trkpt>
      <trkpt lat="46.00262" lon="6.50349">
        <ele>1353.6</ele>
        <time>2021-03-23T07:30:58Z</time>
      </trkpt>
      <trkpt lat="46.00263" lon="6.50347">
        <ele>1353.6</ele>
        <time>2021-03-23T07:31:00Z</time>
      </trkpt>
      <trkpt lat="46.00264" lon="6.50345">
        <ele>1353.8</ele>
        <time>2021-03-23T07:31:02Z</time>
      </trkpt>
      <trkpt lat="46.00265" lon="6.50342">
        <ele>1354</ele>
        <time>2021-03-23T07:31:05Z</time>
      </trkpt>
      <trkpt lat="46.00266" lon="6.50339">
        <ele>1354.2</ele>
        <time>2021-03-23T07:31:08Z</time>
      </trkpt>
      <trkpt lat="46.00267" lon="6.50335">
        <ele>1354.6</ele>
        <time>2021-03-23T07:31:11Z</time>
      </trkpt>
      <trkpt lat="46.00268" lon="6.50332">
        <ele>1354.8</ele>
        <time>2021-03-23T07:31:14Z</time>
      </trkpt>
      <trkpt lat="46.00269" lon="6.50329">
        <ele>1355</ele>
        <time>2021-03-23T07:31:17Z</time>
      </trkpt>
      <trkpt lat="46.0027" lon="6.50325">
        <ele>1355.4</ele>
        <time>2021-03-23T07:31:20Z</time>
      </trkpt>
      <trkpt lat="46.00271" lon="6.50323">
        <ele>1355.8</ele>
        <time>2021-03-23T07:31:22Z</time>
      </trkpt>
      <trkpt lat="46.00271" lon="6.5032">
        <ele>1356</ele>
        <time>2021-03-23T07:31:24Z</time>
      </trkpt>
      <trkpt lat="46.00271" lon="6.50317">
        <ele>1356.2</ele>
        <time>2021-03-23T07:31:26Z</time>
      </trkpt>
      <trkpt lat="46.00272" lon="6.50315">
        <ele>1356.6</ele>
        <time>2021-03-23T07:31:28Z</time>
      </trkpt>
      <trkpt lat="46.00273" lon="6.50311">
        <ele>1356.8</ele>
        <time>2021-03-23T07:31:31Z</time>
      </trkpt>
      <trkpt lat="46.00274" lon="6.50308">
        <ele>1357</ele>
        <time>2021-03-23T07:31:34Z</time>
      </trkpt>
      <trkpt lat="46.00274" lon="6.50304">
        <ele>1357</ele>
        <time>2021-03-23T07:31:37Z</time>
      </trkpt>
      <trkpt lat="46.00275" lon="6.503">
        <ele>1357</ele>
        <time>2021-03-23T07:31:40Z</time>
      </trkpt>
      <trkpt lat="46.00275" lon="6.50298">
        <ele>1357.2</ele>
        <time>2021-03-23T07:31:42Z</time>
      </trkpt>
      <trkpt lat="46.00276" lon="6.50294">
        <ele>1357.4</ele>
        <time>2021-03-23T07:31:45Z</time>
      </trkpt>
      <trkpt lat="46.00277" lon="6.50291">
        <ele>1357.6</ele>
        <time>2021-03-23T07:31:48Z</time>
      </trkpt>
      <trkpt lat="46.00278" lon="6.50288">
        <ele>1357.6</ele>
        <time>2021-03-23T07:31:51Z</time>
      </trkpt>
      <trkpt lat="46.00278" lon="6.50285">
        <ele>1357.8</ele>
        <time>2021-03-23T07:31:53Z</time>
      </trkpt>
      <trkpt lat="46.00278" lon="6.50282">
        <ele>1358</ele>
        <time>2021-03-23T07:31:55Z</time>
      </trkpt>
      <trkpt lat="46.00279" lon="6.50279">
        <ele>1358.4</ele>
        <time>2021-03-23T07:31:58Z</time>
      </trkpt>
      <trkpt lat="46.0028" lon="6.50276">
        <ele>1358.6</ele>
        <time>2021-03-23T07:32:01Z</time>
      </trkpt>
      <trkpt lat="46.0028" lon="6.50272">
        <ele>1358.8</ele>
        <time>2021-03-23T07:32:04Z</time>
      </trkpt>
      <trkpt lat="46.00278" lon="6.50272">
        <ele>1358.8</ele>
        <time>2021-03-23T07:39:46Z</time>
      </trkpt>
      <trkpt lat="46.00278" lon="6.50269">
        <ele>1358.6</ele>
        <time>2021-03-23T07:39:55Z</time>
      </trkpt>
      <trkpt lat="46.00277" lon="6.50266">
        <ele>1358</ele>
        <time>2021-03-23T07:39:59Z</time>
      </trkpt>
      <trkpt lat="46.00276" lon="6.50262">
        <ele>1357.6</ele>
        <time>2021-03-23T07:40:01Z</time>
      </trkpt>
      <trkpt lat="46.00275" lon="6.50259">
        <ele>1357.4</ele>
        <time>2021-03-23T07:40:02Z</time>
      </trkpt>
      <trkpt lat="46.00273" lon="6.50256">
        <ele>1357.2</ele>
        <time>2021-03-23T07:40:03Z</time>
      </trkpt>
      <trkpt lat="46.00272" lon="6.50252">
        <ele>1356.8</ele>
        <time>2021-03-23T07:40:04Z</time>
      </trkpt>
      <trkpt lat="46.0027" lon="6.50249">
        <ele>1356.6</ele>
        <time>2021-03-23T07:40:05Z</time>
      </trkpt>
      <trkpt lat="46.00268" lon="6.50246">
        <ele>1356.2</ele>
        <time>2021-03-23T07:40:06Z</time>
      </trkpt>
      <trkpt lat="46.00265" lon="6.50243">
        <ele>1355.8</ele>
        <time>2021-03-23T07:40:07Z</time>
      </trkpt>
      <trkpt lat="46.00261" lon="6.50239">
        <ele>1355.2</ele>
        <time>2021-03-23T07:40:08Z</time>
      </trkpt>
      <trkpt lat="46.00258" lon="6.50235">
        <ele>1354.8</ele>
        <time>2021-03-23T07:40:09Z</time>
      </trkpt>
      <trkpt lat="46.00254" lon="6.50232">
        <ele>1354.4</ele>
        <time>2021-03-23T07:40:10Z</time>
      </trkpt>
      <trkpt lat="46.00251" lon="6.50228">
        <ele>1354.2</ele>
        <time>2021-03-23T07:40:11Z</time>
      </trkpt>
      <trkpt lat="46.00248" lon="6.50224">
        <ele>1354.2</ele>
        <time>2021-03-23T07:40:12Z</time>
      </trkpt>
      <trkpt lat="46.00245" lon="6.50221">
        <ele>1354</ele>
        <time>2021-03-23T07:40:13Z</time>
      </trkpt>
      <trkpt lat="46.00243" lon="6.50218">
        <ele>1354</ele>
        <time>2021-03-23T07:40:14Z</time>
      </trkpt>
      <trkpt lat="46.00241" lon="6.50214">
        <ele>1353.6</ele>
        <time>2021-03-23T07:40:15Z</time>
      </trkpt>
      <trkpt lat="46.00239" lon="6.5021">
        <ele>1353.4</ele>
        <time>2021-03-23T07:40:16Z</time>
      </trkpt>
      <trkpt lat="46.00236" lon="6.50206">
        <ele>1353.2</ele>
        <time>2021-03-23T07:40:17Z</time>
      </trkpt>
      <trkpt lat="46.00233" lon="6.50202">
        <ele>1353</ele>
        <time>2021-03-23T07:40:18Z</time>
      </trkpt>
      <trkpt lat="46.0023" lon="6.50199">
        <ele>1352.6</ele>
        <time>2021-03-23T07:40:19Z</time>
      </trkpt>
      <trkpt lat="46.00226" lon="6.50196">
        <ele>1352.4</ele>
        <time>2021-03-23T07:40:20Z</time>
      </trkpt>
      <trkpt lat="46.00223" lon="6.50193">
        <ele>1352</ele>
        <time>2021-03-23T07:40:21Z</time>
      </trkpt>
      <trkpt lat="46.00221" lon="6.5019">
        <ele>1351.8</ele>
        <time>2021-03-23T07:40:22Z</time>
      </trkpt>
      <trkpt lat="46.00219" lon="6.50188">
        <ele>1351.8</ele>
        <time>2021-03-23T07:40:23Z</time>
      </trkpt>
      <trkpt lat="46.00218" lon="6.50186">
        <ele>1351.4</ele>
        <time>2021-03-23T07:40:24Z</time>
      </trkpt>
      <trkpt lat="46.00216" lon="6.50184">
        <ele>1351.2</ele>
        <time>2021-03-23T07:40:25Z</time>
      </trkpt>
      <trkpt lat="46.00213" lon="6.50182">
        <ele>1350.4</ele>
        <time>2021-03-23T07:40:27Z</time>
      </trkpt>
      <trkpt lat="46.00212" lon="6.5018">
        <ele>1350.2</ele>
        <time>2021-03-23T07:40:28Z</time>
      </trkpt>
      <trkpt lat="46.0021" lon="6.50179">
        <ele>1349.8</ele>
        <time>2021-03-23T07:40:29Z</time>
      </trkpt>
      <trkpt lat="46.00207" lon="6.50177">
        <ele>1349.6</ele>
        <time>2021-03-23T07:40:30Z</time>
      </trkpt>
      <trkpt lat="46.00204" lon="6.50175">
        <ele>1349.2</ele>
        <time>2021-03-23T07:40:31Z</time>
      </trkpt>
      <trkpt lat="46.00201" lon="6.50174">
        <ele>1348.8</ele>
        <time>2021-03-23T07:40:32Z</time>
      </trkpt>
      <trkpt lat="46.00199" lon="6.50172">
        <ele>1348.4</ele>
        <time>2021-03-23T07:40:33Z</time>
      </trkpt>
      <trkpt lat="46.00197" lon="6.5017">
        <ele>1348</ele>
        <time>2021-03-23T07:40:34Z</time>
      </trkpt>
      <trkpt lat="46.00194" lon="6.50168">
        <ele>1347.6</ele>
        <time>2021-03-23T07:40:35Z</time>
      </trkpt>
      <trkpt lat="46.00193" lon="6.50166">
        <ele>1347.4</ele>
        <time>2021-03-23T07:40:36Z</time>
      </trkpt>
      <trkpt lat="46.00192" lon="6.50163">
        <ele>1347</ele>
        <time>2021-03-23T07:40:37Z</time>
      </trkpt>
      <trkpt lat="46.00191" lon="6.5016">
        <ele>1346.8</ele>
        <time>2021-03-23T07:40:39Z</time>
      </trkpt>
      <trkpt lat="46.00192" lon="6.50157">
        <ele>1343</ele>
        <time>2021-03-23T07:41:08Z</time>
      </trkpt>
      <trkpt lat="46.00192" lon="6.50154">
        <ele>1342.2</ele>
        <time>2021-03-23T07:41:11Z</time>
      </trkpt>
      <trkpt lat="46.00191" lon="6.5015">
        <ele>1341.6</ele>
        <time>2021-03-23T07:41:14Z</time>
      </trkpt>
      <trkpt lat="46.0019" lon="6.50148">
        <ele>1341.6</ele>
        <time>2021-03-23T07:41:16Z</time>
      </trkpt>
      <trkpt lat="46.0019" lon="6.50145">
        <ele>1341.2</ele>
        <time>2021-03-23T07:41:18Z</time>
      </trkpt>
      <trkpt lat="46.00189" lon="6.50142">
        <ele>1341.2</ele>
        <time>2021-03-23T07:41:20Z</time>
      </trkpt>
      <trkpt lat="46.00188" lon="6.50139">
        <ele>1340.8</ele>
        <time>2021-03-23T07:41:22Z</time>
      </trkpt>
      <trkpt lat="46.00188" lon="6.50136">
        <ele>1340.4</ele>
        <time>2021-03-23T07:41:24Z</time>
      </trkpt>
      <trkpt lat="46.00187" lon="6.50134">
        <ele>1339.8</ele>
        <time>2021-03-23T07:41:26Z</time>
      </trkpt>
      <trkpt lat="46.00187" lon="6.50131">
        <ele>1339.4</ele>
        <time>2021-03-23T07:41:28Z</time>
      </trkpt>
      <trkpt lat="46.00186" lon="6.50128">
        <ele>1339.2</ele>
        <time>2021-03-23T07:41:30Z</time>
      </trkpt>
      <trkpt lat="46.00185" lon="6.50125">
        <ele>1338.6</ele>
        <time>2021-03-23T07:41:32Z</time>
      </trkpt>
      <trkpt lat="46.00184" lon="6.50121">
        <ele>1338.4</ele>
        <time>2021-03-23T07:41:34Z</time>
      </trkpt>
      <trkpt lat="46.00183" lon="6.50117">
        <ele>1338</ele>
        <time>2021-03-23T07:41:36Z</time>
      </trkpt>
      <trkpt lat="46.00183" lon="6.50113">
        <ele>1337.8</ele>
        <time>2021-03-23T07:41:38Z</time>
      </trkpt>
      <trkpt lat="46.00182" lon="6.5011">
        <ele>1337.4</ele>
        <time>2021-03-23T07:41:40Z</time>
      </trkpt>
      <trkpt lat="46.00181" lon="6.50106">
        <ele>1337.2</ele>
        <time>2021-03-23T07:41:42Z</time>
      </trkpt>
      <trkpt lat="46.0018" lon="6.50104">
        <ele>1336.8</ele>
        <time>2021-03-23T07:41:44Z</time>
      </trkpt>
      <trkpt lat="46.00179" lon="6.50101">
        <ele>1336.4</ele>
        <time>2021-03-23T07:41:46Z</time>
      </trkpt>
      <trkpt lat="46.00177" lon="6.50098">
        <ele>1335.8</ele>
        <time>2021-03-23T07:41:49Z</time>
      </trkpt>
      <trkpt lat="46.00175" lon="6.50097">
        <ele>1335.4</ele>
        <time>2021-03-23T07:41:53Z</time>
      </trkpt>
      <trkpt lat="46.00173" lon="6.50097">
        <ele>1334.4</ele>
        <time>2021-03-23T07:42:00Z</time>
      </trkpt>
      <trkpt lat="46.00175" lon="6.50095">
        <ele>1332.8</ele>
        <time>2021-03-23T07:42:56Z</time>
      </trkpt>
      <trkpt lat="46.00173" lon="6.50094">
        <ele>1333.2</ele>
        <time>2021-03-23T07:43:12Z</time>
      </trkpt>
      <trkpt lat="46.00175" lon="6.50094">
        <ele>1333.6</ele>
        <time>2021-03-23T07:43:25Z</time>
      </trkpt>
      <trkpt lat="46.00174" lon="6.50092">
        <ele>1333.6</ele>
        <time>2021-03-23T07:43:54Z</time>
      </trkpt>
      <trkpt lat="46.00174" lon="6.50089">
        <ele>1332.6</ele>
        <time>2021-03-23T07:43:58Z</time>
      </trkpt>
      <trkpt lat="46.00173" lon="6.50086">
        <ele>1332</ele>
        <time>2021-03-23T07:44:02Z</time>
      </trkpt>
      <trkpt lat="46.00172" lon="6.50084">
        <ele>1331.8</ele>
        <time>2021-03-23T07:44:05Z</time>
      </trkpt>
      <trkpt lat="46.00171" lon="6.50082">
        <ele>1331.6</ele>
        <time>2021-03-23T07:44:08Z</time>
      </trkpt>
      <trkpt lat="46.0017" lon="6.50079">
        <ele>1331.4</ele>
        <time>2021-03-23T07:44:12Z</time>
      </trkpt>
      <trkpt lat="46.00169" lon="6.50077">
        <ele>1331.6</ele>
        <time>2021-03-23T07:44:15Z</time>
      </trkpt>
      <trkpt lat="46.00168" lon="6.50074">
        <ele>1331.8</ele>
        <time>2021-03-23T07:44:18Z</time>
      </trkpt>
      <trkpt lat="46.00168" lon="6.50071">
        <ele>1332</ele>
        <time>2021-03-23T07:44:21Z</time>
      </trkpt>
      <trkpt lat="46.00167" lon="6.50068">
        <ele>1332.2</ele>
        <time>2021-03-23T07:44:24Z</time>
      </trkpt>
      <trkpt lat="46.00166" lon="6.50065">
        <ele>1332.2</ele>
        <time>2021-03-23T07:44:27Z</time>
      </trkpt>
      <trkpt lat="46.00166" lon="6.50062">
        <ele>1332.4</ele>
        <time>2021-03-23T07:44:30Z</time>
      </trkpt>
      <trkpt lat="46.00165" lon="6.50059">
        <ele>1332.6</ele>
        <time>2021-03-23T07:44:33Z</time>
      </trkpt>
      <trkpt lat="46.00164" lon="6.50056">
        <ele>1332.6</ele>
        <time>2021-03-23T07:44:36Z</time>
      </trkpt>
      <trkpt lat="46.00163" lon="6.50054">
        <ele>1333</ele>
        <time>2021-03-23T07:44:39Z</time>
      </trkpt>
      <trkpt lat="46.00162" lon="6.50051">
        <ele>1333.4</ele>
        <time>2021-03-23T07:44:42Z</time>
      </trkpt>
      <trkpt lat="46.00161" lon="6.50048">
        <ele>1333.6</ele>
        <time>2021-03-23T07:44:45Z</time>
      </trkpt>
      <trkpt lat="46.0016" lon="6.50046">
        <ele>1333.8</ele>
        <time>2021-03-23T07:44:57Z</time>
      </trkpt>
      <trkpt lat="46.00159" lon="6.50044">
        <ele>1334.2</ele>
        <time>2021-03-23T07:45:01Z</time>
      </trkpt>
      <trkpt lat="46.00158" lon="6.50041">
        <ele>1334.4</ele>
        <time>2021-03-23T07:45:04Z</time>
      </trkpt>
      <trkpt lat="46.00156" lon="6.50038">
        <ele>1334.6</ele>
        <time>2021-03-23T07:45:07Z</time>
      </trkpt>
      <trkpt lat="46.00155" lon="6.50035">
        <ele>1334.8</ele>
        <time>2021-03-23T07:45:10Z</time>
      </trkpt>
      <trkpt lat="46.00154" lon="6.50032">
        <ele>1335</ele>
        <time>2021-03-23T07:45:13Z</time>
      </trkpt>
      <trkpt lat="46.00153" lon="6.50029">
        <ele>1335.4</ele>
        <time>2021-03-23T07:45:16Z</time>
      </trkpt>
      <trkpt lat="46.00151" lon="6.50026">
        <ele>1335.8</ele>
        <time>2021-03-23T07:45:19Z</time>
      </trkpt>
      <trkpt lat="46.00151" lon="6.50024">
        <ele>1335.8</ele>
        <time>2021-03-23T07:45:21Z</time>
      </trkpt>
      <trkpt lat="46.0015" lon="6.5002">
        <ele>1335.8</ele>
        <time>2021-03-23T07:45:24Z</time>
      </trkpt>
      <trkpt lat="46.00149" lon="6.50017">
        <ele>1336</ele>
        <time>2021-03-23T07:45:27Z</time>
      </trkpt>
      <trkpt lat="46.00148" lon="6.50014">
        <ele>1336.2</ele>
        <time>2021-03-23T07:45:30Z</time>
      </trkpt>
      <trkpt lat="46.00147" lon="6.50011">
        <ele>1336.4</ele>
        <time>2021-03-23T07:45:33Z</time>
      </trkpt>
      <trkpt lat="46.00146" lon="6.50008">
        <ele>1336.6</ele>
        <time>2021-03-23T07:45:35Z</time>
      </trkpt>
      <trkpt lat="46.00146" lon="6.50005">
        <ele>1336.6</ele>
        <time>2021-03-23T07:45:37Z</time>
      </trkpt>
      <trkpt lat="46.00145" lon="6.50002">
        <ele>1336.8</ele>
        <time>2021-03-23T07:45:40Z</time>
      </trkpt>
      <trkpt lat="46.00144" lon="6.49999">
        <ele>1337</ele>
        <time>2021-03-23T07:45:43Z</time>
      </trkpt>
      <trkpt lat="46.00143" lon="6.49996">
        <ele>1337.2</ele>
        <time>2021-03-23T07:45:45Z</time>
      </trkpt>
      <trkpt lat="46.00142" lon="6.49993">
        <ele>1337.6</ele>
        <time>2021-03-23T07:45:48Z</time>
      </trkpt>
      <trkpt lat="46.00141" lon="6.49989">
        <ele>1337.8</ele>
        <time>2021-03-23T07:45:51Z</time>
      </trkpt>
      <trkpt lat="46.0014" lon="6.49986">
        <ele>1338.2</ele>
        <time>2021-03-23T07:45:54Z</time>
      </trkpt>
      <trkpt lat="46.0014" lon="6.49983">
        <ele>1338.4</ele>
        <time>2021-03-23T07:45:56Z</time>
      </trkpt>
      <trkpt lat="46.00139" lon="6.49979">
        <ele>1338.6</ele>
        <time>2021-03-23T07:45:59Z</time>
      </trkpt>
      <trkpt lat="46.00138" lon="6.49977">
        <ele>1338.8</ele>
        <time>2021-03-23T07:46:01Z</time>
      </trkpt>
      <trkpt lat="46.00138" lon="6.49974">
        <ele>1339</ele>
        <time>2021-03-23T07:46:03Z</time>
      </trkpt>
      <trkpt lat="46.00137" lon="6.49971">
        <ele>1339.2</ele>
        <time>2021-03-23T07:46:05Z</time>
      </trkpt>
      <trkpt lat="46.00136" lon="6.49969">
        <ele>1339.4</ele>
        <time>2021-03-23T07:46:07Z</time>
      </trkpt>
      <trkpt lat="46.00136" lon="6.49965">
        <ele>1339.2</ele>
        <time>2021-03-23T07:46:10Z</time>
      </trkpt>
      <trkpt lat="46.00135" lon="6.49962">
        <ele>1339.2</ele>
        <time>2021-03-23T07:46:13Z</time>
      </trkpt>
      <trkpt lat="46.00135" lon="6.49959">
        <ele>1339.4</ele>
        <time>2021-03-23T07:46:15Z</time>
      </trkpt>
      <trkpt lat="46.00134" lon="6.49956">
        <ele>1339.4</ele>
        <time>2021-03-23T07:46:17Z</time>
      </trkpt>
      <trkpt lat="46.00133" lon="6.49954">
        <ele>1339.8</ele>
        <time>2021-03-23T07:46:19Z</time>
      </trkpt>
      <trkpt lat="46.00132" lon="6.49951">
        <ele>1340</ele>
        <time>2021-03-23T07:46:22Z</time>
      </trkpt>
      <trkpt lat="46.00132" lon="6.49947">
        <ele>1340.2</ele>
        <time>2021-03-23T07:46:25Z</time>
      </trkpt>
      <trkpt lat="46.0013" lon="6.49944">
        <ele>1340.2</ele>
        <time>2021-03-23T07:46:28Z</time>
      </trkpt>
      <trkpt lat="46.00129" lon="6.49941">
        <ele>1340.4</ele>
        <time>2021-03-23T07:46:31Z</time>
      </trkpt>
      <trkpt lat="46.00128" lon="6.49938">
        <ele>1340.8</ele>
        <time>2021-03-23T07:46:34Z</time>
      </trkpt>
      <trkpt lat="46.00127" lon="6.49934">
        <ele>1341</ele>
        <time>2021-03-23T07:46:37Z</time>
      </trkpt>
      <trkpt lat="46.00126" lon="6.49931">
        <ele>1341.2</ele>
        <time>2021-03-23T07:46:40Z</time>
      </trkpt>
      <trkpt lat="46.00125" lon="6.49929">
        <ele>1341.6</ele>
        <time>2021-03-23T07:46:42Z</time>
      </trkpt>
      <trkpt lat="46.00123" lon="6.49926">
        <ele>1341.8</ele>
        <time>2021-03-23T07:46:45Z</time>
      </trkpt>
      <trkpt lat="46.00122" lon="6.49923">
        <ele>1342</ele>
        <time>2021-03-23T07:46:47Z</time>
      </trkpt>
      <trkpt lat="46.00121" lon="6.4992">
        <ele>1342.2</ele>
        <time>2021-03-23T07:46:49Z</time>
      </trkpt>
      <trkpt lat="46.0012" lon="6.49917">
        <ele>1342</ele>
        <time>2021-03-23T07:46:52Z</time>
      </trkpt>
      <trkpt lat="46.0012" lon="6.49914">
        <ele>1341.8</ele>
        <time>2021-03-23T07:46:55Z</time>
      </trkpt>
      <trkpt lat="46.00118" lon="6.4991">
        <ele>1341.8</ele>
        <time>2021-03-23T07:46:58Z</time>
      </trkpt>
      <trkpt lat="46.00117" lon="6.49907">
        <ele>1341.8</ele>
        <time>2021-03-23T07:47:01Z</time>
      </trkpt>
      <trkpt lat="46.00115" lon="6.49904">
        <ele>1341.8</ele>
        <time>2021-03-23T07:47:04Z</time>
      </trkpt>
      <trkpt lat="46.00114" lon="6.49901">
        <ele>1341.8</ele>
        <time>2021-03-23T07:47:07Z</time>
      </trkpt>
      <trkpt lat="46.00113" lon="6.49899">
        <ele>1341.8</ele>
        <time>2021-03-23T07:47:09Z</time>
      </trkpt>
      <trkpt lat="46.00112" lon="6.49896">
        <ele>1342</ele>
        <time>2021-03-23T07:47:12Z</time>
      </trkpt>
      <trkpt lat="46.00112" lon="6.49893">
        <ele>1342.2</ele>
        <time>2021-03-23T07:47:15Z</time>
      </trkpt>
      <trkpt lat="46.0011" lon="6.4989">
        <ele>1342.4</ele>
        <time>2021-03-23T07:47:18Z</time>
      </trkpt>
      <trkpt lat="46.00109" lon="6.49887">
        <ele>1342.8</ele>
        <time>2021-03-23T07:47:20Z</time>
      </trkpt>
      <trkpt lat="46.00109" lon="6.49883">
        <ele>1343</ele>
        <time>2021-03-23T07:47:23Z</time>
      </trkpt>
      <trkpt lat="46.00108" lon="6.49881">
        <ele>1343.2</ele>
        <time>2021-03-23T07:47:25Z</time>
      </trkpt>
      <trkpt lat="46.00107" lon="6.49878">
        <ele>1343.2</ele>
        <time>2021-03-23T07:47:28Z</time>
      </trkpt>
      <trkpt lat="46.00106" lon="6.49874">
        <ele>1343.4</ele>
        <time>2021-03-23T07:47:31Z</time>
      </trkpt>
      <trkpt lat="46.00106" lon="6.49871">
        <ele>1343.6</ele>
        <time>2021-03-23T07:47:34Z</time>
      </trkpt>
      <trkpt lat="46.00105" lon="6.49868">
        <ele>1343.8</ele>
        <time>2021-03-23T07:47:37Z</time>
      </trkpt>
      <trkpt lat="46.00104" lon="6.49865">
        <ele>1344</ele>
        <time>2021-03-23T07:47:40Z</time>
      </trkpt>
      <trkpt lat="46.00103" lon="6.49862">
        <ele>1344.8</ele>
        <time>2021-03-23T07:47:43Z</time>
      </trkpt>
      <trkpt lat="46.00101" lon="6.4986">
        <ele>1345.4</ele>
        <time>2021-03-23T07:47:46Z</time>
      </trkpt>
      <trkpt lat="46.001" lon="6.49856">
        <ele>1345.6</ele>
        <time>2021-03-23T07:47:49Z</time>
      </trkpt>
      <trkpt lat="46.00099" lon="6.49854">
        <ele>1345.6</ele>
        <time>2021-03-23T07:47:51Z</time>
      </trkpt>
      <trkpt lat="46.00098" lon="6.4985">
        <ele>1345.6</ele>
        <time>2021-03-23T07:47:54Z</time>
      </trkpt>
      <trkpt lat="46.00097" lon="6.49847">
        <ele>1345.8</ele>
        <time>2021-03-23T07:47:57Z</time>
      </trkpt>
      <trkpt lat="46.00096" lon="6.49844">
        <ele>1345.8</ele>
        <time>2021-03-23T07:48:00Z</time>
      </trkpt>
      <trkpt lat="46.00095" lon="6.49841">
        <ele>1346</ele>
        <time>2021-03-23T07:48:02Z</time>
      </trkpt>
      <trkpt lat="46.00094" lon="6.49838">
        <ele>1346.2</ele>
        <time>2021-03-23T07:48:05Z</time>
      </trkpt>
      <trkpt lat="46.00092" lon="6.49836">
        <ele>1346.4</ele>
        <time>2021-03-23T07:48:08Z</time>
      </trkpt>
      <trkpt lat="46.00091" lon="6.49833">
        <ele>1346.8</ele>
        <time>2021-03-23T07:48:11Z</time>
      </trkpt>
      <trkpt lat="46.00089" lon="6.4983">
        <ele>1347</ele>
        <time>2021-03-23T07:48:14Z</time>
      </trkpt>
      <trkpt lat="46.00088" lon="6.49828">
        <ele>1347.6</ele>
        <time>2021-03-23T07:48:16Z</time>
      </trkpt>
      <trkpt lat="46.00086" lon="6.49826">
        <ele>1348.2</ele>
        <time>2021-03-23T07:48:19Z</time>
      </trkpt>
      <trkpt lat="46.00085" lon="6.49824">
        <ele>1348.4</ele>
        <time>2021-03-23T07:48:21Z</time>
      </trkpt>
      <trkpt lat="46.00084" lon="6.49822">
        <ele>1348.6</ele>
        <time>2021-03-23T07:48:23Z</time>
      </trkpt>
      <trkpt lat="46.00082" lon="6.4982">
        <ele>1349.2</ele>
        <time>2021-03-23T07:48:25Z</time>
      </trkpt>
      <trkpt lat="46.0008" lon="6.49818">
        <ele>1349.2</ele>
        <time>2021-03-23T07:48:27Z</time>
      </trkpt>
      <trkpt lat="46.00079" lon="6.49816">
        <ele>1349.2</ele>
        <time>2021-03-23T07:48:29Z</time>
      </trkpt>
      <trkpt lat="46.00077" lon="6.49814">
        <ele>1349.4</ele>
        <time>2021-03-23T07:48:31Z</time>
      </trkpt>
      <trkpt lat="46.00076" lon="6.49812">
        <ele>1349.4</ele>
        <time>2021-03-23T07:48:33Z</time>
      </trkpt>
      <trkpt lat="46.00075" lon="6.4981">
        <ele>1349.4</ele>
        <time>2021-03-23T07:48:35Z</time>
      </trkpt>
      <trkpt lat="46.00073" lon="6.49808">
        <ele>1349.4</ele>
        <time>2021-03-23T07:48:38Z</time>
      </trkpt>
      <trkpt lat="46.00071" lon="6.49805">
        <ele>1349.4</ele>
        <time>2021-03-23T07:48:41Z</time>
      </trkpt>
      <trkpt lat="46.0007" lon="6.49802">
        <ele>1349.6</ele>
        <time>2021-03-23T07:48:44Z</time>
      </trkpt>
      <trkpt lat="46.00069" lon="6.49799">
        <ele>1349.2</ele>
        <time>2021-03-23T07:48:47Z</time>
      </trkpt>
      <trkpt lat="46.00068" lon="6.49796">
        <ele>1349.4</ele>
        <time>2021-03-23T07:48:50Z</time>
      </trkpt>
      <trkpt lat="46.00067" lon="6.49794">
        <ele>1349.2</ele>
        <time>2021-03-23T07:48:53Z</time>
      </trkpt>
      <trkpt lat="46.00066" lon="6.49791">
        <ele>1349</ele>
        <time>2021-03-23T07:48:55Z</time>
      </trkpt>
      <trkpt lat="46.00065" lon="6.49789">
        <ele>1349</ele>
        <time>2021-03-23T07:48:57Z</time>
      </trkpt>
      <trkpt lat="46.00064" lon="6.49786">
        <ele>1349</ele>
        <time>2021-03-23T07:48:59Z</time>
      </trkpt>
      <trkpt lat="46.00064" lon="6.49784">
        <ele>1349</ele>
        <time>2021-03-23T07:49:01Z</time>
      </trkpt>
      <trkpt lat="46.00063" lon="6.49782">
        <ele>1349.2</ele>
        <time>2021-03-23T07:49:03Z</time>
      </trkpt>
      <trkpt lat="46.00062" lon="6.49779">
        <ele>1349.2</ele>
        <time>2021-03-23T07:49:05Z</time>
      </trkpt>
      <trkpt lat="46.00061" lon="6.49776">
        <ele>1349.4</ele>
        <time>2021-03-23T07:49:08Z</time>
      </trkpt>
      <trkpt lat="46.0006" lon="6.49773">
        <ele>1349.4</ele>
        <time>2021-03-23T07:49:10Z</time>
      </trkpt>
      <trkpt lat="46.00059" lon="6.4977">
        <ele>1349.6</ele>
        <time>2021-03-23T07:49:13Z</time>
      </trkpt>
      <trkpt lat="46.00058" lon="6.49768">
        <ele>1349.8</ele>
        <time>2021-03-23T07:49:15Z</time>
      </trkpt>
      <trkpt lat="46.00056" lon="6.49765">
        <ele>1349.8</ele>
        <time>2021-03-23T07:49:18Z</time>
      </trkpt>
      <trkpt lat="46.00055" lon="6.49762">
        <ele>1349.8</ele>
        <time>2021-03-23T07:49:21Z</time>
      </trkpt>
      <trkpt lat="46.00053" lon="6.49759">
        <ele>1349.8</ele>
        <time>2021-03-23T07:49:24Z</time>
      </trkpt>
      <trkpt lat="46.00052" lon="6.49756">
        <ele>1349.8</ele>
        <time>2021-03-23T07:49:27Z</time>
      </trkpt>
      <trkpt lat="46.00051" lon="6.49753">
        <ele>1349.8</ele>
        <time>2021-03-23T07:49:30Z</time>
      </trkpt>
      <trkpt lat="46.00049" lon="6.4975">
        <ele>1350.4</ele>
        <time>2021-03-23T07:49:33Z</time>
      </trkpt>
      <trkpt lat="46.00048" lon="6.49747">
        <ele>1350.6</ele>
        <time>2021-03-23T07:49:36Z</time>
      </trkpt>
      <trkpt lat="46.00046" lon="6.49746">
        <ele>1350.8</ele>
        <time>2021-03-23T07:49:38Z</time>
      </trkpt>
      <trkpt lat="46.00044" lon="6.49743">
        <ele>1351</ele>
        <time>2021-03-23T07:49:41Z</time>
      </trkpt>
      <trkpt lat="46.00043" lon="6.49741">
        <ele>1351.4</ele>
        <time>2021-03-23T07:49:44Z</time>
      </trkpt>
      <trkpt lat="46.00041" lon="6.49738">
        <ele>1351.6</ele>
        <time>2021-03-23T07:49:47Z</time>
      </trkpt>
      <trkpt lat="46.00039" lon="6.49736">
        <ele>1351.8</ele>
        <time>2021-03-23T07:49:50Z</time>
      </trkpt>
      <trkpt lat="46.00037" lon="6.49733">
        <ele>1351.8</ele>
        <time>2021-03-23T07:49:53Z</time>
      </trkpt>
      <trkpt lat="46.00036" lon="6.49731">
        <ele>1351.6</ele>
        <time>2021-03-23T07:49:55Z</time>
      </trkpt>
      <trkpt lat="46.00034" lon="6.49728">
        <ele>1351.6</ele>
        <time>2021-03-23T07:49:58Z</time>
      </trkpt>
      <trkpt lat="46.00033" lon="6.49726">
        <ele>1351.6</ele>
        <time>2021-03-23T07:50:00Z</time>
      </trkpt>
      <trkpt lat="46.00031" lon="6.49724">
        <ele>1351.8</ele>
        <time>2021-03-23T07:50:02Z</time>
      </trkpt>
      <trkpt lat="46.00029" lon="6.49722">
        <ele>1351.6</ele>
        <time>2021-03-23T07:50:04Z</time>
      </trkpt>
      <trkpt lat="46.00028" lon="6.49719">
        <ele>1351.6</ele>
        <time>2021-03-23T07:50:06Z</time>
      </trkpt>
      <trkpt lat="46.00026" lon="6.49717">
        <ele>1351.6</ele>
        <time>2021-03-23T07:50:08Z</time>
      </trkpt>
      <trkpt lat="46.00024" lon="6.49715">
        <ele>1351.6</ele>
        <time>2021-03-23T07:50:10Z</time>
      </trkpt>
      <trkpt lat="46.00023" lon="6.49713">
        <ele>1351.6</ele>
        <time>2021-03-23T07:50:12Z</time>
      </trkpt>
      <trkpt lat="46.00021" lon="6.49711">
        <ele>1351.8</ele>
        <time>2021-03-23T07:50:14Z</time>
      </trkpt>
      <trkpt lat="46.00019" lon="6.49709">
        <ele>1351.8</ele>
        <time>2021-03-23T07:50:16Z</time>
      </trkpt>
      <trkpt lat="46.00017" lon="6.49707">
        <ele>1351.8</ele>
        <time>2021-03-23T07:50:18Z</time>
      </trkpt>
      <trkpt lat="46.00015" lon="6.49705">
        <ele>1352</ele>
        <time>2021-03-23T07:50:20Z</time>
      </trkpt>
      <trkpt lat="46.00014" lon="6.49703">
        <ele>1352.2</ele>
        <time>2021-03-23T07:50:22Z</time>
      </trkpt>
      <trkpt lat="46.00012" lon="6.49701">
        <ele>1352.4</ele>
        <time>2021-03-23T07:50:24Z</time>
      </trkpt>
      <trkpt lat="46.00011" lon="6.49699">
        <ele>1352.6</ele>
        <time>2021-03-23T07:50:26Z</time>
      </trkpt>
      <trkpt lat="46.00009" lon="6.49697">
        <ele>1352.6</ele>
        <time>2021-03-23T07:50:28Z</time>
      </trkpt>
      <trkpt lat="46.00007" lon="6.49695">
        <ele>1353</ele>
        <time>2021-03-23T07:50:30Z</time>
      </trkpt>
      <trkpt lat="46.00005" lon="6.49693">
        <ele>1353</ele>
        <time>2021-03-23T07:50:32Z</time>
      </trkpt>
      <trkpt lat="46.00004" lon="6.49691">
        <ele>1353</ele>
        <time>2021-03-23T07:50:34Z</time>
      </trkpt>
      <trkpt lat="46.00003" lon="6.49689">
        <ele>1352.8</ele>
        <time>2021-03-23T07:50:36Z</time>
      </trkpt>
      <trkpt lat="46.00001" lon="6.49687">
        <ele>1352.8</ele>
        <time>2021-03-23T07:50:38Z</time>
      </trkpt>
      <trkpt lat="45.99999" lon="6.49685">
        <ele>1353</ele>
        <time>2021-03-23T07:50:40Z</time>
      </trkpt>
      <trkpt lat="45.99998" lon="6.49683">
        <ele>1353</ele>
        <time>2021-03-23T07:50:42Z</time>
      </trkpt>
      <trkpt lat="45.99997" lon="6.49681">
        <ele>1353</ele>
        <time>2021-03-23T07:50:44Z</time>
      </trkpt>
      <trkpt lat="45.99995" lon="6.49679">
        <ele>1353.2</ele>
        <time>2021-03-23T07:50:46Z</time>
      </trkpt>
      <trkpt lat="45.99994" lon="6.49677">
        <ele>1353.4</ele>
        <time>2021-03-23T07:50:48Z</time>
      </trkpt>
      <trkpt lat="45.99992" lon="6.49676">
        <ele>1353.4</ele>
        <time>2021-03-23T07:50:50Z</time>
      </trkpt>
      <trkpt lat="45.99991" lon="6.49673">
        <ele>1353.4</ele>
        <time>2021-03-23T07:50:52Z</time>
      </trkpt>
      <trkpt lat="45.99989" lon="6.4967">
        <ele>1353.6</ele>
        <time>2021-03-23T07:50:54Z</time>
      </trkpt>
      <trkpt lat="45.99988" lon="6.49668">
        <ele>1353.6</ele>
        <time>2021-03-23T07:50:56Z</time>
      </trkpt>
      <trkpt lat="45.99987" lon="6.49665">
        <ele>1353.4</ele>
        <time>2021-03-23T07:50:58Z</time>
      </trkpt>
      <trkpt lat="45.99986" lon="6.49662">
        <ele>1353.4</ele>
        <time>2021-03-23T07:51:00Z</time>
      </trkpt>
      <trkpt lat="45.99985" lon="6.4966">
        <ele>1353.4</ele>
        <time>2021-03-23T07:51:02Z</time>
      </trkpt>
      <trkpt lat="45.99984" lon="6.49657">
        <ele>1353.6</ele>
        <time>2021-03-23T07:51:04Z</time>
      </trkpt>
      <trkpt lat="45.99982" lon="6.49654">
        <ele>1353.4</ele>
        <time>2021-03-23T07:51:06Z</time>
      </trkpt>
      <trkpt lat="45.99981" lon="6.49652">
        <ele>1353.6</ele>
        <time>2021-03-23T07:51:08Z</time>
      </trkpt>
      <trkpt lat="45.9998" lon="6.49649">
        <ele>1353.6</ele>
        <time>2021-03-23T07:51:10Z</time>
      </trkpt>
      <trkpt lat="45.99979" lon="6.49646">
        <ele>1353.6</ele>
        <time>2021-03-23T07:51:12Z</time>
      </trkpt>
      <trkpt lat="45.99978" lon="6.49643">
        <ele>1353.6</ele>
        <time>2021-03-23T07:51:14Z</time>
      </trkpt>
      <trkpt lat="45.99977" lon="6.4964">
        <ele>1353.4</ele>
        <time>2021-03-23T07:51:16Z</time>
      </trkpt>
      <trkpt lat="45.99976" lon="6.49637">
        <ele>1353.2</ele>
        <time>2021-03-23T07:51:18Z</time>
      </trkpt>
      <trkpt lat="45.99976" lon="6.49634">
        <ele>1353.2</ele>
        <time>2021-03-23T07:51:20Z</time>
      </trkpt>
      <trkpt lat="45.99975" lon="6.49631">
        <ele>1353.2</ele>
        <time>2021-03-23T07:51:22Z</time>
      </trkpt>
      <trkpt lat="45.99974" lon="6.49629">
        <ele>1353</ele>
        <time>2021-03-23T07:51:24Z</time>
      </trkpt>
      <trkpt lat="45.99972" lon="6.49626">
        <ele>1353.2</ele>
        <time>2021-03-23T07:51:26Z</time>
      </trkpt>
      <trkpt lat="45.99972" lon="6.49622">
        <ele>1353</ele>
        <time>2021-03-23T07:51:28Z</time>
      </trkpt>
      <trkpt lat="45.99971" lon="6.49619">
        <ele>1352.8</ele>
        <time>2021-03-23T07:51:30Z</time>
      </trkpt>
      <trkpt lat="45.9997" lon="6.49616">
        <ele>1352.8</ele>
        <time>2021-03-23T07:51:32Z</time>
      </trkpt>
      <trkpt lat="45.99969" lon="6.49612">
        <ele>1353</ele>
        <time>2021-03-23T07:51:34Z</time>
      </trkpt>
      <trkpt lat="45.99968" lon="6.49609">
        <ele>1353.2</ele>
        <time>2021-03-23T07:51:36Z</time>
      </trkpt>
      <trkpt lat="45.99967" lon="6.49605">
        <ele>1353.4</ele>
        <time>2021-03-23T07:51:38Z</time>
      </trkpt>
      <trkpt lat="45.99966" lon="6.49601">
        <ele>1353.2</ele>
        <time>2021-03-23T07:51:40Z</time>
      </trkpt>
      <trkpt lat="45.99966" lon="6.49598">
        <ele>1353.2</ele>
        <time>2021-03-23T07:51:42Z</time>
      </trkpt>
      <trkpt lat="45.99965" lon="6.49595">
        <ele>1353.2</ele>
        <time>2021-03-23T07:51:44Z</time>
      </trkpt>
      <trkpt lat="45.99964" lon="6.49592">
        <ele>1353</ele>
        <time>2021-03-23T07:51:46Z</time>
      </trkpt>
      <trkpt lat="45.99963" lon="6.49589">
        <ele>1352.8</ele>
        <time>2021-03-23T07:51:48Z</time>
      </trkpt>
      <trkpt lat="45.99962" lon="6.49585">
        <ele>1352.6</ele>
        <time>2021-03-23T07:51:50Z</time>
      </trkpt>
      <trkpt lat="45.99962" lon="6.49582">
        <ele>1352.6</ele>
        <time>2021-03-23T07:51:52Z</time>
      </trkpt>
      <trkpt lat="45.99961" lon="6.49579">
        <ele>1352.4</ele>
        <time>2021-03-23T07:51:54Z</time>
      </trkpt>
      <trkpt lat="45.9996" lon="6.49576">
        <ele>1352.6</ele>
        <time>2021-03-23T07:51:56Z</time>
      </trkpt>
      <trkpt lat="45.99959" lon="6.49573">
        <ele>1352.6</ele>
        <time>2021-03-23T07:51:58Z</time>
      </trkpt>
      <trkpt lat="45.99958" lon="6.4957">
        <ele>1352.8</ele>
        <time>2021-03-23T07:52:00Z</time>
      </trkpt>
      <trkpt lat="45.99957" lon="6.49567">
        <ele>1352.8</ele>
        <time>2021-03-23T07:52:02Z</time>
      </trkpt>
      <trkpt lat="45.99956" lon="6.49564">
        <ele>1352.8</ele>
        <time>2021-03-23T07:52:04Z</time>
      </trkpt>
      <trkpt lat="45.99955" lon="6.49561">
        <ele>1353</ele>
        <time>2021-03-23T07:52:07Z</time>
      </trkpt>
      <trkpt lat="45.99954" lon="6.49559">
        <ele>1353</ele>
        <time>2021-03-23T07:52:09Z</time>
      </trkpt>
      <trkpt lat="45.99953" lon="6.49556">
        <ele>1353.2</ele>
        <time>2021-03-23T07:52:11Z</time>
      </trkpt>
      <trkpt lat="45.99952" lon="6.49553">
        <ele>1353.2</ele>
        <time>2021-03-23T07:52:13Z</time>
      </trkpt>
      <trkpt lat="45.99951" lon="6.49551">
        <ele>1353.4</ele>
        <time>2021-03-23T07:52:15Z</time>
      </trkpt>
      <trkpt lat="45.9995" lon="6.49548">
        <ele>1353.4</ele>
        <time>2021-03-23T07:52:17Z</time>
      </trkpt>
      <trkpt lat="45.99949" lon="6.49546">
        <ele>1353.6</ele>
        <time>2021-03-23T07:52:19Z</time>
      </trkpt>
      <trkpt lat="45.99948" lon="6.49543">
        <ele>1353.8</ele>
        <time>2021-03-23T07:52:21Z</time>
      </trkpt>
      <trkpt lat="45.99946" lon="6.49541">
        <ele>1353.8</ele>
        <time>2021-03-23T07:52:23Z</time>
      </trkpt>
      <trkpt lat="45.99945" lon="6.49538">
        <ele>1353.8</ele>
        <time>2021-03-23T07:52:26Z</time>
      </trkpt>
      <trkpt lat="45.99944" lon="6.49536">
        <ele>1354</ele>
        <time>2021-03-23T07:52:28Z</time>
      </trkpt>
      <trkpt lat="45.99943" lon="6.49533">
        <ele>1354.2</ele>
        <time>2021-03-23T07:52:30Z</time>
      </trkpt>
      <trkpt lat="45.99942" lon="6.49531">
        <ele>1354.4</ele>
        <time>2021-03-23T07:52:33Z</time>
      </trkpt>
      <trkpt lat="45.99941" lon="6.49527">
        <ele>1354.2</ele>
        <time>2021-03-23T07:52:36Z</time>
      </trkpt>
      <trkpt lat="45.99939" lon="6.49524">
        <ele>1354.4</ele>
        <time>2021-03-23T07:52:39Z</time>
      </trkpt>
      <trkpt lat="45.99938" lon="6.49522">
        <ele>1354.4</ele>
        <time>2021-03-23T07:52:41Z</time>
      </trkpt>
      <trkpt lat="45.99938" lon="6.49519">
        <ele>1354.6</ele>
        <time>2021-03-23T07:52:43Z</time>
      </trkpt>
      <trkpt lat="45.99937" lon="6.49516">
        <ele>1354.2</ele>
        <time>2021-03-23T07:52:46Z</time>
      </trkpt>
      <trkpt lat="45.99936" lon="6.49513">
        <ele>1354.2</ele>
        <time>2021-03-23T07:52:49Z</time>
      </trkpt>
      <trkpt lat="45.99935" lon="6.4951">
        <ele>1354.2</ele>
        <time>2021-03-23T07:52:52Z</time>
      </trkpt>
      <trkpt lat="45.99935" lon="6.49507">
        <ele>1354.6</ele>
        <time>2021-03-23T07:52:55Z</time>
      </trkpt>
      <trkpt lat="45.99934" lon="6.49504">
        <ele>1355.2</ele>
        <time>2021-03-23T07:52:58Z</time>
      </trkpt>
      <trkpt lat="45.99933" lon="6.49501">
        <ele>1355.8</ele>
        <time>2021-03-23T07:53:01Z</time>
      </trkpt>
      <trkpt lat="45.99932" lon="6.49497">
        <ele>1356</ele>
        <time>2021-03-23T07:53:04Z</time>
      </trkpt>
      <trkpt lat="45.99931" lon="6.49494">
        <ele>1356.2</ele>
        <time>2021-03-23T07:53:07Z</time>
      </trkpt>
      <trkpt lat="45.9993" lon="6.49491">
        <ele>1356.4</ele>
        <time>2021-03-23T07:53:10Z</time>
      </trkpt>
      <trkpt lat="45.9993" lon="6.49487">
        <ele>1356.4</ele>
        <time>2021-03-23T07:53:13Z</time>
      </trkpt>
      <trkpt lat="45.99929" lon="6.49484">
        <ele>1356.6</ele>
        <time>2021-03-23T07:53:16Z</time>
      </trkpt>
      <trkpt lat="45.99928" lon="6.49481">
        <ele>1356.8</ele>
        <time>2021-03-23T07:53:19Z</time>
      </trkpt>
      <trkpt lat="45.99928" lon="6.49478">
        <ele>1357</ele>
        <time>2021-03-23T07:53:22Z</time>
      </trkpt>
      <trkpt lat="45.99927" lon="6.49475">
        <ele>1357</ele>
        <time>2021-03-23T07:53:25Z</time>
      </trkpt>
      <trkpt lat="45.99927" lon="6.49471">
        <ele>1357.4</ele>
        <time>2021-03-23T07:53:28Z</time>
      </trkpt>
      <trkpt lat="45.99926" lon="6.49469">
        <ele>1357.8</ele>
        <time>2021-03-23T07:53:31Z</time>
      </trkpt>
      <trkpt lat="45.99925" lon="6.49466">
        <ele>1358</ele>
        <time>2021-03-23T07:53:34Z</time>
      </trkpt>
      <trkpt lat="45.99924" lon="6.49463">
        <ele>1358.2</ele>
        <time>2021-03-23T07:53:37Z</time>
      </trkpt>
      <trkpt lat="45.99923" lon="6.4946">
        <ele>1358.6</ele>
        <time>2021-03-23T07:53:39Z</time>
      </trkpt>
      <trkpt lat="45.99922" lon="6.49457">
        <ele>1358.8</ele>
        <time>2021-03-23T07:53:42Z</time>
      </trkpt>
      <trkpt lat="45.99921" lon="6.49454">
        <ele>1359.2</ele>
        <time>2021-03-23T07:53:45Z</time>
      </trkpt>
      <trkpt lat="45.99921" lon="6.49451">
        <ele>1359.6</ele>
        <time>2021-03-23T07:53:48Z</time>
      </trkpt>
      <trkpt lat="45.99921" lon="6.49448">
        <ele>1360</ele>
        <time>2021-03-23T07:53:51Z</time>
      </trkpt>
      <trkpt lat="45.99921" lon="6.49444">
        <ele>1360.6</ele>
        <time>2021-03-23T07:53:54Z</time>
      </trkpt>
      <trkpt lat="45.9992" lon="6.49441">
        <ele>1361.2</ele>
        <time>2021-03-23T07:53:57Z</time>
      </trkpt>
      <trkpt lat="45.9992" lon="6.49437">
        <ele>1361.4</ele>
        <time>2021-03-23T07:54:00Z</time>
      </trkpt>
      <trkpt lat="45.9992" lon="6.49434">
        <ele>1361.6</ele>
        <time>2021-03-23T07:54:03Z</time>
      </trkpt>
      <trkpt lat="45.99919" lon="6.4943">
        <ele>1361.8</ele>
        <time>2021-03-23T07:54:06Z</time>
      </trkpt>
      <trkpt lat="45.99918" lon="6.49418">
        <ele>1361.6</ele>
        <time>2021-03-23T07:54:18Z</time>
      </trkpt>
      <trkpt lat="45.99918" lon="6.49407">
        <ele>1362</ele>
        <time>2021-03-23T07:54:26Z</time>
      </trkpt>
      <trkpt lat="45.99918" lon="6.49403">
        <ele>1362</ele>
        <time>2021-03-23T07:54:29Z</time>
      </trkpt>
      <trkpt lat="45.99917" lon="6.49399">
        <ele>1362.2</ele>
        <time>2021-03-23T07:54:32Z</time>
      </trkpt>
      <trkpt lat="45.99917" lon="6.49397">
        <ele>1362.4</ele>
        <time>2021-03-23T07:54:34Z</time>
      </trkpt>
      <trkpt lat="45.99916" lon="6.49394">
        <ele>1362.6</ele>
        <time>2021-03-23T07:54:37Z</time>
      </trkpt>
      <trkpt lat="45.99915" lon="6.49391">
        <ele>1362.6</ele>
        <time>2021-03-23T07:54:39Z</time>
      </trkpt>
      <trkpt lat="45.99916" lon="6.49388">
        <ele>1363</ele>
        <time>2021-03-23T07:54:42Z</time>
      </trkpt>
      <trkpt lat="45.99914" lon="6.49384">
        <ele>1363.2</ele>
        <time>2021-03-23T07:54:45Z</time>
      </trkpt>
      <trkpt lat="45.99913" lon="6.49381">
        <ele>1363.4</ele>
        <time>2021-03-23T07:54:48Z</time>
      </trkpt>
      <trkpt lat="45.99913" lon="6.49372">
        <ele>1363.6</ele>
        <time>2021-03-23T07:54:56Z</time>
      </trkpt>
      <trkpt lat="45.99913" lon="6.49369">
        <ele>1363.8</ele>
        <time>2021-03-23T07:54:59Z</time>
      </trkpt>
      <trkpt lat="45.99913" lon="6.49366">
        <ele>1364.4</ele>
        <time>2021-03-23T07:55:02Z</time>
      </trkpt>
      <trkpt lat="45.99913" lon="6.49363">
        <ele>1365.2</ele>
        <time>2021-03-23T07:55:05Z</time>
      </trkpt>
      <trkpt lat="45.99909" lon="6.49351">
        <ele>1366.4</ele>
        <time>2021-03-23T07:55:16Z</time>
      </trkpt>
      <trkpt lat="45.99905" lon="6.49339">
        <ele>1368.6</ele>
        <time>2021-03-23T07:55:29Z</time>
      </trkpt>
      <trkpt lat="45.99902" lon="6.49335">
        <ele>1369.4</ele>
        <time>2021-03-23T07:55:33Z</time>
      </trkpt>
      <trkpt lat="45.99901" lon="6.49333">
        <ele>1369.6</ele>
        <time>2021-03-23T07:55:35Z</time>
      </trkpt>
      <trkpt lat="45.999" lon="6.4933">
        <ele>1370.2</ele>
        <time>2021-03-23T07:55:37Z</time>
      </trkpt>
      <trkpt lat="45.99899" lon="6.49327">
        <ele>1370.4</ele>
        <time>2021-03-23T07:55:40Z</time>
      </trkpt>
      <trkpt lat="45.99898" lon="6.49324">
        <ele>1370.4</ele>
        <time>2021-03-23T07:55:43Z</time>
      </trkpt>
      <trkpt lat="45.99897" lon="6.49321">
        <ele>1370.6</ele>
        <time>2021-03-23T07:55:45Z</time>
      </trkpt>
      <trkpt lat="45.99896" lon="6.49319">
        <ele>1370.6</ele>
        <time>2021-03-23T07:55:47Z</time>
      </trkpt>
      <trkpt lat="45.99895" lon="6.49317">
        <ele>1370.4</ele>
        <time>2021-03-23T07:55:49Z</time>
      </trkpt>
      <trkpt lat="45.99892" lon="6.49311">
        <ele>1370.8</ele>
        <time>2021-03-23T07:55:57Z</time>
      </trkpt>
      <trkpt lat="45.9989" lon="6.49308">
        <ele>1370.8</ele>
        <time>2021-03-23T07:56:00Z</time>
      </trkpt>
      <trkpt lat="45.99889" lon="6.49306">
        <ele>1371.2</ele>
        <time>2021-03-23T07:56:03Z</time>
      </trkpt>
      <trkpt lat="45.99887" lon="6.49303">
        <ele>1371.8</ele>
        <time>2021-03-23T07:56:06Z</time>
      </trkpt>
      <trkpt lat="45.99886" lon="6.49301">
        <ele>1372.2</ele>
        <time>2021-03-23T07:56:09Z</time>
      </trkpt>
      <trkpt lat="45.99885" lon="6.49298">
        <ele>1372.6</ele>
        <time>2021-03-23T07:56:13Z</time>
      </trkpt>
      <trkpt lat="45.99883" lon="6.49295">
        <ele>1372.8</ele>
        <time>2021-03-23T07:56:17Z</time>
      </trkpt>
      <trkpt lat="45.99882" lon="6.49293">
        <ele>1373.2</ele>
        <time>2021-03-23T07:56:20Z</time>
      </trkpt>
      <trkpt lat="45.99881" lon="6.4929">
        <ele>1373.6</ele>
        <time>2021-03-23T07:56:23Z</time>
      </trkpt>
      <trkpt lat="45.99878" lon="6.49286">
        <ele>1375</ele>
        <time>2021-03-23T07:56:29Z</time>
      </trkpt>
      <trkpt lat="45.99874" lon="6.49279">
        <ele>1376.4</ele>
        <time>2021-03-23T07:56:37Z</time>
      </trkpt>
      <trkpt lat="45.99873" lon="6.49277">
        <ele>1376.8</ele>
        <time>2021-03-23T07:56:40Z</time>
      </trkpt>
      <trkpt lat="45.99872" lon="6.49275">
        <ele>1377</ele>
        <time>2021-03-23T07:56:43Z</time>
      </trkpt>
      <trkpt lat="45.9987" lon="6.49273">
        <ele>1377.4</ele>
        <time>2021-03-23T07:56:46Z</time>
      </trkpt>
      <trkpt lat="45.99869" lon="6.4927">
        <ele>1378.2</ele>
        <time>2021-03-23T07:56:50Z</time>
      </trkpt>
      <trkpt lat="45.99868" lon="6.49267">
        <ele>1378.6</ele>
        <time>2021-03-23T07:56:53Z</time>
      </trkpt>
      <trkpt lat="45.99867" lon="6.49264">
        <ele>1379</ele>
        <time>2021-03-23T07:56:57Z</time>
      </trkpt>
      <trkpt lat="45.99864" lon="6.49259">
        <ele>1380</ele>
        <time>2021-03-23T07:57:05Z</time>
      </trkpt>
      <trkpt lat="45.99862" lon="6.49257">
        <ele>1380.6</ele>
        <time>2021-03-23T07:57:08Z</time>
      </trkpt>
      <trkpt lat="45.99859" lon="6.49251">
        <ele>1382.8</ele>
        <time>2021-03-23T07:57:16Z</time>
      </trkpt>
      <trkpt lat="45.99857" lon="6.49248">
        <ele>1383</ele>
        <time>2021-03-23T07:57:19Z</time>
      </trkpt>
      <trkpt lat="45.99856" lon="6.49246">
        <ele>1383.6</ele>
        <time>2021-03-23T07:57:22Z</time>
      </trkpt>
      <trkpt lat="45.99855" lon="6.49243">
        <ele>1384</ele>
        <time>2021-03-23T07:57:25Z</time>
      </trkpt>
      <trkpt lat="45.99847" lon="6.49237">
        <ele>1386.6</ele>
        <time>2021-03-23T07:57:40Z</time>
      </trkpt>
      <trkpt lat="45.99847" lon="6.4923">
        <ele>1387.2</ele>
        <time>2021-03-23T07:57:50Z</time>
      </trkpt>
      <trkpt lat="45.99844" lon="6.49228">
        <ele>1387.6</ele>
        <time>2021-03-23T07:57:54Z</time>
      </trkpt>
      <trkpt lat="45.99842" lon="6.49225">
        <ele>1388.2</ele>
        <time>2021-03-23T07:57:57Z</time>
      </trkpt>
      <trkpt lat="45.9984" lon="6.49226">
        <ele>1388.6</ele>
        <time>2021-03-23T07:58:00Z</time>
      </trkpt>
      <trkpt lat="45.99834" lon="6.49215">
        <ele>1390.2</ele>
        <time>2021-03-23T07:58:12Z</time>
      </trkpt>
      <trkpt lat="45.99829" lon="6.4921">
        <ele>1391.6</ele>
        <time>2021-03-23T07:58:21Z</time>
      </trkpt>
      <trkpt lat="45.99826" lon="6.49205">
        <ele>1392.4</ele>
        <time>2021-03-23T07:58:28Z</time>
      </trkpt>
      <trkpt lat="45.99824" lon="6.49202">
        <ele>1392.8</ele>
        <time>2021-03-23T07:58:31Z</time>
      </trkpt>
      <trkpt lat="45.99819" lon="6.49189">
        <ele>1393.8</ele>
        <time>2021-03-23T07:58:42Z</time>
      </trkpt>
      <trkpt lat="45.99819" lon="6.49187">
        <ele>1394</ele>
        <time>2021-03-23T07:58:44Z</time>
      </trkpt>
      <trkpt lat="45.99818" lon="6.49184">
        <ele>1394</ele>
        <time>2021-03-23T07:58:46Z</time>
      </trkpt>
      <trkpt lat="45.99818" lon="6.49181">
        <ele>1394.6</ele>
        <time>2021-03-23T07:58:49Z</time>
      </trkpt>
      <trkpt lat="45.99817" lon="6.49178">
        <ele>1395</ele>
        <time>2021-03-23T07:58:52Z</time>
      </trkpt>
      <trkpt lat="45.99816" lon="6.49175">
        <ele>1395.2</ele>
        <time>2021-03-23T07:58:55Z</time>
      </trkpt>
      <trkpt lat="45.99814" lon="6.49172">
        <ele>1395.2</ele>
        <time>2021-03-23T07:58:58Z</time>
      </trkpt>
      <trkpt lat="45.99813" lon="6.49169">
        <ele>1396.4</ele>
        <time>2021-03-23T07:59:02Z</time>
      </trkpt>
      <trkpt lat="45.99812" lon="6.49168">
        <ele>1397</ele>
        <time>2021-03-23T07:59:05Z</time>
      </trkpt>
      <trkpt lat="45.9981" lon="6.49166">
        <ele>1397.6</ele>
        <time>2021-03-23T07:59:08Z</time>
      </trkpt>
      <trkpt lat="45.99808" lon="6.49164">
        <ele>1398.2</ele>
        <time>2021-03-23T07:59:11Z</time>
      </trkpt>
      <trkpt lat="45.99806" lon="6.49162">
        <ele>1399.2</ele>
        <time>2021-03-23T07:59:15Z</time>
      </trkpt>
      <trkpt lat="45.99805" lon="6.4916">
        <ele>1400</ele>
        <time>2021-03-23T07:59:19Z</time>
      </trkpt>
      <trkpt lat="45.99803" lon="6.49158">
        <ele>1400.4</ele>
        <time>2021-03-23T07:59:22Z</time>
      </trkpt>
      <trkpt lat="45.99802" lon="6.49155">
        <ele>1400.8</ele>
        <time>2021-03-23T07:59:25Z</time>
      </trkpt>
      <trkpt lat="45.99801" lon="6.49153">
        <ele>1401.2</ele>
        <time>2021-03-23T07:59:28Z</time>
      </trkpt>
      <trkpt lat="45.99799" lon="6.49151">
        <ele>1401.8</ele>
        <time>2021-03-23T07:59:32Z</time>
      </trkpt>
      <trkpt lat="45.99798" lon="6.49149">
        <ele>1402.2</ele>
        <time>2021-03-23T07:59:36Z</time>
      </trkpt>
      <trkpt lat="45.99796" lon="6.49146">
        <ele>1402.6</ele>
        <time>2021-03-23T07:59:39Z</time>
      </trkpt>
      <trkpt lat="45.99795" lon="6.49143">
        <ele>1403.4</ele>
        <time>2021-03-23T07:59:42Z</time>
      </trkpt>
      <trkpt lat="45.99794" lon="6.49141">
        <ele>1403.8</ele>
        <time>2021-03-23T07:59:45Z</time>
      </trkpt>
      <trkpt lat="45.99793" lon="6.49139">
        <ele>1404.4</ele>
        <time>2021-03-23T07:59:49Z</time>
      </trkpt>
      <trkpt lat="45.99791" lon="6.49136">
        <ele>1405</ele>
        <time>2021-03-23T07:59:52Z</time>
      </trkpt>
      <trkpt lat="45.9979" lon="6.49134">
        <ele>1406</ele>
        <time>2021-03-23T07:59:56Z</time>
      </trkpt>
      <trkpt lat="45.99788" lon="6.49132">
        <ele>1406.8</ele>
        <time>2021-03-23T08:00:00Z</time>
      </trkpt>
      <trkpt lat="45.99787" lon="6.49129">
        <ele>1407.4</ele>
        <time>2021-03-23T08:00:03Z</time>
      </trkpt>
      <trkpt lat="45.99786" lon="6.49127">
        <ele>1407.6</ele>
        <time>2021-03-23T08:00:06Z</time>
      </trkpt>
      <trkpt lat="45.99785" lon="6.49124">
        <ele>1407.8</ele>
        <time>2021-03-23T08:00:08Z</time>
      </trkpt>
      <trkpt lat="45.99784" lon="6.49121">
        <ele>1408.2</ele>
        <time>2021-03-23T08:00:11Z</time>
      </trkpt>
      <trkpt lat="45.99782" lon="6.49119">
        <ele>1408.4</ele>
        <time>2021-03-23T08:00:14Z</time>
      </trkpt>
      <trkpt lat="45.99781" lon="6.49117">
        <ele>1408.8</ele>
        <time>2021-03-23T08:00:17Z</time>
      </trkpt>
      <trkpt lat="45.99779" lon="6.49115">
        <ele>1408.8</ele>
        <time>2021-03-23T08:00:20Z</time>
      </trkpt>
      <trkpt lat="45.99778" lon="6.49112">
        <ele>1409</ele>
        <time>2021-03-23T08:00:22Z</time>
      </trkpt>
      <trkpt lat="45.99777" lon="6.49108">
        <ele>1409.2</ele>
        <time>2021-03-23T08:00:26Z</time>
      </trkpt>
      <trkpt lat="45.99776" lon="6.49105">
        <ele>1409.4</ele>
        <time>2021-03-23T08:00:29Z</time>
      </trkpt>
      <trkpt lat="45.99775" lon="6.49102">
        <ele>1409.6</ele>
        <time>2021-03-23T08:00:33Z</time>
      </trkpt>
      <trkpt lat="45.99774" lon="6.491">
        <ele>1409.6</ele>
        <time>2021-03-23T08:00:36Z</time>
      </trkpt>
      <trkpt lat="45.99775" lon="6.49097">
        <ele>1409.6</ele>
        <time>2021-03-23T08:00:39Z</time>
      </trkpt>
      <trkpt lat="45.99774" lon="6.49094">
        <ele>1409.8</ele>
        <time>2021-03-23T08:00:42Z</time>
      </trkpt>
      <trkpt lat="45.99772" lon="6.4909">
        <ele>1411.2</ele>
        <time>2021-03-23T08:00:47Z</time>
      </trkpt>
      <trkpt lat="45.99771" lon="6.49087">
        <ele>1411.4</ele>
        <time>2021-03-23T08:00:50Z</time>
      </trkpt>
      <trkpt lat="45.9977" lon="6.49084">
        <ele>1411.8</ele>
        <time>2021-03-23T08:00:52Z</time>
      </trkpt>
      <trkpt lat="45.99769" lon="6.49082">
        <ele>1412.2</ele>
        <time>2021-03-23T08:00:55Z</time>
      </trkpt>
      <trkpt lat="45.99768" lon="6.49079">
        <ele>1412.4</ele>
        <time>2021-03-23T08:00:58Z</time>
      </trkpt>
      <trkpt lat="45.99768" lon="6.49076">
        <ele>1412.6</ele>
        <time>2021-03-23T08:01:01Z</time>
      </trkpt>
      <trkpt lat="45.99767" lon="6.49074">
        <ele>1412.4</ele>
        <time>2021-03-23T08:01:03Z</time>
      </trkpt>
      <trkpt lat="45.99767" lon="6.49071">
        <ele>1412.6</ele>
        <time>2021-03-23T08:01:06Z</time>
      </trkpt>
      <trkpt lat="45.99766" lon="6.49068">
        <ele>1412.8</ele>
        <time>2021-03-23T08:01:09Z</time>
      </trkpt>
      <trkpt lat="45.99765" lon="6.49065">
        <ele>1413.2</ele>
        <time>2021-03-23T08:01:12Z</time>
      </trkpt>
      <trkpt lat="45.99764" lon="6.49062">
        <ele>1413</ele>
        <time>2021-03-23T08:01:15Z</time>
      </trkpt>
      <trkpt lat="45.99764" lon="6.49059">
        <ele>1412.8</ele>
        <time>2021-03-23T08:01:17Z</time>
      </trkpt>
      <trkpt lat="45.99763" lon="6.49056">
        <ele>1412.8</ele>
        <time>2021-03-23T08:01:20Z</time>
      </trkpt>
      <trkpt lat="45.99762" lon="6.49053">
        <ele>1412.8</ele>
        <time>2021-03-23T08:01:23Z</time>
      </trkpt>
      <trkpt lat="45.99763" lon="6.4905">
        <ele>1413</ele>
        <time>2021-03-23T08:01:26Z</time>
      </trkpt>
      <trkpt lat="45.99762" lon="6.49047">
        <ele>1413.6</ele>
        <time>2021-03-23T08:01:31Z</time>
      </trkpt>
      <trkpt lat="45.99761" lon="6.49045">
        <ele>1414.4</ele>
        <time>2021-03-23T08:01:35Z</time>
      </trkpt>
      <trkpt lat="45.9976" lon="6.49043">
        <ele>1414.8</ele>
        <time>2021-03-23T08:01:38Z</time>
      </trkpt>
      <trkpt lat="45.99759" lon="6.4904">
        <ele>1415.2</ele>
        <time>2021-03-23T08:01:42Z</time>
      </trkpt>
      <trkpt lat="45.99758" lon="6.49037">
        <ele>1415.4</ele>
        <time>2021-03-23T08:01:44Z</time>
      </trkpt>
      <trkpt lat="45.99758" lon="6.49035">
        <ele>1415.6</ele>
        <time>2021-03-23T08:01:46Z</time>
      </trkpt>
      <trkpt lat="45.99757" lon="6.49032">
        <ele>1415.8</ele>
        <time>2021-03-23T08:01:49Z</time>
      </trkpt>
      <trkpt lat="45.99755" lon="6.49029">
        <ele>1416</ele>
        <time>2021-03-23T08:01:52Z</time>
      </trkpt>
      <trkpt lat="45.99754" lon="6.49026">
        <ele>1416.2</ele>
        <time>2021-03-23T08:01:55Z</time>
      </trkpt>
      <trkpt lat="45.99753" lon="6.49023">
        <ele>1416.4</ele>
        <time>2021-03-23T08:01:57Z</time>
      </trkpt>
      <trkpt lat="45.99752" lon="6.49021">
        <ele>1416.4</ele>
        <time>2021-03-23T08:02:00Z</time>
      </trkpt>
      <trkpt lat="45.9975" lon="6.49018">
        <ele>1416.4</ele>
        <time>2021-03-23T08:02:03Z</time>
      </trkpt>
      <trkpt lat="45.99748" lon="6.49017">
        <ele>1416.6</ele>
        <time>2021-03-23T08:02:05Z</time>
      </trkpt>
      <trkpt lat="45.99747" lon="6.49015">
        <ele>1416.6</ele>
        <time>2021-03-23T08:02:07Z</time>
      </trkpt>
      <trkpt lat="45.99746" lon="6.49012">
        <ele>1416.4</ele>
        <time>2021-03-23T08:02:10Z</time>
      </trkpt>
      <trkpt lat="45.99745" lon="6.49009">
        <ele>1416.6</ele>
        <time>2021-03-23T08:02:14Z</time>
      </trkpt>
      <trkpt lat="45.99743" lon="6.49007">
        <ele>1416.8</ele>
        <time>2021-03-23T08:02:18Z</time>
      </trkpt>
      <trkpt lat="45.99742" lon="6.49004">
        <ele>1417</ele>
        <time>2021-03-23T08:02:21Z</time>
      </trkpt>
      <trkpt lat="45.9974" lon="6.49001">
        <ele>1417.4</ele>
        <time>2021-03-23T08:02:24Z</time>
      </trkpt>
      <trkpt lat="45.99739" lon="6.48998">
        <ele>1417.8</ele>
        <time>2021-03-23T08:02:27Z</time>
      </trkpt>
      <trkpt lat="45.99738" lon="6.48994">
        <ele>1418.2</ele>
        <time>2021-03-23T08:02:30Z</time>
      </trkpt>
      <trkpt lat="45.99736" lon="6.48991">
        <ele>1418.4</ele>
        <time>2021-03-23T08:02:33Z</time>
      </trkpt>
      <trkpt lat="45.99735" lon="6.48988">
        <ele>1418.4</ele>
        <time>2021-03-23T08:02:36Z</time>
      </trkpt>
      <trkpt lat="45.99734" lon="6.48986">
        <ele>1418.4</ele>
        <time>2021-03-23T08:02:38Z</time>
      </trkpt>
      <trkpt lat="45.99732" lon="6.48983">
        <ele>1419.2</ele>
        <time>2021-03-23T08:02:41Z</time>
      </trkpt>
      <trkpt lat="45.99731" lon="6.48981">
        <ele>1419.8</ele>
        <time>2021-03-23T08:02:44Z</time>
      </trkpt>
      <trkpt lat="45.9973" lon="6.48978">
        <ele>1420.2</ele>
        <time>2021-03-23T08:02:47Z</time>
      </trkpt>
      <trkpt lat="45.99728" lon="6.48976">
        <ele>1420.4</ele>
        <time>2021-03-23T08:02:49Z</time>
      </trkpt>
      <trkpt lat="45.99727" lon="6.48974">
        <ele>1420.6</ele>
        <time>2021-03-23T08:02:51Z</time>
      </trkpt>
      <trkpt lat="45.99726" lon="6.4897">
        <ele>1421</ele>
        <time>2021-03-23T08:02:54Z</time>
      </trkpt>
      <trkpt lat="45.99726" lon="6.48968">
        <ele>1421.4</ele>
        <time>2021-03-23T08:02:57Z</time>
      </trkpt>
      <trkpt lat="45.99725" lon="6.48965">
        <ele>1421.6</ele>
        <time>2021-03-23T08:03:00Z</time>
      </trkpt>
      <trkpt lat="45.99725" lon="6.48961">
        <ele>1421.8</ele>
        <time>2021-03-23T08:03:03Z</time>
      </trkpt>
      <trkpt lat="45.99724" lon="6.48959">
        <ele>1422.2</ele>
        <time>2021-03-23T08:03:05Z</time>
      </trkpt>
      <trkpt lat="45.99723" lon="6.48956">
        <ele>1422.6</ele>
        <time>2021-03-23T08:03:07Z</time>
      </trkpt>
      <trkpt lat="45.99722" lon="6.48953">
        <ele>1423</ele>
        <time>2021-03-23T08:03:10Z</time>
      </trkpt>
      <trkpt lat="45.99721" lon="6.4895">
        <ele>1423.6</ele>
        <time>2021-03-23T08:03:13Z</time>
      </trkpt>
      <trkpt lat="45.9972" lon="6.48947">
        <ele>1424.4</ele>
        <time>2021-03-23T08:03:16Z</time>
      </trkpt>
      <trkpt lat="45.99719" lon="6.48943">
        <ele>1424.6</ele>
        <time>2021-03-23T08:03:20Z</time>
      </trkpt>
      <trkpt lat="45.99718" lon="6.48941">
        <ele>1424.8</ele>
        <time>2021-03-23T08:03:22Z</time>
      </trkpt>
      <trkpt lat="45.99717" lon="6.48937">
        <ele>1424.8</ele>
        <time>2021-03-23T08:03:25Z</time>
      </trkpt>
      <trkpt lat="45.99717" lon="6.48934">
        <ele>1425</ele>
        <time>2021-03-23T08:03:27Z</time>
      </trkpt>
      <trkpt lat="45.99716" lon="6.48931">
        <ele>1425.2</ele>
        <time>2021-03-23T08:03:30Z</time>
      </trkpt>
      <trkpt lat="45.99715" lon="6.48927">
        <ele>1425</ele>
        <time>2021-03-23T08:03:33Z</time>
      </trkpt>
      <trkpt lat="45.99716" lon="6.48924">
        <ele>1425</ele>
        <time>2021-03-23T08:03:35Z</time>
      </trkpt>
      <trkpt lat="45.99715" lon="6.48921">
        <ele>1425</ele>
        <time>2021-03-23T08:03:37Z</time>
      </trkpt>
      <trkpt lat="45.99715" lon="6.48918">
        <ele>1425</ele>
        <time>2021-03-23T08:03:39Z</time>
      </trkpt>
      <trkpt lat="45.99714" lon="6.48915">
        <ele>1425</ele>
        <time>2021-03-23T08:03:41Z</time>
      </trkpt>
      <trkpt lat="45.99714" lon="6.48913">
        <ele>1425.2</ele>
        <time>2021-03-23T08:03:45Z</time>
      </trkpt>
      <trkpt lat="45.99712" lon="6.4891">
        <ele>1425.6</ele>
        <time>2021-03-23T08:03:49Z</time>
      </trkpt>
      <trkpt lat="45.99711" lon="6.48907">
        <ele>1425.6</ele>
        <time>2021-03-23T08:03:52Z</time>
      </trkpt>
      <trkpt lat="45.9971" lon="6.48905">
        <ele>1425.8</ele>
        <time>2021-03-23T08:03:55Z</time>
      </trkpt>
      <trkpt lat="45.99709" lon="6.48902">
        <ele>1426</ele>
        <time>2021-03-23T08:03:58Z</time>
      </trkpt>
      <trkpt lat="45.99708" lon="6.48899">
        <ele>1426</ele>
        <time>2021-03-23T08:04:00Z</time>
      </trkpt>
      <trkpt lat="45.99708" lon="6.48896">
        <ele>1426</ele>
        <time>2021-03-23T08:04:02Z</time>
      </trkpt>
      <trkpt lat="45.99708" lon="6.48894">
        <ele>1426.4</ele>
        <time>2021-03-23T08:04:05Z</time>
      </trkpt>
      <trkpt lat="45.99707" lon="6.48891">
        <ele>1427</ele>
        <time>2021-03-23T08:04:16Z</time>
      </trkpt>
      <trkpt lat="45.99705" lon="6.48887">
        <ele>1427</ele>
        <time>2021-03-23T08:04:18Z</time>
      </trkpt>
      <trkpt lat="45.99704" lon="6.48884">
        <ele>1427.2</ele>
        <time>2021-03-23T08:04:19Z</time>
      </trkpt>
      <trkpt lat="45.99703" lon="6.48881">
        <ele>1427.4</ele>
        <time>2021-03-23T08:04:21Z</time>
      </trkpt>
      <trkpt lat="45.99703" lon="6.48878">
        <ele>1427.4</ele>
        <time>2021-03-23T08:04:23Z</time>
      </trkpt>
      <trkpt lat="45.99702" lon="6.48875">
        <ele>1427.6</ele>
        <time>2021-03-23T08:04:25Z</time>
      </trkpt>
      <trkpt lat="45.997" lon="6.48872">
        <ele>1427.8</ele>
        <time>2021-03-23T08:04:27Z</time>
      </trkpt>
      <trkpt lat="45.99699" lon="6.4887">
        <ele>1427.6</ele>
        <time>2021-03-23T08:04:28Z</time>
      </trkpt>
      <trkpt lat="45.99697" lon="6.48867">
        <ele>1427.6</ele>
        <time>2021-03-23T08:04:30Z</time>
      </trkpt>
      <trkpt lat="45.99694" lon="6.48863">
        <ele>1427.8</ele>
        <time>2021-03-23T08:04:32Z</time>
      </trkpt>
      <trkpt lat="45.99692" lon="6.4886">
        <ele>1428</ele>
        <time>2021-03-23T08:04:34Z</time>
      </trkpt>
      <trkpt lat="45.99691" lon="6.48857">
        <ele>1428</ele>
        <time>2021-03-23T08:04:36Z</time>
      </trkpt>
      <trkpt lat="45.99689" lon="6.48855">
        <ele>1428</ele>
        <time>2021-03-23T08:04:38Z</time>
      </trkpt>
      <trkpt lat="45.99687" lon="6.48853">
        <ele>1428.2</ele>
        <time>2021-03-23T08:04:39Z</time>
      </trkpt>
      <trkpt lat="45.99685" lon="6.48849">
        <ele>1428.4</ele>
        <time>2021-03-23T08:04:41Z</time>
      </trkpt>
      <trkpt lat="45.99677" lon="6.48839">
        <ele>1428.8</ele>
        <time>2021-03-23T08:04:47Z</time>
      </trkpt>
      <trkpt lat="45.99675" lon="6.48837">
        <ele>1428.8</ele>
        <time>2021-03-23T08:04:48Z</time>
      </trkpt>
      <trkpt lat="45.99673" lon="6.48835">
        <ele>1428.8</ele>
        <time>2021-03-23T08:04:49Z</time>
      </trkpt>
      <trkpt lat="45.9967" lon="6.48833">
        <ele>1429</ele>
        <time>2021-03-23T08:04:51Z</time>
      </trkpt>
      <trkpt lat="45.99667" lon="6.48832">
        <ele>1429.2</ele>
        <time>2021-03-23T08:04:53Z</time>
      </trkpt>
      <trkpt lat="45.99666" lon="6.48831">
        <ele>1429.4</ele>
        <time>2021-03-23T08:04:54Z</time>
      </trkpt>
      <trkpt lat="45.99664" lon="6.4883">
        <ele>1429.8</ele>
        <time>2021-03-23T08:04:56Z</time>
      </trkpt>
      <trkpt lat="45.99662" lon="6.48828">
        <ele>1430</ele>
        <time>2021-03-23T08:04:58Z</time>
      </trkpt>
      <trkpt lat="45.99661" lon="6.48826">
        <ele>1430</ele>
        <time>2021-03-23T08:05:00Z</time>
      </trkpt>
      <trkpt lat="45.99659" lon="6.48823">
        <ele>1430.4</ele>
        <time>2021-03-23T08:05:02Z</time>
      </trkpt>
      <trkpt lat="45.99657" lon="6.48822">
        <ele>1430.4</ele>
        <time>2021-03-23T08:05:04Z</time>
      </trkpt>
      <trkpt lat="45.99655" lon="6.48822">
        <ele>1430.4</ele>
        <time>2021-03-23T08:05:06Z</time>
      </trkpt>
      <trkpt lat="45.99655" lon="6.48819">
        <ele>1429.8</ele>
        <time>2021-03-23T08:05:17Z</time>
      </trkpt>
      <trkpt lat="45.99655" lon="6.48816">
        <ele>1429</ele>
        <time>2021-03-23T08:05:32Z</time>
      </trkpt>
      <trkpt lat="45.99653" lon="6.48814">
        <ele>1429</ele>
        <time>2021-03-23T08:05:35Z</time>
      </trkpt>
      <trkpt lat="45.9965" lon="6.48813">
        <ele>1429</ele>
        <time>2021-03-23T08:05:36Z</time>
      </trkpt>
      <trkpt lat="45.99649" lon="6.48812">
        <ele>1429</ele>
        <time>2021-03-23T08:05:37Z</time>
      </trkpt>
      <trkpt lat="45.99646" lon="6.48811">
        <ele>1429.2</ele>
        <time>2021-03-23T08:05:39Z</time>
      </trkpt>
      <trkpt lat="45.99644" lon="6.4881">
        <ele>1429.2</ele>
        <time>2021-03-23T08:05:41Z</time>
      </trkpt>
      <trkpt lat="45.99641" lon="6.4881">
        <ele>1429.2</ele>
        <time>2021-03-23T08:05:43Z</time>
      </trkpt>
      <trkpt lat="45.99638" lon="6.48811">
        <ele>1429.2</ele>
        <time>2021-03-23T08:05:45Z</time>
      </trkpt>
      <trkpt lat="45.99635" lon="6.48812">
        <ele>1429.6</ele>
        <time>2021-03-23T08:05:48Z</time>
      </trkpt>
      <trkpt lat="45.99633" lon="6.48812">
        <ele>1429.4</ele>
        <time>2021-03-23T08:05:50Z</time>
      </trkpt>
      <trkpt lat="45.99633" lon="6.48815">
        <ele>1430.4</ele>
        <time>2021-03-23T08:06:11Z</time>
      </trkpt>
      <trkpt lat="45.99631" lon="6.48817">
        <ele>1429.2</ele>
        <time>2021-03-23T08:06:15Z</time>
      </trkpt>
      <trkpt lat="45.99633" lon="6.4882">
        <ele>1428.4</ele>
        <time>2021-03-23T08:06:19Z</time>
      </trkpt>
      <trkpt lat="45.99634" lon="6.48822">
        <ele>1428.4</ele>
        <time>2021-03-23T08:06:21Z</time>
      </trkpt>
      <trkpt lat="45.99634" lon="6.48826">
        <ele>1428.2</ele>
        <time>2021-03-23T08:06:24Z</time>
      </trkpt>
      <trkpt lat="45.99634" lon="6.48828">
        <ele>1427.8</ele>
        <time>2021-03-23T08:06:26Z</time>
      </trkpt>
      <trkpt lat="45.99634" lon="6.48831">
        <ele>1427.6</ele>
        <time>2021-03-23T08:06:28Z</time>
      </trkpt>
      <trkpt lat="45.99633" lon="6.48834">
        <ele>1427.4</ele>
        <time>2021-03-23T08:06:30Z</time>
      </trkpt>
      <trkpt lat="45.99633" lon="6.48836">
        <ele>1427.4</ele>
        <time>2021-03-23T08:06:33Z</time>
      </trkpt>
      <trkpt lat="45.99633" lon="6.48839">
        <ele>1427.6</ele>
        <time>2021-03-23T08:06:36Z</time>
      </trkpt>
      <trkpt lat="45.99633" lon="6.48841">
        <ele>1427.4</ele>
        <time>2021-03-23T08:06:38Z</time>
      </trkpt>
      <trkpt lat="45.99633" lon="6.48845">
        <ele>1427.2</ele>
        <time>2021-03-23T08:06:41Z</time>
      </trkpt>
      <trkpt lat="45.99632" lon="6.48848">
        <ele>1426.6</ele>
        <time>2021-03-23T08:06:44Z</time>
      </trkpt>
      <trkpt lat="45.99632" lon="6.48852">
        <ele>1426</ele>
        <time>2021-03-23T08:06:47Z</time>
      </trkpt>
      <trkpt lat="45.99632" lon="6.48855">
        <ele>1425.8</ele>
        <time>2021-03-23T08:06:50Z</time>
      </trkpt>
      <trkpt lat="45.99632" lon="6.48859">
        <ele>1425.6</ele>
        <time>2021-03-23T08:06:53Z</time>
      </trkpt>
      <trkpt lat="45.99632" lon="6.48862">
        <ele>1425.4</ele>
        <time>2021-03-23T08:06:56Z</time>
      </trkpt>
      <trkpt lat="45.99631" lon="6.48865">
        <ele>1425.4</ele>
        <time>2021-03-23T08:06:59Z</time>
      </trkpt>
      <trkpt lat="45.99631" lon="6.48868">
        <ele>1425.4</ele>
        <time>2021-03-23T08:07:01Z</time>
      </trkpt>
      <trkpt lat="45.9963" lon="6.48871">
        <ele>1425.4</ele>
        <time>2021-03-23T08:07:04Z</time>
      </trkpt>
      <trkpt lat="45.99629" lon="6.48874">
        <ele>1425.8</ele>
        <time>2021-03-23T08:07:06Z</time>
      </trkpt>
      <trkpt lat="45.99628" lon="6.48876">
        <ele>1426</ele>
        <time>2021-03-23T08:07:08Z</time>
      </trkpt>
      <trkpt lat="45.99627" lon="6.48879">
        <ele>1425.8</ele>
        <time>2021-03-23T08:07:10Z</time>
      </trkpt>
      <trkpt lat="45.99626" lon="6.48882">
        <ele>1426</ele>
        <time>2021-03-23T08:07:13Z</time>
      </trkpt>
      <trkpt lat="45.99625" lon="6.48885">
        <ele>1425.8</ele>
        <time>2021-03-23T08:07:16Z</time>
      </trkpt>
      <trkpt lat="45.99624" lon="6.48888">
        <ele>1425.6</ele>
        <time>2021-03-23T08:07:19Z</time>
      </trkpt>
      <trkpt lat="45.99623" lon="6.48891">
        <ele>1425.6</ele>
        <time>2021-03-23T08:07:22Z</time>
      </trkpt>
      <trkpt lat="45.99622" lon="6.48894">
        <ele>1425.8</ele>
        <time>2021-03-23T08:07:25Z</time>
      </trkpt>
      <trkpt lat="45.99621" lon="6.48897">
        <ele>1425.6</ele>
        <time>2021-03-23T08:07:28Z</time>
      </trkpt>
      <trkpt lat="45.99621" lon="6.48901">
        <ele>1425.4</ele>
        <time>2021-03-23T08:07:31Z</time>
      </trkpt>
      <trkpt lat="45.9962" lon="6.48904">
        <ele>1425.4</ele>
        <time>2021-03-23T08:07:34Z</time>
      </trkpt>
      <trkpt lat="45.9962" lon="6.48907">
        <ele>1425.6</ele>
        <time>2021-03-23T08:07:37Z</time>
      </trkpt>
      <trkpt lat="45.9962" lon="6.48911">
        <ele>1426</ele>
        <time>2021-03-23T08:07:40Z</time>
      </trkpt>
      <trkpt lat="45.99619" lon="6.48913">
        <ele>1426.6</ele>
        <time>2021-03-23T08:07:42Z</time>
      </trkpt>
      <trkpt lat="45.99618" lon="6.48916">
        <ele>1427.2</ele>
        <time>2021-03-23T08:07:45Z</time>
      </trkpt>
      <trkpt lat="45.99618" lon="6.48919">
        <ele>1427.4</ele>
        <time>2021-03-23T08:07:48Z</time>
      </trkpt>
      <trkpt lat="45.99618" lon="6.48923">
        <ele>1427.8</ele>
        <time>2021-03-23T08:07:51Z</time>
      </trkpt>
      <trkpt lat="45.99618" lon="6.48926">
        <ele>1428</ele>
        <time>2021-03-23T08:07:54Z</time>
      </trkpt>
      <trkpt lat="45.99617" lon="6.48929">
        <ele>1428.4</ele>
        <time>2021-03-23T08:07:57Z</time>
      </trkpt>
      <trkpt lat="45.99617" lon="6.48933">
        <ele>1428.6</ele>
        <time>2021-03-23T08:08:00Z</time>
      </trkpt>
      <trkpt lat="45.99617" lon="6.48936">
        <ele>1428.8</ele>
        <time>2021-03-23T08:08:03Z</time>
      </trkpt>
      <trkpt lat="45.99617" lon="6.4894">
        <ele>1428.8</ele>
        <time>2021-03-23T08:08:06Z</time>
      </trkpt>
      <trkpt lat="45.99617" lon="6.48943">
        <ele>1429</ele>
        <time>2021-03-23T08:08:09Z</time>
      </trkpt>
      <trkpt lat="45.99616" lon="6.48946">
        <ele>1429.2</ele>
        <time>2021-03-23T08:08:12Z</time>
      </trkpt>
      <trkpt lat="45.99616" lon="6.4895">
        <ele>1429.2</ele>
        <time>2021-03-23T08:08:15Z</time>
      </trkpt>
      <trkpt lat="45.99616" lon="6.48953">
        <ele>1429.4</ele>
        <time>2021-03-23T08:08:18Z</time>
      </trkpt>
      <trkpt lat="45.99617" lon="6.48956">
        <ele>1429.4</ele>
        <time>2021-03-23T08:08:20Z</time>
      </trkpt>
      <trkpt lat="45.99617" lon="6.48959">
        <ele>1429.6</ele>
        <time>2021-03-23T08:08:22Z</time>
      </trkpt>
      <trkpt lat="45.99617" lon="6.48962">
        <ele>1429.8</ele>
        <time>2021-03-23T08:08:25Z</time>
      </trkpt>
      <trkpt lat="45.99617" lon="6.48965">
        <ele>1430</ele>
        <time>2021-03-23T08:08:27Z</time>
      </trkpt>
      <trkpt lat="45.99617" lon="6.48968">
        <ele>1430</ele>
        <time>2021-03-23T08:08:29Z</time>
      </trkpt>
      <trkpt lat="45.99617" lon="6.4897">
        <ele>1430.2</ele>
        <time>2021-03-23T08:08:31Z</time>
      </trkpt>
      <trkpt lat="45.99618" lon="6.48974">
        <ele>1430.6</ele>
        <time>2021-03-23T08:08:34Z</time>
      </trkpt>
      <trkpt lat="45.99618" lon="6.48978">
        <ele>1430.8</ele>
        <time>2021-03-23T08:08:37Z</time>
      </trkpt>
      <trkpt lat="45.99618" lon="6.48981">
        <ele>1430.8</ele>
        <time>2021-03-23T08:08:39Z</time>
      </trkpt>
      <trkpt lat="45.99618" lon="6.48983">
        <ele>1431</ele>
        <time>2021-03-23T08:08:41Z</time>
      </trkpt>
      <trkpt lat="45.99618" lon="6.48986">
        <ele>1431.4</ele>
        <time>2021-03-23T08:08:43Z</time>
      </trkpt>
      <trkpt lat="45.99618" lon="6.4899">
        <ele>1431.6</ele>
        <time>2021-03-23T08:08:46Z</time>
      </trkpt>
      <trkpt lat="45.99618" lon="6.48993">
        <ele>1432.2</ele>
        <time>2021-03-23T08:08:49Z</time>
      </trkpt>
      <trkpt lat="45.99618" lon="6.48996">
        <ele>1432.6</ele>
        <time>2021-03-23T08:08:52Z</time>
      </trkpt>
      <trkpt lat="45.99618" lon="6.49">
        <ele>1432.8</ele>
        <time>2021-03-23T08:08:55Z</time>
      </trkpt>
      <trkpt lat="45.99618" lon="6.49004">
        <ele>1432.8</ele>
        <time>2021-03-23T08:08:58Z</time>
      </trkpt>
      <trkpt lat="45.99618" lon="6.49007">
        <ele>1433</ele>
        <time>2021-03-23T08:09:00Z</time>
      </trkpt>
      <trkpt lat="45.99617" lon="6.49009">
        <ele>1433.2</ele>
        <time>2021-03-23T08:09:02Z</time>
      </trkpt>
      <trkpt lat="45.99616" lon="6.49012">
        <ele>1433.2</ele>
        <time>2021-03-23T08:09:04Z</time>
      </trkpt>
      <trkpt lat="45.99615" lon="6.49015">
        <ele>1433.4</ele>
        <time>2021-03-23T08:09:07Z</time>
      </trkpt>
      <trkpt lat="45.99614" lon="6.49018">
        <ele>1433.6</ele>
        <time>2021-03-23T08:09:10Z</time>
      </trkpt>
      <trkpt lat="45.99613" lon="6.49021">
        <ele>1433.6</ele>
        <time>2021-03-23T08:09:13Z</time>
      </trkpt>
      <trkpt lat="45.99612" lon="6.49024">
        <ele>1433.8</ele>
        <time>2021-03-23T08:09:16Z</time>
      </trkpt>
      <trkpt lat="45.99611" lon="6.49027">
        <ele>1434</ele>
        <time>2021-03-23T08:09:19Z</time>
      </trkpt>
      <trkpt lat="45.9961" lon="6.4903">
        <ele>1434.2</ele>
        <time>2021-03-23T08:09:22Z</time>
      </trkpt>
      <trkpt lat="45.99609" lon="6.49033">
        <ele>1434.2</ele>
        <time>2021-03-23T08:09:25Z</time>
      </trkpt>
      <trkpt lat="45.99608" lon="6.49036">
        <ele>1434.2</ele>
        <time>2021-03-23T08:09:28Z</time>
      </trkpt>
      <trkpt lat="45.99606" lon="6.49039">
        <ele>1434.4</ele>
        <time>2021-03-23T08:09:31Z</time>
      </trkpt>
      <trkpt lat="45.99605" lon="6.49041">
        <ele>1434.6</ele>
        <time>2021-03-23T08:09:33Z</time>
      </trkpt>
      <trkpt lat="45.99604" lon="6.49043">
        <ele>1434.8</ele>
        <time>2021-03-23T08:09:35Z</time>
      </trkpt>
      <trkpt lat="45.99602" lon="6.49046">
        <ele>1434.8</ele>
        <time>2021-03-23T08:09:37Z</time>
      </trkpt>
      <trkpt lat="45.99601" lon="6.49048">
        <ele>1434.8</ele>
        <time>2021-03-23T08:09:39Z</time>
      </trkpt>
      <trkpt lat="45.99599" lon="6.4905">
        <ele>1435</ele>
        <time>2021-03-23T08:09:41Z</time>
      </trkpt>
      <trkpt lat="45.99597" lon="6.49053">
        <ele>1435.2</ele>
        <time>2021-03-23T08:09:43Z</time>
      </trkpt>
      <trkpt lat="45.99596" lon="6.49057">
        <ele>1435.4</ele>
        <time>2021-03-23T08:09:45Z</time>
      </trkpt>
      <trkpt lat="45.99595" lon="6.49061">
        <ele>1435.4</ele>
        <time>2021-03-23T08:09:47Z</time>
      </trkpt>
      <trkpt lat="45.99593" lon="6.49064">
        <ele>1435.4</ele>
        <time>2021-03-23T08:09:49Z</time>
      </trkpt>
      <trkpt lat="45.99593" lon="6.49067">
        <ele>1435.4</ele>
        <time>2021-03-23T08:09:51Z</time>
      </trkpt>
      <trkpt lat="45.99592" lon="6.49069">
        <ele>1435.6</ele>
        <time>2021-03-23T08:09:54Z</time>
      </trkpt>
      <trkpt lat="45.9959" lon="6.49073">
        <ele>1435.6</ele>
        <time>2021-03-23T08:09:57Z</time>
      </trkpt>
      <trkpt lat="45.99589" lon="6.49076">
        <ele>1435.8</ele>
        <time>2021-03-23T08:09:59Z</time>
      </trkpt>
      <trkpt lat="45.99589" lon="6.49079">
        <ele>1435.8</ele>
        <time>2021-03-23T08:10:01Z</time>
      </trkpt>
      <trkpt lat="45.99588" lon="6.49083">
        <ele>1435.6</ele>
        <time>2021-03-23T08:10:03Z</time>
      </trkpt>
      <trkpt lat="45.99588" lon="6.49087">
        <ele>1435.8</ele>
        <time>2021-03-23T08:10:05Z</time>
      </trkpt>
      <trkpt lat="45.99588" lon="6.49092">
        <ele>1436</ele>
        <time>2021-03-23T08:10:07Z</time>
      </trkpt>
      <trkpt lat="45.99588" lon="6.49096">
        <ele>1436</ele>
        <time>2021-03-23T08:10:09Z</time>
      </trkpt>
      <trkpt lat="45.99588" lon="6.491">
        <ele>1436</ele>
        <time>2021-03-23T08:10:11Z</time>
      </trkpt>
      <trkpt lat="45.99588" lon="6.49103">
        <ele>1436</ele>
        <time>2021-03-23T08:10:12Z</time>
      </trkpt>
      <trkpt lat="45.99588" lon="6.49106">
        <ele>1436</ele>
        <time>2021-03-23T08:10:13Z</time>
      </trkpt>
      <trkpt lat="45.99587" lon="6.49109">
        <ele>1436</ele>
        <time>2021-03-23T08:10:14Z</time>
      </trkpt>
      <trkpt lat="45.99587" lon="6.49114">
        <ele>1436.2</ele>
        <time>2021-03-23T08:10:16Z</time>
      </trkpt>
      <trkpt lat="45.99588" lon="6.49117">
        <ele>1436.4</ele>
        <time>2021-03-23T08:10:18Z</time>
      </trkpt>
      <trkpt lat="45.99589" lon="6.49119">
        <ele>1436.6</ele>
        <time>2021-03-23T08:10:20Z</time>
      </trkpt>
      <trkpt lat="45.99591" lon="6.49121">
        <ele>1436.8</ele>
        <time>2021-03-23T08:10:22Z</time>
      </trkpt>
      <trkpt lat="45.99592" lon="6.49124">
        <ele>1436.8</ele>
        <time>2021-03-23T08:10:24Z</time>
      </trkpt>
      <trkpt lat="45.99592" lon="6.49127">
        <ele>1436.8</ele>
        <time>2021-03-23T08:10:28Z</time>
      </trkpt>
      <trkpt lat="45.99592" lon="6.49131">
        <ele>1436.8</ele>
        <time>2021-03-23T08:10:30Z</time>
      </trkpt>
      <trkpt lat="45.99592" lon="6.49135">
        <ele>1437</ele>
        <time>2021-03-23T08:10:32Z</time>
      </trkpt>
      <trkpt lat="45.99593" lon="6.49138">
        <ele>1436.8</ele>
        <time>2021-03-23T08:10:34Z</time>
      </trkpt>
      <trkpt lat="45.99594" lon="6.49142">
        <ele>1436.6</ele>
        <time>2021-03-23T08:10:36Z</time>
      </trkpt>
      <trkpt lat="45.99594" lon="6.49146">
        <ele>1436.4</ele>
        <time>2021-03-23T08:10:38Z</time>
      </trkpt>
      <trkpt lat="45.99596" lon="6.4915">
        <ele>1436.6</ele>
        <time>2021-03-23T08:10:40Z</time>
      </trkpt>
      <trkpt lat="45.99597" lon="6.49153">
        <ele>1436.6</ele>
        <time>2021-03-23T08:10:42Z</time>
      </trkpt>
      <trkpt lat="45.99595" lon="6.49154">
        <ele>1436.4</ele>
        <time>2021-03-23T08:10:48Z</time>
      </trkpt>
      <trkpt lat="45.99595" lon="6.49157">
        <ele>1435.4</ele>
        <time>2021-03-23T08:10:57Z</time>
      </trkpt>
      <trkpt lat="45.996" lon="6.49169">
        <ele>1435.6</ele>
        <time>2021-03-23T08:11:04Z</time>
      </trkpt>
      <trkpt lat="45.99603" lon="6.49183">
        <ele>1436.4</ele>
        <time>2021-03-23T08:11:11Z</time>
      </trkpt>
      <trkpt lat="45.99605" lon="6.49195">
        <ele>1437.4</ele>
        <time>2021-03-23T08:11:18Z</time>
      </trkpt>
      <trkpt lat="45.99606" lon="6.49198">
        <ele>1437.6</ele>
        <time>2021-03-23T08:11:20Z</time>
      </trkpt>
      <trkpt lat="45.99605" lon="6.49202">
        <ele>1438</ele>
        <time>2021-03-23T08:11:22Z</time>
      </trkpt>
      <trkpt lat="45.99605" lon="6.49204">
        <ele>1438.6</ele>
        <time>2021-03-23T08:11:24Z</time>
      </trkpt>
      <trkpt lat="45.99605" lon="6.49208">
        <ele>1438.8</ele>
        <time>2021-03-23T08:11:26Z</time>
      </trkpt>
      <trkpt lat="45.99606" lon="6.49211">
        <ele>1438.8</ele>
        <time>2021-03-23T08:11:28Z</time>
      </trkpt>
      <trkpt lat="45.99606" lon="6.49214">
        <ele>1439</ele>
        <time>2021-03-23T08:11:30Z</time>
      </trkpt>
      <trkpt lat="45.99607" lon="6.49218">
        <ele>1439</ele>
        <time>2021-03-23T08:11:32Z</time>
      </trkpt>
      <trkpt lat="45.99607" lon="6.49221">
        <ele>1439.2</ele>
        <time>2021-03-23T08:11:34Z</time>
      </trkpt>
      <trkpt lat="45.99607" lon="6.49225">
        <ele>1439.2</ele>
        <time>2021-03-23T08:11:36Z</time>
      </trkpt>
      <trkpt lat="45.99608" lon="6.49229">
        <ele>1439.6</ele>
        <time>2021-03-23T08:11:38Z</time>
      </trkpt>
      <trkpt lat="45.99609" lon="6.49232">
        <ele>1439.8</ele>
        <time>2021-03-23T08:11:40Z</time>
      </trkpt>
      <trkpt lat="45.99611" lon="6.49236">
        <ele>1440</ele>
        <time>2021-03-23T08:11:42Z</time>
      </trkpt>
      <trkpt lat="45.99613" lon="6.49239">
        <ele>1440.4</ele>
        <time>2021-03-23T08:11:44Z</time>
      </trkpt>
      <trkpt lat="45.99615" lon="6.49242">
        <ele>1440.4</ele>
        <time>2021-03-23T08:11:46Z</time>
      </trkpt>
      <trkpt lat="45.99615" lon="6.49246">
        <ele>1440.2</ele>
        <time>2021-03-23T08:11:48Z</time>
      </trkpt>
      <trkpt lat="45.99616" lon="6.4925">
        <ele>1440.2</ele>
        <time>2021-03-23T08:11:50Z</time>
      </trkpt>
      <trkpt lat="45.99617" lon="6.49253">
        <ele>1440.2</ele>
        <time>2021-03-23T08:11:52Z</time>
      </trkpt>
      <trkpt lat="45.99618" lon="6.49256">
        <ele>1440.4</ele>
        <time>2021-03-23T08:11:54Z</time>
      </trkpt>
      <trkpt lat="45.99619" lon="6.4926">
        <ele>1440.6</ele>
        <time>2021-03-23T08:11:56Z</time>
      </trkpt>
      <trkpt lat="45.9962" lon="6.49264">
        <ele>1440.8</ele>
        <time>2021-03-23T08:11:58Z</time>
      </trkpt>
      <trkpt lat="45.99621" lon="6.49266">
        <ele>1440.8</ele>
        <time>2021-03-23T08:11:59Z</time>
      </trkpt>
      <trkpt lat="45.99622" lon="6.4927">
        <ele>1441</ele>
        <time>2021-03-23T08:12:01Z</time>
      </trkpt>
      <trkpt lat="45.99623" lon="6.49273">
        <ele>1441.2</ele>
        <time>2021-03-23T08:12:03Z</time>
      </trkpt>
      <trkpt lat="45.99623" lon="6.49276">
        <ele>1441.4</ele>
        <time>2021-03-23T08:12:05Z</time>
      </trkpt>
      <trkpt lat="45.99624" lon="6.49279">
        <ele>1441.6</ele>
        <time>2021-03-23T08:12:07Z</time>
      </trkpt>
      <trkpt lat="45.99626" lon="6.49282">
        <ele>1441.8</ele>
        <time>2021-03-23T08:12:08Z</time>
      </trkpt>
      <trkpt lat="45.99626" lon="6.49284">
        <ele>1441.8</ele>
        <time>2021-03-23T08:12:09Z</time>
      </trkpt>
      <trkpt lat="45.99626" lon="6.49288">
        <ele>1441.6</ele>
        <time>2021-03-23T08:12:11Z</time>
      </trkpt>
      <trkpt lat="45.99626" lon="6.49292">
        <ele>1441.8</ele>
        <time>2021-03-23T08:12:13Z</time>
      </trkpt>
      <trkpt lat="45.99627" lon="6.49295">
        <ele>1441.8</ele>
        <time>2021-03-23T08:12:15Z</time>
      </trkpt>
      <trkpt lat="45.99628" lon="6.49299">
        <ele>1442</ele>
        <time>2021-03-23T08:12:17Z</time>
      </trkpt>
      <trkpt lat="45.99628" lon="6.49302">
        <ele>1442</ele>
        <time>2021-03-23T08:12:19Z</time>
      </trkpt>
      <trkpt lat="45.99629" lon="6.49304">
        <ele>1442</ele>
        <time>2021-03-23T08:12:21Z</time>
      </trkpt>
      <trkpt lat="45.99629" lon="6.49308">
        <ele>1442.2</ele>
        <time>2021-03-23T08:12:24Z</time>
      </trkpt>
      <trkpt lat="45.99628" lon="6.49311">
        <ele>1442.2</ele>
        <time>2021-03-23T08:12:26Z</time>
      </trkpt>
      <trkpt lat="45.99629" lon="6.49314">
        <ele>1442.6</ele>
        <time>2021-03-23T08:12:28Z</time>
      </trkpt>
      <trkpt lat="45.99631" lon="6.49318">
        <ele>1442.8</ele>
        <time>2021-03-23T08:12:30Z</time>
      </trkpt>
      <trkpt lat="45.99633" lon="6.49322">
        <ele>1443.2</ele>
        <time>2021-03-23T08:12:32Z</time>
      </trkpt>
      <trkpt lat="45.99634" lon="6.49326">
        <ele>1443.4</ele>
        <time>2021-03-23T08:12:34Z</time>
      </trkpt>
      <trkpt lat="45.99634" lon="6.4933">
        <ele>1443.2</ele>
        <time>2021-03-23T08:12:36Z</time>
      </trkpt>
      <trkpt lat="45.99634" lon="6.49333">
        <ele>1443</ele>
        <time>2021-03-23T08:12:38Z</time>
      </trkpt>
      <trkpt lat="45.99633" lon="6.49336">
        <ele>1443.2</ele>
        <time>2021-03-23T08:12:40Z</time>
      </trkpt>
      <trkpt lat="45.99633" lon="6.49338">
        <ele>1443.2</ele>
        <time>2021-03-23T08:12:42Z</time>
      </trkpt>
      <trkpt lat="45.99633" lon="6.49341">
        <ele>1443.4</ele>
        <time>2021-03-23T08:12:44Z</time>
      </trkpt>
      <trkpt lat="45.99633" lon="6.49345">
        <ele>1443.6</ele>
        <time>2021-03-23T08:12:47Z</time>
      </trkpt>
      <trkpt lat="45.99632" lon="6.49347">
        <ele>1443.4</ele>
        <time>2021-03-23T08:12:49Z</time>
      </trkpt>
      <trkpt lat="45.99631" lon="6.4935">
        <ele>1443.2</ele>
        <time>2021-03-23T08:12:51Z</time>
      </trkpt>
      <trkpt lat="45.9963" lon="6.49354">
        <ele>1443.4</ele>
        <time>2021-03-23T08:12:53Z</time>
      </trkpt>
      <trkpt lat="45.9963" lon="6.49357">
        <ele>1443.2</ele>
        <time>2021-03-23T08:12:55Z</time>
      </trkpt>
      <trkpt lat="45.99629" lon="6.49361">
        <ele>1443</ele>
        <time>2021-03-23T08:12:57Z</time>
      </trkpt>
      <trkpt lat="45.99629" lon="6.49364">
        <ele>1442.8</ele>
        <time>2021-03-23T08:12:59Z</time>
      </trkpt>
      <trkpt lat="45.99627" lon="6.49367">
        <ele>1442.6</ele>
        <time>2021-03-23T08:13:01Z</time>
      </trkpt>
      <trkpt lat="45.99625" lon="6.4937">
        <ele>1442.4</ele>
        <time>2021-03-23T08:13:03Z</time>
      </trkpt>
      <trkpt lat="45.99624" lon="6.49373">
        <ele>1442.2</ele>
        <time>2021-03-23T08:13:05Z</time>
      </trkpt>
      <trkpt lat="45.99623" lon="6.49376">
        <ele>1442.2</ele>
        <time>2021-03-23T08:13:07Z</time>
      </trkpt>
      <trkpt lat="45.99621" lon="6.49378">
        <ele>1442.2</ele>
        <time>2021-03-23T08:13:09Z</time>
      </trkpt>
      <trkpt lat="45.99621" lon="6.49382">
        <ele>1442</ele>
        <time>2021-03-23T08:13:11Z</time>
      </trkpt>
      <trkpt lat="45.99619" lon="6.49385">
        <ele>1442</ele>
        <time>2021-03-23T08:13:13Z</time>
      </trkpt>
      <trkpt lat="45.99618" lon="6.49387">
        <ele>1442</ele>
        <time>2021-03-23T08:13:20Z</time>
      </trkpt>
      <trkpt lat="45.99617" lon="6.49389">
        <ele>1442</ele>
        <time>2021-03-23T08:13:22Z</time>
      </trkpt>
      <trkpt lat="45.99616" lon="6.49392">
        <ele>1442</ele>
        <time>2021-03-23T08:13:24Z</time>
      </trkpt>
      <trkpt lat="45.99615" lon="6.49394">
        <ele>1442</ele>
        <time>2021-03-23T08:13:26Z</time>
      </trkpt>
      <trkpt lat="45.99614" lon="6.49397">
        <ele>1442</ele>
        <time>2021-03-23T08:13:28Z</time>
      </trkpt>
      <trkpt lat="45.99613" lon="6.49401">
        <ele>1442</ele>
        <time>2021-03-23T08:13:30Z</time>
      </trkpt>
      <trkpt lat="45.99613" lon="6.49404">
        <ele>1441.8</ele>
        <time>2021-03-23T08:13:32Z</time>
      </trkpt>
      <trkpt lat="45.99612" lon="6.49408">
        <ele>1441.6</ele>
        <time>2021-03-23T08:13:34Z</time>
      </trkpt>
      <trkpt lat="45.99612" lon="6.49412">
        <ele>1441.6</ele>
        <time>2021-03-23T08:13:36Z</time>
      </trkpt>
      <trkpt lat="45.99611" lon="6.49416">
        <ele>1441.4</ele>
        <time>2021-03-23T08:13:38Z</time>
      </trkpt>
      <trkpt lat="45.9961" lon="6.49418">
        <ele>1440.8</ele>
        <time>2021-03-23T08:13:40Z</time>
      </trkpt>
      <trkpt lat="45.9961" lon="6.49422">
        <ele>1439.4</ele>
        <time>2021-03-23T08:14:43Z</time>
      </trkpt>
      <trkpt lat="45.99609" lon="6.49426">
        <ele>1439.4</ele>
        <time>2021-03-23T08:14:45Z</time>
      </trkpt>
      <trkpt lat="45.99608" lon="6.4943">
        <ele>1439.4</ele>
        <time>2021-03-23T08:14:47Z</time>
      </trkpt>
      <trkpt lat="45.99607" lon="6.49434">
        <ele>1439.2</ele>
        <time>2021-03-23T08:14:49Z</time>
      </trkpt>
      <trkpt lat="45.99606" lon="6.49438">
        <ele>1439.2</ele>
        <time>2021-03-23T08:14:51Z</time>
      </trkpt>
      <trkpt lat="45.99606" lon="6.49441">
        <ele>1439</ele>
        <time>2021-03-23T08:14:52Z</time>
      </trkpt>
      <trkpt lat="45.99605" lon="6.49444">
        <ele>1439</ele>
        <time>2021-03-23T08:14:53Z</time>
      </trkpt>
      <trkpt lat="45.99604" lon="6.49446">
        <ele>1438.8</ele>
        <time>2021-03-23T08:14:54Z</time>
      </trkpt>
      <trkpt lat="45.99603" lon="6.49449">
        <ele>1438.8</ele>
        <time>2021-03-23T08:14:55Z</time>
      </trkpt>
      <trkpt lat="45.99603" lon="6.49452">
        <ele>1438.6</ele>
        <time>2021-03-23T08:14:56Z</time>
      </trkpt>
      <trkpt lat="45.99602" lon="6.49455">
        <ele>1438.6</ele>
        <time>2021-03-23T08:14:57Z</time>
      </trkpt>
      <trkpt lat="45.99602" lon="6.49458">
        <ele>1438.6</ele>
        <time>2021-03-23T08:14:58Z</time>
      </trkpt>
      <trkpt lat="45.99601" lon="6.49462">
        <ele>1438.6</ele>
        <time>2021-03-23T08:15:00Z</time>
      </trkpt>
      <trkpt lat="45.996" lon="6.49467">
        <ele>1438.4</ele>
        <time>2021-03-23T08:15:02Z</time>
      </trkpt>
      <trkpt lat="45.99599" lon="6.4947">
        <ele>1438.2</ele>
        <time>2021-03-23T08:15:03Z</time>
      </trkpt>
      <trkpt lat="45.99599" lon="6.49472">
        <ele>1438</ele>
        <time>2021-03-23T08:15:04Z</time>
      </trkpt>
      <trkpt lat="45.99598" lon="6.49477">
        <ele>1437.8</ele>
        <time>2021-03-23T08:15:06Z</time>
      </trkpt>
      <trkpt lat="45.99598" lon="6.4948">
        <ele>1437.6</ele>
        <time>2021-03-23T08:15:07Z</time>
      </trkpt>
      <trkpt lat="45.99597" lon="6.49483">
        <ele>1437.2</ele>
        <time>2021-03-23T08:15:08Z</time>
      </trkpt>
      <trkpt lat="45.99597" lon="6.49485">
        <ele>1437</ele>
        <time>2021-03-23T08:15:09Z</time>
      </trkpt>
      <trkpt lat="45.99596" lon="6.49488">
        <ele>1436.8</ele>
        <time>2021-03-23T08:15:10Z</time>
      </trkpt>
      <trkpt lat="45.99596" lon="6.49491">
        <ele>1436.4</ele>
        <time>2021-03-23T08:15:11Z</time>
      </trkpt>
      <trkpt lat="45.99595" lon="6.49494">
        <ele>1436.2</ele>
        <time>2021-03-23T08:15:12Z</time>
      </trkpt>
      <trkpt lat="45.99595" lon="6.49497">
        <ele>1436</ele>
        <time>2021-03-23T08:15:13Z</time>
      </trkpt>
      <trkpt lat="45.99594" lon="6.49499">
        <ele>1435.8</ele>
        <time>2021-03-23T08:15:14Z</time>
      </trkpt>
      <trkpt lat="45.99594" lon="6.49503">
        <ele>1435.6</ele>
        <time>2021-03-23T08:15:16Z</time>
      </trkpt>
      <trkpt lat="45.99595" lon="6.49507">
        <ele>1435.2</ele>
        <time>2021-03-23T08:15:18Z</time>
      </trkpt>
      <trkpt lat="45.99596" lon="6.49512">
        <ele>1435.2</ele>
        <time>2021-03-23T08:15:20Z</time>
      </trkpt>
      <trkpt lat="45.99596" lon="6.49514">
        <ele>1435.2</ele>
        <time>2021-03-23T08:15:21Z</time>
      </trkpt>
      <trkpt lat="45.99597" lon="6.49519">
        <ele>1435.4</ele>
        <time>2021-03-23T08:15:23Z</time>
      </trkpt>
      <trkpt lat="45.99597" lon="6.49523">
        <ele>1435.4</ele>
        <time>2021-03-23T08:15:25Z</time>
      </trkpt>
      <trkpt lat="45.99598" lon="6.49527">
        <ele>1435.6</ele>
        <time>2021-03-23T08:15:27Z</time>
      </trkpt>
      <trkpt lat="45.99598" lon="6.49531">
        <ele>1435.4</ele>
        <time>2021-03-23T08:15:29Z</time>
      </trkpt>
      <trkpt lat="45.99599" lon="6.49535">
        <ele>1435.2</ele>
        <time>2021-03-23T08:15:31Z</time>
      </trkpt>
      <trkpt lat="45.99599" lon="6.49538">
        <ele>1435.2</ele>
        <time>2021-03-23T08:15:32Z</time>
      </trkpt>
      <trkpt lat="45.996" lon="6.49541">
        <ele>1435.2</ele>
        <time>2021-03-23T08:15:33Z</time>
      </trkpt>
      <trkpt lat="45.996" lon="6.49544">
        <ele>1435</ele>
        <time>2021-03-23T08:15:34Z</time>
      </trkpt>
      <trkpt lat="45.996" lon="6.49547">
        <ele>1434.8</ele>
        <time>2021-03-23T08:15:35Z</time>
      </trkpt>
      <trkpt lat="45.99601" lon="6.49551">
        <ele>1434.6</ele>
        <time>2021-03-23T08:15:37Z</time>
      </trkpt>
      <trkpt lat="45.99602" lon="6.49556">
        <ele>1434.6</ele>
        <time>2021-03-23T08:15:39Z</time>
      </trkpt>
      <trkpt lat="45.99602" lon="6.49561">
        <ele>1434.6</ele>
        <time>2021-03-23T08:15:41Z</time>
      </trkpt>
      <trkpt lat="45.99602" lon="6.49566">
        <ele>1434.6</ele>
        <time>2021-03-23T08:15:43Z</time>
      </trkpt>
      <trkpt lat="45.99603" lon="6.4957">
        <ele>1434.6</ele>
        <time>2021-03-23T08:15:45Z</time>
      </trkpt>
      <trkpt lat="45.99604" lon="6.49572">
        <ele>1434.6</ele>
        <time>2021-03-23T08:15:46Z</time>
      </trkpt>
      <trkpt lat="45.99605" lon="6.49575">
        <ele>1434.4</ele>
        <time>2021-03-23T08:15:47Z</time>
      </trkpt>
      <trkpt lat="45.99605" lon="6.49577">
        <ele>1434.4</ele>
        <time>2021-03-23T08:15:48Z</time>
      </trkpt>
      <trkpt lat="45.99606" lon="6.4958">
        <ele>1434.2</ele>
        <time>2021-03-23T08:15:49Z</time>
      </trkpt>
      <trkpt lat="45.99606" lon="6.49583">
        <ele>1434.2</ele>
        <time>2021-03-23T08:15:50Z</time>
      </trkpt>
      <trkpt lat="45.99607" lon="6.49586">
        <ele>1434.2</ele>
        <time>2021-03-23T08:15:51Z</time>
      </trkpt>
      <trkpt lat="45.99608" lon="6.4959">
        <ele>1434.2</ele>
        <time>2021-03-23T08:15:53Z</time>
      </trkpt>
      <trkpt lat="45.99609" lon="6.49593">
        <ele>1434.2</ele>
        <time>2021-03-23T08:15:54Z</time>
      </trkpt>
      <trkpt lat="45.99609" lon="6.49597">
        <ele>1434.2</ele>
        <time>2021-03-23T08:15:55Z</time>
      </trkpt>
      <trkpt lat="45.99609" lon="6.496">
        <ele>1434.2</ele>
        <time>2021-03-23T08:15:56Z</time>
      </trkpt>
      <trkpt lat="45.9961" lon="6.49603">
        <ele>1434</ele>
        <time>2021-03-23T08:15:57Z</time>
      </trkpt>
      <trkpt lat="45.9961" lon="6.49606">
        <ele>1434</ele>
        <time>2021-03-23T08:15:58Z</time>
      </trkpt>
      <trkpt lat="45.9961" lon="6.49609">
        <ele>1433.8</ele>
        <time>2021-03-23T08:15:59Z</time>
      </trkpt>
      <trkpt lat="45.9961" lon="6.49612">
        <ele>1433.4</ele>
        <time>2021-03-23T08:16:00Z</time>
      </trkpt>
      <trkpt lat="45.9961" lon="6.49616">
        <ele>1433.2</ele>
        <time>2021-03-23T08:16:02Z</time>
      </trkpt>
      <trkpt lat="45.9961" lon="6.49619">
        <ele>1433</ele>
        <time>2021-03-23T08:16:04Z</time>
      </trkpt>
      <trkpt lat="45.99609" lon="6.49621">
        <ele>1432.8</ele>
        <time>2021-03-23T08:16:06Z</time>
      </trkpt>
      <trkpt lat="45.99608" lon="6.49625">
        <ele>1432.4</ele>
        <time>2021-03-23T08:16:08Z</time>
      </trkpt>
      <trkpt lat="45.99607" lon="6.49628">
        <ele>1432</ele>
        <time>2021-03-23T08:16:10Z</time>
      </trkpt>
      <trkpt lat="45.99607" lon="6.49631">
        <ele>1432</ele>
        <time>2021-03-23T08:16:12Z</time>
      </trkpt>
      <trkpt lat="45.99605" lon="6.49634">
        <ele>1431.6</ele>
        <time>2021-03-23T08:16:14Z</time>
      </trkpt>
      <trkpt lat="45.99604" lon="6.49637">
        <ele>1431.4</ele>
        <time>2021-03-23T08:16:16Z</time>
      </trkpt>
      <trkpt lat="45.99603" lon="6.49639">
        <ele>1431.2</ele>
        <time>2021-03-23T08:16:18Z</time>
      </trkpt>
      <trkpt lat="45.99602" lon="6.49642">
        <ele>1431</ele>
        <time>2021-03-23T08:16:20Z</time>
      </trkpt>
      <trkpt lat="45.99601" lon="6.49645">
        <ele>1430.8</ele>
        <time>2021-03-23T08:16:23Z</time>
      </trkpt>
      <trkpt lat="45.99599" lon="6.49648">
        <ele>1430.2</ele>
        <time>2021-03-23T08:16:26Z</time>
      </trkpt>
      <trkpt lat="45.99598" lon="6.49651">
        <ele>1430.2</ele>
        <time>2021-03-23T08:16:29Z</time>
      </trkpt>
      <trkpt lat="45.99596" lon="6.49653">
        <ele>1430.2</ele>
        <time>2021-03-23T08:16:31Z</time>
      </trkpt>
      <trkpt lat="45.99595" lon="6.49655">
        <ele>1430.2</ele>
        <time>2021-03-23T08:16:33Z</time>
      </trkpt>
      <trkpt lat="45.99594" lon="6.49657">
        <ele>1430.2</ele>
        <time>2021-03-23T08:16:35Z</time>
      </trkpt>
      <trkpt lat="45.99593" lon="6.49661">
        <ele>1430.2</ele>
        <time>2021-03-23T08:16:38Z</time>
      </trkpt>
      <trkpt lat="45.99594" lon="6.49664">
        <ele>1430.4</ele>
        <time>2021-03-23T08:16:41Z</time>
      </trkpt>
      <trkpt lat="45.99594" lon="6.49667">
        <ele>1430.4</ele>
        <time>2021-03-23T08:16:43Z</time>
      </trkpt>
      <trkpt lat="45.99594" lon="6.49669">
        <ele>1430.4</ele>
        <time>2021-03-23T08:16:45Z</time>
      </trkpt>
      <trkpt lat="45.99592" lon="6.49671">
        <ele>1430.2</ele>
        <time>2021-03-23T08:16:47Z</time>
      </trkpt>
      <trkpt lat="45.99591" lon="6.49673">
        <ele>1430.2</ele>
        <time>2021-03-23T08:16:49Z</time>
      </trkpt>
      <trkpt lat="45.99589" lon="6.49676">
        <ele>1429.8</ele>
        <time>2021-03-23T08:16:52Z</time>
      </trkpt>
      <trkpt lat="45.99589" lon="6.49679">
        <ele>1429.8</ele>
        <time>2021-03-23T08:16:55Z</time>
      </trkpt>
      <trkpt lat="45.99588" lon="6.49683">
        <ele>1430</ele>
        <time>2021-03-23T08:16:58Z</time>
      </trkpt>
      <trkpt lat="45.99587" lon="6.49685">
        <ele>1430</ele>
        <time>2021-03-23T08:17:00Z</time>
      </trkpt>
      <trkpt lat="45.99585" lon="6.49688">
        <ele>1430.2</ele>
        <time>2021-03-23T08:17:03Z</time>
      </trkpt>
      <trkpt lat="45.99584" lon="6.49691">
        <ele>1430.4</ele>
        <time>2021-03-23T08:17:06Z</time>
      </trkpt>
      <trkpt lat="45.99582" lon="6.49694">
        <ele>1430.6</ele>
        <time>2021-03-23T08:17:09Z</time>
      </trkpt>
      <trkpt lat="45.99581" lon="6.49697">
        <ele>1430.8</ele>
        <time>2021-03-23T08:17:12Z</time>
      </trkpt>
      <trkpt lat="45.9958" lon="6.497">
        <ele>1430.6</ele>
        <time>2021-03-23T08:17:14Z</time>
      </trkpt>
      <trkpt lat="45.99579" lon="6.49703">
        <ele>1431</ele>
        <time>2021-03-23T08:17:17Z</time>
      </trkpt>
      <trkpt lat="45.99579" lon="6.49707">
        <ele>1431.2</ele>
        <time>2021-03-23T08:17:19Z</time>
      </trkpt>
      <trkpt lat="45.99578" lon="6.4971">
        <ele>1431.4</ele>
        <time>2021-03-23T08:17:22Z</time>
      </trkpt>
      <trkpt lat="45.99577" lon="6.49712">
        <ele>1431.6</ele>
        <time>2021-03-23T08:17:24Z</time>
      </trkpt>
      <trkpt lat="45.99576" lon="6.49715">
        <ele>1431.4</ele>
        <time>2021-03-23T08:17:26Z</time>
      </trkpt>
      <trkpt lat="45.99575" lon="6.49717">
        <ele>1431.6</ele>
        <time>2021-03-23T08:17:28Z</time>
      </trkpt>
      <trkpt lat="45.99573" lon="6.4972">
        <ele>1431.4</ele>
        <time>2021-03-23T08:17:31Z</time>
      </trkpt>
      <trkpt lat="45.99572" lon="6.49722">
        <ele>1431.4</ele>
        <time>2021-03-23T08:17:34Z</time>
      </trkpt>
      <trkpt lat="45.99571" lon="6.49725">
        <ele>1431.4</ele>
        <time>2021-03-23T08:17:38Z</time>
      </trkpt>
      <trkpt lat="45.9957" lon="6.49728">
        <ele>1432</ele>
        <time>2021-03-23T08:17:41Z</time>
      </trkpt>
      <trkpt lat="45.99569" lon="6.4973">
        <ele>1432.2</ele>
        <time>2021-03-23T08:17:45Z</time>
      </trkpt>
      <trkpt lat="45.99567" lon="6.49732">
        <ele>1432.4</ele>
        <time>2021-03-23T08:17:48Z</time>
      </trkpt>
      <trkpt lat="45.99566" lon="6.49734">
        <ele>1432.6</ele>
        <time>2021-03-23T08:17:51Z</time>
      </trkpt>
      <trkpt lat="45.99564" lon="6.49736">
        <ele>1432.6</ele>
        <time>2021-03-23T08:17:54Z</time>
      </trkpt>
      <trkpt lat="45.99562" lon="6.49738">
        <ele>1432.6</ele>
        <time>2021-03-23T08:17:57Z</time>
      </trkpt>
      <trkpt lat="45.9956" lon="6.4974">
        <ele>1433</ele>
        <time>2021-03-23T08:18:00Z</time>
      </trkpt>
      <trkpt lat="45.99558" lon="6.4974">
        <ele>1433.2</ele>
        <time>2021-03-23T08:18:03Z</time>
      </trkpt>
      <trkpt lat="45.99556" lon="6.49741">
        <ele>1433.4</ele>
        <time>2021-03-23T08:18:05Z</time>
      </trkpt>
      <trkpt lat="45.99554" lon="6.49742">
        <ele>1433.2</ele>
        <time>2021-03-23T08:18:07Z</time>
      </trkpt>
      <trkpt lat="45.99552" lon="6.49743">
        <ele>1433.4</ele>
        <time>2021-03-23T08:18:09Z</time>
      </trkpt>
      <trkpt lat="45.9955" lon="6.49743">
        <ele>1434</ele>
        <time>2021-03-23T08:18:12Z</time>
      </trkpt>
      <trkpt lat="45.99548" lon="6.49743">
        <ele>1434.6</ele>
        <time>2021-03-23T08:18:15Z</time>
      </trkpt>
      <trkpt lat="45.99545" lon="6.49742">
        <ele>1434.4</ele>
        <time>2021-03-23T08:18:18Z</time>
      </trkpt>
      <trkpt lat="45.99542" lon="6.49741">
        <ele>1434.6</ele>
        <time>2021-03-23T08:18:20Z</time>
      </trkpt>
      <trkpt lat="45.9954" lon="6.4974">
        <ele>1434.8</ele>
        <time>2021-03-23T08:18:22Z</time>
      </trkpt>
      <trkpt lat="45.99537" lon="6.4974">
        <ele>1435.4</ele>
        <time>2021-03-23T08:18:25Z</time>
      </trkpt>
      <trkpt lat="45.99535" lon="6.4974">
        <ele>1435.6</ele>
        <time>2021-03-23T08:18:28Z</time>
      </trkpt>
      <trkpt lat="45.99533" lon="6.49739">
        <ele>1436</ele>
        <time>2021-03-23T08:18:31Z</time>
      </trkpt>
      <trkpt lat="45.99531" lon="6.49738">
        <ele>1436.4</ele>
        <time>2021-03-23T08:18:36Z</time>
      </trkpt>
      <trkpt lat="45.99529" lon="6.49736">
        <ele>1436.6</ele>
        <time>2021-03-23T08:18:42Z</time>
      </trkpt>
      <trkpt lat="45.99528" lon="6.49734">
        <ele>1437</ele>
        <time>2021-03-23T08:18:48Z</time>
      </trkpt>
      <trkpt lat="45.9953" lon="6.4973">
        <ele>1437.6</ele>
        <time>2021-03-23T08:19:04Z</time>
      </trkpt>
      <trkpt lat="45.99533" lon="6.4973">
        <ele>1438</ele>
        <time>2021-03-23T08:19:14Z</time>
      </trkpt>
      <trkpt lat="45.99533" lon="6.49727">
        <ele>1439.4</ele>
        <time>2021-03-23T08:19:25Z</time>
      </trkpt>
      <trkpt lat="45.99531" lon="6.49727">
        <ele>1439</ele>
        <time>2021-03-23T08:19:29Z</time>
      </trkpt>
      <trkpt lat="45.99528" lon="6.49724">
        <ele>1440.2</ele>
        <time>2021-03-23T08:20:03Z</time>
      </trkpt>
      <trkpt lat="45.99521" lon="6.49731">
        <ele>1439.4</ele>
        <time>2021-03-23T08:20:34Z</time>
      </trkpt>
      <trkpt lat="45.99519" lon="6.49733">
        <ele>1442.2</ele>
        <time>2021-03-23T08:21:30Z</time>
      </trkpt>
      <trkpt lat="45.99522" lon="6.49734">
        <ele>1442.6</ele>
        <time>2021-03-23T08:21:46Z</time>
      </trkpt>
      <trkpt lat="45.99522" lon="6.49731">
        <ele>1442.4</ele>
        <time>2021-03-23T08:21:58Z</time>
      </trkpt>
      <trkpt lat="45.99531" lon="6.49732">
        <ele>1444</ele>
        <time>2021-03-23T08:22:17Z</time>
      </trkpt>
      <trkpt lat="45.99536" lon="6.49731">
        <ele>1445</ele>
        <time>2021-03-23T08:22:24Z</time>
      </trkpt>
      <trkpt lat="45.99539" lon="6.49732">
        <ele>1445</ele>
        <time>2021-03-23T08:22:26Z</time>
      </trkpt>
      <trkpt lat="45.99541" lon="6.49732">
        <ele>1445</ele>
        <time>2021-03-23T08:22:28Z</time>
      </trkpt>
      <trkpt lat="45.99539" lon="6.49734">
        <ele>1444.2</ele>
        <time>2021-03-23T08:22:48Z</time>
      </trkpt>
      <trkpt lat="45.99537" lon="6.49734">
        <ele>1444.2</ele>
        <time>2021-03-23T08:22:50Z</time>
      </trkpt>
      <trkpt lat="45.99535" lon="6.49735">
        <ele>1443.8</ele>
        <time>2021-03-23T08:22:53Z</time>
      </trkpt>
      <trkpt lat="45.99533" lon="6.49735">
        <ele>1443.6</ele>
        <time>2021-03-23T08:22:55Z</time>
      </trkpt>
      <trkpt lat="45.99532" lon="6.49738">
        <ele>1442.4</ele>
        <time>2021-03-23T08:23:02Z</time>
      </trkpt>
      <trkpt lat="45.99529" lon="6.49733">
        <ele>1442.2</ele>
        <time>2021-03-23T08:23:21Z</time>
      </trkpt>
      <trkpt lat="45.99527" lon="6.49732">
        <ele>1442</ele>
        <time>2021-03-23T08:23:24Z</time>
      </trkpt>
      <trkpt lat="45.99528" lon="6.4973">
        <ele>1443</ele>
        <time>2021-03-23T08:23:27Z</time>
      </trkpt>
      <trkpt lat="45.99532" lon="6.49729">
        <ele>1443.4</ele>
        <time>2021-03-23T08:23:32Z</time>
      </trkpt>
      <trkpt lat="45.99534" lon="6.49728">
        <ele>1443.4</ele>
        <time>2021-03-23T08:23:52Z</time>
      </trkpt>
      <trkpt lat="45.99536" lon="6.4973">
        <ele>1443.6</ele>
        <time>2021-03-23T08:24:00Z</time>
      </trkpt>
      <trkpt lat="45.99534" lon="6.4973">
        <ele>1443.2</ele>
        <time>2021-03-23T08:24:08Z</time>
      </trkpt>
      <trkpt lat="45.99532" lon="6.49731">
        <ele>1443.2</ele>
        <time>2021-03-23T08:24:13Z</time>
      </trkpt>
      <trkpt lat="45.9953" lon="6.4973">
        <ele>1443.4</ele>
        <time>2021-03-23T08:24:16Z</time>
      </trkpt>
      <trkpt lat="45.99528" lon="6.49728">
        <ele>1444</ele>
        <time>2021-03-23T08:24:19Z</time>
      </trkpt>
      <trkpt lat="45.99525" lon="6.49726">
        <ele>1444.2</ele>
        <time>2021-03-23T08:24:21Z</time>
      </trkpt>
      <trkpt lat="45.99522" lon="6.49725">
        <ele>1444.8</ele>
        <time>2021-03-23T08:24:24Z</time>
      </trkpt>
      <trkpt lat="45.9952" lon="6.49724">
        <ele>1445.2</ele>
        <time>2021-03-23T08:24:27Z</time>
      </trkpt>
      <trkpt lat="45.99519" lon="6.49721">
        <ele>1445.6</ele>
        <time>2021-03-23T08:24:29Z</time>
      </trkpt>
      <trkpt lat="45.99518" lon="6.49718">
        <ele>1445.6</ele>
        <time>2021-03-23T08:24:31Z</time>
      </trkpt>
      <trkpt lat="45.99516" lon="6.49714">
        <ele>1445.6</ele>
        <time>2021-03-23T08:24:33Z</time>
      </trkpt>
      <trkpt lat="45.99515" lon="6.49711">
        <ele>1445.8</ele>
        <time>2021-03-23T08:24:35Z</time>
      </trkpt>
      <trkpt lat="45.99513" lon="6.49708">
        <ele>1445.8</ele>
        <time>2021-03-23T08:24:37Z</time>
      </trkpt>
      <trkpt lat="45.99512" lon="6.49705">
        <ele>1445.8</ele>
        <time>2021-03-23T08:24:39Z</time>
      </trkpt>
      <trkpt lat="45.9951" lon="6.49703">
        <ele>1446</ele>
        <time>2021-03-23T08:24:41Z</time>
      </trkpt>
      <trkpt lat="45.9951" lon="6.497">
        <ele>1446.2</ele>
        <time>2021-03-23T08:24:43Z</time>
      </trkpt>
      <trkpt lat="45.99509" lon="6.49697">
        <ele>1446.4</ele>
        <time>2021-03-23T08:24:45Z</time>
      </trkpt>
      <trkpt lat="45.99508" lon="6.49695">
        <ele>1447.2</ele>
        <time>2021-03-23T08:24:48Z</time>
      </trkpt>
      <trkpt lat="45.99507" lon="6.49692">
        <ele>1447.6</ele>
        <time>2021-03-23T08:24:51Z</time>
      </trkpt>
      <trkpt lat="45.99506" lon="6.4969">
        <ele>1448.2</ele>
        <time>2021-03-23T08:24:53Z</time>
      </trkpt>
      <trkpt lat="45.99504" lon="6.49688">
        <ele>1448.6</ele>
        <time>2021-03-23T08:24:55Z</time>
      </trkpt>
      <trkpt lat="45.99503" lon="6.49685">
        <ele>1448.8</ele>
        <time>2021-03-23T08:24:58Z</time>
      </trkpt>
      <trkpt lat="45.99501" lon="6.49683">
        <ele>1449.2</ele>
        <time>2021-03-23T08:25:01Z</time>
      </trkpt>
      <trkpt lat="45.995" lon="6.4968">
        <ele>1449.2</ele>
        <time>2021-03-23T08:25:03Z</time>
      </trkpt>
      <trkpt lat="45.99498" lon="6.49677">
        <ele>1449.2</ele>
        <time>2021-03-23T08:25:05Z</time>
      </trkpt>
      <trkpt lat="45.99496" lon="6.49674">
        <ele>1449.2</ele>
        <time>2021-03-23T08:25:07Z</time>
      </trkpt>
      <trkpt lat="45.99494" lon="6.4967">
        <ele>1449.4</ele>
        <time>2021-03-23T08:25:09Z</time>
      </trkpt>
      <trkpt lat="45.99492" lon="6.49667">
        <ele>1449.6</ele>
        <time>2021-03-23T08:25:11Z</time>
      </trkpt>
      <trkpt lat="45.99491" lon="6.49664">
        <ele>1449.8</ele>
        <time>2021-03-23T08:25:13Z</time>
      </trkpt>
      <trkpt lat="45.9949" lon="6.49661">
        <ele>1449.8</ele>
        <time>2021-03-23T08:25:15Z</time>
      </trkpt>
      <trkpt lat="45.99489" lon="6.49658">
        <ele>1450</ele>
        <time>2021-03-23T08:25:17Z</time>
      </trkpt>
      <trkpt lat="45.99488" lon="6.49656">
        <ele>1450.4</ele>
        <time>2021-03-23T08:25:19Z</time>
      </trkpt>
      <trkpt lat="45.99487" lon="6.49653">
        <ele>1450.8</ele>
        <time>2021-03-23T08:25:21Z</time>
      </trkpt>
      <trkpt lat="45.99486" lon="6.4965">
        <ele>1451</ele>
        <time>2021-03-23T08:25:23Z</time>
      </trkpt>
      <trkpt lat="45.99484" lon="6.49648">
        <ele>1451.2</ele>
        <time>2021-03-23T08:25:25Z</time>
      </trkpt>
      <trkpt lat="45.99482" lon="6.49645">
        <ele>1451</ele>
        <time>2021-03-23T08:25:27Z</time>
      </trkpt>
      <trkpt lat="45.99479" lon="6.49642">
        <ele>1451.2</ele>
        <time>2021-03-23T08:25:29Z</time>
      </trkpt>
      <trkpt lat="45.99478" lon="6.4964">
        <ele>1451</ele>
        <time>2021-03-23T08:25:31Z</time>
      </trkpt>
      <trkpt lat="45.99476" lon="6.49638">
        <ele>1451</ele>
        <time>2021-03-23T08:25:33Z</time>
      </trkpt>
      <trkpt lat="45.99475" lon="6.49636">
        <ele>1451</ele>
        <time>2021-03-23T08:25:35Z</time>
      </trkpt>
      <trkpt lat="45.99473" lon="6.49636">
        <ele>1451</ele>
        <time>2021-03-23T08:25:37Z</time>
      </trkpt>
      <trkpt lat="45.99471" lon="6.49635">
        <ele>1451.2</ele>
        <time>2021-03-23T08:25:40Z</time>
      </trkpt>
      <trkpt lat="45.99469" lon="6.49634">
        <ele>1451.4</ele>
        <time>2021-03-23T08:25:44Z</time>
      </trkpt>
      <trkpt lat="45.99467" lon="6.49633">
        <ele>1451.4</ele>
        <time>2021-03-23T08:25:47Z</time>
      </trkpt>
      <trkpt lat="45.99465" lon="6.49634">
        <ele>1451.2</ele>
        <time>2021-03-23T08:25:49Z</time>
      </trkpt>
      <trkpt lat="45.99463" lon="6.49634">
        <ele>1451.4</ele>
        <time>2021-03-23T08:25:51Z</time>
      </trkpt>
      <trkpt lat="45.9946" lon="6.49634">
        <ele>1451.4</ele>
        <time>2021-03-23T08:25:54Z</time>
      </trkpt>
      <trkpt lat="45.99458" lon="6.49634">
        <ele>1452</ele>
        <time>2021-03-23T08:25:57Z</time>
      </trkpt>
      <trkpt lat="45.99456" lon="6.49634">
        <ele>1452.4</ele>
        <time>2021-03-23T08:25:59Z</time>
      </trkpt>
      <trkpt lat="45.99454" lon="6.49632">
        <ele>1452.4</ele>
        <time>2021-03-23T08:26:01Z</time>
      </trkpt>
      <trkpt lat="45.99451" lon="6.4963">
        <ele>1452.6</ele>
        <time>2021-03-23T08:26:03Z</time>
      </trkpt>
      <trkpt lat="45.99448" lon="6.49629">
        <ele>1452.8</ele>
        <time>2021-03-23T08:26:05Z</time>
      </trkpt>
      <trkpt lat="45.99445" lon="6.49629">
        <ele>1453</ele>
        <time>2021-03-23T08:26:07Z</time>
      </trkpt>
      <trkpt lat="45.99443" lon="6.49629">
        <ele>1453.2</ele>
        <time>2021-03-23T08:26:09Z</time>
      </trkpt>
      <trkpt lat="45.99441" lon="6.49629">
        <ele>1453.2</ele>
        <time>2021-03-23T08:26:11Z</time>
      </trkpt>
      <trkpt lat="45.9944" lon="6.49628">
        <ele>1453.4</ele>
        <time>2021-03-23T08:26:14Z</time>
      </trkpt>
      <trkpt lat="45.99438" lon="6.49626">
        <ele>1454</ele>
        <time>2021-03-23T08:26:17Z</time>
      </trkpt>
      <trkpt lat="45.99435" lon="6.49625">
        <ele>1454.4</ele>
        <time>2021-03-23T08:26:20Z</time>
      </trkpt>
      <trkpt lat="45.99434" lon="6.49624">
        <ele>1454.6</ele>
        <time>2021-03-23T08:26:22Z</time>
      </trkpt>
      <trkpt lat="45.99431" lon="6.49623">
        <ele>1454.6</ele>
        <time>2021-03-23T08:26:25Z</time>
      </trkpt>
      <trkpt lat="45.9943" lon="6.49622">
        <ele>1454.4</ele>
        <time>2021-03-23T08:26:27Z</time>
      </trkpt>
      <trkpt lat="45.99428" lon="6.4962">
        <ele>1454.6</ele>
        <time>2021-03-23T08:26:29Z</time>
      </trkpt>
      <trkpt lat="45.99426" lon="6.49618">
        <ele>1454.4</ele>
        <time>2021-03-23T08:26:32Z</time>
      </trkpt>
      <trkpt lat="45.99423" lon="6.49616">
        <ele>1453.8</ele>
        <time>2021-03-23T08:26:35Z</time>
      </trkpt>
      <trkpt lat="45.99421" lon="6.49614">
        <ele>1453.2</ele>
        <time>2021-03-23T08:26:37Z</time>
      </trkpt>
      <trkpt lat="45.9942" lon="6.49612">
        <ele>1452.4</ele>
        <time>2021-03-23T08:26:40Z</time>
      </trkpt>
      <trkpt lat="45.99417" lon="6.49611">
        <ele>1452</ele>
        <time>2021-03-23T08:26:43Z</time>
      </trkpt>
      <trkpt lat="45.99415" lon="6.49609">
        <ele>1452</ele>
        <time>2021-03-23T08:26:46Z</time>
      </trkpt>
      <trkpt lat="45.99413" lon="6.49607">
        <ele>1452.2</ele>
        <time>2021-03-23T08:26:49Z</time>
      </trkpt>
      <trkpt lat="45.99412" lon="6.49604">
        <ele>1452.4</ele>
        <time>2021-03-23T08:26:51Z</time>
      </trkpt>
      <trkpt lat="45.9941" lon="6.49602">
        <ele>1452.6</ele>
        <time>2021-03-23T08:26:53Z</time>
      </trkpt>
      <trkpt lat="45.99408" lon="6.49599">
        <ele>1452.4</ele>
        <time>2021-03-23T08:26:55Z</time>
      </trkpt>
      <trkpt lat="45.99407" lon="6.49595">
        <ele>1452.4</ele>
        <time>2021-03-23T08:26:57Z</time>
      </trkpt>
      <trkpt lat="45.99406" lon="6.49592">
        <ele>1452.6</ele>
        <time>2021-03-23T08:26:59Z</time>
      </trkpt>
      <trkpt lat="45.99406" lon="6.49589">
        <ele>1452.8</ele>
        <time>2021-03-23T08:27:01Z</time>
      </trkpt>
      <trkpt lat="45.99405" lon="6.49586">
        <ele>1452.8</ele>
        <time>2021-03-23T08:27:03Z</time>
      </trkpt>
      <trkpt lat="45.99404" lon="6.49584">
        <ele>1452.8</ele>
        <time>2021-03-23T08:27:05Z</time>
      </trkpt>
      <trkpt lat="45.99404" lon="6.49578">
        <ele>1452.4</ele>
        <time>2021-03-23T08:27:08Z</time>
      </trkpt>
      <trkpt lat="45.99403" lon="6.49574">
        <ele>1451.8</ele>
        <time>2021-03-23T08:27:10Z</time>
      </trkpt>
      <trkpt lat="45.99402" lon="6.49571">
        <ele>1451.4</ele>
        <time>2021-03-23T08:27:12Z</time>
      </trkpt>
      <trkpt lat="45.99401" lon="6.49568">
        <ele>1451.4</ele>
        <time>2021-03-23T08:27:14Z</time>
      </trkpt>
      <trkpt lat="45.994" lon="6.49566">
        <ele>1451.4</ele>
        <time>2021-03-23T08:27:16Z</time>
      </trkpt>
      <trkpt lat="45.99399" lon="6.49564">
        <ele>1451.2</ele>
        <time>2021-03-23T08:27:18Z</time>
      </trkpt>
      <trkpt lat="45.99398" lon="6.49561">
        <ele>1451</ele>
        <time>2021-03-23T08:27:20Z</time>
      </trkpt>
      <trkpt lat="45.99397" lon="6.49559">
        <ele>1450.8</ele>
        <time>2021-03-23T08:27:22Z</time>
      </trkpt>
      <trkpt lat="45.99396" lon="6.49555">
        <ele>1450.6</ele>
        <time>2021-03-23T08:27:24Z</time>
      </trkpt>
      <trkpt lat="45.99395" lon="6.49553">
        <ele>1451</ele>
        <time>2021-03-23T08:27:27Z</time>
      </trkpt>
      <trkpt lat="45.99393" lon="6.49551">
        <ele>1451.2</ele>
        <time>2021-03-23T08:27:29Z</time>
      </trkpt>
      <trkpt lat="45.99392" lon="6.49548">
        <ele>1451.4</ele>
        <time>2021-03-23T08:27:31Z</time>
      </trkpt>
      <trkpt lat="45.9939" lon="6.49544">
        <ele>1451.4</ele>
        <time>2021-03-23T08:27:34Z</time>
      </trkpt>
      <trkpt lat="45.99389" lon="6.49541">
        <ele>1451.4</ele>
        <time>2021-03-23T08:27:36Z</time>
      </trkpt>
      <trkpt lat="45.99387" lon="6.49539">
        <ele>1451.4</ele>
        <time>2021-03-23T08:27:38Z</time>
      </trkpt>
      <trkpt lat="45.99387" lon="6.49536">
        <ele>1451</ele>
        <time>2021-03-23T08:27:40Z</time>
      </trkpt>
      <trkpt lat="45.99386" lon="6.49533">
        <ele>1451</ele>
        <time>2021-03-23T08:27:42Z</time>
      </trkpt>
      <trkpt lat="45.99384" lon="6.4953">
        <ele>1450.8</ele>
        <time>2021-03-23T08:27:44Z</time>
      </trkpt>
      <trkpt lat="45.99382" lon="6.49528">
        <ele>1450.6</ele>
        <time>2021-03-23T08:27:46Z</time>
      </trkpt>
      <trkpt lat="45.99381" lon="6.49526">
        <ele>1450.6</ele>
        <time>2021-03-23T08:27:48Z</time>
      </trkpt>
      <trkpt lat="45.9938" lon="6.49524">
        <ele>1450.8</ele>
        <time>2021-03-23T08:27:50Z</time>
      </trkpt>
      <trkpt lat="45.99378" lon="6.49522">
        <ele>1451</ele>
        <time>2021-03-23T08:27:52Z</time>
      </trkpt>
      <trkpt lat="45.99376" lon="6.49518">
        <ele>1451.2</ele>
        <time>2021-03-23T08:27:54Z</time>
      </trkpt>
      <trkpt lat="45.99375" lon="6.49514">
        <ele>1451.6</ele>
        <time>2021-03-23T08:27:56Z</time>
      </trkpt>
      <trkpt lat="45.99373" lon="6.49513">
        <ele>1451.8</ele>
        <time>2021-03-23T08:27:57Z</time>
      </trkpt>
      <trkpt lat="45.99372" lon="6.49509">
        <ele>1452</ele>
        <time>2021-03-23T08:27:59Z</time>
      </trkpt>
      <trkpt lat="45.9937" lon="6.49506">
        <ele>1451.8</ele>
        <time>2021-03-23T08:28:01Z</time>
      </trkpt>
      <trkpt lat="45.99369" lon="6.49503">
        <ele>1451.8</ele>
        <time>2021-03-23T08:28:04Z</time>
      </trkpt>
      <trkpt lat="45.99368" lon="6.49501">
        <ele>1452</ele>
        <time>2021-03-23T08:28:06Z</time>
      </trkpt>
      <trkpt lat="45.99366" lon="6.49499">
        <ele>1452.2</ele>
        <time>2021-03-23T08:28:08Z</time>
      </trkpt>
      <trkpt lat="45.99364" lon="6.49498">
        <ele>1452.2</ele>
        <time>2021-03-23T08:28:10Z</time>
      </trkpt>
      <trkpt lat="45.99363" lon="6.49496">
        <ele>1452.4</ele>
        <time>2021-03-23T08:28:12Z</time>
      </trkpt>
      <trkpt lat="45.99361" lon="6.49492">
        <ele>1452.6</ele>
        <time>2021-03-23T08:28:14Z</time>
      </trkpt>
      <trkpt lat="45.9936" lon="6.4949">
        <ele>1452.6</ele>
        <time>2021-03-23T08:28:15Z</time>
      </trkpt>
      <trkpt lat="45.99358" lon="6.49488">
        <ele>1453</ele>
        <time>2021-03-23T08:28:17Z</time>
      </trkpt>
      <trkpt lat="45.99356" lon="6.49486">
        <ele>1453</ele>
        <time>2021-03-23T08:28:19Z</time>
      </trkpt>
      <trkpt lat="45.99355" lon="6.49483">
        <ele>1453</ele>
        <time>2021-03-23T08:28:21Z</time>
      </trkpt>
      <trkpt lat="45.99352" lon="6.49481">
        <ele>1453.4</ele>
        <time>2021-03-23T08:28:23Z</time>
      </trkpt>
      <trkpt lat="45.9935" lon="6.49479">
        <ele>1453.4</ele>
        <time>2021-03-23T08:28:25Z</time>
      </trkpt>
      <trkpt lat="45.99349" lon="6.49476">
        <ele>1453.8</ele>
        <time>2021-03-23T08:28:28Z</time>
      </trkpt>
      <trkpt lat="45.99348" lon="6.49474">
        <ele>1454</ele>
        <time>2021-03-23T08:28:30Z</time>
      </trkpt>
      <trkpt lat="45.99346" lon="6.49472">
        <ele>1454</ele>
        <time>2021-03-23T08:28:32Z</time>
      </trkpt>
      <trkpt lat="45.99344" lon="6.49469">
        <ele>1454.2</ele>
        <time>2021-03-23T08:28:34Z</time>
      </trkpt>
      <trkpt lat="45.99343" lon="6.49467">
        <ele>1454.4</ele>
        <time>2021-03-23T08:28:36Z</time>
      </trkpt>
      <trkpt lat="45.99341" lon="6.49465">
        <ele>1454.8</ele>
        <time>2021-03-23T08:28:38Z</time>
      </trkpt>
      <trkpt lat="45.99339" lon="6.49463">
        <ele>1455</ele>
        <time>2021-03-23T08:28:40Z</time>
      </trkpt>
      <trkpt lat="45.99337" lon="6.49462">
        <ele>1455.4</ele>
        <time>2021-03-23T08:28:43Z</time>
      </trkpt>
      <trkpt lat="45.99335" lon="6.4946">
        <ele>1455.4</ele>
        <time>2021-03-23T08:28:45Z</time>
      </trkpt>
      <trkpt lat="45.99333" lon="6.49457">
        <ele>1455.2</ele>
        <time>2021-03-23T08:28:48Z</time>
      </trkpt>
      <trkpt lat="45.99332" lon="6.49454">
        <ele>1455.2</ele>
        <time>2021-03-23T08:28:50Z</time>
      </trkpt>
      <trkpt lat="45.9933" lon="6.49452">
        <ele>1455.4</ele>
        <time>2021-03-23T08:28:52Z</time>
      </trkpt>
      <trkpt lat="45.99328" lon="6.49451">
        <ele>1455.6</ele>
        <time>2021-03-23T08:28:54Z</time>
      </trkpt>
      <trkpt lat="45.99326" lon="6.49449">
        <ele>1455.6</ele>
        <time>2021-03-23T08:28:57Z</time>
      </trkpt>
      <trkpt lat="45.99324" lon="6.49447">
        <ele>1455.4</ele>
        <time>2021-03-23T08:28:59Z</time>
      </trkpt>
      <trkpt lat="45.99321" lon="6.49444">
        <ele>1454.8</ele>
        <time>2021-03-23T08:29:02Z</time>
      </trkpt>
      <trkpt lat="45.9932" lon="6.49442">
        <ele>1454.8</ele>
        <time>2021-03-23T08:29:05Z</time>
      </trkpt>
      <trkpt lat="45.99318" lon="6.49441">
        <ele>1455.4</ele>
        <time>2021-03-23T08:29:09Z</time>
      </trkpt>
      <trkpt lat="45.99317" lon="6.49439">
        <ele>1455.8</ele>
        <time>2021-03-23T08:29:11Z</time>
      </trkpt>
      <trkpt lat="45.99314" lon="6.49437">
        <ele>1456.2</ele>
        <time>2021-03-23T08:29:14Z</time>
      </trkpt>
      <trkpt lat="45.99312" lon="6.49436">
        <ele>1456.6</ele>
        <time>2021-03-23T08:29:17Z</time>
      </trkpt>
      <trkpt lat="45.99311" lon="6.49435">
        <ele>1456.6</ele>
        <time>2021-03-23T08:29:19Z</time>
      </trkpt>
      <trkpt lat="45.99309" lon="6.49432">
        <ele>1456.8</ele>
        <time>2021-03-23T08:29:22Z</time>
      </trkpt>
      <trkpt lat="45.99307" lon="6.49429">
        <ele>1457.2</ele>
        <time>2021-03-23T08:29:24Z</time>
      </trkpt>
      <trkpt lat="45.99306" lon="6.49425">
        <ele>1457.4</ele>
        <time>2021-03-23T08:29:26Z</time>
      </trkpt>
      <trkpt lat="45.99304" lon="6.49423">
        <ele>1458</ele>
        <time>2021-03-23T08:29:28Z</time>
      </trkpt>
      <trkpt lat="45.99303" lon="6.49419">
        <ele>1458.4</ele>
        <time>2021-03-23T08:29:31Z</time>
      </trkpt>
      <trkpt lat="45.99302" lon="6.49415">
        <ele>1458.4</ele>
        <time>2021-03-23T08:29:33Z</time>
      </trkpt>
      <trkpt lat="45.99302" lon="6.49411">
        <ele>1458.4</ele>
        <time>2021-03-23T08:29:35Z</time>
      </trkpt>
      <trkpt lat="45.99299" lon="6.49407">
        <ele>1458.2</ele>
        <time>2021-03-23T08:29:37Z</time>
      </trkpt>
      <trkpt lat="45.99298" lon="6.49405">
        <ele>1458.6</ele>
        <time>2021-03-23T08:29:40Z</time>
      </trkpt>
      <trkpt lat="45.99296" lon="6.49403">
        <ele>1458.8</ele>
        <time>2021-03-23T08:29:43Z</time>
      </trkpt>
      <trkpt lat="45.99294" lon="6.49401">
        <ele>1459.2</ele>
        <time>2021-03-23T08:29:48Z</time>
      </trkpt>
      <trkpt lat="45.99292" lon="6.49399">
        <ele>1459.2</ele>
        <time>2021-03-23T08:29:50Z</time>
      </trkpt>
      <trkpt lat="45.9929" lon="6.49398">
        <ele>1459.2</ele>
        <time>2021-03-23T08:29:54Z</time>
      </trkpt>
      <trkpt lat="45.99289" lon="6.49399">
        <ele>1459.4</ele>
        <time>2021-03-23T08:29:58Z</time>
      </trkpt>
      <trkpt lat="45.99287" lon="6.494">
        <ele>1459.8</ele>
        <time>2021-03-23T08:30:01Z</time>
      </trkpt>
      <trkpt lat="45.99285" lon="6.494">
        <ele>1460.2</ele>
        <time>2021-03-23T08:30:03Z</time>
      </trkpt>
      <trkpt lat="45.99282" lon="6.49401">
        <ele>1460.8</ele>
        <time>2021-03-23T08:30:06Z</time>
      </trkpt>
      <trkpt lat="45.9928" lon="6.49401">
        <ele>1461</ele>
        <time>2021-03-23T08:30:09Z</time>
      </trkpt>
      <trkpt lat="45.99277" lon="6.49402">
        <ele>1461.2</ele>
        <time>2021-03-23T08:30:12Z</time>
      </trkpt>
      <trkpt lat="45.99278" lon="6.49404">
        <ele>1460.6</ele>
        <time>2021-03-23T08:30:20Z</time>
      </trkpt>
      <trkpt lat="45.99278" lon="6.49407">
        <ele>1460.6</ele>
        <time>2021-03-23T08:30:23Z</time>
      </trkpt>
      <trkpt lat="45.99278" lon="6.4941">
        <ele>1460.2</ele>
        <time>2021-03-23T08:30:26Z</time>
      </trkpt>
      <trkpt lat="45.99277" lon="6.49413">
        <ele>1459.6</ele>
        <time>2021-03-23T08:30:31Z</time>
      </trkpt>
      <trkpt lat="45.99277" lon="6.49415">
        <ele>1458.8</ele>
        <time>2021-03-23T08:30:35Z</time>
      </trkpt>
      <trkpt lat="45.99277" lon="6.49419">
        <ele>1458.4</ele>
        <time>2021-03-23T08:30:38Z</time>
      </trkpt>
      <trkpt lat="45.99277" lon="6.49422">
        <ele>1457.8</ele>
        <time>2021-03-23T08:30:41Z</time>
      </trkpt>
      <trkpt lat="45.99276" lon="6.49426">
        <ele>1457.6</ele>
        <time>2021-03-23T08:30:44Z</time>
      </trkpt>
      <trkpt lat="45.99276" lon="6.49428">
        <ele>1457.6</ele>
        <time>2021-03-23T08:30:46Z</time>
      </trkpt>
      <trkpt lat="45.99276" lon="6.49431">
        <ele>1457.6</ele>
        <time>2021-03-23T08:30:48Z</time>
      </trkpt>
      <trkpt lat="45.99276" lon="6.49434">
        <ele>1457</ele>
        <time>2021-03-23T08:30:51Z</time>
      </trkpt>
      <trkpt lat="45.99276" lon="6.49438">
        <ele>1456.6</ele>
        <time>2021-03-23T08:30:54Z</time>
      </trkpt>
      <trkpt lat="45.99276" lon="6.49441">
        <ele>1456</ele>
        <time>2021-03-23T08:30:57Z</time>
      </trkpt>
      <trkpt lat="45.99276" lon="6.49444">
        <ele>1455</ele>
        <time>2021-03-23T08:31:00Z</time>
      </trkpt>
      <trkpt lat="45.99275" lon="6.49447">
        <ele>1454.6</ele>
        <time>2021-03-23T08:31:03Z</time>
      </trkpt>
      <trkpt lat="45.99275" lon="6.4945">
        <ele>1454.2</ele>
        <time>2021-03-23T08:31:06Z</time>
      </trkpt>
      <trkpt lat="45.99275" lon="6.49453">
        <ele>1454</ele>
        <time>2021-03-23T08:31:09Z</time>
      </trkpt>
      <trkpt lat="45.99275" lon="6.49455">
        <ele>1453.6</ele>
        <time>2021-03-23T08:31:12Z</time>
      </trkpt>
      <trkpt lat="45.99274" lon="6.49458">
        <ele>1453.6</ele>
        <time>2021-03-23T08:31:15Z</time>
      </trkpt>
      <trkpt lat="45.99274" lon="6.49461">
        <ele>1453.6</ele>
        <time>2021-03-23T08:31:19Z</time>
      </trkpt>
      <trkpt lat="45.99273" lon="6.49464">
        <ele>1453.4</ele>
        <time>2021-03-23T08:31:22Z</time>
      </trkpt>
      <trkpt lat="45.99272" lon="6.49467">
        <ele>1453</ele>
        <time>2021-03-23T08:31:25Z</time>
      </trkpt>
      <trkpt lat="45.99272" lon="6.4947">
        <ele>1453.2</ele>
        <time>2021-03-23T08:31:28Z</time>
      </trkpt>
      <trkpt lat="45.99272" lon="6.49473">
        <ele>1453.8</ele>
        <time>2021-03-23T08:31:32Z</time>
      </trkpt>
      <trkpt lat="45.99272" lon="6.49476">
        <ele>1454.2</ele>
        <time>2021-03-23T08:31:36Z</time>
      </trkpt>
      <trkpt lat="45.99271" lon="6.49479">
        <ele>1454.8</ele>
        <time>2021-03-23T08:31:39Z</time>
      </trkpt>
      <trkpt lat="45.9927" lon="6.49481">
        <ele>1454.8</ele>
        <time>2021-03-23T08:31:42Z</time>
      </trkpt>
      <trkpt lat="45.99269" lon="6.49484">
        <ele>1455</ele>
        <time>2021-03-23T08:31:46Z</time>
      </trkpt>
      <trkpt lat="45.99269" lon="6.49488">
        <ele>1455.4</ele>
        <time>2021-03-23T08:31:51Z</time>
      </trkpt>
      <trkpt lat="45.99269" lon="6.49491">
        <ele>1455.8</ele>
        <time>2021-03-23T08:31:55Z</time>
      </trkpt>
      <trkpt lat="45.99269" lon="6.49494">
        <ele>1456.4</ele>
        <time>2021-03-23T08:31:59Z</time>
      </trkpt>
      <trkpt lat="45.99267" lon="6.49497">
        <ele>1456.6</ele>
        <time>2021-03-23T08:32:02Z</time>
      </trkpt>
      <trkpt lat="45.99266" lon="6.495">
        <ele>1457.2</ele>
        <time>2021-03-23T08:32:10Z</time>
      </trkpt>
      <trkpt lat="45.99266" lon="6.49503">
        <ele>1457.6</ele>
        <time>2021-03-23T08:32:14Z</time>
      </trkpt>
      <trkpt lat="45.99266" lon="6.49506">
        <ele>1457.8</ele>
        <time>2021-03-23T08:32:18Z</time>
      </trkpt>
      <trkpt lat="45.99265" lon="6.49509">
        <ele>1457.8</ele>
        <time>2021-03-23T08:32:21Z</time>
      </trkpt>
      <trkpt lat="45.99264" lon="6.49511">
        <ele>1458.4</ele>
        <time>2021-03-23T08:32:24Z</time>
      </trkpt>
      <trkpt lat="45.99263" lon="6.49514">
        <ele>1459</ele>
        <time>2021-03-23T08:32:27Z</time>
      </trkpt>
      <trkpt lat="45.99262" lon="6.49517">
        <ele>1460.2</ele>
        <time>2021-03-23T08:32:31Z</time>
      </trkpt>
      <trkpt lat="45.99262" lon="6.4952">
        <ele>1460.8</ele>
        <time>2021-03-23T08:32:34Z</time>
      </trkpt>
      <trkpt lat="45.9926" lon="6.49523">
        <ele>1461</ele>
        <time>2021-03-23T08:32:38Z</time>
      </trkpt>
      <trkpt lat="45.9926" lon="6.49525">
        <ele>1461.2</ele>
        <time>2021-03-23T08:32:41Z</time>
      </trkpt>
      <trkpt lat="45.99259" lon="6.49528">
        <ele>1461.4</ele>
        <time>2021-03-23T08:32:44Z</time>
      </trkpt>
      <trkpt lat="45.99259" lon="6.49531">
        <ele>1461.8</ele>
        <time>2021-03-23T08:32:47Z</time>
      </trkpt>
      <trkpt lat="45.99258" lon="6.49534">
        <ele>1462.4</ele>
        <time>2021-03-23T08:32:51Z</time>
      </trkpt>
      <trkpt lat="45.99259" lon="6.49537">
        <ele>1462.8</ele>
        <time>2021-03-23T08:32:55Z</time>
      </trkpt>
      <trkpt lat="45.99258" lon="6.4954">
        <ele>1464.2</ele>
        <time>2021-03-23T08:32:59Z</time>
      </trkpt>
      <trkpt lat="45.99259" lon="6.49543">
        <ele>1464.8</ele>
        <time>2021-03-23T08:33:03Z</time>
      </trkpt>
      <trkpt lat="45.99258" lon="6.49546">
        <ele>1465</ele>
        <time>2021-03-23T08:33:07Z</time>
      </trkpt>
      <trkpt lat="45.99255" lon="6.49549">
        <ele>1464.8</ele>
        <time>2021-03-23T08:33:10Z</time>
      </trkpt>
      <trkpt lat="45.99254" lon="6.49551">
        <ele>1464.6</ele>
        <time>2021-03-23T08:33:12Z</time>
      </trkpt>
      <trkpt lat="45.99253" lon="6.49554">
        <ele>1464.4</ele>
        <time>2021-03-23T08:33:16Z</time>
      </trkpt>
      <trkpt lat="45.99252" lon="6.49556">
        <ele>1464.8</ele>
        <time>2021-03-23T08:33:19Z</time>
      </trkpt>
      <trkpt lat="45.99251" lon="6.49559">
        <ele>1465.2</ele>
        <time>2021-03-23T08:33:22Z</time>
      </trkpt>
      <trkpt lat="45.99251" lon="6.49562">
        <ele>1465.2</ele>
        <time>2021-03-23T08:33:26Z</time>
      </trkpt>
      <trkpt lat="45.99251" lon="6.49565">
        <ele>1466</ele>
        <time>2021-03-23T08:33:31Z</time>
      </trkpt>
      <trkpt lat="45.99251" lon="6.49568">
        <ele>1466.8</ele>
        <time>2021-03-23T08:33:35Z</time>
      </trkpt>
      <trkpt lat="45.99249" lon="6.4957">
        <ele>1467</ele>
        <time>2021-03-23T08:33:38Z</time>
      </trkpt>
      <trkpt lat="45.99247" lon="6.49571">
        <ele>1467.4</ele>
        <time>2021-03-23T08:33:41Z</time>
      </trkpt>
      <trkpt lat="45.99245" lon="6.49572">
        <ele>1467.6</ele>
        <time>2021-03-23T08:33:44Z</time>
      </trkpt>
      <trkpt lat="45.99244" lon="6.49574">
        <ele>1468</ele>
        <time>2021-03-23T08:33:49Z</time>
      </trkpt>
      <trkpt lat="45.99242" lon="6.49576">
        <ele>1468.6</ele>
        <time>2021-03-23T08:33:53Z</time>
      </trkpt>
      <trkpt lat="45.99241" lon="6.49578">
        <ele>1469.2</ele>
        <time>2021-03-23T08:33:57Z</time>
      </trkpt>
      <trkpt lat="45.99239" lon="6.4958">
        <ele>1469.2</ele>
        <time>2021-03-23T08:34:00Z</time>
      </trkpt>
      <trkpt lat="45.99237" lon="6.4958">
        <ele>1469.4</ele>
        <time>2021-03-23T08:34:04Z</time>
      </trkpt>
      <trkpt lat="45.99234" lon="6.49581">
        <ele>1470</ele>
        <time>2021-03-23T08:34:07Z</time>
      </trkpt>
      <trkpt lat="45.99232" lon="6.49582">
        <ele>1470.4</ele>
        <time>2021-03-23T08:34:10Z</time>
      </trkpt>
      <trkpt lat="45.9923" lon="6.49581">
        <ele>1470.8</ele>
        <time>2021-03-23T08:34:13Z</time>
      </trkpt>
      <trkpt lat="45.99227" lon="6.49581">
        <ele>1471.8</ele>
        <time>2021-03-23T08:34:17Z</time>
      </trkpt>
      <trkpt lat="45.99226" lon="6.4958">
        <ele>1473.2</ele>
        <time>2021-03-23T08:34:21Z</time>
      </trkpt>
      <trkpt lat="45.99224" lon="6.4958">
        <ele>1475.2</ele>
        <time>2021-03-23T08:34:33Z</time>
      </trkpt>
      <trkpt lat="45.99222" lon="6.49577">
        <ele>1475.4</ele>
        <time>2021-03-23T08:34:36Z</time>
      </trkpt>
      <trkpt lat="45.99221" lon="6.49575">
        <ele>1476</ele>
        <time>2021-03-23T08:34:39Z</time>
      </trkpt>
      <trkpt lat="45.99219" lon="6.49573">
        <ele>1476.8</ele>
        <time>2021-03-23T08:34:42Z</time>
      </trkpt>
      <trkpt lat="45.99219" lon="6.4957">
        <ele>1477.6</ele>
        <time>2021-03-23T08:34:46Z</time>
      </trkpt>
      <trkpt lat="45.99217" lon="6.49567">
        <ele>1478.2</ele>
        <time>2021-03-23T08:34:50Z</time>
      </trkpt>
      <trkpt lat="45.99217" lon="6.49564">
        <ele>1478.6</ele>
        <time>2021-03-23T08:34:53Z</time>
      </trkpt>
      <trkpt lat="45.99217" lon="6.49561">
        <ele>1479.2</ele>
        <time>2021-03-23T08:34:56Z</time>
      </trkpt>
      <trkpt lat="45.99218" lon="6.49559">
        <ele>1479.6</ele>
        <time>2021-03-23T08:35:00Z</time>
      </trkpt>
      <trkpt lat="45.99217" lon="6.49556">
        <ele>1480.2</ele>
        <time>2021-03-23T08:35:04Z</time>
      </trkpt>
      <trkpt lat="45.99215" lon="6.49554">
        <ele>1481</ele>
        <time>2021-03-23T08:35:08Z</time>
      </trkpt>
      <trkpt lat="45.99214" lon="6.49552">
        <ele>1482</ele>
        <time>2021-03-23T08:35:13Z</time>
      </trkpt>
      <trkpt lat="45.99213" lon="6.49549">
        <ele>1483</ele>
        <time>2021-03-23T08:35:18Z</time>
      </trkpt>
      <trkpt lat="45.99211" lon="6.49549">
        <ele>1484</ele>
        <time>2021-03-23T08:35:23Z</time>
      </trkpt>
      <trkpt lat="45.99209" lon="6.49548">
        <ele>1485.2</ele>
        <time>2021-03-23T08:35:30Z</time>
      </trkpt>
      <trkpt lat="45.99207" lon="6.49547">
        <ele>1487.6</ele>
        <time>2021-03-23T08:35:38Z</time>
      </trkpt>
      <trkpt lat="45.99205" lon="6.49546">
        <ele>1488.8</ele>
        <time>2021-03-23T08:35:43Z</time>
      </trkpt>
      <trkpt lat="45.99203" lon="6.49545">
        <ele>1489.8</ele>
        <time>2021-03-23T08:35:47Z</time>
      </trkpt>
      <trkpt lat="45.99201" lon="6.49543">
        <ele>1490.4</ele>
        <time>2021-03-23T08:35:50Z</time>
      </trkpt>
      <trkpt lat="45.99199" lon="6.49543">
        <ele>1491.2</ele>
        <time>2021-03-23T08:35:54Z</time>
      </trkpt>
      <trkpt lat="45.99198" lon="6.49541">
        <ele>1491.8</ele>
        <time>2021-03-23T08:35:58Z</time>
      </trkpt>
      <trkpt lat="45.99196" lon="6.49539">
        <ele>1492.4</ele>
        <time>2021-03-23T08:36:02Z</time>
      </trkpt>
      <trkpt lat="45.99194" lon="6.49538">
        <ele>1492.8</ele>
        <time>2021-03-23T08:36:06Z</time>
      </trkpt>
      <trkpt lat="45.99193" lon="6.49536">
        <ele>1493.2</ele>
        <time>2021-03-23T08:36:10Z</time>
      </trkpt>
      <trkpt lat="45.99193" lon="6.49533">
        <ele>1493</ele>
        <time>2021-03-23T08:36:13Z</time>
      </trkpt>
      <trkpt lat="45.99192" lon="6.4953">
        <ele>1493.2</ele>
        <time>2021-03-23T08:36:16Z</time>
      </trkpt>
      <trkpt lat="45.99192" lon="6.49527">
        <ele>1493.6</ele>
        <time>2021-03-23T08:36:20Z</time>
      </trkpt>
      <trkpt lat="45.99193" lon="6.49524">
        <ele>1494</ele>
        <time>2021-03-23T08:36:23Z</time>
      </trkpt>
      <trkpt lat="45.99193" lon="6.49522">
        <ele>1494</ele>
        <time>2021-03-23T08:36:25Z</time>
      </trkpt>
      <trkpt lat="45.99195" lon="6.49519">
        <ele>1494.4</ele>
        <time>2021-03-23T08:36:28Z</time>
      </trkpt>
      <trkpt lat="45.99197" lon="6.49517">
        <ele>1494.4</ele>
        <time>2021-03-23T08:36:33Z</time>
      </trkpt>
      <trkpt lat="45.99199" lon="6.49515">
        <ele>1495.4</ele>
        <time>2021-03-23T08:36:36Z</time>
      </trkpt>
      <trkpt lat="45.99198" lon="6.49512">
        <ele>1496.4</ele>
        <time>2021-03-23T08:36:39Z</time>
      </trkpt>
      <trkpt lat="45.99197" lon="6.49509">
        <ele>1497.4</ele>
        <time>2021-03-23T08:36:43Z</time>
      </trkpt>
      <trkpt lat="45.99196" lon="6.49506">
        <ele>1497.6</ele>
        <time>2021-03-23T08:36:46Z</time>
      </trkpt>
      <trkpt lat="45.99197" lon="6.49504">
        <ele>1498</ele>
        <time>2021-03-23T08:36:50Z</time>
      </trkpt>
      <trkpt lat="45.99197" lon="6.495">
        <ele>1498.4</ele>
        <time>2021-03-23T08:36:54Z</time>
      </trkpt>
      <trkpt lat="45.99196" lon="6.49497">
        <ele>1499</ele>
        <time>2021-03-23T08:36:59Z</time>
      </trkpt>
      <trkpt lat="45.99196" lon="6.49495">
        <ele>1499.2</ele>
        <time>2021-03-23T08:37:03Z</time>
      </trkpt>
      <trkpt lat="45.99197" lon="6.49492">
        <ele>1499.8</ele>
        <time>2021-03-23T08:37:07Z</time>
      </trkpt>
      <trkpt lat="45.99197" lon="6.49489">
        <ele>1500.4</ele>
        <time>2021-03-23T08:37:11Z</time>
      </trkpt>
      <trkpt lat="45.99198" lon="6.49486">
        <ele>1501.2</ele>
        <time>2021-03-23T08:37:15Z</time>
      </trkpt>
      <trkpt lat="45.99199" lon="6.49483">
        <ele>1502.8</ele>
        <time>2021-03-23T08:37:24Z</time>
      </trkpt>
      <trkpt lat="45.992" lon="6.49481">
        <ele>1503.2</ele>
        <time>2021-03-23T08:37:28Z</time>
      </trkpt>
      <trkpt lat="45.992" lon="6.49478">
        <ele>1504</ele>
        <time>2021-03-23T08:37:32Z</time>
      </trkpt>
      <trkpt lat="45.992" lon="6.49475">
        <ele>1505</ele>
        <time>2021-03-23T08:37:39Z</time>
      </trkpt>
      <trkpt lat="45.992" lon="6.49472">
        <ele>1508.2</ele>
        <time>2021-03-23T08:39:27Z</time>
      </trkpt>
      <trkpt lat="45.992" lon="6.4947">
        <ele>1509</ele>
        <time>2021-03-23T08:39:40Z</time>
      </trkpt>
      <trkpt lat="45.99198" lon="6.49468">
        <ele>1509.2</ele>
        <time>2021-03-23T08:39:44Z</time>
      </trkpt>
      <trkpt lat="45.99197" lon="6.49465">
        <ele>1509.4</ele>
        <time>2021-03-23T08:39:48Z</time>
      </trkpt>
      <trkpt lat="45.99196" lon="6.49463">
        <ele>1509.8</ele>
        <time>2021-03-23T08:39:52Z</time>
      </trkpt>
      <trkpt lat="45.99196" lon="6.4946">
        <ele>1510.4</ele>
        <time>2021-03-23T08:39:56Z</time>
      </trkpt>
      <trkpt lat="45.99196" lon="6.49457">
        <ele>1511.2</ele>
        <time>2021-03-23T08:40:01Z</time>
      </trkpt>
      <trkpt lat="45.99195" lon="6.49455">
        <ele>1511.8</ele>
        <time>2021-03-23T08:40:05Z</time>
      </trkpt>
      <trkpt lat="45.99194" lon="6.49452">
        <ele>1512.2</ele>
        <time>2021-03-23T08:40:09Z</time>
      </trkpt>
      <trkpt lat="45.99193" lon="6.49449">
        <ele>1512.8</ele>
        <time>2021-03-23T08:40:14Z</time>
      </trkpt>
      <trkpt lat="45.99193" lon="6.49447">
        <ele>1513.4</ele>
        <time>2021-03-23T08:40:19Z</time>
      </trkpt>
      <trkpt lat="45.99192" lon="6.49444">
        <ele>1514.4</ele>
        <time>2021-03-23T08:40:25Z</time>
      </trkpt>
      <trkpt lat="45.99192" lon="6.49441">
        <ele>1516</ele>
        <time>2021-03-23T08:40:30Z</time>
      </trkpt>
      <trkpt lat="45.99191" lon="6.49439">
        <ele>1517.4</ele>
        <time>2021-03-23T08:40:37Z</time>
      </trkpt>
      <trkpt lat="45.9919" lon="6.49435">
        <ele>1518.6</ele>
        <time>2021-03-23T08:40:41Z</time>
      </trkpt>
      <trkpt lat="45.99189" lon="6.49433">
        <ele>1519.6</ele>
        <time>2021-03-23T08:40:44Z</time>
      </trkpt>
      <trkpt lat="45.99189" lon="6.4943">
        <ele>1520.8</ele>
        <time>2021-03-23T08:40:48Z</time>
      </trkpt>
      <trkpt lat="45.99189" lon="6.49427">
        <ele>1521.8</ele>
        <time>2021-03-23T08:40:53Z</time>
      </trkpt>
      <trkpt lat="45.99188" lon="6.49425">
        <ele>1522.8</ele>
        <time>2021-03-23T08:40:57Z</time>
      </trkpt>
      <trkpt lat="45.99187" lon="6.49422">
        <ele>1523.6</ele>
        <time>2021-03-23T08:41:01Z</time>
      </trkpt>
      <trkpt lat="45.99186" lon="6.49419">
        <ele>1524.4</ele>
        <time>2021-03-23T08:41:05Z</time>
      </trkpt>
      <trkpt lat="45.99184" lon="6.4942">
        <ele>1525.4</ele>
        <time>2021-03-23T08:41:11Z</time>
      </trkpt>
      <trkpt lat="45.99182" lon="6.4942">
        <ele>1526</ele>
        <time>2021-03-23T08:41:16Z</time>
      </trkpt>
      <trkpt lat="45.9918" lon="6.49421">
        <ele>1526.6</ele>
        <time>2021-03-23T08:41:20Z</time>
      </trkpt>
      <trkpt lat="45.99178" lon="6.49422">
        <ele>1527.2</ele>
        <time>2021-03-23T08:41:23Z</time>
      </trkpt>
      <trkpt lat="45.99176" lon="6.49422">
        <ele>1528.2</ele>
        <time>2021-03-23T08:41:26Z</time>
      </trkpt>
      <trkpt lat="45.99173" lon="6.49423">
        <ele>1528.6</ele>
        <time>2021-03-23T08:41:29Z</time>
      </trkpt>
      <trkpt lat="45.99171" lon="6.49423">
        <ele>1529.6</ele>
        <time>2021-03-23T08:41:33Z</time>
      </trkpt>
      <trkpt lat="45.99169" lon="6.49423">
        <ele>1530.8</ele>
        <time>2021-03-23T08:41:38Z</time>
      </trkpt>
      <trkpt lat="45.99167" lon="6.49422">
        <ele>1532</ele>
        <time>2021-03-23T08:41:45Z</time>
      </trkpt>
      <trkpt lat="45.99165" lon="6.49421">
        <ele>1534.8</ele>
        <time>2021-03-23T08:41:55Z</time>
      </trkpt>
      <trkpt lat="45.99164" lon="6.49422">
        <ele>1535.4</ele>
        <time>2021-03-23T08:41:57Z</time>
      </trkpt>
      <trkpt lat="45.99161" lon="6.49422">
        <ele>1536.2</ele>
        <time>2021-03-23T08:42:00Z</time>
      </trkpt>
      <trkpt lat="45.99159" lon="6.49422">
        <ele>1537.4</ele>
        <time>2021-03-23T08:42:04Z</time>
      </trkpt>
      <trkpt lat="45.99158" lon="6.4942">
        <ele>1538.6</ele>
        <time>2021-03-23T08:42:09Z</time>
      </trkpt>
      <trkpt lat="45.99156" lon="6.49419">
        <ele>1540</ele>
        <time>2021-03-23T08:42:13Z</time>
      </trkpt>
      <trkpt lat="45.99154" lon="6.49417">
        <ele>1541</ele>
        <time>2021-03-23T08:42:18Z</time>
      </trkpt>
      <trkpt lat="45.99152" lon="6.49414">
        <ele>1541.4</ele>
        <time>2021-03-23T08:42:21Z</time>
      </trkpt>
      <trkpt lat="45.9915" lon="6.49414">
        <ele>1542.2</ele>
        <time>2021-03-23T08:42:24Z</time>
      </trkpt>
      <trkpt lat="45.99148" lon="6.49413">
        <ele>1542.8</ele>
        <time>2021-03-23T08:42:28Z</time>
      </trkpt>
      <trkpt lat="45.99146" lon="6.49411">
        <ele>1543.6</ele>
        <time>2021-03-23T08:42:31Z</time>
      </trkpt>
      <trkpt lat="45.99145" lon="6.49409">
        <ele>1544.2</ele>
        <time>2021-03-23T08:42:34Z</time>
      </trkpt>
      <trkpt lat="45.99145" lon="6.49406">
        <ele>1545.4</ele>
        <time>2021-03-23T08:42:38Z</time>
      </trkpt>
      <trkpt lat="45.99144" lon="6.49403">
        <ele>1546.4</ele>
        <time>2021-03-23T08:42:43Z</time>
      </trkpt>
      <trkpt lat="45.99142" lon="6.49401">
        <ele>1547.6</ele>
        <time>2021-03-23T08:42:49Z</time>
      </trkpt>
      <trkpt lat="45.99141" lon="6.494">
        <ele>1548.4</ele>
        <time>2021-03-23T08:42:53Z</time>
      </trkpt>
      <trkpt lat="45.99139" lon="6.49398">
        <ele>1549.6</ele>
        <time>2021-03-23T08:42:58Z</time>
      </trkpt>
      <trkpt lat="45.99139" lon="6.49395">
        <ele>1551</ele>
        <time>2021-03-23T08:43:04Z</time>
      </trkpt>
      <trkpt lat="45.99139" lon="6.49392">
        <ele>1552.6</ele>
        <time>2021-03-23T08:43:08Z</time>
      </trkpt>
      <trkpt lat="45.99139" lon="6.49388">
        <ele>1553.6</ele>
        <time>2021-03-23T08:43:12Z</time>
      </trkpt>
      <trkpt lat="45.99139" lon="6.49385">
        <ele>1555</ele>
        <time>2021-03-23T08:43:17Z</time>
      </trkpt>
      <trkpt lat="45.99138" lon="6.49382">
        <ele>1555.4</ele>
        <time>2021-03-23T08:43:20Z</time>
      </trkpt>
      <trkpt lat="45.99137" lon="6.49379">
        <ele>1556</ele>
        <time>2021-03-23T08:43:24Z</time>
      </trkpt>
      <trkpt lat="45.99136" lon="6.49376">
        <ele>1556.8</ele>
        <time>2021-03-23T08:43:29Z</time>
      </trkpt>
      <trkpt lat="45.99135" lon="6.49374">
        <ele>1557.4</ele>
        <time>2021-03-23T08:43:32Z</time>
      </trkpt>
      <trkpt lat="45.99134" lon="6.49372">
        <ele>1558</ele>
        <time>2021-03-23T08:43:35Z</time>
      </trkpt>
      <trkpt lat="45.99133" lon="6.49369">
        <ele>1558.2</ele>
        <time>2021-03-23T08:43:38Z</time>
      </trkpt>
      <trkpt lat="45.99132" lon="6.49366">
        <ele>1558.2</ele>
        <time>2021-03-23T08:43:41Z</time>
      </trkpt>
      <trkpt lat="45.99131" lon="6.49362">
        <ele>1557.8</ele>
        <time>2021-03-23T08:43:44Z</time>
      </trkpt>
      <trkpt lat="45.99131" lon="6.49359">
        <ele>1558</ele>
        <time>2021-03-23T08:43:47Z</time>
      </trkpt>
      <trkpt lat="45.9913" lon="6.49357">
        <ele>1558.4</ele>
        <time>2021-03-23T08:43:50Z</time>
      </trkpt>
      <trkpt lat="45.9913" lon="6.49354">
        <ele>1559.2</ele>
        <time>2021-03-23T08:43:54Z</time>
      </trkpt>
      <trkpt lat="45.99129" lon="6.49352">
        <ele>1560.2</ele>
        <time>2021-03-23T08:43:58Z</time>
      </trkpt>
      <trkpt lat="45.99128" lon="6.49349">
        <ele>1561.2</ele>
        <time>2021-03-23T08:44:02Z</time>
      </trkpt>
      <trkpt lat="45.99127" lon="6.49347">
        <ele>1562</ele>
        <time>2021-03-23T08:44:06Z</time>
      </trkpt>
      <trkpt lat="45.99126" lon="6.49344">
        <ele>1562.6</ele>
        <time>2021-03-23T08:44:10Z</time>
      </trkpt>
      <trkpt lat="45.99126" lon="6.49341">
        <ele>1563.4</ele>
        <time>2021-03-23T08:44:15Z</time>
      </trkpt>
      <trkpt lat="45.99125" lon="6.49338">
        <ele>1563.6</ele>
        <time>2021-03-23T08:44:19Z</time>
      </trkpt>
      <trkpt lat="45.99124" lon="6.49335">
        <ele>1564.2</ele>
        <time>2021-03-23T08:44:23Z</time>
      </trkpt>
      <trkpt lat="45.99123" lon="6.49333">
        <ele>1564.8</ele>
        <time>2021-03-23T08:44:27Z</time>
      </trkpt>
      <trkpt lat="45.99122" lon="6.49331">
        <ele>1564.8</ele>
        <time>2021-03-23T08:44:31Z</time>
      </trkpt>
      <trkpt lat="45.99121" lon="6.49328">
        <ele>1565.2</ele>
        <time>2021-03-23T08:44:35Z</time>
      </trkpt>
      <trkpt lat="45.99122" lon="6.49325">
        <ele>1565.8</ele>
        <time>2021-03-23T08:44:39Z</time>
      </trkpt>
      <trkpt lat="45.99122" lon="6.49322">
        <ele>1566.4</ele>
        <time>2021-03-23T08:44:44Z</time>
      </trkpt>
      <trkpt lat="45.99121" lon="6.49319">
        <ele>1566.8</ele>
        <time>2021-03-23T08:44:48Z</time>
      </trkpt>
      <trkpt lat="45.99121" lon="6.49316">
        <ele>1566.8</ele>
        <time>2021-03-23T08:44:52Z</time>
      </trkpt>
      <trkpt lat="45.99121" lon="6.49312">
        <ele>1566.4</ele>
        <time>2021-03-23T08:44:55Z</time>
      </trkpt>
      <trkpt lat="45.9912" lon="6.4931">
        <ele>1565.8</ele>
        <time>2021-03-23T08:45:00Z</time>
      </trkpt>
      <trkpt lat="45.99119" lon="6.49307">
        <ele>1566.2</ele>
        <time>2021-03-23T08:45:03Z</time>
      </trkpt>
      <trkpt lat="45.99118" lon="6.49304">
        <ele>1566.6</ele>
        <time>2021-03-23T08:45:07Z</time>
      </trkpt>
      <trkpt lat="45.99119" lon="6.49301">
        <ele>1566.8</ele>
        <time>2021-03-23T08:45:10Z</time>
      </trkpt>
      <trkpt lat="45.9912" lon="6.49298">
        <ele>1567.2</ele>
        <time>2021-03-23T08:45:14Z</time>
      </trkpt>
      <trkpt lat="45.99119" lon="6.49296">
        <ele>1567.4</ele>
        <time>2021-03-23T08:45:17Z</time>
      </trkpt>
      <trkpt lat="45.99118" lon="6.49293">
        <ele>1567.6</ele>
        <time>2021-03-23T08:45:20Z</time>
      </trkpt>
      <trkpt lat="45.99117" lon="6.4929">
        <ele>1568.2</ele>
        <time>2021-03-23T08:45:24Z</time>
      </trkpt>
      <trkpt lat="45.99116" lon="6.49288">
        <ele>1568.6</ele>
        <time>2021-03-23T08:45:27Z</time>
      </trkpt>
      <trkpt lat="45.99116" lon="6.49284">
        <ele>1569.4</ele>
        <time>2021-03-23T08:45:30Z</time>
      </trkpt>
      <trkpt lat="45.99115" lon="6.49282">
        <ele>1570</ele>
        <time>2021-03-23T08:45:34Z</time>
      </trkpt>
      <trkpt lat="45.99116" lon="6.49279">
        <ele>1570.8</ele>
        <time>2021-03-23T08:45:38Z</time>
      </trkpt>
      <trkpt lat="45.99115" lon="6.49277">
        <ele>1571.2</ele>
        <time>2021-03-23T08:45:42Z</time>
      </trkpt>
      <trkpt lat="45.99114" lon="6.49274">
        <ele>1571.8</ele>
        <time>2021-03-23T08:45:46Z</time>
      </trkpt>
      <trkpt lat="45.99112" lon="6.49272">
        <ele>1571.8</ele>
        <time>2021-03-23T08:45:49Z</time>
      </trkpt>
      <trkpt lat="45.99111" lon="6.4927">
        <ele>1572.8</ele>
        <time>2021-03-23T08:45:53Z</time>
      </trkpt>
      <trkpt lat="45.99111" lon="6.49267">
        <ele>1573.8</ele>
        <time>2021-03-23T08:45:57Z</time>
      </trkpt>
      <trkpt lat="45.99109" lon="6.49265">
        <ele>1574.2</ele>
        <time>2021-03-23T08:46:01Z</time>
      </trkpt>
      <trkpt lat="45.99108" lon="6.49263">
        <ele>1575</ele>
        <time>2021-03-23T08:46:05Z</time>
      </trkpt>
      <trkpt lat="45.99106" lon="6.49262">
        <ele>1576</ele>
        <time>2021-03-23T08:46:09Z</time>
      </trkpt>
      <trkpt lat="45.99105" lon="6.49261">
        <ele>1576.4</ele>
        <time>2021-03-23T08:46:12Z</time>
      </trkpt>
      <trkpt lat="45.99103" lon="6.4926">
        <ele>1577</ele>
        <time>2021-03-23T08:46:17Z</time>
      </trkpt>
      <trkpt lat="45.99102" lon="6.49257">
        <ele>1577.2</ele>
        <time>2021-03-23T08:46:22Z</time>
      </trkpt>
      <trkpt lat="45.991" lon="6.49255">
        <ele>1577.4</ele>
        <time>2021-03-23T08:46:27Z</time>
      </trkpt>
      <trkpt lat="45.99099" lon="6.49253">
        <ele>1578</ele>
        <time>2021-03-23T08:46:32Z</time>
      </trkpt>
      <trkpt lat="45.99098" lon="6.49251">
        <ele>1578.2</ele>
        <time>2021-03-23T08:46:37Z</time>
      </trkpt>
      <trkpt lat="45.99096" lon="6.49249">
        <ele>1578.4</ele>
        <time>2021-03-23T08:46:40Z</time>
      </trkpt>
      <trkpt lat="45.99095" lon="6.49247">
        <ele>1578.8</ele>
        <time>2021-03-23T08:46:44Z</time>
      </trkpt>
      <trkpt lat="45.99094" lon="6.49244">
        <ele>1579.2</ele>
        <time>2021-03-23T08:46:50Z</time>
      </trkpt>
      <trkpt lat="45.99094" lon="6.49242">
        <ele>1579.6</ele>
        <time>2021-03-23T08:46:53Z</time>
      </trkpt>
      <trkpt lat="45.99094" lon="6.49238">
        <ele>1580.6</ele>
        <time>2021-03-23T08:46:57Z</time>
      </trkpt>
      <trkpt lat="45.99093" lon="6.49236">
        <ele>1580.8</ele>
        <time>2021-03-23T08:47:05Z</time>
      </trkpt>
      <trkpt lat="45.99091" lon="6.49235">
        <ele>1581.2</ele>
        <time>2021-03-23T08:47:11Z</time>
      </trkpt>
      <trkpt lat="45.9909" lon="6.49233">
        <ele>1581</ele>
        <time>2021-03-23T08:47:16Z</time>
      </trkpt>
      <trkpt lat="45.99088" lon="6.49232">
        <ele>1581.4</ele>
        <time>2021-03-23T08:47:20Z</time>
      </trkpt>
      <trkpt lat="45.99086" lon="6.49232">
        <ele>1581.8</ele>
        <time>2021-03-23T08:47:24Z</time>
      </trkpt>
      <trkpt lat="45.99084" lon="6.49233">
        <ele>1582</ele>
        <time>2021-03-23T08:47:27Z</time>
      </trkpt>
      <trkpt lat="45.99083" lon="6.49235">
        <ele>1581.8</ele>
        <time>2021-03-23T08:47:31Z</time>
      </trkpt>
      <trkpt lat="45.99082" lon="6.49238">
        <ele>1582</ele>
        <time>2021-03-23T08:47:35Z</time>
      </trkpt>
      <trkpt lat="45.99082" lon="6.49241">
        <ele>1582.4</ele>
        <time>2021-03-23T08:47:42Z</time>
      </trkpt>
      <trkpt lat="45.9908" lon="6.49243">
        <ele>1583.4</ele>
        <time>2021-03-23T08:47:47Z</time>
      </trkpt>
      <trkpt lat="45.99079" lon="6.49245">
        <ele>1584</ele>
        <time>2021-03-23T08:47:50Z</time>
      </trkpt>
      <trkpt lat="45.99077" lon="6.49245">
        <ele>1584.4</ele>
        <time>2021-03-23T08:47:55Z</time>
      </trkpt>
      <trkpt lat="45.99075" lon="6.49245">
        <ele>1584.6</ele>
        <time>2021-03-23T08:47:58Z</time>
      </trkpt>
      <trkpt lat="45.99073" lon="6.49245">
        <ele>1585.2</ele>
        <time>2021-03-23T08:48:02Z</time>
      </trkpt>
      <trkpt lat="45.99072" lon="6.49244">
        <ele>1585.4</ele>
        <time>2021-03-23T08:48:06Z</time>
      </trkpt>
      <trkpt lat="45.99071" lon="6.49241">
        <ele>1586.2</ele>
        <time>2021-03-23T08:48:09Z</time>
      </trkpt>
      <trkpt lat="45.9907" lon="6.49238">
        <ele>1586.8</ele>
        <time>2021-03-23T08:48:14Z</time>
      </trkpt>
      <trkpt lat="45.99069" lon="6.49236">
        <ele>1586.8</ele>
        <time>2021-03-23T08:48:18Z</time>
      </trkpt>
      <trkpt lat="45.99068" lon="6.49232">
        <ele>1587.4</ele>
        <time>2021-03-23T08:48:21Z</time>
      </trkpt>
      <trkpt lat="45.99067" lon="6.49229">
        <ele>1587.8</ele>
        <time>2021-03-23T08:48:24Z</time>
      </trkpt>
      <trkpt lat="45.99066" lon="6.49226">
        <ele>1588.4</ele>
        <time>2021-03-23T08:48:27Z</time>
      </trkpt>
      <trkpt lat="45.99066" lon="6.49223">
        <ele>1589</ele>
        <time>2021-03-23T08:48:30Z</time>
      </trkpt>
      <trkpt lat="45.99065" lon="6.4922">
        <ele>1589.4</ele>
        <time>2021-03-23T08:48:33Z</time>
      </trkpt>
      <trkpt lat="45.99064" lon="6.49218">
        <ele>1590</ele>
        <time>2021-03-23T08:48:38Z</time>
      </trkpt>
      <trkpt lat="45.99065" lon="6.4922">
        <ele>1590.2</ele>
        <time>2021-03-23T08:48:47Z</time>
      </trkpt>
      <trkpt lat="45.99064" lon="6.49222">
        <ele>1591.2</ele>
        <time>2021-03-23T08:48:55Z</time>
      </trkpt>
      <trkpt lat="45.99063" lon="6.49224">
        <ele>1592.6</ele>
        <time>2021-03-23T08:48:59Z</time>
      </trkpt>
      <trkpt lat="45.99061" lon="6.49223">
        <ele>1592.8</ele>
        <time>2021-03-23T08:49:03Z</time>
      </trkpt>
      <trkpt lat="45.9906" lon="6.4922">
        <ele>1593</ele>
        <time>2021-03-23T08:49:06Z</time>
      </trkpt>
      <trkpt lat="45.99059" lon="6.49219">
        <ele>1593.8</ele>
        <time>2021-03-23T08:49:09Z</time>
      </trkpt>
      <trkpt lat="45.99057" lon="6.49217">
        <ele>1596.6</ele>
        <time>2021-03-23T08:49:59Z</time>
      </trkpt>
      <trkpt lat="45.99055" lon="6.49216">
        <ele>1596.6</ele>
        <time>2021-03-23T08:50:02Z</time>
      </trkpt>
      <trkpt lat="45.99053" lon="6.49214">
        <ele>1596.4</ele>
        <time>2021-03-23T08:50:06Z</time>
      </trkpt>
      <trkpt lat="45.99052" lon="6.49212">
        <ele>1597</ele>
        <time>2021-03-23T08:50:13Z</time>
      </trkpt>
      <trkpt lat="45.9905" lon="6.49211">
        <ele>1597.4</ele>
        <time>2021-03-23T08:50:30Z</time>
      </trkpt>
      <trkpt lat="45.9905" lon="6.49208">
        <ele>1598.2</ele>
        <time>2021-03-23T08:50:34Z</time>
      </trkpt>
      <trkpt lat="45.99052" lon="6.49206">
        <ele>1599.4</ele>
        <time>2021-03-23T08:50:40Z</time>
      </trkpt>
      <trkpt lat="45.99053" lon="6.49208">
        <ele>1599.8</ele>
        <time>2021-03-23T08:50:46Z</time>
      </trkpt>
      <trkpt lat="45.99053" lon="6.4921">
        <ele>1600.8</ele>
        <time>2021-03-23T08:50:52Z</time>
      </trkpt>
      <trkpt lat="45.99051" lon="6.4921">
        <ele>1601</ele>
        <time>2021-03-23T08:50:56Z</time>
      </trkpt>
      <trkpt lat="45.99049" lon="6.49209">
        <ele>1601</ele>
        <time>2021-03-23T08:50:58Z</time>
      </trkpt>
      <trkpt lat="45.99047" lon="6.49207">
        <ele>1601.6</ele>
        <time>2021-03-23T08:51:02Z</time>
      </trkpt>
      <trkpt lat="45.99046" lon="6.49205">
        <ele>1602.2</ele>
        <time>2021-03-23T08:51:05Z</time>
      </trkpt>
      <trkpt lat="45.99045" lon="6.49202">
        <ele>1602.8</ele>
        <time>2021-03-23T08:51:09Z</time>
      </trkpt>
      <trkpt lat="45.99043" lon="6.49202">
        <ele>1603.4</ele>
        <time>2021-03-23T08:51:11Z</time>
      </trkpt>
      <trkpt lat="45.99041" lon="6.49201">
        <ele>1604.6</ele>
        <time>2021-03-23T08:51:16Z</time>
      </trkpt>
      <trkpt lat="45.99039" lon="6.49203">
        <ele>1605.8</ele>
        <time>2021-03-23T08:51:22Z</time>
      </trkpt>
      <trkpt lat="45.99038" lon="6.49205">
        <ele>1606.8</ele>
        <time>2021-03-23T08:51:26Z</time>
      </trkpt>
      <trkpt lat="45.99037" lon="6.49208">
        <ele>1607.4</ele>
        <time>2021-03-23T08:51:32Z</time>
      </trkpt>
      <trkpt lat="45.99039" lon="6.4921">
        <ele>1607.4</ele>
        <time>2021-03-23T08:51:39Z</time>
      </trkpt>
      <trkpt lat="45.9904" lon="6.49212">
        <ele>1607.4</ele>
        <time>2021-03-23T08:51:43Z</time>
      </trkpt>
      <trkpt lat="45.99039" lon="6.49215">
        <ele>1608</ele>
        <time>2021-03-23T08:51:48Z</time>
      </trkpt>
      <trkpt lat="45.99038" lon="6.49217">
        <ele>1608.8</ele>
        <time>2021-03-23T08:51:54Z</time>
      </trkpt>
      <trkpt lat="45.99037" lon="6.4922">
        <ele>1609.4</ele>
        <time>2021-03-23T08:51:58Z</time>
      </trkpt>
      <trkpt lat="45.99036" lon="6.49223">
        <ele>1609.8</ele>
        <time>2021-03-23T08:52:02Z</time>
      </trkpt>
      <trkpt lat="45.99034" lon="6.49224">
        <ele>1610</ele>
        <time>2021-03-23T08:52:05Z</time>
      </trkpt>
      <trkpt lat="45.99031" lon="6.49224">
        <ele>1610.4</ele>
        <time>2021-03-23T08:52:09Z</time>
      </trkpt>
      <trkpt lat="45.99029" lon="6.49224">
        <ele>1611.2</ele>
        <time>2021-03-23T08:52:13Z</time>
      </trkpt>
      <trkpt lat="45.99027" lon="6.49225">
        <ele>1611.8</ele>
        <time>2021-03-23T08:52:17Z</time>
      </trkpt>
      <trkpt lat="45.99025" lon="6.49226">
        <ele>1612.6</ele>
        <time>2021-03-23T08:52:21Z</time>
      </trkpt>
      <trkpt lat="45.99023" lon="6.49227">
        <ele>1613.4</ele>
        <time>2021-03-23T08:52:27Z</time>
      </trkpt>
      <trkpt lat="45.99021" lon="6.49228">
        <ele>1614</ele>
        <time>2021-03-23T08:52:34Z</time>
      </trkpt>
      <trkpt lat="45.99019" lon="6.49227">
        <ele>1614.6</ele>
        <time>2021-03-23T08:52:38Z</time>
      </trkpt>
      <trkpt lat="45.99017" lon="6.49225">
        <ele>1615.2</ele>
        <time>2021-03-23T08:52:42Z</time>
      </trkpt>
      <trkpt lat="45.99015" lon="6.49226">
        <ele>1616</ele>
        <time>2021-03-23T08:52:45Z</time>
      </trkpt>
      <trkpt lat="45.99013" lon="6.49227">
        <ele>1616.6</ele>
        <time>2021-03-23T08:52:48Z</time>
      </trkpt>
      <trkpt lat="45.99011" lon="6.49227">
        <ele>1617</ele>
        <time>2021-03-23T08:52:51Z</time>
      </trkpt>
      <trkpt lat="45.99009" lon="6.49227">
        <ele>1617.6</ele>
        <time>2021-03-23T08:52:54Z</time>
      </trkpt>
      <trkpt lat="45.99007" lon="6.49226">
        <ele>1618</ele>
        <time>2021-03-23T08:52:58Z</time>
      </trkpt>
      <trkpt lat="45.99005" lon="6.49225">
        <ele>1617.6</ele>
        <time>2021-03-23T08:53:01Z</time>
      </trkpt>
      <trkpt lat="45.99003" lon="6.49224">
        <ele>1618</ele>
        <time>2021-03-23T08:53:04Z</time>
      </trkpt>
      <trkpt lat="45.99001" lon="6.49222">
        <ele>1618.4</ele>
        <time>2021-03-23T08:53:08Z</time>
      </trkpt>
      <trkpt lat="45.98999" lon="6.49221">
        <ele>1618.8</ele>
        <time>2021-03-23T08:53:12Z</time>
      </trkpt>
      <trkpt lat="45.98996" lon="6.4922">
        <ele>1618.6</ele>
        <time>2021-03-23T08:53:15Z</time>
      </trkpt>
      <trkpt lat="45.98994" lon="6.49218">
        <ele>1618.8</ele>
        <time>2021-03-23T08:53:18Z</time>
      </trkpt>
      <trkpt lat="45.98992" lon="6.49217">
        <ele>1618.8</ele>
        <time>2021-03-23T08:53:20Z</time>
      </trkpt>
      <trkpt lat="45.98991" lon="6.49216">
        <ele>1618.8</ele>
        <time>2021-03-23T08:53:23Z</time>
      </trkpt>
      <trkpt lat="45.98989" lon="6.49215">
        <ele>1619.4</ele>
        <time>2021-03-23T08:53:26Z</time>
      </trkpt>
      <trkpt lat="45.98987" lon="6.49214">
        <ele>1619.4</ele>
        <time>2021-03-23T08:53:29Z</time>
      </trkpt>
      <trkpt lat="45.98985" lon="6.49213">
        <ele>1619.6</ele>
        <time>2021-03-23T08:53:32Z</time>
      </trkpt>
      <trkpt lat="45.98982" lon="6.49212">
        <ele>1619.4</ele>
        <time>2021-03-23T08:53:35Z</time>
      </trkpt>
      <trkpt lat="45.9898" lon="6.49211">
        <ele>1619.4</ele>
        <time>2021-03-23T08:53:37Z</time>
      </trkpt>
      <trkpt lat="45.98978" lon="6.4921">
        <ele>1619.4</ele>
        <time>2021-03-23T08:53:40Z</time>
      </trkpt>
      <trkpt lat="45.98975" lon="6.4921">
        <ele>1619.2</ele>
        <time>2021-03-23T08:53:43Z</time>
      </trkpt>
      <trkpt lat="45.98973" lon="6.49209">
        <ele>1619.4</ele>
        <time>2021-03-23T08:53:45Z</time>
      </trkpt>
      <trkpt lat="45.98971" lon="6.49208">
        <ele>1619.4</ele>
        <time>2021-03-23T08:53:48Z</time>
      </trkpt>
      <trkpt lat="45.98969" lon="6.49208">
        <ele>1619.6</ele>
        <time>2021-03-23T08:53:51Z</time>
      </trkpt>
      <trkpt lat="45.98967" lon="6.49207">
        <ele>1619.8</ele>
        <time>2021-03-23T08:53:54Z</time>
      </trkpt>
      <trkpt lat="45.98965" lon="6.49206">
        <ele>1620</ele>
        <time>2021-03-23T08:53:57Z</time>
      </trkpt>
      <trkpt lat="45.98963" lon="6.49205">
        <ele>1620.2</ele>
        <time>2021-03-23T08:54:00Z</time>
      </trkpt>
      <trkpt lat="45.98961" lon="6.49203">
        <ele>1620.4</ele>
        <time>2021-03-23T08:54:03Z</time>
      </trkpt>
      <trkpt lat="45.98959" lon="6.49202">
        <ele>1620.6</ele>
        <time>2021-03-23T08:54:06Z</time>
      </trkpt>
      <trkpt lat="45.98958" lon="6.49201">
        <ele>1620.8</ele>
        <time>2021-03-23T08:54:09Z</time>
      </trkpt>
      <trkpt lat="45.98956" lon="6.49199">
        <ele>1621.4</ele>
        <time>2021-03-23T08:54:13Z</time>
      </trkpt>
      <trkpt lat="45.98954" lon="6.49198">
        <ele>1621.6</ele>
        <time>2021-03-23T08:54:17Z</time>
      </trkpt>
      <trkpt lat="45.98952" lon="6.49196">
        <ele>1622.6</ele>
        <time>2021-03-23T08:54:21Z</time>
      </trkpt>
      <trkpt lat="45.9895" lon="6.49195">
        <ele>1623.2</ele>
        <time>2021-03-23T08:54:25Z</time>
      </trkpt>
      <trkpt lat="45.98949" lon="6.49193">
        <ele>1623.4</ele>
        <time>2021-03-23T08:54:29Z</time>
      </trkpt>
      <trkpt lat="45.98948" lon="6.49191">
        <ele>1625.4</ele>
        <time>2021-03-23T08:56:50Z</time>
      </trkpt>
      <trkpt lat="45.98946" lon="6.4919">
        <ele>1625.8</ele>
        <time>2021-03-23T08:56:53Z</time>
      </trkpt>
      <trkpt lat="45.98944" lon="6.49189">
        <ele>1625.6</ele>
        <time>2021-03-23T08:56:56Z</time>
      </trkpt>
      <trkpt lat="45.98941" lon="6.49188">
        <ele>1625.4</ele>
        <time>2021-03-23T08:56:59Z</time>
      </trkpt>
      <trkpt lat="45.98939" lon="6.49188">
        <ele>1625.6</ele>
        <time>2021-03-23T08:57:01Z</time>
      </trkpt>
      <trkpt lat="45.98937" lon="6.49187">
        <ele>1625.8</ele>
        <time>2021-03-23T08:57:04Z</time>
      </trkpt>
      <trkpt lat="45.98934" lon="6.49185">
        <ele>1626.2</ele>
        <time>2021-03-23T08:57:07Z</time>
      </trkpt>
      <trkpt lat="45.98932" lon="6.49185">
        <ele>1627</ele>
        <time>2021-03-23T08:57:11Z</time>
      </trkpt>
      <trkpt lat="45.98931" lon="6.49182">
        <ele>1629.4</ele>
        <time>2021-03-23T08:57:51Z</time>
      </trkpt>
      <trkpt lat="45.9893" lon="6.49185">
        <ele>1630.2</ele>
        <time>2021-03-23T08:58:02Z</time>
      </trkpt>
      <trkpt lat="45.98929" lon="6.49188">
        <ele>1630.2</ele>
        <time>2021-03-23T08:58:05Z</time>
      </trkpt>
      <trkpt lat="45.98927" lon="6.4919">
        <ele>1630.4</ele>
        <time>2021-03-23T08:58:07Z</time>
      </trkpt>
      <trkpt lat="45.98927" lon="6.49193">
        <ele>1630.6</ele>
        <time>2021-03-23T08:58:10Z</time>
      </trkpt>
      <trkpt lat="45.98926" lon="6.49197">
        <ele>1631</ele>
        <time>2021-03-23T08:58:13Z</time>
      </trkpt>
      <trkpt lat="45.98925" lon="6.492">
        <ele>1631</ele>
        <time>2021-03-23T08:58:16Z</time>
      </trkpt>
      <trkpt lat="45.98923" lon="6.49203">
        <ele>1631.2</ele>
        <time>2021-03-23T08:58:19Z</time>
      </trkpt>
      <trkpt lat="45.98921" lon="6.49205">
        <ele>1631.2</ele>
        <time>2021-03-23T08:58:22Z</time>
      </trkpt>
      <trkpt lat="45.98919" lon="6.49207">
        <ele>1631.2</ele>
        <time>2021-03-23T08:58:25Z</time>
      </trkpt>
      <trkpt lat="45.98917" lon="6.49209">
        <ele>1631.2</ele>
        <time>2021-03-23T08:58:28Z</time>
      </trkpt>
      <trkpt lat="45.98916" lon="6.49211">
        <ele>1631</ele>
        <time>2021-03-23T08:58:30Z</time>
      </trkpt>
      <trkpt lat="45.98914" lon="6.49212">
        <ele>1630.8</ele>
        <time>2021-03-23T08:58:33Z</time>
      </trkpt>
      <trkpt lat="45.98912" lon="6.49214">
        <ele>1630.8</ele>
        <time>2021-03-23T08:58:36Z</time>
      </trkpt>
      <trkpt lat="45.9891" lon="6.49217">
        <ele>1630.8</ele>
        <time>2021-03-23T08:58:39Z</time>
      </trkpt>
      <trkpt lat="45.98909" lon="6.49219">
        <ele>1630.8</ele>
        <time>2021-03-23T08:58:42Z</time>
      </trkpt>
      <trkpt lat="45.98908" lon="6.49222">
        <ele>1632</ele>
        <time>2021-03-23T08:59:28Z</time>
      </trkpt>
      <trkpt lat="45.98906" lon="6.49225">
        <ele>1632.2</ele>
        <time>2021-03-23T08:59:31Z</time>
      </trkpt>
      <trkpt lat="45.98905" lon="6.49227">
        <ele>1632.4</ele>
        <time>2021-03-23T08:59:33Z</time>
      </trkpt>
      <trkpt lat="45.98903" lon="6.4923">
        <ele>1632.6</ele>
        <time>2021-03-23T08:59:36Z</time>
      </trkpt>
      <trkpt lat="45.98902" lon="6.49232">
        <ele>1632.8</ele>
        <time>2021-03-23T08:59:38Z</time>
      </trkpt>
      <trkpt lat="45.98901" lon="6.49234">
        <ele>1632.8</ele>
        <time>2021-03-23T08:59:40Z</time>
      </trkpt>
      <trkpt lat="45.989" lon="6.49237">
        <ele>1632.6</ele>
        <time>2021-03-23T08:59:43Z</time>
      </trkpt>
      <trkpt lat="45.98898" lon="6.4924">
        <ele>1632.8</ele>
        <time>2021-03-23T08:59:46Z</time>
      </trkpt>
      <trkpt lat="45.98897" lon="6.49242">
        <ele>1632.8</ele>
        <time>2021-03-23T08:59:49Z</time>
      </trkpt>
      <trkpt lat="45.98895" lon="6.49243">
        <ele>1633.2</ele>
        <time>2021-03-23T09:00:00Z</time>
      </trkpt>
      <trkpt lat="45.98896" lon="6.49241">
        <ele>1633.6</ele>
        <time>2021-03-23T09:00:49Z</time>
      </trkpt>
      <trkpt lat="45.98894" lon="6.49243">
        <ele>1629.6</ele>
        <time>2021-03-23T09:05:31Z</time>
      </trkpt>
      <trkpt lat="45.98893" lon="6.49245">
        <ele>1629.6</ele>
        <time>2021-03-23T09:05:34Z</time>
      </trkpt>
      <trkpt lat="45.98891" lon="6.49248">
        <ele>1630</ele>
        <time>2021-03-23T09:05:37Z</time>
      </trkpt>
      <trkpt lat="45.9889" lon="6.4925">
        <ele>1630.2</ele>
        <time>2021-03-23T09:05:40Z</time>
      </trkpt>
      <trkpt lat="45.98888" lon="6.49252">
        <ele>1630.4</ele>
        <time>2021-03-23T09:05:43Z</time>
      </trkpt>
      <trkpt lat="45.98887" lon="6.49255">
        <ele>1630.8</ele>
        <time>2021-03-23T09:05:50Z</time>
      </trkpt>
      <trkpt lat="45.98885" lon="6.49257">
        <ele>1630.8</ele>
        <time>2021-03-23T09:05:54Z</time>
      </trkpt>
      <trkpt lat="45.98884" lon="6.49259">
        <ele>1631.8</ele>
        <time>2021-03-23T09:06:04Z</time>
      </trkpt>
      <trkpt lat="45.98882" lon="6.49261">
        <ele>1632</ele>
        <time>2021-03-23T09:06:07Z</time>
      </trkpt>
      <trkpt lat="45.98879" lon="6.49263">
        <ele>1632</ele>
        <time>2021-03-23T09:06:10Z</time>
      </trkpt>
      <trkpt lat="45.98878" lon="6.49261">
        <ele>1632.8</ele>
        <time>2021-03-23T09:06:17Z</time>
      </trkpt>
      <trkpt lat="45.98876" lon="6.4926">
        <ele>1632.8</ele>
        <time>2021-03-23T09:06:20Z</time>
      </trkpt>
      <trkpt lat="45.98876" lon="6.49258">
        <ele>1632.2</ele>
        <time>2021-03-23T09:06:45Z</time>
      </trkpt>
      <trkpt lat="45.98874" lon="6.49259">
        <ele>1633.4</ele>
        <time>2021-03-23T09:08:39Z</time>
      </trkpt>
      <trkpt lat="45.98872" lon="6.49263">
        <ele>1633</ele>
        <time>2021-03-23T09:08:41Z</time>
      </trkpt>
      <trkpt lat="45.98871" lon="6.49266">
        <ele>1632.8</ele>
        <time>2021-03-23T09:08:42Z</time>
      </trkpt>
      <trkpt lat="45.9887" lon="6.49269">
        <ele>1632.4</ele>
        <time>2021-03-23T09:08:43Z</time>
      </trkpt>
      <trkpt lat="45.98868" lon="6.49274">
        <ele>1632</ele>
        <time>2021-03-23T09:08:44Z</time>
      </trkpt>
      <trkpt lat="45.98867" lon="6.49279">
        <ele>1631.8</ele>
        <time>2021-03-23T09:08:45Z</time>
      </trkpt>
      <trkpt lat="45.98866" lon="6.49284">
        <ele>1631.4</ele>
        <time>2021-03-23T09:08:46Z</time>
      </trkpt>
      <trkpt lat="45.98865" lon="6.49289">
        <ele>1631.2</ele>
        <time>2021-03-23T09:08:47Z</time>
      </trkpt>
      <trkpt lat="45.98865" lon="6.49294">
        <ele>1630.8</ele>
        <time>2021-03-23T09:08:48Z</time>
      </trkpt>
      <trkpt lat="45.98865" lon="6.49299">
        <ele>1630.6</ele>
        <time>2021-03-23T09:08:49Z</time>
      </trkpt>
      <trkpt lat="45.98865" lon="6.49304">
        <ele>1630.2</ele>
        <time>2021-03-23T09:08:50Z</time>
      </trkpt>
      <trkpt lat="45.98864" lon="6.49309">
        <ele>1629.6</ele>
        <time>2021-03-23T09:08:51Z</time>
      </trkpt>
      <trkpt lat="45.98863" lon="6.49315">
        <ele>1629.2</ele>
        <time>2021-03-23T09:08:52Z</time>
      </trkpt>
      <trkpt lat="45.98862" lon="6.49322">
        <ele>1629</ele>
        <time>2021-03-23T09:08:53Z</time>
      </trkpt>
      <trkpt lat="45.9886" lon="6.49328">
        <ele>1628.8</ele>
        <time>2021-03-23T09:08:54Z</time>
      </trkpt>
      <trkpt lat="45.98858" lon="6.49333">
        <ele>1628.8</ele>
        <time>2021-03-23T09:08:55Z</time>
      </trkpt>
      <trkpt lat="45.98857" lon="6.49336">
        <ele>1628.6</ele>
        <time>2021-03-23T09:08:56Z</time>
      </trkpt>
      <trkpt lat="45.98855" lon="6.49338">
        <ele>1628.2</ele>
        <time>2021-03-23T09:08:58Z</time>
      </trkpt>
      <trkpt lat="45.98855" lon="6.49341">
        <ele>1627.8</ele>
        <time>2021-03-23T09:09:01Z</time>
      </trkpt>
      <trkpt lat="45.98853" lon="6.49344">
        <ele>1627.4</ele>
        <time>2021-03-23T09:09:04Z</time>
      </trkpt>
      <trkpt lat="45.98852" lon="6.49347">
        <ele>1627.2</ele>
        <time>2021-03-23T09:09:07Z</time>
      </trkpt>
      <trkpt lat="45.98851" lon="6.49349">
        <ele>1627</ele>
        <time>2021-03-23T09:09:09Z</time>
      </trkpt>
      <trkpt lat="45.98849" lon="6.49352">
        <ele>1626.8</ele>
        <time>2021-03-23T09:09:12Z</time>
      </trkpt>
      <trkpt lat="45.98848" lon="6.49355">
        <ele>1626.4</ele>
        <time>2021-03-23T09:09:15Z</time>
      </trkpt>
      <trkpt lat="45.98846" lon="6.49358">
        <ele>1626</ele>
        <time>2021-03-23T09:09:18Z</time>
      </trkpt>
      <trkpt lat="45.98845" lon="6.4936">
        <ele>1625.8</ele>
        <time>2021-03-23T09:09:20Z</time>
      </trkpt>
      <trkpt lat="45.98844" lon="6.49362">
        <ele>1625.6</ele>
        <time>2021-03-23T09:09:22Z</time>
      </trkpt>
      <trkpt lat="45.98843" lon="6.49365">
        <ele>1625.4</ele>
        <time>2021-03-23T09:09:24Z</time>
      </trkpt>
      <trkpt lat="45.98841" lon="6.49368">
        <ele>1625.2</ele>
        <time>2021-03-23T09:09:26Z</time>
      </trkpt>
      <trkpt lat="45.9884" lon="6.4937">
        <ele>1624.2</ele>
        <time>2021-03-23T09:09:32Z</time>
      </trkpt>
      <trkpt lat="45.98839" lon="6.49373">
        <ele>1624.2</ele>
        <time>2021-03-23T09:09:34Z</time>
      </trkpt>
      <trkpt lat="45.98838" lon="6.49375">
        <ele>1624</ele>
        <time>2021-03-23T09:09:36Z</time>
      </trkpt>
      <trkpt lat="45.98837" lon="6.49379">
        <ele>1624</ele>
        <time>2021-03-23T09:09:38Z</time>
      </trkpt>
      <trkpt lat="45.98837" lon="6.49382">
        <ele>1624</ele>
        <time>2021-03-23T09:09:40Z</time>
      </trkpt>
      <trkpt lat="45.98836" lon="6.49386">
        <ele>1623.8</ele>
        <time>2021-03-23T09:09:42Z</time>
      </trkpt>
      <trkpt lat="45.98835" lon="6.49391">
        <ele>1623.4</ele>
        <time>2021-03-23T09:09:44Z</time>
      </trkpt>
      <trkpt lat="45.98834" lon="6.49393">
        <ele>1623.2</ele>
        <time>2021-03-23T09:09:45Z</time>
      </trkpt>
      <trkpt lat="45.98833" lon="6.49396">
        <ele>1623.2</ele>
        <time>2021-03-23T09:09:46Z</time>
      </trkpt>
      <trkpt lat="45.98832" lon="6.49398">
        <ele>1623.2</ele>
        <time>2021-03-23T09:09:47Z</time>
      </trkpt>
      <trkpt lat="45.98832" lon="6.49401">
        <ele>1623.2</ele>
        <time>2021-03-23T09:09:48Z</time>
      </trkpt>
      <trkpt lat="45.98831" lon="6.49406">
        <ele>1622.8</ele>
        <time>2021-03-23T09:09:50Z</time>
      </trkpt>
      <trkpt lat="45.9883" lon="6.49409">
        <ele>1622.6</ele>
        <time>2021-03-23T09:09:52Z</time>
      </trkpt>
      <trkpt lat="45.98829" lon="6.49413">
        <ele>1622.6</ele>
        <time>2021-03-23T09:09:54Z</time>
      </trkpt>
      <trkpt lat="45.98828" lon="6.49418">
        <ele>1622.4</ele>
        <time>2021-03-23T09:09:56Z</time>
      </trkpt>
      <trkpt lat="45.98827" lon="6.49422">
        <ele>1622.4</ele>
        <time>2021-03-23T09:09:58Z</time>
      </trkpt>
      <trkpt lat="45.98826" lon="6.49426">
        <ele>1622.6</ele>
        <time>2021-03-23T09:10:00Z</time>
      </trkpt>
      <trkpt lat="45.98825" lon="6.4943">
        <ele>1622.4</ele>
        <time>2021-03-23T09:10:02Z</time>
      </trkpt>
      <trkpt lat="45.98824" lon="6.49435">
        <ele>1622.4</ele>
        <time>2021-03-23T09:10:04Z</time>
      </trkpt>
      <trkpt lat="45.98823" lon="6.49439">
        <ele>1622.4</ele>
        <time>2021-03-23T09:10:06Z</time>
      </trkpt>
      <trkpt lat="45.98822" lon="6.49443">
        <ele>1622.2</ele>
        <time>2021-03-23T09:10:08Z</time>
      </trkpt>
      <trkpt lat="45.98821" lon="6.49446">
        <ele>1622</ele>
        <time>2021-03-23T09:10:10Z</time>
      </trkpt>
      <trkpt lat="45.9882" lon="6.49449">
        <ele>1622</ele>
        <time>2021-03-23T09:10:12Z</time>
      </trkpt>
      <trkpt lat="45.9882" lon="6.49453">
        <ele>1622</ele>
        <time>2021-03-23T09:10:14Z</time>
      </trkpt>
      <trkpt lat="45.98819" lon="6.49455">
        <ele>1622</ele>
        <time>2021-03-23T09:10:16Z</time>
      </trkpt>
      <trkpt lat="45.98818" lon="6.49459">
        <ele>1621.8</ele>
        <time>2021-03-23T09:10:18Z</time>
      </trkpt>
      <trkpt lat="45.98817" lon="6.49464">
        <ele>1621.8</ele>
        <time>2021-03-23T09:10:20Z</time>
      </trkpt>
      <trkpt lat="45.98817" lon="6.49467">
        <ele>1621.8</ele>
        <time>2021-03-23T09:10:21Z</time>
      </trkpt>
      <trkpt lat="45.98816" lon="6.49469">
        <ele>1621.8</ele>
        <time>2021-03-23T09:10:22Z</time>
      </trkpt>
      <trkpt lat="45.98815" lon="6.49472">
        <ele>1621.8</ele>
        <time>2021-03-23T09:10:23Z</time>
      </trkpt>
      <trkpt lat="45.98814" lon="6.49474">
        <ele>1621.6</ele>
        <time>2021-03-23T09:10:24Z</time>
      </trkpt>
      <trkpt lat="45.98813" lon="6.49477">
        <ele>1621.6</ele>
        <time>2021-03-23T09:10:25Z</time>
      </trkpt>
      <trkpt lat="45.98812" lon="6.49479">
        <ele>1621.6</ele>
        <time>2021-03-23T09:10:26Z</time>
      </trkpt>
      <trkpt lat="45.98812" lon="6.49484">
        <ele>1621.8</ele>
        <time>2021-03-23T09:10:28Z</time>
      </trkpt>
      <trkpt lat="45.98811" lon="6.49488">
        <ele>1622</ele>
        <time>2021-03-23T09:10:30Z</time>
      </trkpt>
      <trkpt lat="45.9881" lon="6.49491">
        <ele>1622</ele>
        <time>2021-03-23T09:10:32Z</time>
      </trkpt>
      <trkpt lat="45.9881" lon="6.49493">
        <ele>1622</ele>
        <time>2021-03-23T09:10:34Z</time>
      </trkpt>
      <trkpt lat="45.9881" lon="6.49496">
        <ele>1622</ele>
        <time>2021-03-23T09:10:36Z</time>
      </trkpt>
      <trkpt lat="45.98809" lon="6.495">
        <ele>1621.8</ele>
        <time>2021-03-23T09:10:38Z</time>
      </trkpt>
      <trkpt lat="45.98809" lon="6.49503">
        <ele>1621.8</ele>
        <time>2021-03-23T09:10:39Z</time>
      </trkpt>
      <trkpt lat="45.98809" lon="6.49506">
        <ele>1621.8</ele>
        <time>2021-03-23T09:10:40Z</time>
      </trkpt>
      <trkpt lat="45.98808" lon="6.49508">
        <ele>1621.8</ele>
        <time>2021-03-23T09:10:41Z</time>
      </trkpt>
      <trkpt lat="45.98807" lon="6.49512">
        <ele>1622</ele>
        <time>2021-03-23T09:10:42Z</time>
      </trkpt>
      <trkpt lat="45.98805" lon="6.49515">
        <ele>1621.4</ele>
        <time>2021-03-23T09:10:43Z</time>
      </trkpt>
      <trkpt lat="45.98804" lon="6.49519">
        <ele>1621.2</ele>
        <time>2021-03-23T09:10:44Z</time>
      </trkpt>
      <trkpt lat="45.98803" lon="6.49521">
        <ele>1620.8</ele>
        <time>2021-03-23T09:10:45Z</time>
      </trkpt>
      <trkpt lat="45.98802" lon="6.49525">
        <ele>1620.8</ele>
        <time>2021-03-23T09:10:47Z</time>
      </trkpt>
      <trkpt lat="45.98801" lon="6.49529">
        <ele>1620.6</ele>
        <time>2021-03-23T09:10:49Z</time>
      </trkpt>
      <trkpt lat="45.98801" lon="6.49532">
        <ele>1620.6</ele>
        <time>2021-03-23T09:10:52Z</time>
      </trkpt>
      <trkpt lat="45.98801" lon="6.49535">
        <ele>1620.6</ele>
        <time>2021-03-23T09:10:54Z</time>
      </trkpt>
      <trkpt lat="45.988" lon="6.49538">
        <ele>1620.8</ele>
        <time>2021-03-23T09:10:56Z</time>
      </trkpt>
      <trkpt lat="45.988" lon="6.49541">
        <ele>1620.6</ele>
        <time>2021-03-23T09:10:58Z</time>
      </trkpt>
      <trkpt lat="45.98799" lon="6.49546">
        <ele>1620.6</ele>
        <time>2021-03-23T09:11:00Z</time>
      </trkpt>
      <trkpt lat="45.98798" lon="6.49549">
        <ele>1620.4</ele>
        <time>2021-03-23T09:11:01Z</time>
      </trkpt>
      <trkpt lat="45.98798" lon="6.49552">
        <ele>1620.2</ele>
        <time>2021-03-23T09:11:02Z</time>
      </trkpt>
      <trkpt lat="45.98797" lon="6.49555">
        <ele>1620</ele>
        <time>2021-03-23T09:11:03Z</time>
      </trkpt>
      <trkpt lat="45.98797" lon="6.49558">
        <ele>1620</ele>
        <time>2021-03-23T09:11:04Z</time>
      </trkpt>
      <trkpt lat="45.98797" lon="6.49561">
        <ele>1619.8</ele>
        <time>2021-03-23T09:11:05Z</time>
      </trkpt>
      <trkpt lat="45.98797" lon="6.49565">
        <ele>1619.6</ele>
        <time>2021-03-23T09:11:06Z</time>
      </trkpt>
      <trkpt lat="45.98797" lon="6.4957">
        <ele>1619.4</ele>
        <time>2021-03-23T09:11:07Z</time>
      </trkpt>
      <trkpt lat="45.98797" lon="6.49573">
        <ele>1619.4</ele>
        <time>2021-03-23T09:11:08Z</time>
      </trkpt>
      <trkpt lat="45.98797" lon="6.49577">
        <ele>1619.2</ele>
        <time>2021-03-23T09:11:09Z</time>
      </trkpt>
      <trkpt lat="45.98797" lon="6.4958">
        <ele>1619.2</ele>
        <time>2021-03-23T09:11:10Z</time>
      </trkpt>
      <trkpt lat="45.98797" lon="6.49584">
        <ele>1619</ele>
        <time>2021-03-23T09:11:11Z</time>
      </trkpt>
      <trkpt lat="45.98797" lon="6.49588">
        <ele>1618.8</ele>
        <time>2021-03-23T09:11:12Z</time>
      </trkpt>
      <trkpt lat="45.98796" lon="6.49593">
        <ele>1618.4</ele>
        <time>2021-03-23T09:11:13Z</time>
      </trkpt>
      <trkpt lat="45.98795" lon="6.49598">
        <ele>1618.2</ele>
        <time>2021-03-23T09:11:14Z</time>
      </trkpt>
      <trkpt lat="45.98794" lon="6.49603">
        <ele>1618</ele>
        <time>2021-03-23T09:11:15Z</time>
      </trkpt>
      <trkpt lat="45.98793" lon="6.49606">
        <ele>1617.8</ele>
        <time>2021-03-23T09:11:16Z</time>
      </trkpt>
      <trkpt lat="45.98792" lon="6.49609">
        <ele>1617</ele>
        <time>2021-03-23T09:11:18Z</time>
      </trkpt>
      <trkpt lat="45.98791" lon="6.49613">
        <ele>1615.8</ele>
        <time>2021-03-23T09:11:22Z</time>
      </trkpt>
      <trkpt lat="45.9879" lon="6.49617">
        <ele>1615.8</ele>
        <time>2021-03-23T09:11:24Z</time>
      </trkpt>
      <trkpt lat="45.98789" lon="6.49621">
        <ele>1615.4</ele>
        <time>2021-03-23T09:11:26Z</time>
      </trkpt>
      <trkpt lat="45.98789" lon="6.49624">
        <ele>1615</ele>
        <time>2021-03-23T09:11:28Z</time>
      </trkpt>
      <trkpt lat="45.98789" lon="6.49628">
        <ele>1614.6</ele>
        <time>2021-03-23T09:11:30Z</time>
      </trkpt>
      <trkpt lat="45.98789" lon="6.49634">
        <ele>1614.2</ele>
        <time>2021-03-23T09:11:32Z</time>
      </trkpt>
      <trkpt lat="45.98788" lon="6.49637">
        <ele>1613.6</ele>
        <time>2021-03-23T09:11:33Z</time>
      </trkpt>
      <trkpt lat="45.98788" lon="6.49641">
        <ele>1613.4</ele>
        <time>2021-03-23T09:11:34Z</time>
      </trkpt>
      <trkpt lat="45.98787" lon="6.49645">
        <ele>1613</ele>
        <time>2021-03-23T09:11:35Z</time>
      </trkpt>
      <trkpt lat="45.98787" lon="6.4965">
        <ele>1612.6</ele>
        <time>2021-03-23T09:11:36Z</time>
      </trkpt>
      <trkpt lat="45.98786" lon="6.49655">
        <ele>1612.2</ele>
        <time>2021-03-23T09:11:37Z</time>
      </trkpt>
      <trkpt lat="45.98786" lon="6.49658">
        <ele>1612.2</ele>
        <time>2021-03-23T09:11:38Z</time>
      </trkpt>
      <trkpt lat="45.98785" lon="6.49662">
        <ele>1611.8</ele>
        <time>2021-03-23T09:11:40Z</time>
      </trkpt>
      <trkpt lat="45.98785" lon="6.49665">
        <ele>1611.6</ele>
        <time>2021-03-23T09:11:41Z</time>
      </trkpt>
      <trkpt lat="45.98785" lon="6.49668">
        <ele>1611.6</ele>
        <time>2021-03-23T09:11:42Z</time>
      </trkpt>
      <trkpt lat="45.98785" lon="6.49672">
        <ele>1611.2</ele>
        <time>2021-03-23T09:11:44Z</time>
      </trkpt>
      <trkpt lat="45.98785" lon="6.49676">
        <ele>1611.2</ele>
        <time>2021-03-23T09:11:46Z</time>
      </trkpt>
      <trkpt lat="45.98785" lon="6.49679">
        <ele>1611</ele>
        <time>2021-03-23T09:11:48Z</time>
      </trkpt>
      <trkpt lat="45.98784" lon="6.49682">
        <ele>1611.2</ele>
        <time>2021-03-23T09:11:50Z</time>
      </trkpt>
      <trkpt lat="45.98784" lon="6.49686">
        <ele>1610.8</ele>
        <time>2021-03-23T09:11:52Z</time>
      </trkpt>
      <trkpt lat="45.98784" lon="6.49689">
        <ele>1610.8</ele>
        <time>2021-03-23T09:11:53Z</time>
      </trkpt>
      <trkpt lat="45.98784" lon="6.49694">
        <ele>1610.6</ele>
        <time>2021-03-23T09:11:55Z</time>
      </trkpt>
      <trkpt lat="45.98783" lon="6.49699">
        <ele>1610.4</ele>
        <time>2021-03-23T09:11:57Z</time>
      </trkpt>
      <trkpt lat="45.98782" lon="6.49702">
        <ele>1610.4</ele>
        <time>2021-03-23T09:11:58Z</time>
      </trkpt>
      <trkpt lat="45.98781" lon="6.49705">
        <ele>1610.2</ele>
        <time>2021-03-23T09:11:59Z</time>
      </trkpt>
      <trkpt lat="45.9878" lon="6.49708">
        <ele>1610.2</ele>
        <time>2021-03-23T09:12:00Z</time>
      </trkpt>
      <trkpt lat="45.98779" lon="6.4971">
        <ele>1610.2</ele>
        <time>2021-03-23T09:12:01Z</time>
      </trkpt>
      <trkpt lat="45.98777" lon="6.49714">
        <ele>1609.8</ele>
        <time>2021-03-23T09:12:03Z</time>
      </trkpt>
      <trkpt lat="45.98776" lon="6.49717">
        <ele>1609.6</ele>
        <time>2021-03-23T09:12:05Z</time>
      </trkpt>
      <trkpt lat="45.98775" lon="6.49719">
        <ele>1609.6</ele>
        <time>2021-03-23T09:12:07Z</time>
      </trkpt>
      <trkpt lat="45.98774" lon="6.49722">
        <ele>1609.6</ele>
        <time>2021-03-23T09:12:09Z</time>
      </trkpt>
      <trkpt lat="45.98773" lon="6.49725">
        <ele>1609.4</ele>
        <time>2021-03-23T09:12:11Z</time>
      </trkpt>
      <trkpt lat="45.98772" lon="6.49728">
        <ele>1609.2</ele>
        <time>2021-03-23T09:12:13Z</time>
      </trkpt>
      <trkpt lat="45.98771" lon="6.49731">
        <ele>1609.2</ele>
        <time>2021-03-23T09:12:15Z</time>
      </trkpt>
      <trkpt lat="45.98771" lon="6.49734">
        <ele>1609</ele>
        <time>2021-03-23T09:12:17Z</time>
      </trkpt>
      <trkpt lat="45.9877" lon="6.49737">
        <ele>1609</ele>
        <time>2021-03-23T09:12:19Z</time>
      </trkpt>
      <trkpt lat="45.98768" lon="6.49741">
        <ele>1609</ele>
        <time>2021-03-23T09:12:21Z</time>
      </trkpt>
      <trkpt lat="45.98768" lon="6.49744">
        <ele>1608.8</ele>
        <time>2021-03-23T09:12:23Z</time>
      </trkpt>
      <trkpt lat="45.98766" lon="6.49747">
        <ele>1608.6</ele>
        <time>2021-03-23T09:12:25Z</time>
      </trkpt>
      <trkpt lat="45.98765" lon="6.4975">
        <ele>1608.4</ele>
        <time>2021-03-23T09:12:27Z</time>
      </trkpt>
      <trkpt lat="45.98764" lon="6.49752">
        <ele>1608.2</ele>
        <time>2021-03-23T09:12:29Z</time>
      </trkpt>
      <trkpt lat="45.98763" lon="6.49755">
        <ele>1608</ele>
        <time>2021-03-23T09:12:31Z</time>
      </trkpt>
      <trkpt lat="45.98762" lon="6.49758">
        <ele>1607.8</ele>
        <time>2021-03-23T09:12:33Z</time>
      </trkpt>
      <trkpt lat="45.9876" lon="6.49761">
        <ele>1607.8</ele>
        <time>2021-03-23T09:12:35Z</time>
      </trkpt>
      <trkpt lat="45.98758" lon="6.49765">
        <ele>1607.6</ele>
        <time>2021-03-23T09:12:37Z</time>
      </trkpt>
      <trkpt lat="45.98756" lon="6.49768">
        <ele>1607.2</ele>
        <time>2021-03-23T09:12:39Z</time>
      </trkpt>
      <trkpt lat="45.98753" lon="6.4977">
        <ele>1606.8</ele>
        <time>2021-03-23T09:12:41Z</time>
      </trkpt>
      <trkpt lat="45.9875" lon="6.49772">
        <ele>1606.2</ele>
        <time>2021-03-23T09:12:43Z</time>
      </trkpt>
      <trkpt lat="45.98748" lon="6.49775">
        <ele>1605.8</ele>
        <time>2021-03-23T09:12:45Z</time>
      </trkpt>
      <trkpt lat="45.98746" lon="6.49778">
        <ele>1605.6</ele>
        <time>2021-03-23T09:12:47Z</time>
      </trkpt>
      <trkpt lat="45.98744" lon="6.4978">
        <ele>1605.6</ele>
        <time>2021-03-23T09:12:49Z</time>
      </trkpt>
      <trkpt lat="45.98743" lon="6.49783">
        <ele>1605.4</ele>
        <time>2021-03-23T09:12:51Z</time>
      </trkpt>
      <trkpt lat="45.98741" lon="6.49785">
        <ele>1605.4</ele>
        <time>2021-03-23T09:12:53Z</time>
      </trkpt>
      <trkpt lat="45.9874" lon="6.49788">
        <ele>1605.2</ele>
        <time>2021-03-23T09:12:55Z</time>
      </trkpt>
      <trkpt lat="45.98739" lon="6.4979">
        <ele>1605.2</ele>
        <time>2021-03-23T09:12:57Z</time>
      </trkpt>
      <trkpt lat="45.98737" lon="6.49793">
        <ele>1605</ele>
        <time>2021-03-23T09:12:59Z</time>
      </trkpt>
      <trkpt lat="45.98736" lon="6.49797">
        <ele>1604.8</ele>
        <time>2021-03-23T09:13:01Z</time>
      </trkpt>
      <trkpt lat="45.98736" lon="6.49801">
        <ele>1604.8</ele>
        <time>2021-03-23T09:13:03Z</time>
      </trkpt>
      <trkpt lat="45.98735" lon="6.49806">
        <ele>1605</ele>
        <time>2021-03-23T09:13:05Z</time>
      </trkpt>
      <trkpt lat="45.98734" lon="6.49808">
        <ele>1605</ele>
        <time>2021-03-23T09:13:06Z</time>
      </trkpt>
      <trkpt lat="45.98733" lon="6.49811">
        <ele>1605</ele>
        <time>2021-03-23T09:13:07Z</time>
      </trkpt>
      <trkpt lat="45.98732" lon="6.49815">
        <ele>1605</ele>
        <time>2021-03-23T09:13:09Z</time>
      </trkpt>
      <trkpt lat="45.98731" lon="6.49817">
        <ele>1605</ele>
        <time>2021-03-23T09:13:10Z</time>
      </trkpt>
      <trkpt lat="45.98729" lon="6.49821">
        <ele>1604.8</ele>
        <time>2021-03-23T09:13:12Z</time>
      </trkpt>
      <trkpt lat="45.98728" lon="6.49824">
        <ele>1604.6</ele>
        <time>2021-03-23T09:13:14Z</time>
      </trkpt>
      <trkpt lat="45.98726" lon="6.49828">
        <ele>1604.2</ele>
        <time>2021-03-23T09:13:16Z</time>
      </trkpt>
      <trkpt lat="45.98725" lon="6.49831">
        <ele>1604</ele>
        <time>2021-03-23T09:13:17Z</time>
      </trkpt>
      <trkpt lat="45.98722" lon="6.49834">
        <ele>1603.8</ele>
        <time>2021-03-23T09:13:19Z</time>
      </trkpt>
      <trkpt lat="45.9872" lon="6.49838">
        <ele>1603.6</ele>
        <time>2021-03-23T09:13:21Z</time>
      </trkpt>
      <trkpt lat="45.98718" lon="6.49841">
        <ele>1603.2</ele>
        <time>2021-03-23T09:13:23Z</time>
      </trkpt>
      <trkpt lat="45.98717" lon="6.49843">
        <ele>1603.2</ele>
        <time>2021-03-23T09:13:25Z</time>
      </trkpt>
      <trkpt lat="45.98715" lon="6.49846">
        <ele>1603.2</ele>
        <time>2021-03-23T09:13:27Z</time>
      </trkpt>
      <trkpt lat="45.98714" lon="6.49848">
        <ele>1603.2</ele>
        <time>2021-03-23T09:13:28Z</time>
      </trkpt>
      <trkpt lat="45.98712" lon="6.49852">
        <ele>1603</ele>
        <time>2021-03-23T09:13:30Z</time>
      </trkpt>
      <trkpt lat="45.98711" lon="6.49854">
        <ele>1602.8</ele>
        <time>2021-03-23T09:13:32Z</time>
      </trkpt>
      <trkpt lat="45.98709" lon="6.49856">
        <ele>1602.8</ele>
        <time>2021-03-23T09:13:34Z</time>
      </trkpt>
      <trkpt lat="45.98708" lon="6.49858">
        <ele>1602.6</ele>
        <time>2021-03-23T09:13:36Z</time>
      </trkpt>
      <trkpt lat="45.98706" lon="6.49861">
        <ele>1602.4</ele>
        <time>2021-03-23T09:13:38Z</time>
      </trkpt>
      <trkpt lat="45.98704" lon="6.49863">
        <ele>1602</ele>
        <time>2021-03-23T09:13:40Z</time>
      </trkpt>
      <trkpt lat="45.98703" lon="6.49866">
        <ele>1601.8</ele>
        <time>2021-03-23T09:13:42Z</time>
      </trkpt>
      <trkpt lat="45.98702" lon="6.49868">
        <ele>1601.8</ele>
        <time>2021-03-23T09:13:44Z</time>
      </trkpt>
      <trkpt lat="45.98701" lon="6.49871">
        <ele>1602</ele>
        <time>2021-03-23T09:13:47Z</time>
      </trkpt>
      <trkpt lat="45.987" lon="6.49874">
        <ele>1602.2</ele>
        <time>2021-03-23T09:13:50Z</time>
      </trkpt>
      <trkpt lat="45.98698" lon="6.49877">
        <ele>1602.4</ele>
        <time>2021-03-23T09:13:53Z</time>
      </trkpt>
      <trkpt lat="45.98697" lon="6.4988">
        <ele>1602.2</ele>
        <time>2021-03-23T09:13:55Z</time>
      </trkpt>
      <trkpt lat="45.98696" lon="6.49883">
        <ele>1601.8</ele>
        <time>2021-03-23T09:13:57Z</time>
      </trkpt>
      <trkpt lat="45.98695" lon="6.49886">
        <ele>1601.8</ele>
        <time>2021-03-23T09:14:00Z</time>
      </trkpt>
      <trkpt lat="45.98694" lon="6.49889">
        <ele>1601.8</ele>
        <time>2021-03-23T09:14:03Z</time>
      </trkpt>
      <trkpt lat="45.98693" lon="6.49892">
        <ele>1601.6</ele>
        <time>2021-03-23T09:14:05Z</time>
      </trkpt>
      <trkpt lat="45.98692" lon="6.49894">
        <ele>1601.4</ele>
        <time>2021-03-23T09:14:07Z</time>
      </trkpt>
      <trkpt lat="45.9869" lon="6.49897">
        <ele>1601.2</ele>
        <time>2021-03-23T09:14:10Z</time>
      </trkpt>
      <trkpt lat="45.98689" lon="6.499">
        <ele>1601.4</ele>
        <time>2021-03-23T09:14:13Z</time>
      </trkpt>
      <trkpt lat="45.98688" lon="6.49903">
        <ele>1601.6</ele>
        <time>2021-03-23T09:14:16Z</time>
      </trkpt>
      <trkpt lat="45.98688" lon="6.49906">
        <ele>1602</ele>
        <time>2021-03-23T09:14:19Z</time>
      </trkpt>
      <trkpt lat="45.98688" lon="6.49909">
        <ele>1602.6</ele>
        <time>2021-03-23T09:14:22Z</time>
      </trkpt>
      <trkpt lat="45.98687" lon="6.49912">
        <ele>1602.8</ele>
        <time>2021-03-23T09:14:24Z</time>
      </trkpt>
      <trkpt lat="45.98687" lon="6.49915">
        <ele>1603</ele>
        <time>2021-03-23T09:14:26Z</time>
      </trkpt>
      <trkpt lat="45.98686" lon="6.49917">
        <ele>1603</ele>
        <time>2021-03-23T09:14:28Z</time>
      </trkpt>
      <trkpt lat="45.98685" lon="6.49921">
        <ele>1603.4</ele>
        <time>2021-03-23T09:14:31Z</time>
      </trkpt>
      <trkpt lat="45.98685" lon="6.49924">
        <ele>1603.8</ele>
        <time>2021-03-23T09:14:34Z</time>
      </trkpt>
      <trkpt lat="45.98685" lon="6.49927">
        <ele>1604.6</ele>
        <time>2021-03-23T09:14:37Z</time>
      </trkpt>
      <trkpt lat="45.98684" lon="6.49929">
        <ele>1604.6</ele>
        <time>2021-03-23T09:14:40Z</time>
      </trkpt>
      <trkpt lat="45.98683" lon="6.49932">
        <ele>1605</ele>
        <time>2021-03-23T09:14:43Z</time>
      </trkpt>
      <trkpt lat="45.98683" lon="6.49936">
        <ele>1605.4</ele>
        <time>2021-03-23T09:14:45Z</time>
      </trkpt>
      <trkpt lat="45.98683" lon="6.49938">
        <ele>1605.4</ele>
        <time>2021-03-23T09:14:46Z</time>
      </trkpt>
      <trkpt lat="45.98682" lon="6.49941">
        <ele>1605.6</ele>
        <time>2021-03-23T09:14:48Z</time>
      </trkpt>
      <trkpt lat="45.98681" lon="6.49945">
        <ele>1606.2</ele>
        <time>2021-03-23T09:14:51Z</time>
      </trkpt>
      <trkpt lat="45.98679" lon="6.49948">
        <ele>1606.4</ele>
        <time>2021-03-23T09:14:54Z</time>
      </trkpt>
      <trkpt lat="45.98678" lon="6.49951">
        <ele>1606.6</ele>
        <time>2021-03-23T09:14:56Z</time>
      </trkpt>
      <trkpt lat="45.98677" lon="6.49953">
        <ele>1606.8</ele>
        <time>2021-03-23T09:14:58Z</time>
      </trkpt>
      <trkpt lat="45.98676" lon="6.49955">
        <ele>1606.6</ele>
        <time>2021-03-23T09:15:00Z</time>
      </trkpt>
      <trkpt lat="45.98674" lon="6.49958">
        <ele>1606.6</ele>
        <time>2021-03-23T09:15:02Z</time>
      </trkpt>
      <trkpt lat="45.98673" lon="6.4996">
        <ele>1606.4</ele>
        <time>2021-03-23T09:15:04Z</time>
      </trkpt>
      <trkpt lat="45.98671" lon="6.49962">
        <ele>1606.4</ele>
        <time>2021-03-23T09:15:06Z</time>
      </trkpt>
      <trkpt lat="45.9867" lon="6.49964">
        <ele>1606.4</ele>
        <time>2021-03-23T09:15:08Z</time>
      </trkpt>
      <trkpt lat="45.98668" lon="6.49966">
        <ele>1606.2</ele>
        <time>2021-03-23T09:15:10Z</time>
      </trkpt>
      <trkpt lat="45.98666" lon="6.49967">
        <ele>1606.2</ele>
        <time>2021-03-23T09:15:12Z</time>
      </trkpt>
      <trkpt lat="45.98665" lon="6.49969">
        <ele>1606.2</ele>
        <time>2021-03-23T09:15:14Z</time>
      </trkpt>
      <trkpt lat="45.98663" lon="6.49971">
        <ele>1606.2</ele>
        <time>2021-03-23T09:15:16Z</time>
      </trkpt>
      <trkpt lat="45.98661" lon="6.49973">
        <ele>1606.2</ele>
        <time>2021-03-23T09:15:18Z</time>
      </trkpt>
      <trkpt lat="45.98659" lon="6.49975">
        <ele>1606.4</ele>
        <time>2021-03-23T09:15:20Z</time>
      </trkpt>
      <trkpt lat="45.98658" lon="6.49977">
        <ele>1606.6</ele>
        <time>2021-03-23T09:15:22Z</time>
      </trkpt>
      <trkpt lat="45.98656" lon="6.49979">
        <ele>1606.6</ele>
        <time>2021-03-23T09:15:24Z</time>
      </trkpt>
      <trkpt lat="45.98654" lon="6.49981">
        <ele>1606.8</ele>
        <time>2021-03-23T09:15:26Z</time>
      </trkpt>
      <trkpt lat="45.98652" lon="6.49982">
        <ele>1606.8</ele>
        <time>2021-03-23T09:15:29Z</time>
      </trkpt>
      <trkpt lat="45.9865" lon="6.49983">
        <ele>1607</ele>
        <time>2021-03-23T09:15:31Z</time>
      </trkpt>
      <trkpt lat="45.98649" lon="6.49985">
        <ele>1607.2</ele>
        <time>2021-03-23T09:15:33Z</time>
      </trkpt>
      <trkpt lat="45.98647" lon="6.49986">
        <ele>1607.2</ele>
        <time>2021-03-23T09:15:35Z</time>
      </trkpt>
      <trkpt lat="45.98646" lon="6.49988">
        <ele>1607.2</ele>
        <time>2021-03-23T09:15:37Z</time>
      </trkpt>
      <trkpt lat="45.98644" lon="6.49989">
        <ele>1607.2</ele>
        <time>2021-03-23T09:15:39Z</time>
      </trkpt>
      <trkpt lat="45.98642" lon="6.4999">
        <ele>1607.2</ele>
        <time>2021-03-23T09:15:41Z</time>
      </trkpt>
      <trkpt lat="45.98641" lon="6.49992">
        <ele>1607.4</ele>
        <time>2021-03-23T09:15:43Z</time>
      </trkpt>
      <trkpt lat="45.98638" lon="6.49994">
        <ele>1607.4</ele>
        <time>2021-03-23T09:15:46Z</time>
      </trkpt>
      <trkpt lat="45.98637" lon="6.49995">
        <ele>1607.6</ele>
        <time>2021-03-23T09:15:48Z</time>
      </trkpt>
      <trkpt lat="45.98635" lon="6.49997">
        <ele>1607.8</ele>
        <time>2021-03-23T09:15:50Z</time>
      </trkpt>
      <trkpt lat="45.98633" lon="6.49999">
        <ele>1608</ele>
        <time>2021-03-23T09:15:52Z</time>
      </trkpt>
      <trkpt lat="45.98631" lon="6.50001">
        <ele>1607.8</ele>
        <time>2021-03-23T09:15:54Z</time>
      </trkpt>
      <trkpt lat="45.98628" lon="6.50002">
        <ele>1607.8</ele>
        <time>2021-03-23T09:15:56Z</time>
      </trkpt>
      <trkpt lat="45.98626" lon="6.50005">
        <ele>1607.8</ele>
        <time>2021-03-23T09:15:58Z</time>
      </trkpt>
      <trkpt lat="45.98624" lon="6.50006">
        <ele>1607.6</ele>
        <time>2021-03-23T09:16:01Z</time>
      </trkpt>
      <trkpt lat="45.98622" lon="6.50008">
        <ele>1607.6</ele>
        <time>2021-03-23T09:16:03Z</time>
      </trkpt>
      <trkpt lat="45.9862" lon="6.5001">
        <ele>1607.8</ele>
        <time>2021-03-23T09:16:05Z</time>
      </trkpt>
      <trkpt lat="45.98618" lon="6.50012">
        <ele>1608</ele>
        <time>2021-03-23T09:16:08Z</time>
      </trkpt>
      <trkpt lat="45.98616" lon="6.50013">
        <ele>1608</ele>
        <time>2021-03-23T09:16:11Z</time>
      </trkpt>
      <trkpt lat="45.98614" lon="6.50014">
        <ele>1608.2</ele>
        <time>2021-03-23T09:16:14Z</time>
      </trkpt>
      <trkpt lat="45.98612" lon="6.50016">
        <ele>1608.4</ele>
        <time>2021-03-23T09:16:19Z</time>
      </trkpt>
      <trkpt lat="45.98611" lon="6.50019">
        <ele>1609.6</ele>
        <time>2021-03-23T09:16:27Z</time>
      </trkpt>
      <trkpt lat="45.98611" lon="6.50022">
        <ele>1610.6</ele>
        <time>2021-03-23T09:16:35Z</time>
      </trkpt>
      <trkpt lat="45.98609" lon="6.50024">
        <ele>1610.8</ele>
        <time>2021-03-23T09:16:38Z</time>
      </trkpt>
      <trkpt lat="45.98608" lon="6.50025">
        <ele>1611</ele>
        <time>2021-03-23T09:16:41Z</time>
      </trkpt>
      <trkpt lat="45.98606" lon="6.50027">
        <ele>1611.4</ele>
        <time>2021-03-23T09:16:45Z</time>
      </trkpt>
      <trkpt lat="45.98604" lon="6.50029">
        <ele>1611.8</ele>
        <time>2021-03-23T09:16:49Z</time>
      </trkpt>
      <trkpt lat="45.98602" lon="6.5003">
        <ele>1612</ele>
        <time>2021-03-23T09:16:53Z</time>
      </trkpt>
      <trkpt lat="45.98601" lon="6.50033">
        <ele>1612.6</ele>
        <time>2021-03-23T09:16:57Z</time>
      </trkpt>
      <trkpt lat="45.98599" lon="6.50034">
        <ele>1613</ele>
        <time>2021-03-23T09:17:00Z</time>
      </trkpt>
      <trkpt lat="45.98597" lon="6.50036">
        <ele>1613.4</ele>
        <time>2021-03-23T09:17:03Z</time>
      </trkpt>
      <trkpt lat="45.98595" lon="6.50038">
        <ele>1613.8</ele>
        <time>2021-03-23T09:17:06Z</time>
      </trkpt>
      <trkpt lat="45.98594" lon="6.50039">
        <ele>1613.8</ele>
        <time>2021-03-23T09:17:09Z</time>
      </trkpt>
      <trkpt lat="45.98592" lon="6.50041">
        <ele>1614</ele>
        <time>2021-03-23T09:17:13Z</time>
      </trkpt>
      <trkpt lat="45.9859" lon="6.50042">
        <ele>1614</ele>
        <time>2021-03-23T09:17:16Z</time>
      </trkpt>
      <trkpt lat="45.98588" lon="6.50044">
        <ele>1614.2</ele>
        <time>2021-03-23T09:17:19Z</time>
      </trkpt>
      <trkpt lat="45.98587" lon="6.50046">
        <ele>1614.8</ele>
        <time>2021-03-23T09:17:22Z</time>
      </trkpt>
      <trkpt lat="45.98585" lon="6.50048">
        <ele>1615</ele>
        <time>2021-03-23T09:17:25Z</time>
      </trkpt>
      <trkpt lat="45.98583" lon="6.5005">
        <ele>1615.4</ele>
        <time>2021-03-23T09:17:28Z</time>
      </trkpt>
      <trkpt lat="45.98582" lon="6.50052">
        <ele>1615.8</ele>
        <time>2021-03-23T09:17:31Z</time>
      </trkpt>
      <trkpt lat="45.9858" lon="6.50054">
        <ele>1616</ele>
        <time>2021-03-23T09:17:34Z</time>
      </trkpt>
      <trkpt lat="45.98578" lon="6.50055">
        <ele>1616.2</ele>
        <time>2021-03-23T09:17:37Z</time>
      </trkpt>
      <trkpt lat="45.98575" lon="6.50057">
        <ele>1616.6</ele>
        <time>2021-03-23T09:17:40Z</time>
      </trkpt>
      <trkpt lat="45.98573" lon="6.50059">
        <ele>1616.8</ele>
        <time>2021-03-23T09:17:43Z</time>
      </trkpt>
      <trkpt lat="45.98571" lon="6.50061">
        <ele>1617</ele>
        <time>2021-03-23T09:17:46Z</time>
      </trkpt>
      <trkpt lat="45.98569" lon="6.50062">
        <ele>1617.2</ele>
        <time>2021-03-23T09:17:49Z</time>
      </trkpt>
      <trkpt lat="45.98568" lon="6.50063">
        <ele>1617.2</ele>
        <time>2021-03-23T09:17:51Z</time>
      </trkpt>
      <trkpt lat="45.98566" lon="6.50065">
        <ele>1617.2</ele>
        <time>2021-03-23T09:17:54Z</time>
      </trkpt>
      <trkpt lat="45.98564" lon="6.50068">
        <ele>1617.4</ele>
        <time>2021-03-23T09:17:57Z</time>
      </trkpt>
      <trkpt lat="45.98562" lon="6.5007">
        <ele>1617.4</ele>
        <time>2021-03-23T09:17:59Z</time>
      </trkpt>
      <trkpt lat="45.98561" lon="6.50072">
        <ele>1617.4</ele>
        <time>2021-03-23T09:18:01Z</time>
      </trkpt>
      <trkpt lat="45.98559" lon="6.50074">
        <ele>1617.2</ele>
        <time>2021-03-23T09:18:03Z</time>
      </trkpt>
      <trkpt lat="45.98557" lon="6.50076">
        <ele>1617.2</ele>
        <time>2021-03-23T09:18:05Z</time>
      </trkpt>
      <trkpt lat="45.98556" lon="6.50078">
        <ele>1617</ele>
        <time>2021-03-23T09:18:07Z</time>
      </trkpt>
      <trkpt lat="45.98554" lon="6.50081">
        <ele>1616.8</ele>
        <time>2021-03-23T09:18:09Z</time>
      </trkpt>
      <trkpt lat="45.98552" lon="6.50083">
        <ele>1616.6</ele>
        <time>2021-03-23T09:18:11Z</time>
      </trkpt>
      <trkpt lat="45.98549" lon="6.50085">
        <ele>1616.4</ele>
        <time>2021-03-23T09:18:13Z</time>
      </trkpt>
      <trkpt lat="45.98547" lon="6.50087">
        <ele>1616.2</ele>
        <time>2021-03-23T09:18:15Z</time>
      </trkpt>
      <trkpt lat="45.98544" lon="6.50088">
        <ele>1616</ele>
        <time>2021-03-23T09:18:17Z</time>
      </trkpt>
      <trkpt lat="45.98541" lon="6.50089">
        <ele>1616.6</ele>
        <time>2021-03-23T09:18:23Z</time>
      </trkpt>
      <trkpt lat="45.98539" lon="6.50089">
        <ele>1616.4</ele>
        <time>2021-03-23T09:18:26Z</time>
      </trkpt>
      <trkpt lat="45.98536" lon="6.50089">
        <ele>1616.8</ele>
        <time>2021-03-23T09:18:29Z</time>
      </trkpt>
      <trkpt lat="45.98534" lon="6.50092">
        <ele>1616.2</ele>
        <time>2021-03-23T09:18:40Z</time>
      </trkpt>
      <trkpt lat="45.98534" lon="6.50095">
        <ele>1616.4</ele>
        <time>2021-03-23T09:18:42Z</time>
      </trkpt>
      <trkpt lat="45.98534" lon="6.50098">
        <ele>1616.2</ele>
        <time>2021-03-23T09:18:44Z</time>
      </trkpt>
      <trkpt lat="45.98535" lon="6.50101">
        <ele>1616.8</ele>
        <time>2021-03-23T09:18:47Z</time>
      </trkpt>
      <trkpt lat="45.98535" lon="6.50106">
        <ele>1617</ele>
        <time>2021-03-23T09:18:49Z</time>
      </trkpt>
      <trkpt lat="45.98536" lon="6.50109">
        <ele>1616.6</ele>
        <time>2021-03-23T09:18:50Z</time>
      </trkpt>
      <trkpt lat="45.98538" lon="6.50112">
        <ele>1616.6</ele>
        <time>2021-03-23T09:18:51Z</time>
      </trkpt>
      <trkpt lat="45.98539" lon="6.50116">
        <ele>1616.6</ele>
        <time>2021-03-23T09:18:52Z</time>
      </trkpt>
      <trkpt lat="45.9854" lon="6.50118">
        <ele>1616.6</ele>
        <time>2021-03-23T09:18:53Z</time>
      </trkpt>
      <trkpt lat="45.98542" lon="6.50121">
        <ele>1616.6</ele>
        <time>2021-03-23T09:18:55Z</time>
      </trkpt>
      <trkpt lat="45.98541" lon="6.50123">
        <ele>1616.6</ele>
        <time>2021-03-23T09:18:57Z</time>
      </trkpt>
      <trkpt lat="45.9854" lon="6.50126">
        <ele>1616.4</ele>
        <time>2021-03-23T09:19:00Z</time>
      </trkpt>
      <trkpt lat="45.9854" lon="6.50129">
        <ele>1616.6</ele>
        <time>2021-03-23T09:19:02Z</time>
      </trkpt>
      <trkpt lat="45.98539" lon="6.50132">
        <ele>1615.8</ele>
        <time>2021-03-23T09:19:14Z</time>
      </trkpt>
      <trkpt lat="45.98538" lon="6.50135">
        <ele>1615.6</ele>
        <time>2021-03-23T09:19:16Z</time>
      </trkpt>
      <trkpt lat="45.98536" lon="6.50136">
        <ele>1615.2</ele>
        <time>2021-03-23T09:19:19Z</time>
      </trkpt>
      <trkpt lat="45.98534" lon="6.50137">
        <ele>1614.6</ele>
        <time>2021-03-23T09:19:26Z</time>
      </trkpt>
      <trkpt lat="45.98531" lon="6.50135">
        <ele>1614.2</ele>
        <time>2021-03-23T09:19:28Z</time>
      </trkpt>
      <trkpt lat="45.98529" lon="6.50134">
        <ele>1614</ele>
        <time>2021-03-23T09:19:30Z</time>
      </trkpt>
      <trkpt lat="45.98527" lon="6.50133">
        <ele>1613.6</ele>
        <time>2021-03-23T09:19:32Z</time>
      </trkpt>
      <trkpt lat="45.98524" lon="6.50131">
        <ele>1613.4</ele>
        <time>2021-03-23T09:19:51Z</time>
      </trkpt>
      <trkpt lat="45.98523" lon="6.50129">
        <ele>1613.4</ele>
        <time>2021-03-23T09:19:52Z</time>
      </trkpt>
      <trkpt lat="45.98521" lon="6.50125">
        <ele>1613.2</ele>
        <time>2021-03-23T09:19:54Z</time>
      </trkpt>
      <trkpt lat="45.98519" lon="6.50123">
        <ele>1612.6</ele>
        <time>2021-03-23T09:19:56Z</time>
      </trkpt>
      <trkpt lat="45.98518" lon="6.5012">
        <ele>1611.6</ele>
        <time>2021-03-23T09:20:11Z</time>
      </trkpt>
      <trkpt lat="45.98517" lon="6.50118">
        <ele>1611.6</ele>
        <time>2021-03-23T09:20:13Z</time>
      </trkpt>
      <trkpt lat="45.98515" lon="6.50116">
        <ele>1611.2</ele>
        <time>2021-03-23T09:20:15Z</time>
      </trkpt>
      <trkpt lat="45.98513" lon="6.50113">
        <ele>1611</ele>
        <time>2021-03-23T09:20:17Z</time>
      </trkpt>
      <trkpt lat="45.98511" lon="6.50111">
        <ele>1611</ele>
        <time>2021-03-23T09:20:19Z</time>
      </trkpt>
      <trkpt lat="45.9851" lon="6.50109">
        <ele>1611</ele>
        <time>2021-03-23T09:20:21Z</time>
      </trkpt>
      <trkpt lat="45.98509" lon="6.50106">
        <ele>1611</ele>
        <time>2021-03-23T09:20:23Z</time>
      </trkpt>
      <trkpt lat="45.98508" lon="6.50103">
        <ele>1611.2</ele>
        <time>2021-03-23T09:20:25Z</time>
      </trkpt>
      <trkpt lat="45.98507" lon="6.501">
        <ele>1611.2</ele>
        <time>2021-03-23T09:20:27Z</time>
      </trkpt>
      <trkpt lat="45.98505" lon="6.50097">
        <ele>1611.6</ele>
        <time>2021-03-23T09:20:29Z</time>
      </trkpt>
      <trkpt lat="45.98504" lon="6.50096">
        <ele>1611.8</ele>
        <time>2021-03-23T09:20:50Z</time>
      </trkpt>
      <trkpt lat="45.98503" lon="6.50093">
        <ele>1612.2</ele>
        <time>2021-03-23T09:21:06Z</time>
      </trkpt>
      <trkpt lat="45.98502" lon="6.5009">
        <ele>1612</ele>
        <time>2021-03-23T09:21:08Z</time>
      </trkpt>
      <trkpt lat="45.98501" lon="6.50087">
        <ele>1612</ele>
        <time>2021-03-23T09:21:10Z</time>
      </trkpt>
      <trkpt lat="45.985" lon="6.50086">
        <ele>1611.6</ele>
        <time>2021-03-23T09:21:18Z</time>
      </trkpt>
      <trkpt lat="45.98501" lon="6.50086">
        <ele>1611</ele>
        <time>2021-03-23T09:21:25Z</time>
      </trkpt>
      <trkpt lat="45.98502" lon="6.50089">
        <ele>1610.2</ele>
        <time>2021-03-23T09:21:30Z</time>
      </trkpt>
      <trkpt lat="45.98502" lon="6.50092">
        <ele>1610.4</ele>
        <time>2021-03-23T09:21:32Z</time>
      </trkpt>
      <trkpt lat="45.98502" lon="6.50096">
        <ele>1610.6</ele>
        <time>2021-03-23T09:21:35Z</time>
      </trkpt>
      <trkpt lat="45.98502" lon="6.50098">
        <ele>1610.6</ele>
        <time>2021-03-23T09:21:37Z</time>
      </trkpt>
      <trkpt lat="45.98504" lon="6.50101">
        <ele>1610.8</ele>
        <time>2021-03-23T09:21:40Z</time>
      </trkpt>
      <trkpt lat="45.98505" lon="6.50104">
        <ele>1611</ele>
        <time>2021-03-23T09:21:43Z</time>
      </trkpt>
      <trkpt lat="45.98506" lon="6.50107">
        <ele>1611.2</ele>
        <time>2021-03-23T09:21:46Z</time>
      </trkpt>
      <trkpt lat="45.98507" lon="6.5011">
        <ele>1611.6</ele>
        <time>2021-03-23T09:21:49Z</time>
      </trkpt>
      <trkpt lat="45.98507" lon="6.50112">
        <ele>1611.8</ele>
        <time>2021-03-23T09:21:52Z</time>
      </trkpt>
      <trkpt lat="45.98507" lon="6.50116">
        <ele>1611.8</ele>
        <time>2021-03-23T09:21:55Z</time>
      </trkpt>
      <trkpt lat="45.98507" lon="6.50119">
        <ele>1612</ele>
        <time>2021-03-23T09:21:58Z</time>
      </trkpt>
      <trkpt lat="45.98507" lon="6.50123">
        <ele>1612.2</ele>
        <time>2021-03-23T09:22:01Z</time>
      </trkpt>
      <trkpt lat="45.98507" lon="6.50126">
        <ele>1612.8</ele>
        <time>2021-03-23T09:22:04Z</time>
      </trkpt>
      <trkpt lat="45.98507" lon="6.50129">
        <ele>1613.6</ele>
        <time>2021-03-23T09:22:07Z</time>
      </trkpt>
      <trkpt lat="45.98507" lon="6.50132">
        <ele>1613.8</ele>
        <time>2021-03-23T09:22:10Z</time>
      </trkpt>
      <trkpt lat="45.98506" lon="6.50135">
        <ele>1614.2</ele>
        <time>2021-03-23T09:22:13Z</time>
      </trkpt>
      <trkpt lat="45.98505" lon="6.50138">
        <ele>1613.8</ele>
        <time>2021-03-23T09:22:16Z</time>
      </trkpt>
      <trkpt lat="45.98504" lon="6.5014">
        <ele>1614</ele>
        <time>2021-03-23T09:22:19Z</time>
      </trkpt>
      <trkpt lat="45.98505" lon="6.50143">
        <ele>1614.4</ele>
        <time>2021-03-23T09:22:27Z</time>
      </trkpt>
      <trkpt lat="45.98502" lon="6.50145">
        <ele>1613.8</ele>
        <time>2021-03-23T09:22:44Z</time>
      </trkpt>
      <trkpt lat="45.98501" lon="6.50147">
        <ele>1613.6</ele>
        <time>2021-03-23T09:22:46Z</time>
      </trkpt>
      <trkpt lat="45.985" lon="6.50151">
        <ele>1613.6</ele>
        <time>2021-03-23T09:22:48Z</time>
      </trkpt>
      <trkpt lat="45.98499" lon="6.50155">
        <ele>1613.2</ele>
        <time>2021-03-23T09:22:50Z</time>
      </trkpt>
      <trkpt lat="45.98498" lon="6.50159">
        <ele>1612.8</ele>
        <time>2021-03-23T09:22:52Z</time>
      </trkpt>
      <trkpt lat="45.98496" lon="6.50163">
        <ele>1612.6</ele>
        <time>2021-03-23T09:22:54Z</time>
      </trkpt>
      <trkpt lat="45.98494" lon="6.50165">
        <ele>1612.2</ele>
        <time>2021-03-23T09:22:56Z</time>
      </trkpt>
      <trkpt lat="45.98492" lon="6.50167">
        <ele>1612</ele>
        <time>2021-03-23T09:22:58Z</time>
      </trkpt>
      <trkpt lat="45.98491" lon="6.50168">
        <ele>1611.8</ele>
        <time>2021-03-23T09:23:00Z</time>
      </trkpt>
      <trkpt lat="45.9849" lon="6.5017">
        <ele>1612</ele>
        <time>2021-03-23T09:23:02Z</time>
      </trkpt>
      <trkpt lat="45.98487" lon="6.50172">
        <ele>1611.6</ele>
        <time>2021-03-23T09:23:05Z</time>
      </trkpt>
      <trkpt lat="45.98486" lon="6.50173">
        <ele>1611.4</ele>
        <time>2021-03-23T09:23:07Z</time>
      </trkpt>
      <trkpt lat="45.98484" lon="6.50175">
        <ele>1611.2</ele>
        <time>2021-03-23T09:23:09Z</time>
      </trkpt>
      <trkpt lat="45.98482" lon="6.50176">
        <ele>1610.8</ele>
        <time>2021-03-23T09:23:16Z</time>
      </trkpt>
      <trkpt lat="45.9848" lon="6.50177">
        <ele>1610</ele>
        <time>2021-03-23T09:23:19Z</time>
      </trkpt>
      <trkpt lat="45.98478" lon="6.50178">
        <ele>1609.2</ele>
        <time>2021-03-23T09:23:22Z</time>
      </trkpt>
      <trkpt lat="45.98476" lon="6.5018">
        <ele>1609</ele>
        <time>2021-03-23T09:23:25Z</time>
      </trkpt>
      <trkpt lat="45.98476" lon="6.50183">
        <ele>1608.8</ele>
        <time>2021-03-23T09:23:30Z</time>
      </trkpt>
      <trkpt lat="45.98476" lon="6.50185">
        <ele>1608.4</ele>
        <time>2021-03-23T09:23:34Z</time>
      </trkpt>
      <trkpt lat="45.98476" lon="6.50188">
        <ele>1608.2</ele>
        <time>2021-03-23T09:23:37Z</time>
      </trkpt>
      <trkpt lat="45.98477" lon="6.50191">
        <ele>1608.4</ele>
        <time>2021-03-23T09:23:41Z</time>
      </trkpt>
      <trkpt lat="45.98478" lon="6.50194">
        <ele>1608.4</ele>
        <time>2021-03-23T09:23:45Z</time>
      </trkpt>
      <trkpt lat="45.98478" lon="6.50197">
        <ele>1608</ele>
        <time>2021-03-23T09:23:50Z</time>
      </trkpt>
      <trkpt lat="45.98478" lon="6.502">
        <ele>1607.6</ele>
        <time>2021-03-23T09:23:53Z</time>
      </trkpt>
      <trkpt lat="45.98479" lon="6.50203">
        <ele>1607.4</ele>
        <time>2021-03-23T09:23:58Z</time>
      </trkpt>
      <trkpt lat="45.9848" lon="6.50205">
        <ele>1607.6</ele>
        <time>2021-03-23T09:24:01Z</time>
      </trkpt>
      <trkpt lat="45.9848" lon="6.50208">
        <ele>1607.6</ele>
        <time>2021-03-23T09:24:04Z</time>
      </trkpt>
      <trkpt lat="45.9848" lon="6.50212">
        <ele>1607.6</ele>
        <time>2021-03-23T09:24:08Z</time>
      </trkpt>
      <trkpt lat="45.98478" lon="6.50214">
        <ele>1607.2</ele>
        <time>2021-03-23T09:24:11Z</time>
      </trkpt>
      <trkpt lat="45.98477" lon="6.50216">
        <ele>1607.2</ele>
        <time>2021-03-23T09:24:14Z</time>
      </trkpt>
      <trkpt lat="45.98476" lon="6.50219">
        <ele>1607.2</ele>
        <time>2021-03-23T09:24:17Z</time>
      </trkpt>
      <trkpt lat="45.98475" lon="6.50221">
        <ele>1607.6</ele>
        <time>2021-03-23T09:24:20Z</time>
      </trkpt>
      <trkpt lat="45.98474" lon="6.50224">
        <ele>1607.6</ele>
        <time>2021-03-23T09:24:23Z</time>
      </trkpt>
      <trkpt lat="45.98473" lon="6.50226">
        <ele>1608</ele>
        <time>2021-03-23T09:24:27Z</time>
      </trkpt>
      <trkpt lat="45.98472" lon="6.5023">
        <ele>1608.2</ele>
        <time>2021-03-23T09:24:31Z</time>
      </trkpt>
      <trkpt lat="45.98471" lon="6.50232">
        <ele>1608.4</ele>
        <time>2021-03-23T09:24:35Z</time>
      </trkpt>
      <trkpt lat="45.9847" lon="6.50235">
        <ele>1609</ele>
        <time>2021-03-23T09:24:39Z</time>
      </trkpt>
      <trkpt lat="45.98469" lon="6.50237">
        <ele>1609.2</ele>
        <time>2021-03-23T09:24:42Z</time>
      </trkpt>
      <trkpt lat="45.98468" lon="6.5024">
        <ele>1609.6</ele>
        <time>2021-03-23T09:24:46Z</time>
      </trkpt>
      <trkpt lat="45.98468" lon="6.50242">
        <ele>1609.8</ele>
        <time>2021-03-23T09:24:50Z</time>
      </trkpt>
      <trkpt lat="45.98467" lon="6.50245">
        <ele>1610</ele>
        <time>2021-03-23T09:24:54Z</time>
      </trkpt>
      <trkpt lat="45.98466" lon="6.50248">
        <ele>1610.2</ele>
        <time>2021-03-23T09:24:58Z</time>
      </trkpt>
      <trkpt lat="45.98465" lon="6.5025">
        <ele>1610.2</ele>
        <time>2021-03-23T09:25:01Z</time>
      </trkpt>
      <trkpt lat="45.98464" lon="6.50253">
        <ele>1610.6</ele>
        <time>2021-03-23T09:25:05Z</time>
      </trkpt>
      <trkpt lat="45.98463" lon="6.50256">
        <ele>1611</ele>
        <time>2021-03-23T09:25:09Z</time>
      </trkpt>
      <trkpt lat="45.98462" lon="6.50258">
        <ele>1611.4</ele>
        <time>2021-03-23T09:25:12Z</time>
      </trkpt>
      <trkpt lat="45.98462" lon="6.50261">
        <ele>1612</ele>
        <time>2021-03-23T09:25:16Z</time>
      </trkpt>
      <trkpt lat="45.98461" lon="6.50264">
        <ele>1612.2</ele>
        <time>2021-03-23T09:25:20Z</time>
      </trkpt>
      <trkpt lat="45.9846" lon="6.50267">
        <ele>1612.4</ele>
        <time>2021-03-23T09:25:24Z</time>
      </trkpt>
      <trkpt lat="45.98459" lon="6.5027">
        <ele>1612.6</ele>
        <time>2021-03-23T09:25:27Z</time>
      </trkpt>
      <trkpt lat="45.98458" lon="6.50272">
        <ele>1612.8</ele>
        <time>2021-03-23T09:25:31Z</time>
      </trkpt>
      <trkpt lat="45.98457" lon="6.50275">
        <ele>1613</ele>
        <time>2021-03-23T09:25:36Z</time>
      </trkpt>
      <trkpt lat="45.98456" lon="6.50278">
        <ele>1613.4</ele>
        <time>2021-03-23T09:25:40Z</time>
      </trkpt>
      <trkpt lat="45.98455" lon="6.5028">
        <ele>1613.6</ele>
        <time>2021-03-23T09:25:43Z</time>
      </trkpt>
      <trkpt lat="45.98454" lon="6.50283">
        <ele>1613.8</ele>
        <time>2021-03-23T09:25:47Z</time>
      </trkpt>
      <trkpt lat="45.98453" lon="6.50286">
        <ele>1614.2</ele>
        <time>2021-03-23T09:25:50Z</time>
      </trkpt>
      <trkpt lat="45.98453" lon="6.50289">
        <ele>1614.6</ele>
        <time>2021-03-23T09:25:54Z</time>
      </trkpt>
      <trkpt lat="45.98453" lon="6.50292">
        <ele>1615.2</ele>
        <time>2021-03-23T09:25:59Z</time>
      </trkpt>
      <trkpt lat="45.98452" lon="6.50295">
        <ele>1615.4</ele>
        <time>2021-03-23T09:26:03Z</time>
      </trkpt>
      <trkpt lat="45.98452" lon="6.50298">
        <ele>1615.8</ele>
        <time>2021-03-23T09:26:07Z</time>
      </trkpt>
      <trkpt lat="45.98451" lon="6.503">
        <ele>1616</ele>
        <time>2021-03-23T09:26:10Z</time>
      </trkpt>
      <trkpt lat="45.9845" lon="6.50303">
        <ele>1616.6</ele>
        <time>2021-03-23T09:26:15Z</time>
      </trkpt>
      <trkpt lat="45.98449" lon="6.50306">
        <ele>1617</ele>
        <time>2021-03-23T09:26:19Z</time>
      </trkpt>
      <trkpt lat="45.98448" lon="6.50309">
        <ele>1617.4</ele>
        <time>2021-03-23T09:26:22Z</time>
      </trkpt>
      <trkpt lat="45.98448" lon="6.50311">
        <ele>1617.8</ele>
        <time>2021-03-23T09:26:25Z</time>
      </trkpt>
      <trkpt lat="45.98446" lon="6.50313">
        <ele>1618</ele>
        <time>2021-03-23T09:26:28Z</time>
      </trkpt>
      <trkpt lat="45.98446" lon="6.50317">
        <ele>1619</ele>
        <time>2021-03-23T09:26:33Z</time>
      </trkpt>
      <trkpt lat="45.98445" lon="6.5032">
        <ele>1619.8</ele>
        <time>2021-03-23T09:26:37Z</time>
      </trkpt>
      <trkpt lat="45.98444" lon="6.50323">
        <ele>1620.8</ele>
        <time>2021-03-23T09:26:42Z</time>
      </trkpt>
      <trkpt lat="45.98443" lon="6.50325">
        <ele>1621.2</ele>
        <time>2021-03-23T09:26:46Z</time>
      </trkpt>
      <trkpt lat="45.98443" lon="6.50328">
        <ele>1622.4</ele>
        <time>2021-03-23T09:26:50Z</time>
      </trkpt>
      <trkpt lat="45.98442" lon="6.50331">
        <ele>1623.2</ele>
        <time>2021-03-23T09:26:54Z</time>
      </trkpt>
      <trkpt lat="45.98441" lon="6.50334">
        <ele>1624</ele>
        <time>2021-03-23T09:26:58Z</time>
      </trkpt>
      <trkpt lat="45.98441" lon="6.50337">
        <ele>1624.8</ele>
        <time>2021-03-23T09:27:02Z</time>
      </trkpt>
      <trkpt lat="45.9844" lon="6.5034">
        <ele>1625</ele>
        <time>2021-03-23T09:27:06Z</time>
      </trkpt>
      <trkpt lat="45.98439" lon="6.50342">
        <ele>1625.2</ele>
        <time>2021-03-23T09:27:10Z</time>
      </trkpt>
      <trkpt lat="45.98439" lon="6.50345">
        <ele>1625.4</ele>
        <time>2021-03-23T09:27:14Z</time>
      </trkpt>
      <trkpt lat="45.98437" lon="6.50345">
        <ele>1627.2</ele>
        <time>2021-03-23T09:27:20Z</time>
      </trkpt>
      <trkpt lat="45.98436" lon="6.50344">
        <ele>1627.2</ele>
        <time>2021-03-23T09:27:23Z</time>
      </trkpt>
      <trkpt lat="45.98434" lon="6.50341">
        <ele>1628</ele>
        <time>2021-03-23T09:27:26Z</time>
      </trkpt>
      <trkpt lat="45.98433" lon="6.50339">
        <ele>1628.8</ele>
        <time>2021-03-23T09:27:30Z</time>
      </trkpt>
      <trkpt lat="45.98432" lon="6.50337">
        <ele>1628.8</ele>
        <time>2021-03-23T09:27:34Z</time>
      </trkpt>
      <trkpt lat="45.9843" lon="6.50334">
        <ele>1629.2</ele>
        <time>2021-03-23T09:27:38Z</time>
      </trkpt>
      <trkpt lat="45.98429" lon="6.50332">
        <ele>1629.2</ele>
        <time>2021-03-23T09:27:42Z</time>
      </trkpt>
      <trkpt lat="45.98428" lon="6.5033">
        <ele>1629.2</ele>
        <time>2021-03-23T09:27:46Z</time>
      </trkpt>
      <trkpt lat="45.98426" lon="6.50327">
        <ele>1629.6</ele>
        <time>2021-03-23T09:27:50Z</time>
      </trkpt>
      <trkpt lat="45.98426" lon="6.50325">
        <ele>1630.2</ele>
        <time>2021-03-23T09:27:54Z</time>
      </trkpt>
      <trkpt lat="45.98425" lon="6.50322">
        <ele>1630.8</ele>
        <time>2021-03-23T09:27:59Z</time>
      </trkpt>
      <trkpt lat="45.98424" lon="6.50319">
        <ele>1631.4</ele>
        <time>2021-03-23T09:28:03Z</time>
      </trkpt>
      <trkpt lat="45.98423" lon="6.50317">
        <ele>1631.8</ele>
        <time>2021-03-23T09:28:07Z</time>
      </trkpt>
      <trkpt lat="45.98421" lon="6.50314">
        <ele>1632.2</ele>
        <time>2021-03-23T09:28:11Z</time>
      </trkpt>
      <trkpt lat="45.98421" lon="6.50312">
        <ele>1632.8</ele>
        <time>2021-03-23T09:28:15Z</time>
      </trkpt>
      <trkpt lat="45.9842" lon="6.50309">
        <ele>1633</ele>
        <time>2021-03-23T09:28:18Z</time>
      </trkpt>
      <trkpt lat="45.98419" lon="6.50306">
        <ele>1633.8</ele>
        <time>2021-03-23T09:28:22Z</time>
      </trkpt>
      <trkpt lat="45.98418" lon="6.50304">
        <ele>1634</ele>
        <time>2021-03-23T09:28:26Z</time>
      </trkpt>
      <trkpt lat="45.98417" lon="6.50301">
        <ele>1634.6</ele>
        <time>2021-03-23T09:28:31Z</time>
      </trkpt>
      <trkpt lat="45.98417" lon="6.50298">
        <ele>1635.2</ele>
        <time>2021-03-23T09:28:36Z</time>
      </trkpt>
      <trkpt lat="45.98416" lon="6.50296">
        <ele>1635.6</ele>
        <time>2021-03-23T09:28:41Z</time>
      </trkpt>
      <trkpt lat="45.98415" lon="6.50293">
        <ele>1636.2</ele>
        <time>2021-03-23T09:28:46Z</time>
      </trkpt>
      <trkpt lat="45.98415" lon="6.5029">
        <ele>1637</ele>
        <time>2021-03-23T09:28:50Z</time>
      </trkpt>
      <trkpt lat="45.98414" lon="6.50288">
        <ele>1637.6</ele>
        <time>2021-03-23T09:28:54Z</time>
      </trkpt>
      <trkpt lat="45.98414" lon="6.50285">
        <ele>1638.2</ele>
        <time>2021-03-23T09:28:58Z</time>
      </trkpt>
      <trkpt lat="45.98413" lon="6.50282">
        <ele>1638.6</ele>
        <time>2021-03-23T09:29:03Z</time>
      </trkpt>
      <trkpt lat="45.98412" lon="6.5028">
        <ele>1639</ele>
        <time>2021-03-23T09:29:07Z</time>
      </trkpt>
      <trkpt lat="45.98411" lon="6.50278">
        <ele>1639.2</ele>
        <time>2021-03-23T09:29:12Z</time>
      </trkpt>
      <trkpt lat="45.9841" lon="6.50275">
        <ele>1640</ele>
        <time>2021-03-23T09:29:20Z</time>
      </trkpt>
      <trkpt lat="45.9841" lon="6.50272">
        <ele>1640.2</ele>
        <time>2021-03-23T09:29:29Z</time>
      </trkpt>
      <trkpt lat="45.98409" lon="6.5027">
        <ele>1640.4</ele>
        <time>2021-03-23T09:29:40Z</time>
      </trkpt>
      <trkpt lat="45.98409" lon="6.50266">
        <ele>1640.8</ele>
        <time>2021-03-23T09:29:44Z</time>
      </trkpt>
      <trkpt lat="45.98409" lon="6.50264">
        <ele>1641.2</ele>
        <time>2021-03-23T09:29:47Z</time>
      </trkpt>
      <trkpt lat="45.98409" lon="6.50261">
        <ele>1641.6</ele>
        <time>2021-03-23T09:29:52Z</time>
      </trkpt>
      <trkpt lat="45.98409" lon="6.50258">
        <ele>1642</ele>
        <time>2021-03-23T09:29:57Z</time>
      </trkpt>
      <trkpt lat="45.98408" lon="6.50255">
        <ele>1643.2</ele>
        <time>2021-03-23T09:30:01Z</time>
      </trkpt>
      <trkpt lat="45.98407" lon="6.50253">
        <ele>1643.4</ele>
        <time>2021-03-23T09:30:05Z</time>
      </trkpt>
      <trkpt lat="45.98406" lon="6.50251">
        <ele>1643.6</ele>
        <time>2021-03-23T09:30:09Z</time>
      </trkpt>
      <trkpt lat="45.98405" lon="6.50249">
        <ele>1643.8</ele>
        <time>2021-03-23T09:30:13Z</time>
      </trkpt>
      <trkpt lat="45.98403" lon="6.50247">
        <ele>1644</ele>
        <time>2021-03-23T09:30:17Z</time>
      </trkpt>
      <trkpt lat="45.98402" lon="6.50244">
        <ele>1644</ele>
        <time>2021-03-23T09:30:22Z</time>
      </trkpt>
      <trkpt lat="45.98401" lon="6.50241">
        <ele>1644.6</ele>
        <time>2021-03-23T09:30:26Z</time>
      </trkpt>
      <trkpt lat="45.984" lon="6.50239">
        <ele>1645.4</ele>
        <time>2021-03-23T09:30:32Z</time>
      </trkpt>
      <trkpt lat="45.98399" lon="6.50236">
        <ele>1645.8</ele>
        <time>2021-03-23T09:30:37Z</time>
      </trkpt>
      <trkpt lat="45.98398" lon="6.50234">
        <ele>1646.2</ele>
        <time>2021-03-23T09:30:41Z</time>
      </trkpt>
      <trkpt lat="45.98397" lon="6.50231">
        <ele>1646.6</ele>
        <time>2021-03-23T09:30:44Z</time>
      </trkpt>
      <trkpt lat="45.98396" lon="6.50229">
        <ele>1647.2</ele>
        <time>2021-03-23T09:30:48Z</time>
      </trkpt>
      <trkpt lat="45.98395" lon="6.50226">
        <ele>1647.6</ele>
        <time>2021-03-23T09:30:52Z</time>
      </trkpt>
      <trkpt lat="45.98395" lon="6.50223">
        <ele>1648.2</ele>
        <time>2021-03-23T09:30:56Z</time>
      </trkpt>
      <trkpt lat="45.98395" lon="6.5022">
        <ele>1648.6</ele>
        <time>2021-03-23T09:30:59Z</time>
      </trkpt>
      <trkpt lat="45.98395" lon="6.50217">
        <ele>1649</ele>
        <time>2021-03-23T09:31:02Z</time>
      </trkpt>
      <trkpt lat="45.98394" lon="6.50214">
        <ele>1649.4</ele>
        <time>2021-03-23T09:31:05Z</time>
      </trkpt>
      <trkpt lat="45.98394" lon="6.50211">
        <ele>1649.6</ele>
        <time>2021-03-23T09:31:09Z</time>
      </trkpt>
      <trkpt lat="45.98395" lon="6.50208">
        <ele>1649.8</ele>
        <time>2021-03-23T09:31:12Z</time>
      </trkpt>
      <trkpt lat="45.98395" lon="6.50205">
        <ele>1649.8</ele>
        <time>2021-03-23T09:31:15Z</time>
      </trkpt>
      <trkpt lat="45.98395" lon="6.50202">
        <ele>1650.8</ele>
        <time>2021-03-23T09:31:19Z</time>
      </trkpt>
      <trkpt lat="45.98395" lon="6.50199">
        <ele>1652.4</ele>
        <time>2021-03-23T09:31:28Z</time>
      </trkpt>
      <trkpt lat="45.98395" lon="6.50196">
        <ele>1653.2</ele>
        <time>2021-03-23T09:31:33Z</time>
      </trkpt>
      <trkpt lat="45.98394" lon="6.50193">
        <ele>1654</ele>
        <time>2021-03-23T09:31:40Z</time>
      </trkpt>
      <trkpt lat="45.98394" lon="6.50191">
        <ele>1654.4</ele>
        <time>2021-03-23T09:31:43Z</time>
      </trkpt>
      <trkpt lat="45.98393" lon="6.50188">
        <ele>1654.2</ele>
        <time>2021-03-23T09:32:09Z</time>
      </trkpt>
      <trkpt lat="45.98393" lon="6.50185">
        <ele>1654</ele>
        <time>2021-03-23T09:32:11Z</time>
      </trkpt>
      <trkpt lat="45.98391" lon="6.50183">
        <ele>1654.6</ele>
        <time>2021-03-23T09:32:15Z</time>
      </trkpt>
      <trkpt lat="45.9839" lon="6.5018">
        <ele>1655</ele>
        <time>2021-03-23T09:32:18Z</time>
      </trkpt>
      <trkpt lat="45.98388" lon="6.50179">
        <ele>1655.2</ele>
        <time>2021-03-23T09:32:22Z</time>
      </trkpt>
      <trkpt lat="45.98388" lon="6.50176">
        <ele>1655.2</ele>
        <time>2021-03-23T09:32:28Z</time>
      </trkpt>
      <trkpt lat="45.98387" lon="6.50174">
        <ele>1655.2</ele>
        <time>2021-03-23T09:32:30Z</time>
      </trkpt>
      <trkpt lat="45.98386" lon="6.50171">
        <ele>1655.4</ele>
        <time>2021-03-23T09:32:32Z</time>
      </trkpt>
      <trkpt lat="45.98385" lon="6.50168">
        <ele>1655.6</ele>
        <time>2021-03-23T09:32:35Z</time>
      </trkpt>
      <trkpt lat="45.98385" lon="6.50165">
        <ele>1655.8</ele>
        <time>2021-03-23T09:32:39Z</time>
      </trkpt>
      <trkpt lat="45.98383" lon="6.50162">
        <ele>1656.2</ele>
        <time>2021-03-23T09:32:44Z</time>
      </trkpt>
      <trkpt lat="45.98383" lon="6.50159">
        <ele>1657</ele>
        <time>2021-03-23T09:32:48Z</time>
      </trkpt>
      <trkpt lat="45.98382" lon="6.50156">
        <ele>1657.8</ele>
        <time>2021-03-23T09:32:52Z</time>
      </trkpt>
      <trkpt lat="45.9838" lon="6.50154">
        <ele>1658</ele>
        <time>2021-03-23T09:32:56Z</time>
      </trkpt>
      <trkpt lat="45.98379" lon="6.50152">
        <ele>1658</ele>
        <time>2021-03-23T09:33:00Z</time>
      </trkpt>
      <trkpt lat="45.98379" lon="6.50148">
        <ele>1658.2</ele>
        <time>2021-03-23T09:33:04Z</time>
      </trkpt>
      <trkpt lat="45.98378" lon="6.50146">
        <ele>1658.4</ele>
        <time>2021-03-23T09:33:07Z</time>
      </trkpt>
      <trkpt lat="45.98377" lon="6.50143">
        <ele>1658.4</ele>
        <time>2021-03-23T09:33:11Z</time>
      </trkpt>
      <trkpt lat="45.98377" lon="6.5014">
        <ele>1659.2</ele>
        <time>2021-03-23T09:33:15Z</time>
      </trkpt>
      <trkpt lat="45.98376" lon="6.50137">
        <ele>1659.6</ele>
        <time>2021-03-23T09:33:20Z</time>
      </trkpt>
      <trkpt lat="45.98375" lon="6.50135">
        <ele>1659.6</ele>
        <time>2021-03-23T09:33:24Z</time>
      </trkpt>
      <trkpt lat="45.98374" lon="6.50132">
        <ele>1660.4</ele>
        <time>2021-03-23T09:33:28Z</time>
      </trkpt>
      <trkpt lat="45.98374" lon="6.50129">
        <ele>1661.2</ele>
        <time>2021-03-23T09:33:33Z</time>
      </trkpt>
      <trkpt lat="45.98372" lon="6.50128">
        <ele>1662</ele>
        <time>2021-03-23T09:33:39Z</time>
      </trkpt>
      <trkpt lat="45.98371" lon="6.50126">
        <ele>1663</ele>
        <time>2021-03-23T09:33:44Z</time>
      </trkpt>
      <trkpt lat="45.98369" lon="6.50125">
        <ele>1663.6</ele>
        <time>2021-03-23T09:33:48Z</time>
      </trkpt>
      <trkpt lat="45.98368" lon="6.50123">
        <ele>1663.6</ele>
        <time>2021-03-23T09:33:51Z</time>
      </trkpt>
      <trkpt lat="45.98366" lon="6.50121">
        <ele>1664.4</ele>
        <time>2021-03-23T09:33:55Z</time>
      </trkpt>
      <trkpt lat="45.98364" lon="6.5012">
        <ele>1664.8</ele>
        <time>2021-03-23T09:33:59Z</time>
      </trkpt>
      <trkpt lat="45.98362" lon="6.50119">
        <ele>1665.6</ele>
        <time>2021-03-23T09:34:03Z</time>
      </trkpt>
      <trkpt lat="45.98361" lon="6.50117">
        <ele>1666.2</ele>
        <time>2021-03-23T09:34:07Z</time>
      </trkpt>
      <trkpt lat="45.9836" lon="6.50115">
        <ele>1666.2</ele>
        <time>2021-03-23T09:34:11Z</time>
      </trkpt>
      <trkpt lat="45.98358" lon="6.50114">
        <ele>1666.4</ele>
        <time>2021-03-23T09:34:15Z</time>
      </trkpt>
      <trkpt lat="45.98357" lon="6.50112">
        <ele>1666.8</ele>
        <time>2021-03-23T09:34:20Z</time>
      </trkpt>
      <trkpt lat="45.98356" lon="6.50109">
        <ele>1667.4</ele>
        <time>2021-03-23T09:34:23Z</time>
      </trkpt>
      <trkpt lat="45.98356" lon="6.50106">
        <ele>1668</ele>
        <time>2021-03-23T09:34:27Z</time>
      </trkpt>
      <trkpt lat="45.98355" lon="6.50103">
        <ele>1668.6</ele>
        <time>2021-03-23T09:34:31Z</time>
      </trkpt>
      <trkpt lat="45.98354" lon="6.501">
        <ele>1669.4</ele>
        <time>2021-03-23T09:34:36Z</time>
      </trkpt>
      <trkpt lat="45.98354" lon="6.50098">
        <ele>1670.4</ele>
        <time>2021-03-23T09:34:41Z</time>
      </trkpt>
      <trkpt lat="45.98353" lon="6.50095">
        <ele>1671.2</ele>
        <time>2021-03-23T09:34:45Z</time>
      </trkpt>
      <trkpt lat="45.98352" lon="6.50092">
        <ele>1672</ele>
        <time>2021-03-23T09:34:49Z</time>
      </trkpt>
      <trkpt lat="45.98352" lon="6.50089">
        <ele>1672.4</ele>
        <time>2021-03-23T09:34:53Z</time>
      </trkpt>
      <trkpt lat="45.98351" lon="6.50086">
        <ele>1673.4</ele>
        <time>2021-03-23T09:34:58Z</time>
      </trkpt>
      <trkpt lat="45.9835" lon="6.50084">
        <ele>1674.4</ele>
        <time>2021-03-23T09:35:02Z</time>
      </trkpt>
      <trkpt lat="45.98349" lon="6.50081">
        <ele>1675.4</ele>
        <time>2021-03-23T09:35:08Z</time>
      </trkpt>
      <trkpt lat="45.98348" lon="6.5008">
        <ele>1675.8</ele>
        <time>2021-03-23T09:35:14Z</time>
      </trkpt>
      <trkpt lat="45.98346" lon="6.50079">
        <ele>1676.4</ele>
        <time>2021-03-23T09:35:19Z</time>
      </trkpt>
      <trkpt lat="45.98344" lon="6.50079">
        <ele>1677</ele>
        <time>2021-03-23T09:35:22Z</time>
      </trkpt>
      <trkpt lat="45.98342" lon="6.50078">
        <ele>1677.6</ele>
        <time>2021-03-23T09:35:26Z</time>
      </trkpt>
      <trkpt lat="45.98341" lon="6.50076">
        <ele>1677.8</ele>
        <time>2021-03-23T09:35:30Z</time>
      </trkpt>
      <trkpt lat="45.9834" lon="6.50073">
        <ele>1678.4</ele>
        <time>2021-03-23T09:35:34Z</time>
      </trkpt>
      <trkpt lat="45.98339" lon="6.5007">
        <ele>1679</ele>
        <time>2021-03-23T09:35:38Z</time>
      </trkpt>
      <trkpt lat="45.98338" lon="6.50068">
        <ele>1679.8</ele>
        <time>2021-03-23T09:35:42Z</time>
      </trkpt>
      <trkpt lat="45.98337" lon="6.50066">
        <ele>1680.6</ele>
        <time>2021-03-23T09:35:49Z</time>
      </trkpt>
      <trkpt lat="45.98336" lon="6.50063">
        <ele>1681.4</ele>
        <time>2021-03-23T09:35:52Z</time>
      </trkpt>
      <trkpt lat="45.98335" lon="6.5006">
        <ele>1681.8</ele>
        <time>2021-03-23T09:35:56Z</time>
      </trkpt>
      <trkpt lat="45.98334" lon="6.50057">
        <ele>1682</ele>
        <time>2021-03-23T09:36:00Z</time>
      </trkpt>
      <trkpt lat="45.98334" lon="6.50054">
        <ele>1682.2</ele>
        <time>2021-03-23T09:36:04Z</time>
      </trkpt>
      <trkpt lat="45.98333" lon="6.50051">
        <ele>1683</ele>
        <time>2021-03-23T09:36:08Z</time>
      </trkpt>
      <trkpt lat="45.98333" lon="6.50048">
        <ele>1683.8</ele>
        <time>2021-03-23T09:36:12Z</time>
      </trkpt>
      <trkpt lat="45.98332" lon="6.50046">
        <ele>1684.6</ele>
        <time>2021-03-23T09:36:17Z</time>
      </trkpt>
      <trkpt lat="45.98331" lon="6.50043">
        <ele>1685.6</ele>
        <time>2021-03-23T09:36:23Z</time>
      </trkpt>
      <trkpt lat="45.98329" lon="6.50041">
        <ele>1686.6</ele>
        <time>2021-03-23T09:36:28Z</time>
      </trkpt>
      <trkpt lat="45.98329" lon="6.50038">
        <ele>1687.4</ele>
        <time>2021-03-23T09:36:33Z</time>
      </trkpt>
      <trkpt lat="45.98328" lon="6.50035">
        <ele>1688.2</ele>
        <time>2021-03-23T09:36:37Z</time>
      </trkpt>
      <trkpt lat="45.98328" lon="6.50032">
        <ele>1688.8</ele>
        <time>2021-03-23T09:36:42Z</time>
      </trkpt>
      <trkpt lat="45.98327" lon="6.50029">
        <ele>1689</ele>
        <time>2021-03-23T09:36:47Z</time>
      </trkpt>
      <trkpt lat="45.98327" lon="6.50026">
        <ele>1689.2</ele>
        <time>2021-03-23T09:36:51Z</time>
      </trkpt>
      <trkpt lat="45.98326" lon="6.50023">
        <ele>1689.6</ele>
        <time>2021-03-23T09:36:55Z</time>
      </trkpt>
      <trkpt lat="45.98324" lon="6.50024">
        <ele>1691.4</ele>
        <time>2021-03-23T09:37:08Z</time>
      </trkpt>
      <trkpt lat="45.98322" lon="6.50027">
        <ele>1691.8</ele>
        <time>2021-03-23T09:37:12Z</time>
      </trkpt>
      <trkpt lat="45.98321" lon="6.50029">
        <ele>1692.2</ele>
        <time>2021-03-23T09:37:15Z</time>
      </trkpt>
      <trkpt lat="45.9832" lon="6.50031">
        <ele>1692.2</ele>
        <time>2021-03-23T09:37:18Z</time>
      </trkpt>
      <trkpt lat="45.98319" lon="6.50034">
        <ele>1692.6</ele>
        <time>2021-03-23T09:37:22Z</time>
      </trkpt>
      <trkpt lat="45.98317" lon="6.50037">
        <ele>1693</ele>
        <time>2021-03-23T09:37:25Z</time>
      </trkpt>
      <trkpt lat="45.98316" lon="6.5004">
        <ele>1693.2</ele>
        <time>2021-03-23T09:37:28Z</time>
      </trkpt>
      <trkpt lat="45.98315" lon="6.50042">
        <ele>1694.2</ele>
        <time>2021-03-23T09:37:32Z</time>
      </trkpt>
      <trkpt lat="45.98314" lon="6.50045">
        <ele>1695.2</ele>
        <time>2021-03-23T09:37:36Z</time>
      </trkpt>
      <trkpt lat="45.98312" lon="6.50047">
        <ele>1696</ele>
        <time>2021-03-23T09:37:40Z</time>
      </trkpt>
      <trkpt lat="45.98311" lon="6.50049">
        <ele>1697</ele>
        <time>2021-03-23T09:37:45Z</time>
      </trkpt>
      <trkpt lat="45.98311" lon="6.50047">
        <ele>1698</ele>
        <time>2021-03-23T09:37:52Z</time>
      </trkpt>
      <trkpt lat="45.9831" lon="6.50044">
        <ele>1698</ele>
        <time>2021-03-23T09:37:55Z</time>
      </trkpt>
      <trkpt lat="45.9831" lon="6.50041">
        <ele>1698.2</ele>
        <time>2021-03-23T09:37:58Z</time>
      </trkpt>
      <trkpt lat="45.9831" lon="6.50038">
        <ele>1698.8</ele>
        <time>2021-03-23T09:38:02Z</time>
      </trkpt>
      <trkpt lat="45.98309" lon="6.50041">
        <ele>1699.8</ele>
        <time>2021-03-23T09:38:09Z</time>
      </trkpt>
      <trkpt lat="45.98308" lon="6.50043">
        <ele>1700.4</ele>
        <time>2021-03-23T09:38:13Z</time>
      </trkpt>
      <trkpt lat="45.98307" lon="6.50045">
        <ele>1700.6</ele>
        <time>2021-03-23T09:38:16Z</time>
      </trkpt>
      <trkpt lat="45.98306" lon="6.50047">
        <ele>1701</ele>
        <time>2021-03-23T09:38:19Z</time>
      </trkpt>
      <trkpt lat="45.98305" lon="6.50049">
        <ele>1701.2</ele>
        <time>2021-03-23T09:38:22Z</time>
      </trkpt>
      <trkpt lat="45.98304" lon="6.50052">
        <ele>1701.8</ele>
        <time>2021-03-23T09:38:25Z</time>
      </trkpt>
      <trkpt lat="45.98303" lon="6.50054">
        <ele>1702.6</ele>
        <time>2021-03-23T09:38:28Z</time>
      </trkpt>
      <trkpt lat="45.98302" lon="6.50057">
        <ele>1703</ele>
        <time>2021-03-23T09:38:32Z</time>
      </trkpt>
      <trkpt lat="45.98302" lon="6.5006">
        <ele>1703.6</ele>
        <time>2021-03-23T09:38:36Z</time>
      </trkpt>
      <trkpt lat="45.98302" lon="6.50063">
        <ele>1704</ele>
        <time>2021-03-23T09:38:39Z</time>
      </trkpt>
      <trkpt lat="45.98303" lon="6.50066">
        <ele>1704.4</ele>
        <time>2021-03-23T09:38:44Z</time>
      </trkpt>
      <trkpt lat="45.98303" lon="6.50069">
        <ele>1704.8</ele>
        <time>2021-03-23T09:38:47Z</time>
      </trkpt>
      <trkpt lat="45.98302" lon="6.50071">
        <ele>1704.8</ele>
        <time>2021-03-23T09:38:51Z</time>
      </trkpt>
      <trkpt lat="45.983" lon="6.50073">
        <ele>1705</ele>
        <time>2021-03-23T09:38:53Z</time>
      </trkpt>
      <trkpt lat="45.98299" lon="6.50075">
        <ele>1705</ele>
        <time>2021-03-23T09:38:56Z</time>
      </trkpt>
      <trkpt lat="45.98298" lon="6.50078">
        <ele>1705.6</ele>
        <time>2021-03-23T09:39:01Z</time>
      </trkpt>
      <trkpt lat="45.98298" lon="6.50081">
        <ele>1706.4</ele>
        <time>2021-03-23T09:39:05Z</time>
      </trkpt>
      <trkpt lat="45.98297" lon="6.50084">
        <ele>1706.8</ele>
        <time>2021-03-23T09:39:08Z</time>
      </trkpt>
      <trkpt lat="45.98297" lon="6.50087">
        <ele>1707.2</ele>
        <time>2021-03-23T09:39:11Z</time>
      </trkpt>
      <trkpt lat="45.98295" lon="6.50091">
        <ele>1708</ele>
        <time>2021-03-23T09:39:15Z</time>
      </trkpt>
      <trkpt lat="45.98295" lon="6.50094">
        <ele>1708.6</ele>
        <time>2021-03-23T09:39:19Z</time>
      </trkpt>
      <trkpt lat="45.98294" lon="6.50097">
        <ele>1709</ele>
        <time>2021-03-23T09:39:23Z</time>
      </trkpt>
      <trkpt lat="45.98294" lon="6.501">
        <ele>1710</ele>
        <time>2021-03-23T09:39:30Z</time>
      </trkpt>
      <trkpt lat="45.98293" lon="6.50104">
        <ele>1710.2</ele>
        <time>2021-03-23T09:39:33Z</time>
      </trkpt>
      <trkpt lat="45.98292" lon="6.50106">
        <ele>1710.4</ele>
        <time>2021-03-23T09:39:35Z</time>
      </trkpt>
      <trkpt lat="45.98292" lon="6.50109">
        <ele>1710.8</ele>
        <time>2021-03-23T09:39:39Z</time>
      </trkpt>
      <trkpt lat="45.98291" lon="6.50112">
        <ele>1711.2</ele>
        <time>2021-03-23T09:39:43Z</time>
      </trkpt>
      <trkpt lat="45.9829" lon="6.50116">
        <ele>1711.8</ele>
        <time>2021-03-23T09:39:47Z</time>
      </trkpt>
      <trkpt lat="45.9829" lon="6.50119">
        <ele>1712.4</ele>
        <time>2021-03-23T09:39:50Z</time>
      </trkpt>
      <trkpt lat="45.9829" lon="6.50121">
        <ele>1713</ele>
        <time>2021-03-23T09:39:53Z</time>
      </trkpt>
      <trkpt lat="45.98289" lon="6.50124">
        <ele>1713.4</ele>
        <time>2021-03-23T09:39:56Z</time>
      </trkpt>
      <trkpt lat="45.98288" lon="6.50127">
        <ele>1713.8</ele>
        <time>2021-03-23T09:39:59Z</time>
      </trkpt>
      <trkpt lat="45.98288" lon="6.5013">
        <ele>1714.6</ele>
        <time>2021-03-23T09:40:03Z</time>
      </trkpt>
      <trkpt lat="45.98287" lon="6.50133">
        <ele>1715.2</ele>
        <time>2021-03-23T09:40:07Z</time>
      </trkpt>
      <trkpt lat="45.98287" lon="6.50136">
        <ele>1716</ele>
        <time>2021-03-23T09:40:11Z</time>
      </trkpt>
      <trkpt lat="45.98286" lon="6.50138">
        <ele>1716</ele>
        <time>2021-03-23T09:40:15Z</time>
      </trkpt>
      <trkpt lat="45.98283" lon="6.50137">
        <ele>1716.6</ele>
        <time>2021-03-23T09:40:23Z</time>
      </trkpt>
      <trkpt lat="45.98282" lon="6.50136">
        <ele>1717.4</ele>
        <time>2021-03-23T09:40:29Z</time>
      </trkpt>
      <trkpt lat="45.98281" lon="6.50138">
        <ele>1718.2</ele>
        <time>2021-03-23T09:40:38Z</time>
      </trkpt>
      <trkpt lat="45.9828" lon="6.5014">
        <ele>1718.6</ele>
        <time>2021-03-23T09:40:41Z</time>
      </trkpt>
      <trkpt lat="45.98279" lon="6.50143">
        <ele>1718.8</ele>
        <time>2021-03-23T09:40:45Z</time>
      </trkpt>
      <trkpt lat="45.98279" lon="6.50145">
        <ele>1719.4</ele>
        <time>2021-03-23T09:40:54Z</time>
      </trkpt>
      <trkpt lat="45.98277" lon="6.50148">
        <ele>1719.6</ele>
        <time>2021-03-23T09:40:59Z</time>
      </trkpt>
      <trkpt lat="45.98276" lon="6.50144">
        <ele>1720.2</ele>
        <time>2021-03-23T09:41:05Z</time>
      </trkpt>
      <trkpt lat="45.98275" lon="6.50142">
        <ele>1720.4</ele>
        <time>2021-03-23T09:41:08Z</time>
      </trkpt>
      <trkpt lat="45.98274" lon="6.50139">
        <ele>1721</ele>
        <time>2021-03-23T09:41:11Z</time>
      </trkpt>
      <trkpt lat="45.98273" lon="6.50136">
        <ele>1721.6</ele>
        <time>2021-03-23T09:41:14Z</time>
      </trkpt>
      <trkpt lat="45.98273" lon="6.50134">
        <ele>1722</ele>
        <time>2021-03-23T09:41:17Z</time>
      </trkpt>
      <trkpt lat="45.98272" lon="6.50131">
        <ele>1722.6</ele>
        <time>2021-03-23T09:41:22Z</time>
      </trkpt>
      <trkpt lat="45.98271" lon="6.50128">
        <ele>1722.8</ele>
        <time>2021-03-23T09:41:26Z</time>
      </trkpt>
      <trkpt lat="45.9827" lon="6.50126">
        <ele>1723.4</ele>
        <time>2021-03-23T09:41:29Z</time>
      </trkpt>
      <trkpt lat="45.9827" lon="6.50123">
        <ele>1723.8</ele>
        <time>2021-03-23T09:41:32Z</time>
      </trkpt>
      <trkpt lat="45.98269" lon="6.5012">
        <ele>1724.6</ele>
        <time>2021-03-23T09:41:36Z</time>
      </trkpt>
      <trkpt lat="45.98268" lon="6.50118">
        <ele>1725.6</ele>
        <time>2021-03-23T09:41:40Z</time>
      </trkpt>
      <trkpt lat="45.98265" lon="6.50116">
        <ele>1726.6</ele>
        <time>2021-03-23T09:41:48Z</time>
      </trkpt>
      <trkpt lat="45.98267" lon="6.50117">
        <ele>1729</ele>
        <time>2021-03-23T09:41:58Z</time>
      </trkpt>
      <trkpt lat="45.98267" lon="6.50121">
        <ele>1729.6</ele>
        <time>2021-03-23T09:42:02Z</time>
      </trkpt>
      <trkpt lat="45.98266" lon="6.50123">
        <ele>1730.4</ele>
        <time>2021-03-23T09:42:05Z</time>
      </trkpt>
      <trkpt lat="45.98266" lon="6.50126">
        <ele>1731</ele>
        <time>2021-03-23T09:42:10Z</time>
      </trkpt>
      <trkpt lat="45.98265" lon="6.50129">
        <ele>1731.4</ele>
        <time>2021-03-23T09:42:14Z</time>
      </trkpt>
      <trkpt lat="45.98264" lon="6.50131">
        <ele>1732.2</ele>
        <time>2021-03-23T09:42:38Z</time>
      </trkpt>
      <trkpt lat="45.98264" lon="6.50134">
        <ele>1732</ele>
        <time>2021-03-23T09:43:01Z</time>
      </trkpt>
      <trkpt lat="45.98264" lon="6.50137">
        <ele>1732.4</ele>
        <time>2021-03-23T09:43:05Z</time>
      </trkpt>
      <trkpt lat="45.98263" lon="6.5014">
        <ele>1732.8</ele>
        <time>2021-03-23T09:43:09Z</time>
      </trkpt>
      <trkpt lat="45.98263" lon="6.50142">
        <ele>1733</ele>
        <time>2021-03-23T09:43:12Z</time>
      </trkpt>
      <trkpt lat="45.98263" lon="6.50146">
        <ele>1733.6</ele>
        <time>2021-03-23T09:43:16Z</time>
      </trkpt>
      <trkpt lat="45.98263" lon="6.50148">
        <ele>1734</ele>
        <time>2021-03-23T09:43:19Z</time>
      </trkpt>
      <trkpt lat="45.98262" lon="6.50151">
        <ele>1734.6</ele>
        <time>2021-03-23T09:43:22Z</time>
      </trkpt>
      <trkpt lat="45.98261" lon="6.50154">
        <ele>1735</ele>
        <time>2021-03-23T09:43:26Z</time>
      </trkpt>
      <trkpt lat="45.98261" lon="6.50157">
        <ele>1735.6</ele>
        <time>2021-03-23T09:43:30Z</time>
      </trkpt>
      <trkpt lat="45.98261" lon="6.5016">
        <ele>1737.4</ele>
        <time>2021-03-23T09:43:53Z</time>
      </trkpt>
      <trkpt lat="45.98259" lon="6.50158">
        <ele>1737.4</ele>
        <time>2021-03-23T09:44:04Z</time>
      </trkpt>
      <trkpt lat="45.98257" lon="6.50157">
        <ele>1737.4</ele>
        <time>2021-03-23T09:44:06Z</time>
      </trkpt>
      <trkpt lat="45.98256" lon="6.50155">
        <ele>1737.6</ele>
        <time>2021-03-23T09:44:09Z</time>
      </trkpt>
      <trkpt lat="45.98255" lon="6.50153">
        <ele>1737.6</ele>
        <time>2021-03-23T09:44:12Z</time>
      </trkpt>
      <trkpt lat="45.98254" lon="6.5015">
        <ele>1737.8</ele>
        <time>2021-03-23T09:44:15Z</time>
      </trkpt>
      <trkpt lat="45.98253" lon="6.50147">
        <ele>1738.4</ele>
        <time>2021-03-23T09:44:19Z</time>
      </trkpt>
      <trkpt lat="45.98253" lon="6.50145">
        <ele>1738.6</ele>
        <time>2021-03-23T09:44:22Z</time>
      </trkpt>
      <trkpt lat="45.98252" lon="6.50142">
        <ele>1739.2</ele>
        <time>2021-03-23T09:44:25Z</time>
      </trkpt>
      <trkpt lat="45.9825" lon="6.50141">
        <ele>1740.2</ele>
        <time>2021-03-23T09:44:29Z</time>
      </trkpt>
      <trkpt lat="45.98248" lon="6.50139">
        <ele>1740.6</ele>
        <time>2021-03-23T09:44:32Z</time>
      </trkpt>
      <trkpt lat="45.98247" lon="6.50137">
        <ele>1741.4</ele>
        <time>2021-03-23T09:44:35Z</time>
      </trkpt>
      <trkpt lat="45.98247" lon="6.50134">
        <ele>1742.4</ele>
        <time>2021-03-23T09:44:40Z</time>
      </trkpt>
      <trkpt lat="45.98247" lon="6.50131">
        <ele>1742.4</ele>
        <time>2021-03-23T09:44:44Z</time>
      </trkpt>
      <trkpt lat="45.98247" lon="6.50128">
        <ele>1742.8</ele>
        <time>2021-03-23T09:44:47Z</time>
      </trkpt>
      <trkpt lat="45.98249" lon="6.50127">
        <ele>1743.6</ele>
        <time>2021-03-23T09:44:57Z</time>
      </trkpt>
      <trkpt lat="45.98248" lon="6.5013">
        <ele>1744.6</ele>
        <time>2021-03-23T09:45:04Z</time>
      </trkpt>
      <trkpt lat="45.98247" lon="6.50132">
        <ele>1745</ele>
        <time>2021-03-23T09:45:07Z</time>
      </trkpt>
      <trkpt lat="45.98246" lon="6.50135">
        <ele>1745.2</ele>
        <time>2021-03-23T09:45:10Z</time>
      </trkpt>
      <trkpt lat="45.98246" lon="6.50138">
        <ele>1745.8</ele>
        <time>2021-03-23T09:45:14Z</time>
      </trkpt>
      <trkpt lat="45.98245" lon="6.50141">
        <ele>1746.2</ele>
        <time>2021-03-23T09:45:18Z</time>
      </trkpt>
      <trkpt lat="45.98245" lon="6.50143">
        <ele>1746.8</ele>
        <time>2021-03-23T09:45:22Z</time>
      </trkpt>
      <trkpt lat="45.98245" lon="6.50146">
        <ele>1747.4</ele>
        <time>2021-03-23T09:45:26Z</time>
      </trkpt>
      <trkpt lat="45.98244" lon="6.50149">
        <ele>1748</ele>
        <time>2021-03-23T09:45:30Z</time>
      </trkpt>
      <trkpt lat="45.98244" lon="6.50152">
        <ele>1748.4</ele>
        <time>2021-03-23T09:45:34Z</time>
      </trkpt>
      <trkpt lat="45.98243" lon="6.50155">
        <ele>1749.2</ele>
        <time>2021-03-23T09:45:37Z</time>
      </trkpt>
      <trkpt lat="45.98243" lon="6.50158">
        <ele>1750</ele>
        <time>2021-03-23T09:45:40Z</time>
      </trkpt>
      <trkpt lat="45.98242" lon="6.50161">
        <ele>1750.6</ele>
        <time>2021-03-23T09:45:43Z</time>
      </trkpt>
      <trkpt lat="45.98242" lon="6.50164">
        <ele>1751</ele>
        <time>2021-03-23T09:45:46Z</time>
      </trkpt>
      <trkpt lat="45.98241" lon="6.50166">
        <ele>1751.4</ele>
        <time>2021-03-23T09:45:49Z</time>
      </trkpt>
      <trkpt lat="45.9824" lon="6.50168">
        <ele>1751.4</ele>
        <time>2021-03-23T09:45:51Z</time>
      </trkpt>
      <trkpt lat="45.98239" lon="6.50171">
        <ele>1751.4</ele>
        <time>2021-03-23T09:45:54Z</time>
      </trkpt>
      <trkpt lat="45.98238" lon="6.50174">
        <ele>1752.2</ele>
        <time>2021-03-23T09:45:58Z</time>
      </trkpt>
      <trkpt lat="45.98238" lon="6.50177">
        <ele>1753</ele>
        <time>2021-03-23T09:46:02Z</time>
      </trkpt>
      <trkpt lat="45.98237" lon="6.5018">
        <ele>1753.4</ele>
        <time>2021-03-23T09:46:05Z</time>
      </trkpt>
      <trkpt lat="45.98236" lon="6.50183">
        <ele>1753.8</ele>
        <time>2021-03-23T09:46:08Z</time>
      </trkpt>
      <trkpt lat="45.98235" lon="6.50186">
        <ele>1754.2</ele>
        <time>2021-03-23T09:46:11Z</time>
      </trkpt>
      <trkpt lat="45.98233" lon="6.50188">
        <ele>1754.2</ele>
        <time>2021-03-23T09:46:14Z</time>
      </trkpt>
      <trkpt lat="45.98232" lon="6.50192">
        <ele>1755</ele>
        <time>2021-03-23T09:46:17Z</time>
      </trkpt>
      <trkpt lat="45.98231" lon="6.50194">
        <ele>1755.2</ele>
        <time>2021-03-23T09:46:20Z</time>
      </trkpt>
      <trkpt lat="45.9823" lon="6.50197">
        <ele>1755.6</ele>
        <time>2021-03-23T09:46:23Z</time>
      </trkpt>
      <trkpt lat="45.98229" lon="6.502">
        <ele>1756</ele>
        <time>2021-03-23T09:46:26Z</time>
      </trkpt>
      <trkpt lat="45.98228" lon="6.50202">
        <ele>1756.4</ele>
        <time>2021-03-23T09:46:28Z</time>
      </trkpt>
      <trkpt lat="45.98227" lon="6.50204">
        <ele>1757</ele>
        <time>2021-03-23T09:46:30Z</time>
      </trkpt>
      <trkpt lat="45.98226" lon="6.50207">
        <ele>1757.4</ele>
        <time>2021-03-23T09:46:32Z</time>
      </trkpt>
      <trkpt lat="45.98225" lon="6.50209">
        <ele>1757.6</ele>
        <time>2021-03-23T09:46:34Z</time>
      </trkpt>
      <trkpt lat="45.98224" lon="6.50213">
        <ele>1758.2</ele>
        <time>2021-03-23T09:46:37Z</time>
      </trkpt>
      <trkpt lat="45.98223" lon="6.50216">
        <ele>1758.8</ele>
        <time>2021-03-23T09:46:40Z</time>
      </trkpt>
      <trkpt lat="45.98223" lon="6.50219">
        <ele>1759.6</ele>
        <time>2021-03-23T09:46:43Z</time>
      </trkpt>
      <trkpt lat="45.98222" lon="6.50222">
        <ele>1760.2</ele>
        <time>2021-03-23T09:46:46Z</time>
      </trkpt>
      <trkpt lat="45.98221" lon="6.50225">
        <ele>1760.8</ele>
        <time>2021-03-23T09:46:49Z</time>
      </trkpt>
      <trkpt lat="45.9822" lon="6.50228">
        <ele>1761.4</ele>
        <time>2021-03-23T09:46:52Z</time>
      </trkpt>
      <trkpt lat="45.9822" lon="6.50231">
        <ele>1762.2</ele>
        <time>2021-03-23T09:46:55Z</time>
      </trkpt>
      <trkpt lat="45.9822" lon="6.50234">
        <ele>1763.2</ele>
        <time>2021-03-23T09:46:58Z</time>
      </trkpt>
      <trkpt lat="45.98219" lon="6.50236">
        <ele>1763.6</ele>
        <time>2021-03-23T09:47:01Z</time>
      </trkpt>
      <trkpt lat="45.98218" lon="6.50239">
        <ele>1764</ele>
        <time>2021-03-23T09:47:04Z</time>
      </trkpt>
      <trkpt lat="45.98217" lon="6.50242">
        <ele>1764.2</ele>
        <time>2021-03-23T09:47:07Z</time>
      </trkpt>
      <trkpt lat="45.98216" lon="6.50245">
        <ele>1764.8</ele>
        <time>2021-03-23T09:47:10Z</time>
      </trkpt>
      <trkpt lat="45.98215" lon="6.50248">
        <ele>1765.2</ele>
        <time>2021-03-23T09:47:14Z</time>
      </trkpt>
      <trkpt lat="45.98214" lon="6.50251">
        <ele>1765.8</ele>
        <time>2021-03-23T09:47:17Z</time>
      </trkpt>
      <trkpt lat="45.98214" lon="6.50253">
        <ele>1766.2</ele>
        <time>2021-03-23T09:47:20Z</time>
      </trkpt>
      <trkpt lat="45.98214" lon="6.50256">
        <ele>1766.8</ele>
        <time>2021-03-23T09:47:23Z</time>
      </trkpt>
      <trkpt lat="45.98213" lon="6.50259">
        <ele>1767</ele>
        <time>2021-03-23T09:47:26Z</time>
      </trkpt>
      <trkpt lat="45.98212" lon="6.50262">
        <ele>1767.6</ele>
        <time>2021-03-23T09:47:30Z</time>
      </trkpt>
      <trkpt lat="45.98212" lon="6.50264">
        <ele>1768.2</ele>
        <time>2021-03-23T09:47:33Z</time>
      </trkpt>
      <trkpt lat="45.98211" lon="6.50267">
        <ele>1768.4</ele>
        <time>2021-03-23T09:47:36Z</time>
      </trkpt>
      <trkpt lat="45.9821" lon="6.50271">
        <ele>1768.8</ele>
        <time>2021-03-23T09:47:40Z</time>
      </trkpt>
      <trkpt lat="45.9821" lon="6.50274">
        <ele>1769.4</ele>
        <time>2021-03-23T09:47:44Z</time>
      </trkpt>
      <trkpt lat="45.98209" lon="6.50277">
        <ele>1770.2</ele>
        <time>2021-03-23T09:47:48Z</time>
      </trkpt>
      <trkpt lat="45.98209" lon="6.5028">
        <ele>1771</ele>
        <time>2021-03-23T09:47:52Z</time>
      </trkpt>
      <trkpt lat="45.98209" lon="6.50283">
        <ele>1771.8</ele>
        <time>2021-03-23T09:47:55Z</time>
      </trkpt>
      <trkpt lat="45.98209" lon="6.50286">
        <ele>1772.2</ele>
        <time>2021-03-23T09:47:58Z</time>
      </trkpt>
      <trkpt lat="45.9821" lon="6.50288">
        <ele>1772.6</ele>
        <time>2021-03-23T09:48:01Z</time>
      </trkpt>
      <trkpt lat="45.98209" lon="6.50291">
        <ele>1773.6</ele>
        <time>2021-03-23T09:48:05Z</time>
      </trkpt>
      <trkpt lat="45.98208" lon="6.50294">
        <ele>1774.2</ele>
        <time>2021-03-23T09:48:09Z</time>
      </trkpt>
      <trkpt lat="45.98207" lon="6.50296">
        <ele>1774.6</ele>
        <time>2021-03-23T09:48:13Z</time>
      </trkpt>
      <trkpt lat="45.98206" lon="6.50293">
        <ele>1775.6</ele>
        <time>2021-03-23T09:48:20Z</time>
      </trkpt>
      <trkpt lat="45.98204" lon="6.50292">
        <ele>1775.6</ele>
        <time>2021-03-23T09:48:23Z</time>
      </trkpt>
      <trkpt lat="45.98202" lon="6.50289">
        <ele>1775.6</ele>
        <time>2021-03-23T09:48:27Z</time>
      </trkpt>
      <trkpt lat="45.98202" lon="6.50287">
        <ele>1775.6</ele>
        <time>2021-03-23T09:48:30Z</time>
      </trkpt>
      <trkpt lat="45.98201" lon="6.50284">
        <ele>1776</ele>
        <time>2021-03-23T09:48:38Z</time>
      </trkpt>
      <trkpt lat="45.98199" lon="6.50282">
        <ele>1776.4</ele>
        <time>2021-03-23T09:48:42Z</time>
      </trkpt>
      <trkpt lat="45.98197" lon="6.5028">
        <ele>1776.6</ele>
        <time>2021-03-23T09:48:46Z</time>
      </trkpt>
      <trkpt lat="45.98195" lon="6.5028">
        <ele>1777</ele>
        <time>2021-03-23T09:48:49Z</time>
      </trkpt>
      <trkpt lat="45.98193" lon="6.50279">
        <ele>1777.4</ele>
        <time>2021-03-23T09:48:53Z</time>
      </trkpt>
      <trkpt lat="45.98191" lon="6.5028">
        <ele>1777.8</ele>
        <time>2021-03-23T09:48:57Z</time>
      </trkpt>
      <trkpt lat="45.98189" lon="6.50279">
        <ele>1778.4</ele>
        <time>2021-03-23T09:49:04Z</time>
      </trkpt>
      <trkpt lat="45.98187" lon="6.50278">
        <ele>1778.4</ele>
        <time>2021-03-23T09:49:08Z</time>
      </trkpt>
      <trkpt lat="45.98185" lon="6.50278">
        <ele>1779</ele>
        <time>2021-03-23T09:49:12Z</time>
      </trkpt>
      <trkpt lat="45.98183" lon="6.50278">
        <ele>1779.4</ele>
        <time>2021-03-23T09:49:16Z</time>
      </trkpt>
      <trkpt lat="45.98181" lon="6.50279">
        <ele>1779.8</ele>
        <time>2021-03-23T09:49:20Z</time>
      </trkpt>
      <trkpt lat="45.98179" lon="6.5028">
        <ele>1780.4</ele>
        <time>2021-03-23T09:49:24Z</time>
      </trkpt>
      <trkpt lat="45.98178" lon="6.50281">
        <ele>1781</ele>
        <time>2021-03-23T09:49:28Z</time>
      </trkpt>
      <trkpt lat="45.98176" lon="6.50282">
        <ele>1781.2</ele>
        <time>2021-03-23T09:49:32Z</time>
      </trkpt>
      <trkpt lat="45.98174" lon="6.50283">
        <ele>1781.4</ele>
        <time>2021-03-23T09:49:37Z</time>
      </trkpt>
      <trkpt lat="45.98172" lon="6.50284">
        <ele>1781.6</ele>
        <time>2021-03-23T09:49:41Z</time>
      </trkpt>
      <trkpt lat="45.9817" lon="6.50285">
        <ele>1782.2</ele>
        <time>2021-03-23T09:49:45Z</time>
      </trkpt>
      <trkpt lat="45.98168" lon="6.50286">
        <ele>1783</ele>
        <time>2021-03-23T09:49:50Z</time>
      </trkpt>
      <trkpt lat="45.98166" lon="6.50286">
        <ele>1783.8</ele>
        <time>2021-03-23T09:49:54Z</time>
      </trkpt>
      <trkpt lat="45.98164" lon="6.50287">
        <ele>1784.6</ele>
        <time>2021-03-23T09:49:58Z</time>
      </trkpt>
      <trkpt lat="45.98163" lon="6.50289">
        <ele>1785.2</ele>
        <time>2021-03-23T09:50:02Z</time>
      </trkpt>
      <trkpt lat="45.98161" lon="6.5029">
        <ele>1785.2</ele>
        <time>2021-03-23T09:50:05Z</time>
      </trkpt>
      <trkpt lat="45.98159" lon="6.50291">
        <ele>1785.6</ele>
        <time>2021-03-23T09:50:09Z</time>
      </trkpt>
      <trkpt lat="45.98157" lon="6.50292">
        <ele>1786.2</ele>
        <time>2021-03-23T09:50:13Z</time>
      </trkpt>
      <trkpt lat="45.98155" lon="6.50294">
        <ele>1786.8</ele>
        <time>2021-03-23T09:50:17Z</time>
      </trkpt>
      <trkpt lat="45.98154" lon="6.50296">
        <ele>1787.2</ele>
        <time>2021-03-23T09:50:39Z</time>
      </trkpt>
      <trkpt lat="45.98159" lon="6.50285">
        <ele>1786.2</ele>
        <time>2021-03-23T09:51:28Z</time>
      </trkpt>
      <trkpt lat="45.98152" lon="6.50294">
        <ele>1784</ele>
        <time>2021-03-23T09:52:02Z</time>
      </trkpt>
      <trkpt lat="45.9815" lon="6.50293">
        <ele>1782.2</ele>
        <time>2021-03-23T09:52:47Z</time>
      </trkpt>
      <trkpt lat="45.98152" lon="6.50293">
        <ele>1782.2</ele>
        <time>2021-03-23T09:53:19Z</time>
      </trkpt>
      <trkpt lat="45.98153" lon="6.50295">
        <ele>1782.8</ele>
        <time>2021-03-23T09:53:33Z</time>
      </trkpt>
      <trkpt lat="45.98151" lon="6.503">
        <ele>1782</ele>
        <time>2021-03-23T09:55:44Z</time>
      </trkpt>
      <trkpt lat="45.9815" lon="6.50302">
        <ele>1780.2</ele>
        <time>2021-03-23T09:55:46Z</time>
      </trkpt>
      <trkpt lat="45.98148" lon="6.50303">
        <ele>1778.6</ele>
        <time>2021-03-23T09:55:48Z</time>
      </trkpt>
      <trkpt lat="45.98145" lon="6.50304">
        <ele>1780</ele>
        <time>2021-03-23T09:56:24Z</time>
      </trkpt>
      <trkpt lat="45.98143" lon="6.50305">
        <ele>1780.6</ele>
        <time>2021-03-23T09:56:26Z</time>
      </trkpt>
      <trkpt lat="45.98141" lon="6.50307">
        <ele>1781</ele>
        <time>2021-03-23T09:56:28Z</time>
      </trkpt>
      <trkpt lat="45.98139" lon="6.50309">
        <ele>1781.6</ele>
        <time>2021-03-23T09:56:30Z</time>
      </trkpt>
      <trkpt lat="45.98137" lon="6.50311">
        <ele>1781.8</ele>
        <time>2021-03-23T09:56:32Z</time>
      </trkpt>
      <trkpt lat="45.98135" lon="6.50313">
        <ele>1782</ele>
        <time>2021-03-23T09:56:34Z</time>
      </trkpt>
      <trkpt lat="45.98133" lon="6.50315">
        <ele>1782.4</ele>
        <time>2021-03-23T09:56:36Z</time>
      </trkpt>
      <trkpt lat="45.98131" lon="6.50316">
        <ele>1782.6</ele>
        <time>2021-03-23T09:56:38Z</time>
      </trkpt>
      <trkpt lat="45.98129" lon="6.50318">
        <ele>1783</ele>
        <time>2021-03-23T09:56:40Z</time>
      </trkpt>
      <trkpt lat="45.98127" lon="6.50319">
        <ele>1784.2</ele>
        <time>2021-03-23T09:56:47Z</time>
      </trkpt>
      <trkpt lat="45.98126" lon="6.50321">
        <ele>1785.2</ele>
        <time>2021-03-23T09:56:53Z</time>
      </trkpt>
      <trkpt lat="45.98124" lon="6.50324">
        <ele>1785.8</ele>
        <time>2021-03-23T09:56:56Z</time>
      </trkpt>
      <trkpt lat="45.98123" lon="6.50326">
        <ele>1786.4</ele>
        <time>2021-03-23T09:56:59Z</time>
      </trkpt>
      <trkpt lat="45.98121" lon="6.50329">
        <ele>1787</ele>
        <time>2021-03-23T09:57:02Z</time>
      </trkpt>
      <trkpt lat="45.9812" lon="6.50331">
        <ele>1787.8</ele>
        <time>2021-03-23T09:57:07Z</time>
      </trkpt>
      <trkpt lat="45.98118" lon="6.50332">
        <ele>1788.2</ele>
        <time>2021-03-23T09:57:09Z</time>
      </trkpt>
      <trkpt lat="45.98116" lon="6.50334">
        <ele>1788.6</ele>
        <time>2021-03-23T09:57:12Z</time>
      </trkpt>
      <trkpt lat="45.98115" lon="6.50337">
        <ele>1789.2</ele>
        <time>2021-03-23T09:57:15Z</time>
      </trkpt>
      <trkpt lat="45.98113" lon="6.50339">
        <ele>1789.6</ele>
        <time>2021-03-23T09:57:18Z</time>
      </trkpt>
      <trkpt lat="45.98112" lon="6.50341">
        <ele>1790.2</ele>
        <time>2021-03-23T09:57:21Z</time>
      </trkpt>
      <trkpt lat="45.98114" lon="6.50347">
        <ele>1791.4</ele>
        <time>2021-03-23T09:57:48Z</time>
      </trkpt>
      <trkpt lat="45.98112" lon="6.50346">
        <ele>1792.2</ele>
        <time>2021-03-23T09:58:06Z</time>
      </trkpt>
      <trkpt lat="45.9811" lon="6.50348">
        <ele>1792.8</ele>
        <time>2021-03-23T09:58:09Z</time>
      </trkpt>
      <trkpt lat="45.98109" lon="6.5035">
        <ele>1793.4</ele>
        <time>2021-03-23T09:58:12Z</time>
      </trkpt>
      <trkpt lat="45.98107" lon="6.50351">
        <ele>1794</ele>
        <time>2021-03-23T09:58:15Z</time>
      </trkpt>
      <trkpt lat="45.98106" lon="6.50354">
        <ele>1794.8</ele>
        <time>2021-03-23T09:58:21Z</time>
      </trkpt>
      <trkpt lat="45.98103" lon="6.50361">
        <ele>1797.2</ele>
        <time>2021-03-23T09:58:44Z</time>
      </trkpt>
      <trkpt lat="45.98101" lon="6.50365">
        <ele>1798.4</ele>
        <time>2021-03-23T09:58:49Z</time>
      </trkpt>
      <trkpt lat="45.98101" lon="6.50368">
        <ele>1799.2</ele>
        <time>2021-03-23T09:59:02Z</time>
      </trkpt>
      <trkpt lat="45.98099" lon="6.50371">
        <ele>1799.6</ele>
        <time>2021-03-23T09:59:06Z</time>
      </trkpt>
      <trkpt lat="45.98098" lon="6.50374">
        <ele>1800.6</ele>
        <time>2021-03-23T09:59:10Z</time>
      </trkpt>
      <trkpt lat="45.98097" lon="6.50376">
        <ele>1801</ele>
        <time>2021-03-23T09:59:13Z</time>
      </trkpt>
      <trkpt lat="45.98096" lon="6.50378">
        <ele>1801.4</ele>
        <time>2021-03-23T09:59:16Z</time>
      </trkpt>
      <trkpt lat="45.98095" lon="6.50381">
        <ele>1802</ele>
        <time>2021-03-23T09:59:20Z</time>
      </trkpt>
      <trkpt lat="45.98095" lon="6.50384">
        <ele>1802.6</ele>
        <time>2021-03-23T09:59:23Z</time>
      </trkpt>
      <trkpt lat="45.98094" lon="6.50387">
        <ele>1803</ele>
        <time>2021-03-23T09:59:27Z</time>
      </trkpt>
      <trkpt lat="45.98093" lon="6.5039">
        <ele>1803.6</ele>
        <time>2021-03-23T09:59:32Z</time>
      </trkpt>
      <trkpt lat="45.98091" lon="6.50392">
        <ele>1804.4</ele>
        <time>2021-03-23T09:59:36Z</time>
      </trkpt>
      <trkpt lat="45.98091" lon="6.50395">
        <ele>1805.2</ele>
        <time>2021-03-23T09:59:40Z</time>
      </trkpt>
      <trkpt lat="45.9809" lon="6.50397">
        <ele>1805.8</ele>
        <time>2021-03-23T09:59:44Z</time>
      </trkpt>
      <trkpt lat="45.98089" lon="6.50401">
        <ele>1806.8</ele>
        <time>2021-03-23T09:59:50Z</time>
      </trkpt>
      <trkpt lat="45.98087" lon="6.50407">
        <ele>1809.2</ele>
        <time>2021-03-23T09:59:58Z</time>
      </trkpt>
      <trkpt lat="45.98086" lon="6.5041">
        <ele>1810.4</ele>
        <time>2021-03-23T10:00:03Z</time>
      </trkpt>
      <trkpt lat="45.98085" lon="6.50411">
        <ele>1810.8</ele>
        <time>2021-03-23T10:00:09Z</time>
      </trkpt>
      <trkpt lat="45.98084" lon="6.50413">
        <ele>1811.2</ele>
        <time>2021-03-23T10:00:12Z</time>
      </trkpt>
      <trkpt lat="45.98082" lon="6.50416">
        <ele>1811.6</ele>
        <time>2021-03-23T10:00:16Z</time>
      </trkpt>
      <trkpt lat="45.98082" lon="6.5042">
        <ele>1812.4</ele>
        <time>2021-03-23T10:00:20Z</time>
      </trkpt>
      <trkpt lat="45.98083" lon="6.50423">
        <ele>1813.4</ele>
        <time>2021-03-23T10:00:25Z</time>
      </trkpt>
      <trkpt lat="45.98081" lon="6.50426">
        <ele>1814</ele>
        <time>2021-03-23T10:00:30Z</time>
      </trkpt>
      <trkpt lat="45.98081" lon="6.50429">
        <ele>1815.4</ele>
        <time>2021-03-23T10:00:35Z</time>
      </trkpt>
      <trkpt lat="45.98081" lon="6.50432">
        <ele>1815.8</ele>
        <time>2021-03-23T10:00:39Z</time>
      </trkpt>
      <trkpt lat="45.98082" lon="6.50435">
        <ele>1816.6</ele>
        <time>2021-03-23T10:00:43Z</time>
      </trkpt>
      <trkpt lat="45.98081" lon="6.50438">
        <ele>1817.2</ele>
        <time>2021-03-23T10:00:47Z</time>
      </trkpt>
      <trkpt lat="45.9808" lon="6.5044">
        <ele>1817.6</ele>
        <time>2021-03-23T10:00:52Z</time>
      </trkpt>
      <trkpt lat="45.98079" lon="6.50442">
        <ele>1817.8</ele>
        <time>2021-03-23T10:00:55Z</time>
      </trkpt>
      <trkpt lat="45.9808" lon="6.50445">
        <ele>1818</ele>
        <time>2021-03-23T10:00:59Z</time>
      </trkpt>
      <trkpt lat="45.98081" lon="6.50447">
        <ele>1818</ele>
        <time>2021-03-23T10:01:03Z</time>
      </trkpt>
      <trkpt lat="45.98081" lon="6.50451">
        <ele>1818.4</ele>
        <time>2021-03-23T10:01:08Z</time>
      </trkpt>
      <trkpt lat="45.98081" lon="6.50454">
        <ele>1819</ele>
        <time>2021-03-23T10:01:11Z</time>
      </trkpt>
      <trkpt lat="45.98081" lon="6.50458">
        <ele>1820</ele>
        <time>2021-03-23T10:01:14Z</time>
      </trkpt>
      <trkpt lat="45.98082" lon="6.5046">
        <ele>1820.4</ele>
        <time>2021-03-23T10:01:17Z</time>
      </trkpt>
      <trkpt lat="45.98083" lon="6.50463">
        <ele>1820.8</ele>
        <time>2021-03-23T10:01:20Z</time>
      </trkpt>
      <trkpt lat="45.98082" lon="6.50466">
        <ele>1821.2</ele>
        <time>2021-03-23T10:01:24Z</time>
      </trkpt>
      <trkpt lat="45.98082" lon="6.50469">
        <ele>1822</ele>
        <time>2021-03-23T10:01:28Z</time>
      </trkpt>
      <trkpt lat="45.98084" lon="6.50472">
        <ele>1823.4</ele>
        <time>2021-03-23T10:01:36Z</time>
      </trkpt>
      <trkpt lat="45.98082" lon="6.50482">
        <ele>1827</ele>
        <time>2021-03-23T10:01:49Z</time>
      </trkpt>
      <trkpt lat="45.98083" lon="6.50485">
        <ele>1828.6</ele>
        <time>2021-03-23T10:01:52Z</time>
      </trkpt>
      <trkpt lat="45.98082" lon="6.50487">
        <ele>1828</ele>
        <time>2021-03-23T10:03:48Z</time>
      </trkpt>
      <trkpt lat="45.98082" lon="6.5049">
        <ele>1828.2</ele>
        <time>2021-03-23T10:03:53Z</time>
      </trkpt>
      <trkpt lat="45.98082" lon="6.50493">
        <ele>1828.4</ele>
        <time>2021-03-23T10:03:57Z</time>
      </trkpt>
      <trkpt lat="45.98081" lon="6.50496">
        <ele>1829</ele>
        <time>2021-03-23T10:04:01Z</time>
      </trkpt>
      <trkpt lat="45.98081" lon="6.50499">
        <ele>1829.2</ele>
        <time>2021-03-23T10:04:05Z</time>
      </trkpt>
      <trkpt lat="45.9808" lon="6.50502">
        <ele>1829.8</ele>
        <time>2021-03-23T10:04:08Z</time>
      </trkpt>
      <trkpt lat="45.9808" lon="6.50505">
        <ele>1830.4</ele>
        <time>2021-03-23T10:04:11Z</time>
      </trkpt>
      <trkpt lat="45.9808" lon="6.50507">
        <ele>1830.8</ele>
        <time>2021-03-23T10:04:14Z</time>
      </trkpt>
      <trkpt lat="45.98081" lon="6.5051">
        <ele>1831.2</ele>
        <time>2021-03-23T10:04:18Z</time>
      </trkpt>
      <trkpt lat="45.9808" lon="6.50513">
        <ele>1831.4</ele>
        <time>2021-03-23T10:04:21Z</time>
      </trkpt>
      <trkpt lat="45.9808" lon="6.50516">
        <ele>1830.8</ele>
        <time>2021-03-23T10:04:24Z</time>
      </trkpt>
      <trkpt lat="45.9808" lon="6.50519">
        <ele>1830.4</ele>
        <time>2021-03-23T10:04:27Z</time>
      </trkpt>
      <trkpt lat="45.9808" lon="6.50522">
        <ele>1830.8</ele>
        <time>2021-03-23T10:04:31Z</time>
      </trkpt>
      <trkpt lat="45.98079" lon="6.50525">
        <ele>1830.6</ele>
        <time>2021-03-23T10:04:35Z</time>
      </trkpt>
      <trkpt lat="45.98079" lon="6.50527">
        <ele>1830.6</ele>
        <time>2021-03-23T10:04:38Z</time>
      </trkpt>
      <trkpt lat="45.98079" lon="6.5053">
        <ele>1831</ele>
        <time>2021-03-23T10:04:41Z</time>
      </trkpt>
      <trkpt lat="45.9808" lon="6.50533">
        <ele>1832.2</ele>
        <time>2021-03-23T10:04:44Z</time>
      </trkpt>
      <trkpt lat="45.9808" lon="6.50536">
        <ele>1832.6</ele>
        <time>2021-03-23T10:04:47Z</time>
      </trkpt>
      <trkpt lat="45.9808" lon="6.50539">
        <ele>1832.8</ele>
        <time>2021-03-23T10:04:51Z</time>
      </trkpt>
      <trkpt lat="45.98079" lon="6.50542">
        <ele>1832.8</ele>
        <time>2021-03-23T10:04:55Z</time>
      </trkpt>
      <trkpt lat="45.98079" lon="6.50544">
        <ele>1833</ele>
        <time>2021-03-23T10:04:59Z</time>
      </trkpt>
      <trkpt lat="45.98079" lon="6.50547">
        <ele>1832.8</ele>
        <time>2021-03-23T10:05:15Z</time>
      </trkpt>
      <trkpt lat="45.98078" lon="6.5055">
        <ele>1833.4</ele>
        <time>2021-03-23T10:05:19Z</time>
      </trkpt>
      <trkpt lat="45.98079" lon="6.50553">
        <ele>1834.2</ele>
        <time>2021-03-23T10:05:22Z</time>
      </trkpt>
      <trkpt lat="45.98081" lon="6.50554">
        <ele>1835.4</ele>
        <time>2021-03-23T10:05:33Z</time>
      </trkpt>
      <trkpt lat="45.98082" lon="6.50557">
        <ele>1835.8</ele>
        <time>2021-03-23T10:05:36Z</time>
      </trkpt>
      <trkpt lat="45.98081" lon="6.50559">
        <ele>1836.6</ele>
        <time>2021-03-23T10:05:40Z</time>
      </trkpt>
      <trkpt lat="45.98081" lon="6.50562">
        <ele>1836.8</ele>
        <time>2021-03-23T10:05:43Z</time>
      </trkpt>
      <trkpt lat="45.9808" lon="6.50565">
        <ele>1836.8</ele>
        <time>2021-03-23T10:05:47Z</time>
      </trkpt>
      <trkpt lat="45.9808" lon="6.50568">
        <ele>1836.6</ele>
        <time>2021-03-23T10:05:50Z</time>
      </trkpt>
      <trkpt lat="45.9808" lon="6.50571">
        <ele>1836.8</ele>
        <time>2021-03-23T10:05:53Z</time>
      </trkpt>
      <trkpt lat="45.9808" lon="6.50574">
        <ele>1837</ele>
        <time>2021-03-23T10:05:57Z</time>
      </trkpt>
      <trkpt lat="45.9808" lon="6.50577">
        <ele>1838.4</ele>
        <time>2021-03-23T10:06:01Z</time>
      </trkpt>
      <trkpt lat="45.9808" lon="6.5058">
        <ele>1838.8</ele>
        <time>2021-03-23T10:06:05Z</time>
      </trkpt>
      <trkpt lat="45.98081" lon="6.50583">
        <ele>1839.2</ele>
        <time>2021-03-23T10:06:09Z</time>
      </trkpt>
      <trkpt lat="45.9808" lon="6.50586">
        <ele>1840.2</ele>
        <time>2021-03-23T10:06:13Z</time>
      </trkpt>
      <trkpt lat="45.98081" lon="6.50589">
        <ele>1840.8</ele>
        <time>2021-03-23T10:06:17Z</time>
      </trkpt>
      <trkpt lat="45.9808" lon="6.50592">
        <ele>1840.4</ele>
        <time>2021-03-23T10:06:21Z</time>
      </trkpt>
      <trkpt lat="45.9808" lon="6.50595">
        <ele>1840.8</ele>
        <time>2021-03-23T10:06:25Z</time>
      </trkpt>
      <trkpt lat="45.98079" lon="6.50597">
        <ele>1841</ele>
        <time>2021-03-23T10:06:29Z</time>
      </trkpt>
      <trkpt lat="45.98079" lon="6.506">
        <ele>1842.2</ele>
        <time>2021-03-23T10:06:33Z</time>
      </trkpt>
      <trkpt lat="45.98079" lon="6.50603">
        <ele>1842.4</ele>
        <time>2021-03-23T10:06:37Z</time>
      </trkpt>
      <trkpt lat="45.98079" lon="6.50608">
        <ele>1843.6</ele>
        <time>2021-03-23T10:06:42Z</time>
      </trkpt>
      <trkpt lat="45.98079" lon="6.50611">
        <ele>1844</ele>
        <time>2021-03-23T10:06:45Z</time>
      </trkpt>
      <trkpt lat="45.98078" lon="6.50613">
        <ele>1845.6</ele>
        <time>2021-03-23T10:06:51Z</time>
      </trkpt>
      <trkpt lat="45.98078" lon="6.50616">
        <ele>1845.6</ele>
        <time>2021-03-23T10:06:55Z</time>
      </trkpt>
      <trkpt lat="45.98078" lon="6.50619">
        <ele>1845.6</ele>
        <time>2021-03-23T10:06:59Z</time>
      </trkpt>
      <trkpt lat="45.98077" lon="6.50622">
        <ele>1845.6</ele>
        <time>2021-03-23T10:07:04Z</time>
      </trkpt>
      <trkpt lat="45.98076" lon="6.50625">
        <ele>1845.8</ele>
        <time>2021-03-23T10:07:09Z</time>
      </trkpt>
      <trkpt lat="45.98076" lon="6.50628">
        <ele>1846.4</ele>
        <time>2021-03-23T10:07:13Z</time>
      </trkpt>
      <trkpt lat="45.98076" lon="6.5063">
        <ele>1847</ele>
        <time>2021-03-23T10:07:17Z</time>
      </trkpt>
      <trkpt lat="45.98076" lon="6.50633">
        <ele>1847.6</ele>
        <time>2021-03-23T10:07:20Z</time>
      </trkpt>
      <trkpt lat="45.98076" lon="6.50636">
        <ele>1848.6</ele>
        <time>2021-03-23T10:07:24Z</time>
      </trkpt>
      <trkpt lat="45.98077" lon="6.50638">
        <ele>1849.6</ele>
        <time>2021-03-23T10:07:32Z</time>
      </trkpt>
      <trkpt lat="45.98079" lon="6.50639">
        <ele>1850.2</ele>
        <time>2021-03-23T10:08:46Z</time>
      </trkpt>
      <trkpt lat="45.98078" lon="6.50641">
        <ele>1850.2</ele>
        <time>2021-03-23T10:08:49Z</time>
      </trkpt>
      <trkpt lat="45.98078" lon="6.50644">
        <ele>1849.8</ele>
        <time>2021-03-23T10:08:52Z</time>
      </trkpt>
      <trkpt lat="45.98077" lon="6.50647">
        <ele>1850</ele>
        <time>2021-03-23T10:08:55Z</time>
      </trkpt>
      <trkpt lat="45.98077" lon="6.5065">
        <ele>1849.6</ele>
        <time>2021-03-23T10:08:59Z</time>
      </trkpt>
      <trkpt lat="45.98078" lon="6.50653">
        <ele>1850</ele>
        <time>2021-03-23T10:09:03Z</time>
      </trkpt>
      <trkpt lat="45.98079" lon="6.50655">
        <ele>1850.6</ele>
        <time>2021-03-23T10:09:07Z</time>
      </trkpt>
      <trkpt lat="45.98079" lon="6.50658">
        <ele>1852.2</ele>
        <time>2021-03-23T10:09:25Z</time>
      </trkpt>
      <trkpt lat="45.9808" lon="6.5066">
        <ele>1852.8</ele>
        <time>2021-03-23T10:09:29Z</time>
      </trkpt>
      <trkpt lat="45.98081" lon="6.50663">
        <ele>1853.2</ele>
        <time>2021-03-23T10:09:33Z</time>
      </trkpt>
      <trkpt lat="45.98082" lon="6.50665">
        <ele>1853.8</ele>
        <time>2021-03-23T10:09:37Z</time>
      </trkpt>
      <trkpt lat="45.98083" lon="6.50668">
        <ele>1854.8</ele>
        <time>2021-03-23T10:09:41Z</time>
      </trkpt>
      <trkpt lat="45.98084" lon="6.50671">
        <ele>1856</ele>
        <time>2021-03-23T10:09:45Z</time>
      </trkpt>
      <trkpt lat="45.98084" lon="6.50674">
        <ele>1857.2</ele>
        <time>2021-03-23T10:09:50Z</time>
      </trkpt>
      <trkpt lat="45.98085" lon="6.50676">
        <ele>1858</ele>
        <time>2021-03-23T10:09:54Z</time>
      </trkpt>
      <trkpt lat="45.98085" lon="6.5068">
        <ele>1858.8</ele>
        <time>2021-03-23T10:10:03Z</time>
      </trkpt>
      <trkpt lat="45.98085" lon="6.50683">
        <ele>1859.8</ele>
        <time>2021-03-23T10:10:08Z</time>
      </trkpt>
      <trkpt lat="45.98085" lon="6.50685">
        <ele>1861</ele>
        <time>2021-03-23T10:10:12Z</time>
      </trkpt>
      <trkpt lat="45.98085" lon="6.50688">
        <ele>1862.6</ele>
        <time>2021-03-23T10:10:17Z</time>
      </trkpt>
      <trkpt lat="45.98084" lon="6.50691">
        <ele>1863.6</ele>
        <time>2021-03-23T10:10:22Z</time>
      </trkpt>
      <trkpt lat="45.98084" lon="6.50694">
        <ele>1865</ele>
        <time>2021-03-23T10:10:27Z</time>
      </trkpt>
      <trkpt lat="45.98084" lon="6.50697">
        <ele>1865.4</ele>
        <time>2021-03-23T10:10:31Z</time>
      </trkpt>
      <trkpt lat="45.98084" lon="6.507">
        <ele>1865.8</ele>
        <time>2021-03-23T10:10:35Z</time>
      </trkpt>
      <trkpt lat="45.98084" lon="6.50703">
        <ele>1866.8</ele>
        <time>2021-03-23T10:10:40Z</time>
      </trkpt>
      <trkpt lat="45.98084" lon="6.50706">
        <ele>1867.6</ele>
        <time>2021-03-23T10:10:44Z</time>
      </trkpt>
      <trkpt lat="45.98084" lon="6.50709">
        <ele>1868.6</ele>
        <time>2021-03-23T10:10:48Z</time>
      </trkpt>
      <trkpt lat="45.98083" lon="6.50712">
        <ele>1869.4</ele>
        <time>2021-03-23T10:10:52Z</time>
      </trkpt>
      <trkpt lat="45.98083" lon="6.50715">
        <ele>1870.4</ele>
        <time>2021-03-23T10:10:57Z</time>
      </trkpt>
      <trkpt lat="45.98083" lon="6.50718">
        <ele>1871.4</ele>
        <time>2021-03-23T10:11:01Z</time>
      </trkpt>
      <trkpt lat="45.98083" lon="6.5072">
        <ele>1872</ele>
        <time>2021-03-23T10:11:06Z</time>
      </trkpt>
      <trkpt lat="45.98082" lon="6.50723">
        <ele>1872.4</ele>
        <time>2021-03-23T10:11:11Z</time>
      </trkpt>
      <trkpt lat="45.98081" lon="6.50726">
        <ele>1873.4</ele>
        <time>2021-03-23T10:11:15Z</time>
      </trkpt>
      <trkpt lat="45.98081" lon="6.50728">
        <ele>1874.2</ele>
        <time>2021-03-23T10:11:19Z</time>
      </trkpt>
      <trkpt lat="45.9808" lon="6.5073">
        <ele>1875.2</ele>
        <time>2021-03-23T10:11:23Z</time>
      </trkpt>
      <trkpt lat="45.9808" lon="6.50735">
        <ele>1875</ele>
        <time>2021-03-23T10:14:58Z</time>
      </trkpt>
      <trkpt lat="45.9808" lon="6.50738">
        <ele>1874.6</ele>
        <time>2021-03-23T10:15:01Z</time>
      </trkpt>
      <trkpt lat="45.9808" lon="6.50741">
        <ele>1875.4</ele>
        <time>2021-03-23T10:15:06Z</time>
      </trkpt>
      <trkpt lat="45.98081" lon="6.50743">
        <ele>1876</ele>
        <time>2021-03-23T10:15:10Z</time>
      </trkpt>
      <trkpt lat="45.98082" lon="6.50746">
        <ele>1877.2</ele>
        <time>2021-03-23T10:15:14Z</time>
      </trkpt>
      <trkpt lat="45.98083" lon="6.50748">
        <ele>1877.4</ele>
        <time>2021-03-23T10:15:17Z</time>
      </trkpt>
      <trkpt lat="45.98083" lon="6.50751">
        <ele>1878</ele>
        <time>2021-03-23T10:15:21Z</time>
      </trkpt>
      <trkpt lat="45.98084" lon="6.50753">
        <ele>1879.2</ele>
        <time>2021-03-23T10:15:25Z</time>
      </trkpt>
      <trkpt lat="45.98083" lon="6.50756">
        <ele>1880.4</ele>
        <time>2021-03-23T10:15:30Z</time>
      </trkpt>
      <trkpt lat="45.98083" lon="6.5076">
        <ele>1882</ele>
        <time>2021-03-23T10:15:35Z</time>
      </trkpt>
      <trkpt lat="45.98083" lon="6.50762">
        <ele>1883</ele>
        <time>2021-03-23T10:15:40Z</time>
      </trkpt>
      <trkpt lat="45.98082" lon="6.50764">
        <ele>1883.8</ele>
        <time>2021-03-23T10:15:45Z</time>
      </trkpt>
      <trkpt lat="45.98075" lon="6.5077">
        <ele>1887.4</ele>
        <time>2021-03-23T10:16:06Z</time>
      </trkpt>
      <trkpt lat="45.98076" lon="6.50773">
        <ele>1888.6</ele>
        <time>2021-03-23T10:16:09Z</time>
      </trkpt>
      <trkpt lat="45.98075" lon="6.50776">
        <ele>1889</ele>
        <time>2021-03-23T10:16:13Z</time>
      </trkpt>
      <trkpt lat="45.98075" lon="6.50779">
        <ele>1889</ele>
        <time>2021-03-23T10:16:20Z</time>
      </trkpt>
      <trkpt lat="45.98076" lon="6.50781">
        <ele>1889.2</ele>
        <time>2021-03-23T10:16:25Z</time>
      </trkpt>
      <trkpt lat="45.98076" lon="6.50784">
        <ele>1889.2</ele>
        <time>2021-03-23T10:16:30Z</time>
      </trkpt>
      <trkpt lat="45.98077" lon="6.50787">
        <ele>1889.6</ele>
        <time>2021-03-23T10:16:34Z</time>
      </trkpt>
      <trkpt lat="45.98077" lon="6.5079">
        <ele>1891.4</ele>
        <time>2021-03-23T10:16:39Z</time>
      </trkpt>
      <trkpt lat="45.98077" lon="6.50792">
        <ele>1892.6</ele>
        <time>2021-03-23T10:16:44Z</time>
      </trkpt>
      <trkpt lat="45.98078" lon="6.50795">
        <ele>1892.6</ele>
        <time>2021-03-23T10:16:48Z</time>
      </trkpt>
      <trkpt lat="45.98078" lon="6.50798">
        <ele>1894.6</ele>
        <time>2021-03-23T10:17:06Z</time>
      </trkpt>
      <trkpt lat="45.98079" lon="6.50801">
        <ele>1895</ele>
        <time>2021-03-23T10:17:11Z</time>
      </trkpt>
      <trkpt lat="45.98079" lon="6.50804">
        <ele>1895.2</ele>
        <time>2021-03-23T10:17:15Z</time>
      </trkpt>
      <trkpt lat="45.98079" lon="6.50806">
        <ele>1895.4</ele>
        <time>2021-03-23T10:17:19Z</time>
      </trkpt>
      <trkpt lat="45.98079" lon="6.50809">
        <ele>1895.6</ele>
        <time>2021-03-23T10:17:24Z</time>
      </trkpt>
      <trkpt lat="45.9808" lon="6.50812">
        <ele>1896</ele>
        <time>2021-03-23T10:17:29Z</time>
      </trkpt>
      <trkpt lat="45.98081" lon="6.50814">
        <ele>1896</ele>
        <time>2021-03-23T10:17:33Z</time>
      </trkpt>
      <trkpt lat="45.98081" lon="6.50817">
        <ele>1896.4</ele>
        <time>2021-03-23T10:19:21Z</time>
      </trkpt>
      <trkpt lat="45.98082" lon="6.50814">
        <ele>1897</ele>
        <time>2021-03-23T10:19:46Z</time>
      </trkpt>
      <trkpt lat="45.98084" lon="6.50815">
        <ele>1897</ele>
        <time>2021-03-23T10:19:54Z</time>
      </trkpt>
      <trkpt lat="45.98086" lon="6.50815">
        <ele>1897.2</ele>
        <time>2021-03-23T10:19:57Z</time>
      </trkpt>
      <trkpt lat="45.98088" lon="6.50814">
        <ele>1897.6</ele>
        <time>2021-03-23T10:20:00Z</time>
      </trkpt>
      <trkpt lat="45.9809" lon="6.50815">
        <ele>1897.8</ele>
        <time>2021-03-23T10:20:03Z</time>
      </trkpt>
      <trkpt lat="45.98092" lon="6.50816">
        <ele>1898.4</ele>
        <time>2021-03-23T10:20:07Z</time>
      </trkpt>
      <trkpt lat="45.98094" lon="6.50816">
        <ele>1898.6</ele>
        <time>2021-03-23T10:20:11Z</time>
      </trkpt>
      <trkpt lat="45.98096" lon="6.50816">
        <ele>1898.8</ele>
        <time>2021-03-23T10:20:15Z</time>
      </trkpt>
      <trkpt lat="45.98098" lon="6.50816">
        <ele>1899.4</ele>
        <time>2021-03-23T10:20:19Z</time>
      </trkpt>
      <trkpt lat="45.981" lon="6.50815">
        <ele>1900.2</ele>
        <time>2021-03-23T10:20:23Z</time>
      </trkpt>
      <trkpt lat="45.981" lon="6.50818">
        <ele>1902.2</ele>
        <time>2021-03-23T10:20:39Z</time>
      </trkpt>
      <trkpt lat="45.98099" lon="6.5082">
        <ele>1902.6</ele>
        <time>2021-03-23T10:20:42Z</time>
      </trkpt>
      <trkpt lat="45.98098" lon="6.50823">
        <ele>1903.2</ele>
        <time>2021-03-23T10:20:45Z</time>
      </trkpt>
      <trkpt lat="45.98097" lon="6.50825">
        <ele>1903.8</ele>
        <time>2021-03-23T10:20:48Z</time>
      </trkpt>
      <trkpt lat="45.98095" lon="6.50827">
        <ele>1904.2</ele>
        <time>2021-03-23T10:20:51Z</time>
      </trkpt>
      <trkpt lat="45.98094" lon="6.5083">
        <ele>1905</ele>
        <time>2021-03-23T10:20:54Z</time>
      </trkpt>
      <trkpt lat="45.98093" lon="6.50832">
        <ele>1905.4</ele>
        <time>2021-03-23T10:20:57Z</time>
      </trkpt>
      <trkpt lat="45.98093" lon="6.50835">
        <ele>1906</ele>
        <time>2021-03-23T10:21:01Z</time>
      </trkpt>
      <trkpt lat="45.98093" lon="6.50838">
        <ele>1907</ele>
        <time>2021-03-23T10:21:15Z</time>
      </trkpt>
      <trkpt lat="45.98091" lon="6.5084">
        <ele>1907.6</ele>
        <time>2021-03-23T10:21:19Z</time>
      </trkpt>
      <trkpt lat="45.9809" lon="6.50842">
        <ele>1907.8</ele>
        <time>2021-03-23T10:21:22Z</time>
      </trkpt>
      <trkpt lat="45.98089" lon="6.50844">
        <ele>1908.2</ele>
        <time>2021-03-23T10:21:25Z</time>
      </trkpt>
      <trkpt lat="45.98087" lon="6.50844">
        <ele>1911.6</ele>
        <time>2021-03-23T10:22:11Z</time>
      </trkpt>
      <trkpt lat="45.9809" lon="6.50842">
        <ele>1911.6</ele>
        <time>2021-03-23T10:24:27Z</time>
      </trkpt>
      <trkpt lat="45.98088" lon="6.50843">
        <ele>1912</ele>
        <time>2021-03-23T10:24:30Z</time>
      </trkpt>
      <trkpt lat="45.98085" lon="6.50846">
        <ele>1912.4</ele>
        <time>2021-03-23T10:24:33Z</time>
      </trkpt>
      <trkpt lat="45.98084" lon="6.50848">
        <ele>1912.8</ele>
        <time>2021-03-23T10:24:36Z</time>
      </trkpt>
      <trkpt lat="45.98082" lon="6.5085">
        <ele>1913.2</ele>
        <time>2021-03-23T10:24:39Z</time>
      </trkpt>
      <trkpt lat="45.98084" lon="6.5085">
        <ele>1914.8</ele>
        <time>2021-03-23T10:24:50Z</time>
      </trkpt>
      <trkpt lat="45.98086" lon="6.5085">
        <ele>1915.2</ele>
        <time>2021-03-23T10:25:04Z</time>
      </trkpt>
      <trkpt lat="45.98088" lon="6.50851">
        <ele>1915</ele>
        <time>2021-03-23T10:25:13Z</time>
      </trkpt>
      <trkpt lat="45.9809" lon="6.50852">
        <ele>1915</ele>
        <time>2021-03-23T10:25:16Z</time>
      </trkpt>
      <trkpt lat="45.98093" lon="6.50852">
        <ele>1915.2</ele>
        <time>2021-03-23T10:25:20Z</time>
      </trkpt>
      <trkpt lat="45.98094" lon="6.5085">
        <ele>1913.8</ele>
        <time>2021-03-23T10:26:24Z</time>
      </trkpt>
      <trkpt lat="45.98096" lon="6.50851">
        <ele>1913.4</ele>
        <time>2021-03-23T10:26:29Z</time>
      </trkpt>
      <trkpt lat="45.98098" lon="6.50853">
        <ele>1913.2</ele>
        <time>2021-03-23T10:27:02Z</time>
      </trkpt>
      <trkpt lat="45.98098" lon="6.5085">
        <ele>1915.4</ele>
        <time>2021-03-23T10:27:46Z</time>
      </trkpt>
      <trkpt lat="45.981" lon="6.50851">
        <ele>1915.6</ele>
        <time>2021-03-23T10:27:53Z</time>
      </trkpt>
      <trkpt lat="45.98099" lon="6.50854">
        <ele>1916.4</ele>
        <time>2021-03-23T10:28:22Z</time>
      </trkpt>
      <trkpt lat="45.98097" lon="6.50857">
        <ele>1917.2</ele>
        <time>2021-03-23T10:28:27Z</time>
      </trkpt>
      <trkpt lat="45.98096" lon="6.50861">
        <ele>1917.2</ele>
        <time>2021-03-23T10:29:17Z</time>
      </trkpt>
      <trkpt lat="45.98094" lon="6.50862">
        <ele>1917.6</ele>
        <time>2021-03-23T10:29:22Z</time>
      </trkpt>
      <trkpt lat="45.98092" lon="6.50864">
        <ele>1918</ele>
        <time>2021-03-23T10:29:24Z</time>
      </trkpt>
      <trkpt lat="45.9809" lon="6.50867">
        <ele>1918.2</ele>
        <time>2021-03-23T10:29:27Z</time>
      </trkpt>
      <trkpt lat="45.98089" lon="6.50869">
        <ele>1918.2</ele>
        <time>2021-03-23T10:29:30Z</time>
      </trkpt>
      <trkpt lat="45.98093" lon="6.50871">
        <ele>1917.4</ele>
        <time>2021-03-23T10:29:38Z</time>
      </trkpt>
      <trkpt lat="45.98095" lon="6.50872">
        <ele>1917</ele>
        <time>2021-03-23T10:29:42Z</time>
      </trkpt>
      <trkpt lat="45.98097" lon="6.50873">
        <ele>1917</ele>
        <time>2021-03-23T10:29:46Z</time>
      </trkpt>
      <trkpt lat="45.98099" lon="6.50874">
        <ele>1917</ele>
        <time>2021-03-23T10:29:51Z</time>
      </trkpt>
      <trkpt lat="45.98101" lon="6.50874">
        <ele>1917</ele>
        <time>2021-03-23T10:29:57Z</time>
      </trkpt>
      <trkpt lat="45.98101" lon="6.50877">
        <ele>1917.4</ele>
        <time>2021-03-23T10:30:06Z</time>
      </trkpt>
      <trkpt lat="45.98098" lon="6.50882">
        <ele>1918.6</ele>
        <time>2021-03-23T10:30:10Z</time>
      </trkpt>
      <trkpt lat="45.98097" lon="6.50883">
        <ele>1919</ele>
        <time>2021-03-23T10:30:12Z</time>
      </trkpt>
      <trkpt lat="45.98096" lon="6.50885">
        <ele>1919.6</ele>
        <time>2021-03-23T10:30:15Z</time>
      </trkpt>
      <trkpt lat="45.98093" lon="6.50886">
        <ele>1920.6</ele>
        <time>2021-03-23T10:30:19Z</time>
      </trkpt>
      <trkpt lat="45.98091" lon="6.50887">
        <ele>1921.2</ele>
        <time>2021-03-23T10:30:23Z</time>
      </trkpt>
      <trkpt lat="45.9809" lon="6.50889">
        <ele>1922</ele>
        <time>2021-03-23T10:30:27Z</time>
      </trkpt>
      <trkpt lat="45.98088" lon="6.50891">
        <ele>1922.4</ele>
        <time>2021-03-23T10:30:31Z</time>
      </trkpt>
      <trkpt lat="45.98093" lon="6.50893">
        <ele>1924.4</ele>
        <time>2021-03-23T10:30:43Z</time>
      </trkpt>
      <trkpt lat="45.98095" lon="6.50893">
        <ele>1925</ele>
        <time>2021-03-23T10:30:47Z</time>
      </trkpt>
      <trkpt lat="45.98098" lon="6.50893">
        <ele>1925.4</ele>
        <time>2021-03-23T10:30:51Z</time>
      </trkpt>
      <trkpt lat="45.981" lon="6.50894">
        <ele>1925.6</ele>
        <time>2021-03-23T10:30:55Z</time>
      </trkpt>
      <trkpt lat="45.98102" lon="6.50894">
        <ele>1926.2</ele>
        <time>2021-03-23T10:31:00Z</time>
      </trkpt>
      <trkpt lat="45.98104" lon="6.50894">
        <ele>1926.6</ele>
        <time>2021-03-23T10:31:04Z</time>
      </trkpt>
      <trkpt lat="45.98106" lon="6.50894">
        <ele>1926.8</ele>
        <time>2021-03-23T10:31:08Z</time>
      </trkpt>
      <trkpt lat="45.98106" lon="6.50897">
        <ele>1927</ele>
        <time>2021-03-23T10:31:15Z</time>
      </trkpt>
      <trkpt lat="45.98105" lon="6.509">
        <ele>1927.4</ele>
        <time>2021-03-23T10:31:18Z</time>
      </trkpt>
      <trkpt lat="45.98102" lon="6.50905">
        <ele>1928</ele>
        <time>2021-03-23T10:31:24Z</time>
      </trkpt>
      <trkpt lat="45.981" lon="6.50906">
        <ele>1928.8</ele>
        <time>2021-03-23T10:31:27Z</time>
      </trkpt>
      <trkpt lat="45.98098" lon="6.50907">
        <ele>1929.8</ele>
        <time>2021-03-23T10:31:31Z</time>
      </trkpt>
      <trkpt lat="45.98096" lon="6.50909">
        <ele>1930.4</ele>
        <time>2021-03-23T10:31:35Z</time>
      </trkpt>
      <trkpt lat="45.98094" lon="6.50911">
        <ele>1930.6</ele>
        <time>2021-03-23T10:31:38Z</time>
      </trkpt>
      <trkpt lat="45.98093" lon="6.50913">
        <ele>1931.4</ele>
        <time>2021-03-23T10:31:42Z</time>
      </trkpt>
      <trkpt lat="45.98091" lon="6.50915">
        <ele>1931.8</ele>
        <time>2021-03-23T10:31:46Z</time>
      </trkpt>
      <trkpt lat="45.98095" lon="6.50916">
        <ele>1935</ele>
        <time>2021-03-23T10:31:55Z</time>
      </trkpt>
      <trkpt lat="45.98097" lon="6.50917">
        <ele>1935.4</ele>
        <time>2021-03-23T10:31:58Z</time>
      </trkpt>
      <trkpt lat="45.98099" lon="6.50917">
        <ele>1936</ele>
        <time>2021-03-23T10:32:02Z</time>
      </trkpt>
      <trkpt lat="45.98101" lon="6.50918">
        <ele>1936.4</ele>
        <time>2021-03-23T10:32:06Z</time>
      </trkpt>
      <trkpt lat="45.98103" lon="6.50918">
        <ele>1936.6</ele>
        <time>2021-03-23T10:32:09Z</time>
      </trkpt>
      <trkpt lat="45.98105" lon="6.50919">
        <ele>1936.6</ele>
        <time>2021-03-23T10:32:13Z</time>
      </trkpt>
      <trkpt lat="45.98107" lon="6.50919">
        <ele>1936.6</ele>
        <time>2021-03-23T10:32:17Z</time>
      </trkpt>
      <trkpt lat="45.98108" lon="6.50922">
        <ele>1936.8</ele>
        <time>2021-03-23T10:32:22Z</time>
      </trkpt>
      <trkpt lat="45.98107" lon="6.50924">
        <ele>1936.8</ele>
        <time>2021-03-23T10:32:26Z</time>
      </trkpt>
      <trkpt lat="45.98105" lon="6.50928">
        <ele>1936.8</ele>
        <time>2021-03-23T10:32:30Z</time>
      </trkpt>
      <trkpt lat="45.98104" lon="6.5093">
        <ele>1937.2</ele>
        <time>2021-03-23T10:32:33Z</time>
      </trkpt>
      <trkpt lat="45.98102" lon="6.50931">
        <ele>1938.4</ele>
        <time>2021-03-23T10:32:37Z</time>
      </trkpt>
      <trkpt lat="45.981" lon="6.50932">
        <ele>1939</ele>
        <time>2021-03-23T10:32:40Z</time>
      </trkpt>
      <trkpt lat="45.98099" lon="6.50935">
        <ele>1940.2</ele>
        <time>2021-03-23T10:32:44Z</time>
      </trkpt>
      <trkpt lat="45.98097" lon="6.50936">
        <ele>1941.2</ele>
        <time>2021-03-23T10:32:48Z</time>
      </trkpt>
      <trkpt lat="45.98095" lon="6.50937">
        <ele>1941.4</ele>
        <time>2021-03-23T10:32:51Z</time>
      </trkpt>
      <trkpt lat="45.98093" lon="6.50939">
        <ele>1941.6</ele>
        <time>2021-03-23T10:32:54Z</time>
      </trkpt>
      <trkpt lat="45.98091" lon="6.5094">
        <ele>1942</ele>
        <time>2021-03-23T10:32:57Z</time>
      </trkpt>
      <trkpt lat="45.9809" lon="6.50942">
        <ele>1942.2</ele>
        <time>2021-03-23T10:33:00Z</time>
      </trkpt>
      <trkpt lat="45.98088" lon="6.50944">
        <ele>1942.6</ele>
        <time>2021-03-23T10:33:04Z</time>
      </trkpt>
      <trkpt lat="45.98087" lon="6.50946">
        <ele>1942.8</ele>
        <time>2021-03-23T10:33:07Z</time>
      </trkpt>
      <trkpt lat="45.98085" lon="6.50948">
        <ele>1943.2</ele>
        <time>2021-03-23T10:33:11Z</time>
      </trkpt>
      <trkpt lat="45.98083" lon="6.50951">
        <ele>1943.6</ele>
        <time>2021-03-23T10:33:15Z</time>
      </trkpt>
      <trkpt lat="45.98085" lon="6.50951">
        <ele>1944.6</ele>
        <time>2021-03-23T10:33:20Z</time>
      </trkpt>
      <trkpt lat="45.98088" lon="6.50952">
        <ele>1945.4</ele>
        <time>2021-03-23T10:33:24Z</time>
      </trkpt>
      <trkpt lat="45.9809" lon="6.50952">
        <ele>1945.6</ele>
        <time>2021-03-23T10:33:27Z</time>
      </trkpt>
      <trkpt lat="45.98093" lon="6.50953">
        <ele>1946</ele>
        <time>2021-03-23T10:33:31Z</time>
      </trkpt>
      <trkpt lat="45.98095" lon="6.50953">
        <ele>1946.6</ele>
        <time>2021-03-23T10:33:35Z</time>
      </trkpt>
      <trkpt lat="45.98097" lon="6.50953">
        <ele>1947.2</ele>
        <time>2021-03-23T10:33:39Z</time>
      </trkpt>
      <trkpt lat="45.98099" lon="6.50954">
        <ele>1947.6</ele>
        <time>2021-03-23T10:33:43Z</time>
      </trkpt>
      <trkpt lat="45.98101" lon="6.50954">
        <ele>1947.8</ele>
        <time>2021-03-23T10:33:47Z</time>
      </trkpt>
      <trkpt lat="45.98103" lon="6.50955">
        <ele>1948.2</ele>
        <time>2021-03-23T10:33:51Z</time>
      </trkpt>
      <trkpt lat="45.98105" lon="6.50956">
        <ele>1948.6</ele>
        <time>2021-03-23T10:33:55Z</time>
      </trkpt>
      <trkpt lat="45.98107" lon="6.50956">
        <ele>1948.8</ele>
        <time>2021-03-23T10:33:59Z</time>
      </trkpt>
      <trkpt lat="45.98107" lon="6.50959">
        <ele>1949.8</ele>
        <time>2021-03-23T10:34:07Z</time>
      </trkpt>
      <trkpt lat="45.98104" lon="6.50963">
        <ele>1951.6</ele>
        <time>2021-03-23T10:34:15Z</time>
      </trkpt>
      <trkpt lat="45.98102" lon="6.50965">
        <ele>1952.4</ele>
        <time>2021-03-23T10:34:19Z</time>
      </trkpt>
      <trkpt lat="45.981" lon="6.50967">
        <ele>1952.6</ele>
        <time>2021-03-23T10:34:22Z</time>
      </trkpt>
      <trkpt lat="45.98099" lon="6.50969">
        <ele>1953.2</ele>
        <time>2021-03-23T10:34:26Z</time>
      </trkpt>
      <trkpt lat="45.98101" lon="6.50969">
        <ele>1954.4</ele>
        <time>2021-03-23T10:34:32Z</time>
      </trkpt>
      <trkpt lat="45.98103" lon="6.5097">
        <ele>1955</ele>
        <time>2021-03-23T10:34:37Z</time>
      </trkpt>
      <trkpt lat="45.98105" lon="6.50971">
        <ele>1955.4</ele>
        <time>2021-03-23T10:34:41Z</time>
      </trkpt>
      <trkpt lat="45.98107" lon="6.50971">
        <ele>1955.6</ele>
        <time>2021-03-23T10:34:45Z</time>
      </trkpt>
      <trkpt lat="45.98109" lon="6.50972">
        <ele>1955.8</ele>
        <time>2021-03-23T10:34:49Z</time>
      </trkpt>
      <trkpt lat="45.98111" lon="6.50972">
        <ele>1956</ele>
        <time>2021-03-23T10:35:00Z</time>
      </trkpt>
      <trkpt lat="45.98113" lon="6.50971">
        <ele>1956.4</ele>
        <time>2021-03-23T10:35:04Z</time>
      </trkpt>
      <trkpt lat="45.98113" lon="6.50974">
        <ele>1956.8</ele>
        <time>2021-03-23T10:35:13Z</time>
      </trkpt>
      <trkpt lat="45.98114" lon="6.50978">
        <ele>1958.4</ele>
        <time>2021-03-23T10:36:39Z</time>
      </trkpt>
      <trkpt lat="45.98113" lon="6.50981">
        <ele>1958.6</ele>
        <time>2021-03-23T10:37:13Z</time>
      </trkpt>
      <trkpt lat="45.98106" lon="6.50989">
        <ele>1961.8</ele>
        <time>2021-03-23T10:38:36Z</time>
      </trkpt>
      <trkpt lat="45.98097" lon="6.50996">
        <ele>1965.6</ele>
        <time>2021-03-23T10:38:50Z</time>
      </trkpt>
      <trkpt lat="45.98098" lon="6.50999">
        <ele>1968.2</ele>
        <time>2021-03-23T10:38:58Z</time>
      </trkpt>
      <trkpt lat="45.981" lon="6.51">
        <ele>1968.6</ele>
        <time>2021-03-23T10:39:01Z</time>
      </trkpt>
      <trkpt lat="45.98102" lon="6.51001">
        <ele>1968.6</ele>
        <time>2021-03-23T10:39:09Z</time>
      </trkpt>
      <trkpt lat="45.98104" lon="6.51002">
        <ele>1968.6</ele>
        <time>2021-03-23T10:39:13Z</time>
      </trkpt>
      <trkpt lat="45.98106" lon="6.51003">
        <ele>1968.8</ele>
        <time>2021-03-23T10:39:18Z</time>
      </trkpt>
      <trkpt lat="45.98108" lon="6.51003">
        <ele>1968.8</ele>
        <time>2021-03-23T10:39:22Z</time>
      </trkpt>
      <trkpt lat="45.9811" lon="6.51004">
        <ele>1969</ele>
        <time>2021-03-23T10:39:26Z</time>
      </trkpt>
      <trkpt lat="45.98112" lon="6.51004">
        <ele>1969.2</ele>
        <time>2021-03-23T10:39:30Z</time>
      </trkpt>
      <trkpt lat="45.98114" lon="6.51005">
        <ele>1969.2</ele>
        <time>2021-03-23T10:39:34Z</time>
      </trkpt>
      <trkpt lat="45.98113" lon="6.51009">
        <ele>1969.4</ele>
        <time>2021-03-23T10:39:46Z</time>
      </trkpt>
      <trkpt lat="45.98112" lon="6.51011">
        <ele>1969.4</ele>
        <time>2021-03-23T10:39:51Z</time>
      </trkpt>
      <trkpt lat="45.98112" lon="6.51014">
        <ele>1969.6</ele>
        <time>2021-03-23T10:39:54Z</time>
      </trkpt>
      <trkpt lat="45.98112" lon="6.51017">
        <ele>1969.8</ele>
        <time>2021-03-23T10:39:57Z</time>
      </trkpt>
      <trkpt lat="45.98111" lon="6.5102">
        <ele>1970.4</ele>
        <time>2021-03-23T10:40:01Z</time>
      </trkpt>
      <trkpt lat="45.98103" lon="6.51026">
        <ele>1971.8</ele>
        <time>2021-03-23T10:40:17Z</time>
      </trkpt>
      <trkpt lat="45.98108" lon="6.51038">
        <ele>1974.6</ele>
        <time>2021-03-23T10:40:27Z</time>
      </trkpt>
      <trkpt lat="45.98105" lon="6.51035">
        <ele>1974.2</ele>
        <time>2021-03-23T10:40:37Z</time>
      </trkpt>
      <trkpt lat="45.98107" lon="6.51035">
        <ele>1974.4</ele>
        <time>2021-03-23T10:40:45Z</time>
      </trkpt>
      <trkpt lat="45.98109" lon="6.51036">
        <ele>1974.8</ele>
        <time>2021-03-23T10:40:50Z</time>
      </trkpt>
      <trkpt lat="45.98118" lon="6.51037">
        <ele>1980</ele>
        <time>2021-03-23T10:42:30Z</time>
      </trkpt>
      <trkpt lat="45.98126" lon="6.51043">
        <ele>1980.8</ele>
        <time>2021-03-23T10:42:47Z</time>
      </trkpt>
      <trkpt lat="45.98125" lon="6.51046">
        <ele>1981</ele>
        <time>2021-03-23T10:42:52Z</time>
      </trkpt>
      <trkpt lat="45.98125" lon="6.51049">
        <ele>1981.4</ele>
        <time>2021-03-23T10:42:56Z</time>
      </trkpt>
      <trkpt lat="45.98123" lon="6.5105">
        <ele>1981.6</ele>
        <time>2021-03-23T10:42:59Z</time>
      </trkpt>
      <trkpt lat="45.98122" lon="6.51053">
        <ele>1981.8</ele>
        <time>2021-03-23T10:43:02Z</time>
      </trkpt>
      <trkpt lat="45.98121" lon="6.51056">
        <ele>1982</ele>
        <time>2021-03-23T10:43:05Z</time>
      </trkpt>
      <trkpt lat="45.9812" lon="6.51059">
        <ele>1982.6</ele>
        <time>2021-03-23T10:43:09Z</time>
      </trkpt>
      <trkpt lat="45.98119" lon="6.51064">
        <ele>1983.2</ele>
        <time>2021-03-23T10:43:16Z</time>
      </trkpt>
      <trkpt lat="45.98119" lon="6.51068">
        <ele>1985</ele>
        <time>2021-03-23T10:44:27Z</time>
      </trkpt>
      <trkpt lat="45.98118" lon="6.51066">
        <ele>1983.8</ele>
        <time>2021-03-23T10:44:49Z</time>
      </trkpt>
      <trkpt lat="45.98116" lon="6.51068">
        <ele>1983.6</ele>
        <time>2021-03-23T10:44:52Z</time>
      </trkpt>
      <trkpt lat="45.98114" lon="6.51069">
        <ele>1984.6</ele>
        <time>2021-03-23T10:44:56Z</time>
      </trkpt>
      <trkpt lat="45.98113" lon="6.51072">
        <ele>1985</ele>
        <time>2021-03-23T10:45:00Z</time>
      </trkpt>
      <trkpt lat="45.98112" lon="6.51074">
        <ele>1985.6</ele>
        <time>2021-03-23T10:45:04Z</time>
      </trkpt>
      <trkpt lat="45.98112" lon="6.51077">
        <ele>1986.4</ele>
        <time>2021-03-23T10:45:09Z</time>
      </trkpt>
      <trkpt lat="45.98109" lon="6.51076">
        <ele>1988.2</ele>
        <time>2021-03-23T10:45:51Z</time>
      </trkpt>
      <trkpt lat="45.98108" lon="6.5108">
        <ele>1988.8</ele>
        <time>2021-03-23T10:45:55Z</time>
      </trkpt>
      <trkpt lat="45.98106" lon="6.51082">
        <ele>1989.2</ele>
        <time>2021-03-23T10:45:58Z</time>
      </trkpt>
      <trkpt lat="45.98105" lon="6.51085">
        <ele>1989.8</ele>
        <time>2021-03-23T10:46:02Z</time>
      </trkpt>
      <trkpt lat="45.98103" lon="6.51088">
        <ele>1990.2</ele>
        <time>2021-03-23T10:46:06Z</time>
      </trkpt>
      <trkpt lat="45.98103" lon="6.51091">
        <ele>1990.4</ele>
        <time>2021-03-23T10:46:09Z</time>
      </trkpt>
      <trkpt lat="45.98101" lon="6.51094">
        <ele>1992</ele>
        <time>2021-03-23T10:46:16Z</time>
      </trkpt>
      <trkpt lat="45.9811" lon="6.51093">
        <ele>2000.6</ele>
        <time>2021-03-23T10:46:55Z</time>
      </trkpt>
      <trkpt lat="45.9812" lon="6.51093">
        <ele>2004.4</ele>
        <time>2021-03-23T10:47:13Z</time>
      </trkpt>
      <trkpt lat="45.98129" lon="6.51092">
        <ele>2007.4</ele>
        <time>2021-03-23T10:47:31Z</time>
      </trkpt>
      <trkpt lat="45.98138" lon="6.51095">
        <ele>2009.2</ele>
        <time>2021-03-23T10:47:50Z</time>
      </trkpt>
      <trkpt lat="45.98147" lon="6.51093">
        <ele>2012</ele>
        <time>2021-03-23T10:48:14Z</time>
      </trkpt>
      <trkpt lat="45.9815" lon="6.51106">
        <ele>2016</ele>
        <time>2021-03-23T10:49:13Z</time>
      </trkpt>
      <trkpt lat="45.98144" lon="6.51115">
        <ele>2016.8</ele>
        <time>2021-03-23T10:49:30Z</time>
      </trkpt>
      <trkpt lat="45.98151" lon="6.51123">
        <ele>2023.4</ele>
        <time>2021-03-23T10:50:09Z</time>
      </trkpt>
      <trkpt lat="45.9816" lon="6.5112">
        <ele>2027.2</ele>
        <time>2021-03-23T10:50:29Z</time>
      </trkpt>
      <trkpt lat="45.98168" lon="6.51116">
        <ele>2030.6</ele>
        <time>2021-03-23T10:50:49Z</time>
      </trkpt>
      <trkpt lat="45.98168" lon="6.51129">
        <ele>2034</ele>
        <time>2021-03-23T10:51:24Z</time>
      </trkpt>
      <trkpt lat="45.98165" lon="6.51142">
        <ele>2035</ele>
        <time>2021-03-23T10:51:42Z</time>
      </trkpt>
      <trkpt lat="45.98159" lon="6.51152">
        <ele>2037</ele>
        <time>2021-03-23T10:51:56Z</time>
      </trkpt>
      <trkpt lat="45.98157" lon="6.51166">
        <ele>2038.8</ele>
        <time>2021-03-23T10:52:14Z</time>
      </trkpt>
      <trkpt lat="45.98166" lon="6.51162">
        <ele>2046</ele>
        <time>2021-03-23T10:53:06Z</time>
      </trkpt>
      <trkpt lat="45.98176" lon="6.51159">
        <ele>2049.2</ele>
        <time>2021-03-23T10:53:26Z</time>
      </trkpt>
      <trkpt lat="45.98181" lon="6.51156">
        <ele>2050.8</ele>
        <time>2021-03-23T10:53:44Z</time>
      </trkpt>
      <trkpt lat="45.98179" lon="6.51169">
        <ele>2053.2</ele>
        <time>2021-03-23T10:54:30Z</time>
      </trkpt>
      <trkpt lat="45.98172" lon="6.51179">
        <ele>2055.2</ele>
        <time>2021-03-23T10:54:46Z</time>
      </trkpt>
      <trkpt lat="45.98164" lon="6.51186">
        <ele>2057</ele>
        <time>2021-03-23T10:55:20Z</time>
      </trkpt>
      <trkpt lat="45.98161" lon="6.51198">
        <ele>2057.6</ele>
        <time>2021-03-23T10:55:43Z</time>
      </trkpt>
      <trkpt lat="45.98171" lon="6.51197">
        <ele>2057</ele>
        <time>2021-03-23T10:57:03Z</time>
      </trkpt>
      <trkpt lat="45.9818" lon="6.51195">
        <ele>2059.4</ele>
        <time>2021-03-23T10:57:48Z</time>
      </trkpt>
      <trkpt lat="45.9818" lon="6.51208">
        <ele>2066.8</ele>
        <time>2021-03-23T10:59:12Z</time>
      </trkpt>
      <trkpt lat="45.98177" lon="6.51221">
        <ele>2070.4</ele>
        <time>2021-03-23T11:00:08Z</time>
      </trkpt>
      <trkpt lat="45.98183" lon="6.51231">
        <ele>2082.2</ele>
        <time>2021-03-23T11:06:23Z</time>
      </trkpt>
      <trkpt lat="45.98192" lon="6.51228">
        <ele>2090.8</ele>
        <time>2021-03-23T11:08:16Z</time>
      </trkpt>
      <trkpt lat="45.982" lon="6.51223">
        <ele>2092.2</ele>
        <time>2021-03-23T11:08:35Z</time>
      </trkpt>
      <trkpt lat="45.98209" lon="6.5122">
        <ele>2095</ele>
        <time>2021-03-23T11:09:02Z</time>
      </trkpt>
      <trkpt lat="45.98218" lon="6.51215">
        <ele>2097.2</ele>
        <time>2021-03-23T11:09:16Z</time>
      </trkpt>
      <trkpt lat="45.98222" lon="6.51211">
        <ele>2099.2</ele>
        <time>2021-03-23T11:09:28Z</time>
      </trkpt>
      <trkpt lat="45.98221" lon="6.51207">
        <ele>2102.6</ele>
        <time>2021-03-23T11:09:35Z</time>
      </trkpt>
      <trkpt lat="45.9822" lon="6.51205">
        <ele>2106.2</ele>
        <time>2021-03-23T11:10:55Z</time>
      </trkpt>
      <trkpt lat="45.98222" lon="6.51207">
        <ele>2106.8</ele>
        <time>2021-03-23T11:12:55Z</time>
      </trkpt>
      <trkpt lat="45.98221" lon="6.5121">
        <ele>2107.2</ele>
        <time>2021-03-23T11:12:58Z</time>
      </trkpt>
      <trkpt lat="45.9822" lon="6.51213">
        <ele>2107.4</ele>
        <time>2021-03-23T11:13:02Z</time>
      </trkpt>
      <trkpt lat="45.9822" lon="6.51216">
        <ele>2107.8</ele>
        <time>2021-03-23T11:13:06Z</time>
      </trkpt>
      <trkpt lat="45.9822" lon="6.51219">
        <ele>2108.2</ele>
        <time>2021-03-23T11:13:10Z</time>
      </trkpt>
      <trkpt lat="45.9822" lon="6.51222">
        <ele>2109.6</ele>
        <time>2021-03-23T11:13:15Z</time>
      </trkpt>
      <trkpt lat="45.9822" lon="6.51225">
        <ele>2109.8</ele>
        <time>2021-03-23T11:13:28Z</time>
      </trkpt>
      <trkpt lat="45.9822" lon="6.51228">
        <ele>2110.2</ele>
        <time>2021-03-23T11:13:32Z</time>
      </trkpt>
      <trkpt lat="45.98221" lon="6.51231">
        <ele>2110.6</ele>
        <time>2021-03-23T11:13:37Z</time>
      </trkpt>
      <trkpt lat="45.98221" lon="6.51233">
        <ele>2111.2</ele>
        <time>2021-03-23T11:13:41Z</time>
      </trkpt>
      <trkpt lat="45.98221" lon="6.51236">
        <ele>2111.6</ele>
        <time>2021-03-23T11:13:47Z</time>
      </trkpt>
      <trkpt lat="45.98221" lon="6.51239">
        <ele>2112.2</ele>
        <time>2021-03-23T11:13:55Z</time>
      </trkpt>
      <trkpt lat="45.98222" lon="6.51242">
        <ele>2112.8</ele>
        <time>2021-03-23T11:14:02Z</time>
      </trkpt>
      <trkpt lat="45.98222" lon="6.51245">
        <ele>2113.4</ele>
        <time>2021-03-23T11:14:18Z</time>
      </trkpt>
      <trkpt lat="45.98222" lon="6.51247">
        <ele>2114.2</ele>
        <time>2021-03-23T11:14:23Z</time>
      </trkpt>
      <trkpt lat="45.9822" lon="6.51248">
        <ele>2118.2</ele>
        <time>2021-03-23T11:16:03Z</time>
      </trkpt>
      <trkpt lat="45.9822" lon="6.5125">
        <ele>2120.8</ele>
        <time>2021-03-23T11:17:18Z</time>
      </trkpt>
      <trkpt lat="45.98221" lon="6.51248">
        <ele>2122</ele>
        <time>2021-03-23T11:23:02Z</time>
      </trkpt>
      <trkpt lat="45.9822" lon="6.5125">
        <ele>2122.4</ele>
        <time>2021-03-23T11:24:14Z</time>
      </trkpt>
      <trkpt lat="45.98219" lon="6.51253">
        <ele>2122.2</ele>
        <time>2021-03-23T11:26:23Z</time>
      </trkpt>
      <trkpt lat="45.98218" lon="6.51256">
        <ele>2122.4</ele>
        <time>2021-03-23T11:26:29Z</time>
      </trkpt>
      <trkpt lat="45.98216" lon="6.51256">
        <ele>2122.6</ele>
        <time>2021-03-23T11:26:37Z</time>
      </trkpt>
      <trkpt lat="45.98215" lon="6.51259">
        <ele>2123</ele>
        <time>2021-03-23T11:26:46Z</time>
      </trkpt>
      <trkpt lat="45.98215" lon="6.51262">
        <ele>2123.4</ele>
        <time>2021-03-23T11:26:51Z</time>
      </trkpt>
      <trkpt lat="45.98216" lon="6.51265">
        <ele>2124</ele>
        <time>2021-03-23T11:26:56Z</time>
      </trkpt>
      <trkpt lat="45.98216" lon="6.51267">
        <ele>2124.6</ele>
        <time>2021-03-23T11:27:01Z</time>
      </trkpt>
      <trkpt lat="45.98216" lon="6.5127">
        <ele>2124.6</ele>
        <time>2021-03-23T11:27:08Z</time>
      </trkpt>
      <trkpt lat="45.98216" lon="6.51273">
        <ele>2125</ele>
        <time>2021-03-23T11:27:13Z</time>
      </trkpt>
      <trkpt lat="45.98216" lon="6.51276">
        <ele>2125.6</ele>
        <time>2021-03-23T11:27:20Z</time>
      </trkpt>
      <trkpt lat="45.98216" lon="6.51278">
        <ele>2126.4</ele>
        <time>2021-03-23T11:27:25Z</time>
      </trkpt>
      <trkpt lat="45.98217" lon="6.51282">
        <ele>2127.2</ele>
        <time>2021-03-23T11:27:32Z</time>
      </trkpt>
      <trkpt lat="45.98216" lon="6.51284">
        <ele>2127.8</ele>
        <time>2021-03-23T11:27:37Z</time>
      </trkpt>
      <trkpt lat="45.98216" lon="6.51287">
        <ele>2128.4</ele>
        <time>2021-03-23T11:27:42Z</time>
      </trkpt>
      <trkpt lat="45.98217" lon="6.5129">
        <ele>2129.2</ele>
        <time>2021-03-23T11:27:47Z</time>
      </trkpt>
      <trkpt lat="45.98215" lon="6.51291">
        <ele>2132.2</ele>
        <time>2021-03-23T11:28:00Z</time>
      </trkpt>
      <trkpt lat="45.98213" lon="6.51293">
        <ele>2133.8</ele>
        <time>2021-03-23T11:28:07Z</time>
      </trkpt>
      <trkpt lat="45.98213" lon="6.51295">
        <ele>2135.2</ele>
        <time>2021-03-23T11:28:16Z</time>
      </trkpt>
      <trkpt lat="45.98213" lon="6.51298">
        <ele>2136.2</ele>
        <time>2021-03-23T11:28:27Z</time>
      </trkpt>
      <trkpt lat="45.98212" lon="6.51301">
        <ele>2136.8</ele>
        <time>2021-03-23T11:28:31Z</time>
      </trkpt>
      <trkpt lat="45.98211" lon="6.51303">
        <ele>2137.8</ele>
        <time>2021-03-23T11:28:37Z</time>
      </trkpt>
      <trkpt lat="45.9821" lon="6.51306">
        <ele>2138.6</ele>
        <time>2021-03-23T11:28:42Z</time>
      </trkpt>
      <trkpt lat="45.9821" lon="6.51309">
        <ele>2140</ele>
        <time>2021-03-23T11:29:02Z</time>
      </trkpt>
      <trkpt lat="45.9821" lon="6.51312">
        <ele>2140.6</ele>
        <time>2021-03-23T11:29:11Z</time>
      </trkpt>
      <trkpt lat="45.9821" lon="6.51315">
        <ele>2141</ele>
        <time>2021-03-23T11:29:21Z</time>
      </trkpt>
      <trkpt lat="45.98209" lon="6.51317">
        <ele>2141.4</ele>
        <time>2021-03-23T11:29:27Z</time>
      </trkpt>
      <trkpt lat="45.98208" lon="6.51319">
        <ele>2142.6</ele>
        <time>2021-03-23T11:29:36Z</time>
      </trkpt>
      <trkpt lat="45.98206" lon="6.51322">
        <ele>2143.4</ele>
        <time>2021-03-23T11:29:41Z</time>
      </trkpt>
      <trkpt lat="45.98205" lon="6.51324">
        <ele>2145</ele>
        <time>2021-03-23T11:29:50Z</time>
      </trkpt>
      <trkpt lat="45.98203" lon="6.51326">
        <ele>2147</ele>
        <time>2021-03-23T11:30:04Z</time>
      </trkpt>
      <trkpt lat="45.98202" lon="6.51327">
        <ele>2148.6</ele>
        <time>2021-03-23T11:30:18Z</time>
      </trkpt>
      <trkpt lat="45.98201" lon="6.51329">
        <ele>2152.6</ele>
        <time>2021-03-23T11:31:05Z</time>
      </trkpt>
      <trkpt lat="45.98199" lon="6.51331">
        <ele>2154.2</ele>
        <time>2021-03-23T11:31:11Z</time>
      </trkpt>
      <trkpt lat="45.98197" lon="6.51332">
        <ele>2155.8</ele>
        <time>2021-03-23T11:31:22Z</time>
      </trkpt>
      <trkpt lat="45.98196" lon="6.51335">
        <ele>2158.4</ele>
        <time>2021-03-23T11:31:30Z</time>
      </trkpt>
      <trkpt lat="45.98195" lon="6.51336">
        <ele>2159.6</ele>
        <time>2021-03-23T11:31:42Z</time>
      </trkpt>
      <trkpt lat="45.98193" lon="6.51336">
        <ele>2161.6</ele>
        <time>2021-03-23T11:31:49Z</time>
      </trkpt>
      <trkpt lat="45.98191" lon="6.51337">
        <ele>2163.2</ele>
        <time>2021-03-23T11:31:55Z</time>
      </trkpt>
      <trkpt lat="45.9819" lon="6.51339">
        <ele>2164.8</ele>
        <time>2021-03-23T11:32:21Z</time>
      </trkpt>
      <trkpt lat="45.98189" lon="6.51341">
        <ele>2165.4</ele>
        <time>2021-03-23T11:32:28Z</time>
      </trkpt>
      <trkpt lat="45.98189" lon="6.51344">
        <ele>2166.2</ele>
        <time>2021-03-23T11:32:37Z</time>
      </trkpt>
      <trkpt lat="45.98188" lon="6.51346">
        <ele>2167.2</ele>
        <time>2021-03-23T11:32:53Z</time>
      </trkpt>
      <trkpt lat="45.98186" lon="6.51348">
        <ele>2168</ele>
        <time>2021-03-23T11:32:58Z</time>
      </trkpt>
      <trkpt lat="45.98185" lon="6.5135">
        <ele>2169.6</ele>
        <time>2021-03-23T11:33:04Z</time>
      </trkpt>
      <trkpt lat="45.98184" lon="6.51353">
        <ele>2171.6</ele>
        <time>2021-03-23T11:33:12Z</time>
      </trkpt>
      <trkpt lat="45.98183" lon="6.51356">
        <ele>2173.4</ele>
        <time>2021-03-23T11:33:21Z</time>
      </trkpt>
      <trkpt lat="45.98183" lon="6.51358">
        <ele>2175.4</ele>
        <time>2021-03-23T11:33:37Z</time>
      </trkpt>
      <trkpt lat="45.9818" lon="6.51359">
        <ele>2176</ele>
        <time>2021-03-23T11:33:41Z</time>
      </trkpt>
      <trkpt lat="45.98179" lon="6.5136">
        <ele>2177.4</ele>
        <time>2021-03-23T11:33:48Z</time>
      </trkpt>
      <trkpt lat="45.98177" lon="6.51361">
        <ele>2179</ele>
        <time>2021-03-23T11:33:55Z</time>
      </trkpt>
      <trkpt lat="45.98175" lon="6.51362">
        <ele>2180</ele>
        <time>2021-03-23T11:34:01Z</time>
      </trkpt>
      <trkpt lat="45.98173" lon="6.51362">
        <ele>2180.6</ele>
        <time>2021-03-23T11:34:06Z</time>
      </trkpt>
      <trkpt lat="45.98171" lon="6.51364">
        <ele>2182.4</ele>
        <time>2021-03-23T11:34:38Z</time>
      </trkpt>
      <trkpt lat="45.9817" lon="6.51365">
        <ele>2186</ele>
        <time>2021-03-23T11:40:36Z</time>
      </trkpt>
      <trkpt lat="45.98168" lon="6.51366">
        <ele>2186.4</ele>
        <time>2021-03-23T11:44:07Z</time>
      </trkpt>
      <trkpt lat="45.98166" lon="6.51367">
        <ele>2186.6</ele>
        <time>2021-03-23T11:44:12Z</time>
      </trkpt>
      <trkpt lat="45.98164" lon="6.51368">
        <ele>2186.8</ele>
        <time>2021-03-23T11:44:20Z</time>
      </trkpt>
      <trkpt lat="45.98162" lon="6.51369">
        <ele>2187</ele>
        <time>2021-03-23T11:44:30Z</time>
      </trkpt>
      <trkpt lat="45.98161" lon="6.51371">
        <ele>2187.8</ele>
        <time>2021-03-23T11:44:43Z</time>
      </trkpt>
      <trkpt lat="45.98159" lon="6.51373">
        <ele>2188.4</ele>
        <time>2021-03-23T11:45:06Z</time>
      </trkpt>
      <trkpt lat="45.98157" lon="6.51374">
        <ele>2188.6</ele>
        <time>2021-03-23T11:45:15Z</time>
      </trkpt>
      <trkpt lat="45.98156" lon="6.51376">
        <ele>2189.2</ele>
        <time>2021-03-23T11:45:19Z</time>
      </trkpt>
      <trkpt lat="45.98154" lon="6.51378">
        <ele>2189.6</ele>
        <time>2021-03-23T11:45:50Z</time>
      </trkpt>
      <trkpt lat="45.98153" lon="6.51379">
        <ele>2189.8</ele>
        <time>2021-03-23T11:46:00Z</time>
      </trkpt>
      <trkpt lat="45.98151" lon="6.51381">
        <ele>2190</ele>
        <time>2021-03-23T11:46:06Z</time>
      </trkpt>
      <trkpt lat="45.9815" lon="6.51382">
        <ele>2190.6</ele>
        <time>2021-03-23T11:46:17Z</time>
      </trkpt>
      <trkpt lat="45.98148" lon="6.51384">
        <ele>2192</ele>
        <time>2021-03-23T11:46:43Z</time>
      </trkpt>
      <trkpt lat="45.98146" lon="6.51385">
        <ele>2192.8</ele>
        <time>2021-03-23T11:47:06Z</time>
      </trkpt>
      <trkpt lat="45.98145" lon="6.51387">
        <ele>2193.8</ele>
        <time>2021-03-23T11:47:28Z</time>
      </trkpt>
      <trkpt lat="45.98143" lon="6.51388">
        <ele>2194.6</ele>
        <time>2021-03-23T11:47:34Z</time>
      </trkpt>
      <trkpt lat="45.98142" lon="6.5139">
        <ele>2196</ele>
        <time>2021-03-23T11:47:40Z</time>
      </trkpt>
      <trkpt lat="45.9814" lon="6.51392">
        <ele>2197</ele>
        <time>2021-03-23T11:48:12Z</time>
      </trkpt>
      <trkpt lat="45.9814" lon="6.51395">
        <ele>2198.6</ele>
        <time>2021-03-23T11:48:25Z</time>
      </trkpt>
      <trkpt lat="45.98139" lon="6.51397">
        <ele>2200.2</ele>
        <time>2021-03-23T11:48:44Z</time>
      </trkpt>
      <trkpt lat="45.98137" lon="6.51399">
        <ele>2201.4</ele>
        <time>2021-03-23T11:49:13Z</time>
      </trkpt>
      <trkpt lat="45.98135" lon="6.51399">
        <ele>2202</ele>
        <time>2021-03-23T11:49:39Z</time>
      </trkpt>
      <trkpt lat="45.98134" lon="6.51401">
        <ele>2203</ele>
        <time>2021-03-23T11:49:54Z</time>
      </trkpt>
      <trkpt lat="45.98133" lon="6.51404">
        <ele>2203.6</ele>
        <time>2021-03-23T11:50:09Z</time>
      </trkpt>
      <trkpt lat="45.98131" lon="6.51405">
        <ele>2204.2</ele>
        <time>2021-03-23T11:50:19Z</time>
      </trkpt>
      <trkpt lat="45.9813" lon="6.51407">
        <ele>2205.6</ele>
        <time>2021-03-23T11:50:24Z</time>
      </trkpt>
      <trkpt lat="45.98129" lon="6.51409">
        <ele>2208</ele>
        <time>2021-03-23T11:51:07Z</time>
      </trkpt>
      <trkpt lat="45.98127" lon="6.51411">
        <ele>2209</ele>
        <time>2021-03-23T11:51:18Z</time>
      </trkpt>
      <trkpt lat="45.98126" lon="6.51412">
        <ele>2210</ele>
        <time>2021-03-23T11:51:24Z</time>
      </trkpt>
      <trkpt lat="45.98124" lon="6.51413">
        <ele>2211.2</ele>
        <time>2021-03-23T11:51:29Z</time>
      </trkpt>
      <trkpt lat="45.98122" lon="6.51414">
        <ele>2212</ele>
        <time>2021-03-23T11:51:37Z</time>
      </trkpt>
      <trkpt lat="45.98121" lon="6.51416">
        <ele>2212.6</ele>
        <time>2021-03-23T11:51:43Z</time>
      </trkpt>
      <trkpt lat="45.98119" lon="6.51417">
        <ele>2213.4</ele>
        <time>2021-03-23T11:51:52Z</time>
      </trkpt>
      <trkpt lat="45.98117" lon="6.51419">
        <ele>2214.4</ele>
        <time>2021-03-23T11:52:07Z</time>
      </trkpt>
      <trkpt lat="45.98116" lon="6.51421">
        <ele>2215.2</ele>
        <time>2021-03-23T11:52:24Z</time>
      </trkpt>
      <trkpt lat="45.98115" lon="6.51423">
        <ele>2216.6</ele>
        <time>2021-03-23T11:52:29Z</time>
      </trkpt>
      <trkpt lat="45.98113" lon="6.51425">
        <ele>2217.6</ele>
        <time>2021-03-23T11:52:35Z</time>
      </trkpt>
      <trkpt lat="45.98111" lon="6.51426">
        <ele>2218.8</ele>
        <time>2021-03-23T11:52:44Z</time>
      </trkpt>
      <trkpt lat="45.9811" lon="6.51427">
        <ele>2219.6</ele>
        <time>2021-03-23T11:52:53Z</time>
      </trkpt>
      <trkpt lat="45.98108" lon="6.51428">
        <ele>2220.2</ele>
        <time>2021-03-23T11:52:58Z</time>
      </trkpt>
      <trkpt lat="45.98106" lon="6.51428">
        <ele>2221</ele>
        <time>2021-03-23T11:53:02Z</time>
      </trkpt>
      <trkpt lat="45.98104" lon="6.51429">
        <ele>2221.6</ele>
        <time>2021-03-23T11:53:09Z</time>
      </trkpt>
      <trkpt lat="45.98102" lon="6.5143">
        <ele>2222.2</ele>
        <time>2021-03-23T11:53:14Z</time>
      </trkpt>
      <trkpt lat="45.98103" lon="6.51432">
        <ele>2224</ele>
        <time>2021-03-23T11:55:12Z</time>
      </trkpt>
      <trkpt lat="45.98102" lon="6.5143">
        <ele>2224.6</ele>
        <time>2021-03-23T12:00:09Z</time>
      </trkpt>
      <trkpt lat="45.98103" lon="6.51429">
        <ele>2225</ele>
        <time>2021-03-23T12:01:37Z</time>
      </trkpt>
      <trkpt lat="45.98102" lon="6.5143">
        <ele>2225</ele>
        <time>2021-03-23T12:06:14Z</time>
      </trkpt>
      <trkpt lat="45.98103" lon="6.51431">
        <ele>2224.4</ele>
        <time>2021-03-23T12:14:57Z</time>
      </trkpt>
      <trkpt lat="45.98105" lon="6.51431">
        <ele>2224.4</ele>
        <time>2021-03-23T12:15:24Z</time>
      </trkpt>
      <trkpt lat="45.98107" lon="6.51432">
        <ele>2225</ele>
        <time>2021-03-23T12:15:27Z</time>
      </trkpt>
      <trkpt lat="45.98105" lon="6.51432">
        <ele>2224.8</ele>
        <time>2021-03-23T12:15:43Z</time>
      </trkpt>
      <trkpt lat="45.98103" lon="6.51433">
        <ele>2224.6</ele>
        <time>2021-03-23T12:16:22Z</time>
      </trkpt>
      <trkpt lat="45.98102" lon="6.51431">
        <ele>2223.4</ele>
        <time>2021-03-23T12:17:10Z</time>
      </trkpt>
      <trkpt lat="45.98103" lon="6.51429">
        <ele>2223</ele>
        <time>2021-03-23T12:19:18Z</time>
      </trkpt>
      <trkpt lat="45.98101" lon="6.51431">
        <ele>2222.8</ele>
        <time>2021-03-23T12:25:56Z</time>
      </trkpt>
      <trkpt lat="45.98102" lon="6.51428">
        <ele>2221.4</ele>
        <time>2021-03-23T12:28:58Z</time>
      </trkpt>
      <trkpt lat="45.98103" lon="6.5143">
        <ele>2221.4</ele>
        <time>2021-03-23T12:31:26Z</time>
      </trkpt>
      <trkpt lat="45.98101" lon="6.5143">
        <ele>2221.4</ele>
        <time>2021-03-23T12:32:26Z</time>
      </trkpt>
      <trkpt lat="45.981" lon="6.51428">
        <ele>2221.8</ele>
        <time>2021-03-23T12:32:51Z</time>
      </trkpt>
      <trkpt lat="45.98098" lon="6.51427">
        <ele>2221.6</ele>
        <time>2021-03-23T12:33:26Z</time>
      </trkpt>
      <trkpt lat="45.98096" lon="6.51427">
        <ele>2221.4</ele>
        <time>2021-03-23T12:33:44Z</time>
      </trkpt>
      <trkpt lat="45.98094" lon="6.51428">
        <ele>2221</ele>
        <time>2021-03-23T12:33:48Z</time>
      </trkpt>
      <trkpt lat="45.98092" lon="6.51429">
        <ele>2220.4</ele>
        <time>2021-03-23T12:33:52Z</time>
      </trkpt>
      <trkpt lat="45.9809" lon="6.51428">
        <ele>2220</ele>
        <time>2021-03-23T12:33:54Z</time>
      </trkpt>
      <trkpt lat="45.98088" lon="6.51428">
        <ele>2219.2</ele>
        <time>2021-03-23T12:34:01Z</time>
      </trkpt>
      <trkpt lat="45.98086" lon="6.51427">
        <ele>2218.4</ele>
        <time>2021-03-23T12:34:05Z</time>
      </trkpt>
      <trkpt lat="45.98083" lon="6.51427">
        <ele>2218.2</ele>
        <time>2021-03-23T12:34:07Z</time>
      </trkpt>
      <trkpt lat="45.9808" lon="6.51428">
        <ele>2217.8</ele>
        <time>2021-03-23T12:34:09Z</time>
      </trkpt>
      <trkpt lat="45.98077" lon="6.51428">
        <ele>2217.4</ele>
        <time>2021-03-23T12:34:10Z</time>
      </trkpt>
      <trkpt lat="45.98073" lon="6.51428">
        <ele>2217.2</ele>
        <time>2021-03-23T12:34:11Z</time>
      </trkpt>
      <trkpt lat="45.9807" lon="6.51428">
        <ele>2216.8</ele>
        <time>2021-03-23T12:34:12Z</time>
      </trkpt>
      <trkpt lat="45.98066" lon="6.51428">
        <ele>2216.4</ele>
        <time>2021-03-23T12:34:13Z</time>
      </trkpt>
      <trkpt lat="45.98061" lon="6.51428">
        <ele>2216.2</ele>
        <time>2021-03-23T12:34:14Z</time>
      </trkpt>
      <trkpt lat="45.98057" lon="6.51428">
        <ele>2215.8</ele>
        <time>2021-03-23T12:34:15Z</time>
      </trkpt>
      <trkpt lat="45.98052" lon="6.51427">
        <ele>2215.6</ele>
        <time>2021-03-23T12:34:16Z</time>
      </trkpt>
      <trkpt lat="45.98048" lon="6.51426">
        <ele>2215.4</ele>
        <time>2021-03-23T12:34:17Z</time>
      </trkpt>
      <trkpt lat="45.98044" lon="6.51425">
        <ele>2215.2</ele>
        <time>2021-03-23T12:34:18Z</time>
      </trkpt>
      <trkpt lat="45.9804" lon="6.51424">
        <ele>2214.8</ele>
        <time>2021-03-23T12:34:19Z</time>
      </trkpt>
      <trkpt lat="45.98037" lon="6.51423">
        <ele>2214.4</ele>
        <time>2021-03-23T12:34:20Z</time>
      </trkpt>
      <trkpt lat="45.98035" lon="6.51421">
        <ele>2214</ele>
        <time>2021-03-23T12:34:21Z</time>
      </trkpt>
      <trkpt lat="45.98034" lon="6.5142">
        <ele>2212.6</ele>
        <time>2021-03-23T12:34:23Z</time>
      </trkpt>
      <trkpt lat="45.98035" lon="6.51418">
        <ele>2209.2</ele>
        <time>2021-03-23T12:34:54Z</time>
      </trkpt>
      <trkpt lat="45.98034" lon="6.51417">
        <ele>2208</ele>
        <time>2021-03-23T12:35:18Z</time>
      </trkpt>
      <trkpt lat="45.98034" lon="6.51414">
        <ele>2206.4</ele>
        <time>2021-03-23T12:35:28Z</time>
      </trkpt>
      <trkpt lat="45.98032" lon="6.51411">
        <ele>2203.6</ele>
        <time>2021-03-23T12:37:06Z</time>
      </trkpt>
      <trkpt lat="45.98032" lon="6.51408">
        <ele>2203.4</ele>
        <time>2021-03-23T12:37:11Z</time>
      </trkpt>
      <trkpt lat="45.98032" lon="6.51405">
        <ele>2203.2</ele>
        <time>2021-03-23T12:37:15Z</time>
      </trkpt>
      <trkpt lat="45.98032" lon="6.51402">
        <ele>2202</ele>
        <time>2021-03-23T12:38:02Z</time>
      </trkpt>
      <trkpt lat="45.98031" lon="6.514">
        <ele>2201.8</ele>
        <time>2021-03-23T12:38:05Z</time>
      </trkpt>
      <trkpt lat="45.9803" lon="6.51404">
        <ele>2199.4</ele>
        <time>2021-03-23T12:39:54Z</time>
      </trkpt>
      <trkpt lat="45.98028" lon="6.51402">
        <ele>2199.4</ele>
        <time>2021-03-23T12:40:06Z</time>
      </trkpt>
      <trkpt lat="45.98028" lon="6.51399">
        <ele>2198.4</ele>
        <time>2021-03-23T12:40:11Z</time>
      </trkpt>
      <trkpt lat="45.98027" lon="6.51397">
        <ele>2197.2</ele>
        <time>2021-03-23T12:40:15Z</time>
      </trkpt>
      <trkpt lat="45.98025" lon="6.51397">
        <ele>2196.8</ele>
        <time>2021-03-23T12:40:17Z</time>
      </trkpt>
      <trkpt lat="45.98023" lon="6.51398">
        <ele>2196</ele>
        <time>2021-03-23T12:40:20Z</time>
      </trkpt>
      <trkpt lat="45.98021" lon="6.51398">
        <ele>2195</ele>
        <time>2021-03-23T12:40:23Z</time>
      </trkpt>
      <trkpt lat="45.98016" lon="6.51397">
        <ele>2193.4</ele>
        <time>2021-03-23T12:40:31Z</time>
      </trkpt>
      <trkpt lat="45.98013" lon="6.51395">
        <ele>2192.4</ele>
        <time>2021-03-23T12:40:33Z</time>
      </trkpt>
      <trkpt lat="45.98009" lon="6.51396">
        <ele>2191.8</ele>
        <time>2021-03-23T12:40:35Z</time>
      </trkpt>
      <trkpt lat="45.98006" lon="6.51398">
        <ele>2191.4</ele>
        <time>2021-03-23T12:40:37Z</time>
      </trkpt>
      <trkpt lat="45.98007" lon="6.51396">
        <ele>2188.8</ele>
        <time>2021-03-23T12:40:58Z</time>
      </trkpt>
      <trkpt lat="45.98009" lon="6.51397">
        <ele>2187.6</ele>
        <time>2021-03-23T12:41:16Z</time>
      </trkpt>
      <trkpt lat="45.98007" lon="6.51395">
        <ele>2186</ele>
        <time>2021-03-23T12:42:08Z</time>
      </trkpt>
      <trkpt lat="45.98004" lon="6.51394">
        <ele>2186</ele>
        <time>2021-03-23T12:42:09Z</time>
      </trkpt>
      <trkpt lat="45.98001" lon="6.51393">
        <ele>2186</ele>
        <time>2021-03-23T12:42:10Z</time>
      </trkpt>
      <trkpt lat="45.97998" lon="6.51392">
        <ele>2186</ele>
        <time>2021-03-23T12:42:11Z</time>
      </trkpt>
      <trkpt lat="45.97996" lon="6.51391">
        <ele>2186</ele>
        <time>2021-03-23T12:42:12Z</time>
      </trkpt>
      <trkpt lat="45.97994" lon="6.51391">
        <ele>2186</ele>
        <time>2021-03-23T12:42:13Z</time>
      </trkpt>
      <trkpt lat="45.97992" lon="6.5139">
        <ele>2185.8</ele>
        <time>2021-03-23T12:42:15Z</time>
      </trkpt>
      <trkpt lat="45.9799" lon="6.51389">
        <ele>2185.6</ele>
        <time>2021-03-23T12:42:16Z</time>
      </trkpt>
      <trkpt lat="45.97988" lon="6.51387">
        <ele>2185.4</ele>
        <time>2021-03-23T12:42:17Z</time>
      </trkpt>
      <trkpt lat="45.97986" lon="6.51386">
        <ele>2185.2</ele>
        <time>2021-03-23T12:42:18Z</time>
      </trkpt>
      <trkpt lat="45.97985" lon="6.51385">
        <ele>2184.8</ele>
        <time>2021-03-23T12:42:19Z</time>
      </trkpt>
      <trkpt lat="45.97984" lon="6.51379">
        <ele>2183.8</ele>
        <time>2021-03-23T12:42:21Z</time>
      </trkpt>
      <trkpt lat="45.97986" lon="6.51375">
        <ele>2183.2</ele>
        <time>2021-03-23T12:42:22Z</time>
      </trkpt>
      <trkpt lat="45.97988" lon="6.51374">
        <ele>2183</ele>
        <time>2021-03-23T12:42:23Z</time>
      </trkpt>
      <trkpt lat="45.9799" lon="6.51373">
        <ele>2182.8</ele>
        <time>2021-03-23T12:42:24Z</time>
      </trkpt>
      <trkpt lat="45.97993" lon="6.51371">
        <ele>2182.6</ele>
        <time>2021-03-23T12:42:25Z</time>
      </trkpt>
      <trkpt lat="45.97995" lon="6.51368">
        <ele>2182.2</ele>
        <time>2021-03-23T12:42:26Z</time>
      </trkpt>
      <trkpt lat="45.97996" lon="6.51365">
        <ele>2182</ele>
        <time>2021-03-23T12:42:27Z</time>
      </trkpt>
      <trkpt lat="45.97994" lon="6.51361">
        <ele>2181.8</ele>
        <time>2021-03-23T12:42:28Z</time>
      </trkpt>
      <trkpt lat="45.97983" lon="6.51356">
        <ele>2180.8</ele>
        <time>2021-03-23T12:42:31Z</time>
      </trkpt>
      <trkpt lat="45.97975" lon="6.51351">
        <ele>2179.2</ele>
        <time>2021-03-23T12:42:36Z</time>
      </trkpt>
      <trkpt lat="45.97973" lon="6.51349">
        <ele>2179</ele>
        <time>2021-03-23T12:42:37Z</time>
      </trkpt>
      <trkpt lat="45.97971" lon="6.51347">
        <ele>2178.8</ele>
        <time>2021-03-23T12:42:38Z</time>
      </trkpt>
      <trkpt lat="45.97967" lon="6.51342">
        <ele>2178.2</ele>
        <time>2021-03-23T12:42:40Z</time>
      </trkpt>
      <trkpt lat="45.97964" lon="6.51339">
        <ele>2177.4</ele>
        <time>2021-03-23T12:42:41Z</time>
      </trkpt>
      <trkpt lat="45.97962" lon="6.51336">
        <ele>2177</ele>
        <time>2021-03-23T12:42:42Z</time>
      </trkpt>
      <trkpt lat="45.9796" lon="6.51333">
        <ele>2176.4</ele>
        <time>2021-03-23T12:42:43Z</time>
      </trkpt>
      <trkpt lat="45.97958" lon="6.5133">
        <ele>2175.6</ele>
        <time>2021-03-23T12:42:44Z</time>
      </trkpt>
      <trkpt lat="45.97957" lon="6.51327">
        <ele>2175</ele>
        <time>2021-03-23T12:42:45Z</time>
      </trkpt>
      <trkpt lat="45.97955" lon="6.51324">
        <ele>2174.2</ele>
        <time>2021-03-23T12:42:46Z</time>
      </trkpt>
      <trkpt lat="45.97953" lon="6.51321">
        <ele>2173.8</ele>
        <time>2021-03-23T12:42:47Z</time>
      </trkpt>
      <trkpt lat="45.97952" lon="6.51318">
        <ele>2173.2</ele>
        <time>2021-03-23T12:42:48Z</time>
      </trkpt>
      <trkpt lat="45.97949" lon="6.51313">
        <ele>2171.6</ele>
        <time>2021-03-23T12:42:50Z</time>
      </trkpt>
      <trkpt lat="45.97948" lon="6.51308">
        <ele>2170.4</ele>
        <time>2021-03-23T12:42:52Z</time>
      </trkpt>
      <trkpt lat="45.9795" lon="6.51305">
        <ele>2170</ele>
        <time>2021-03-23T12:42:53Z</time>
      </trkpt>
      <trkpt lat="45.97952" lon="6.51304">
        <ele>2169.8</ele>
        <time>2021-03-23T12:42:54Z</time>
      </trkpt>
      <trkpt lat="45.97955" lon="6.51304">
        <ele>2169.2</ele>
        <time>2021-03-23T12:42:55Z</time>
      </trkpt>
      <trkpt lat="45.97957" lon="6.51304">
        <ele>2168.6</ele>
        <time>2021-03-23T12:42:56Z</time>
      </trkpt>
      <trkpt lat="45.97959" lon="6.51302">
        <ele>2167.6</ele>
        <time>2021-03-23T12:42:59Z</time>
      </trkpt>
      <trkpt lat="45.9796" lon="6.51299">
        <ele>2166.8</ele>
        <time>2021-03-23T12:43:01Z</time>
      </trkpt>
      <trkpt lat="45.97955" lon="6.51289">
        <ele>2164.2</ele>
        <time>2021-03-23T12:43:05Z</time>
      </trkpt>
      <trkpt lat="45.97954" lon="6.51287">
        <ele>2163.2</ele>
        <time>2021-03-23T12:43:06Z</time>
      </trkpt>
      <trkpt lat="45.97952" lon="6.51285">
        <ele>2162.4</ele>
        <time>2021-03-23T12:43:07Z</time>
      </trkpt>
      <trkpt lat="45.97951" lon="6.51282">
        <ele>2161.8</ele>
        <time>2021-03-23T12:43:08Z</time>
      </trkpt>
      <trkpt lat="45.97949" lon="6.51279">
        <ele>2161</ele>
        <time>2021-03-23T12:43:09Z</time>
      </trkpt>
      <trkpt lat="45.97948" lon="6.51276">
        <ele>2156</ele>
        <time>2021-03-23T12:43:16Z</time>
      </trkpt>
      <trkpt lat="45.97946" lon="6.51272">
        <ele>2155.2</ele>
        <time>2021-03-23T12:43:17Z</time>
      </trkpt>
      <trkpt lat="45.97944" lon="6.51269">
        <ele>2154.6</ele>
        <time>2021-03-23T12:43:18Z</time>
      </trkpt>
      <trkpt lat="45.97943" lon="6.51266">
        <ele>2154</ele>
        <time>2021-03-23T12:43:19Z</time>
      </trkpt>
      <trkpt lat="45.97942" lon="6.51263">
        <ele>2153.6</ele>
        <time>2021-03-23T12:43:20Z</time>
      </trkpt>
      <trkpt lat="45.97941" lon="6.5126">
        <ele>2153.2</ele>
        <time>2021-03-23T12:43:21Z</time>
      </trkpt>
      <trkpt lat="45.97945" lon="6.51255">
        <ele>2149.4</ele>
        <time>2021-03-23T12:43:27Z</time>
      </trkpt>
      <trkpt lat="45.97948" lon="6.51256">
        <ele>2148</ele>
        <time>2021-03-23T12:43:30Z</time>
      </trkpt>
      <trkpt lat="45.9794" lon="6.51239">
        <ele>2143</ele>
        <time>2021-03-23T12:43:46Z</time>
      </trkpt>
      <trkpt lat="45.97933" lon="6.51229">
        <ele>2141.2</ele>
        <time>2021-03-23T12:43:48Z</time>
      </trkpt>
      <trkpt lat="45.97925" lon="6.51218">
        <ele>2138.8</ele>
        <time>2021-03-23T12:43:51Z</time>
      </trkpt>
      <trkpt lat="45.97921" lon="6.51203">
        <ele>2136.4</ele>
        <time>2021-03-23T12:43:55Z</time>
      </trkpt>
      <trkpt lat="45.97916" lon="6.51191">
        <ele>2133.8</ele>
        <time>2021-03-23T12:43:58Z</time>
      </trkpt>
      <trkpt lat="45.97913" lon="6.51177">
        <ele>2131.8</ele>
        <time>2021-03-23T12:44:01Z</time>
      </trkpt>
      <trkpt lat="45.9791" lon="6.51161">
        <ele>2130</ele>
        <time>2021-03-23T12:44:04Z</time>
      </trkpt>
      <trkpt lat="45.97912" lon="6.51163">
        <ele>2129</ele>
        <time>2021-03-23T12:44:06Z</time>
      </trkpt>
      <trkpt lat="45.97912" lon="6.51167">
        <ele>2127</ele>
        <time>2021-03-23T12:44:10Z</time>
      </trkpt>
      <trkpt lat="45.97914" lon="6.51167">
        <ele>2123.8</ele>
        <time>2021-03-23T12:44:19Z</time>
      </trkpt>
      <trkpt lat="45.97915" lon="6.51171">
        <ele>2121.6</ele>
        <time>2021-03-23T12:44:27Z</time>
      </trkpt>
      <trkpt lat="45.97914" lon="6.51168">
        <ele>2117.2</ele>
        <time>2021-03-23T12:45:30Z</time>
      </trkpt>
      <trkpt lat="45.97918" lon="6.5117">
        <ele>2113</ele>
        <time>2021-03-23T12:46:14Z</time>
      </trkpt>
      <trkpt lat="45.97919" lon="6.51172">
        <ele>2112.6</ele>
        <time>2021-03-23T12:46:15Z</time>
      </trkpt>
      <trkpt lat="45.97922" lon="6.51174">
        <ele>2112.2</ele>
        <time>2021-03-23T12:46:16Z</time>
      </trkpt>
      <trkpt lat="45.97925" lon="6.51177">
        <ele>2111.8</ele>
        <time>2021-03-23T12:46:17Z</time>
      </trkpt>
      <trkpt lat="45.97927" lon="6.5118">
        <ele>2111.6</ele>
        <time>2021-03-23T12:46:18Z</time>
      </trkpt>
      <trkpt lat="45.97929" lon="6.51182">
        <ele>2111.4</ele>
        <time>2021-03-23T12:46:19Z</time>
      </trkpt>
      <trkpt lat="45.97931" lon="6.51183">
        <ele>2111.2</ele>
        <time>2021-03-23T12:46:20Z</time>
      </trkpt>
      <trkpt lat="45.97933" lon="6.51184">
        <ele>2110.8</ele>
        <time>2021-03-23T12:46:21Z</time>
      </trkpt>
      <trkpt lat="45.97935" lon="6.51178">
        <ele>2110.4</ele>
        <time>2021-03-23T12:46:23Z</time>
      </trkpt>
      <trkpt lat="45.97947" lon="6.51183">
        <ele>2109.2</ele>
        <time>2021-03-23T12:46:26Z</time>
      </trkpt>
      <trkpt lat="45.97954" lon="6.51187">
        <ele>2108.4</ele>
        <time>2021-03-23T12:46:28Z</time>
      </trkpt>
      <trkpt lat="45.97955" lon="6.51171">
        <ele>2107.4</ele>
        <time>2021-03-23T12:46:31Z</time>
      </trkpt>
      <trkpt lat="45.97965" lon="6.51171">
        <ele>2106.4</ele>
        <time>2021-03-23T12:46:33Z</time>
      </trkpt>
      <trkpt lat="45.97963" lon="6.51152">
        <ele>2105</ele>
        <time>2021-03-23T12:46:35Z</time>
      </trkpt>
      <trkpt lat="45.97959" lon="6.51137">
        <ele>2104.2</ele>
        <time>2021-03-23T12:46:37Z</time>
      </trkpt>
      <trkpt lat="45.97971" lon="6.5113">
        <ele>2102.6</ele>
        <time>2021-03-23T12:46:39Z</time>
      </trkpt>
      <trkpt lat="45.9798" lon="6.51132">
        <ele>2101.2</ele>
        <time>2021-03-23T12:46:40Z</time>
      </trkpt>
      <trkpt lat="45.97995" lon="6.51141">
        <ele>2100</ele>
        <time>2021-03-23T12:46:42Z</time>
      </trkpt>
      <trkpt lat="45.98008" lon="6.51148">
        <ele>2096.4</ele>
        <time>2021-03-23T12:46:45Z</time>
      </trkpt>
      <trkpt lat="45.98014" lon="6.51136">
        <ele>2093.8</ele>
        <time>2021-03-23T12:46:48Z</time>
      </trkpt>
      <trkpt lat="45.98003" lon="6.5113">
        <ele>2088.4</ele>
        <time>2021-03-23T12:46:51Z</time>
      </trkpt>
      <trkpt lat="45.97995" lon="6.51119">
        <ele>2083.6</ele>
        <time>2021-03-23T12:46:54Z</time>
      </trkpt>
      <trkpt lat="45.9799" lon="6.51104">
        <ele>2079</ele>
        <time>2021-03-23T12:46:57Z</time>
      </trkpt>
      <trkpt lat="45.97989" lon="6.5112">
        <ele>2066.8</ele>
        <time>2021-03-23T12:47:12Z</time>
      </trkpt>
      <trkpt lat="45.97981" lon="6.51128">
        <ele>2065.4</ele>
        <time>2021-03-23T12:47:20Z</time>
      </trkpt>
      <trkpt lat="45.97988" lon="6.51114">
        <ele>2062</ele>
        <time>2021-03-23T12:47:29Z</time>
      </trkpt>
      <trkpt lat="45.97991" lon="6.511">
        <ele>2059.4</ele>
        <time>2021-03-23T12:47:32Z</time>
      </trkpt>
      <trkpt lat="45.97989" lon="6.51087">
        <ele>2057</ele>
        <time>2021-03-23T12:47:34Z</time>
      </trkpt>
      <trkpt lat="45.97989" lon="6.51073">
        <ele>2055.2</ele>
        <time>2021-03-23T12:47:37Z</time>
      </trkpt>
      <trkpt lat="45.97997" lon="6.51062">
        <ele>2052.4</ele>
        <time>2021-03-23T12:47:41Z</time>
      </trkpt>
      <trkpt lat="45.98006" lon="6.51064">
        <ele>2049.8</ele>
        <time>2021-03-23T12:47:43Z</time>
      </trkpt>
      <trkpt lat="45.98016" lon="6.51072">
        <ele>2047.6</ele>
        <time>2021-03-23T12:47:45Z</time>
      </trkpt>
      <trkpt lat="45.98024" lon="6.51078">
        <ele>2045.4</ele>
        <time>2021-03-23T12:47:47Z</time>
      </trkpt>
      <trkpt lat="45.98037" lon="6.51077">
        <ele>2043</ele>
        <time>2021-03-23T12:47:50Z</time>
      </trkpt>
      <trkpt lat="45.98047" lon="6.51077">
        <ele>2042.2</ele>
        <time>2021-03-23T12:47:52Z</time>
      </trkpt>
      <trkpt lat="45.98059" lon="6.51075">
        <ele>2041.4</ele>
        <time>2021-03-23T12:47:54Z</time>
      </trkpt>
      <trkpt lat="45.98073" lon="6.51071">
        <ele>2040.4</ele>
        <time>2021-03-23T12:47:56Z</time>
      </trkpt>
      <trkpt lat="45.98087" lon="6.51066">
        <ele>2039.4</ele>
        <time>2021-03-23T12:47:58Z</time>
      </trkpt>
      <trkpt lat="45.98097" lon="6.5106">
        <ele>2038.6</ele>
        <time>2021-03-23T12:48:00Z</time>
      </trkpt>
      <trkpt lat="45.98107" lon="6.51051">
        <ele>2037.2</ele>
        <time>2021-03-23T12:48:02Z</time>
      </trkpt>
      <trkpt lat="45.98116" lon="6.51042">
        <ele>2036</ele>
        <time>2021-03-23T12:48:04Z</time>
      </trkpt>
      <trkpt lat="45.98126" lon="6.51034">
        <ele>2035</ele>
        <time>2021-03-23T12:48:06Z</time>
      </trkpt>
      <trkpt lat="45.98134" lon="6.5102">
        <ele>2034.6</ele>
        <time>2021-03-23T12:48:09Z</time>
      </trkpt>
      <trkpt lat="45.98139" lon="6.51005">
        <ele>2033</ele>
        <time>2021-03-23T12:48:12Z</time>
      </trkpt>
      <trkpt lat="45.9814" lon="6.50988">
        <ele>2027.8</ele>
        <time>2021-03-23T12:48:17Z</time>
      </trkpt>
      <trkpt lat="45.98138" lon="6.50973">
        <ele>2023.6</ele>
        <time>2021-03-23T12:48:21Z</time>
      </trkpt>
      <trkpt lat="45.98134" lon="6.5096">
        <ele>2017.6</ele>
        <time>2021-03-23T12:48:25Z</time>
      </trkpt>
      <trkpt lat="45.98127" lon="6.50973">
        <ele>2010</ele>
        <time>2021-03-23T12:48:29Z</time>
      </trkpt>
      <trkpt lat="45.98118" lon="6.50983">
        <ele>2006.2</ele>
        <time>2021-03-23T12:48:31Z</time>
      </trkpt>
      <trkpt lat="45.98112" lon="6.50987">
        <ele>1994</ele>
        <time>2021-03-23T12:48:41Z</time>
      </trkpt>
      <trkpt lat="45.98109" lon="6.50986">
        <ele>1990.4</ele>
        <time>2021-03-23T12:48:46Z</time>
      </trkpt>
      <trkpt lat="45.98104" lon="6.50985">
        <ele>1975.8</ele>
        <time>2021-03-23T12:49:22Z</time>
      </trkpt>
      <trkpt lat="45.98091" lon="6.50986">
        <ele>1974</ele>
        <time>2021-03-23T12:49:26Z</time>
      </trkpt>
      <trkpt lat="45.98089" lon="6.50973">
        <ele>1971.8</ele>
        <time>2021-03-23T12:49:28Z</time>
      </trkpt>
      <trkpt lat="45.98097" lon="6.50961">
        <ele>1970.8</ele>
        <time>2021-03-23T12:49:30Z</time>
      </trkpt>
      <trkpt lat="45.98094" lon="6.50947">
        <ele>1969.6</ele>
        <time>2021-03-23T12:49:32Z</time>
      </trkpt>
      <trkpt lat="45.98079" lon="6.50953">
        <ele>1968.6</ele>
        <time>2021-03-23T12:49:34Z</time>
      </trkpt>
      <trkpt lat="45.98066" lon="6.50952">
        <ele>1967.4</ele>
        <time>2021-03-23T12:49:36Z</time>
      </trkpt>
      <trkpt lat="45.98065" lon="6.50935">
        <ele>1965.6</ele>
        <time>2021-03-23T12:49:38Z</time>
      </trkpt>
      <trkpt lat="45.98069" lon="6.5091">
        <ele>1964.4</ele>
        <time>2021-03-23T12:49:40Z</time>
      </trkpt>
      <trkpt lat="45.98068" lon="6.50892">
        <ele>1963</ele>
        <time>2021-03-23T12:49:42Z</time>
      </trkpt>
      <trkpt lat="45.9807" lon="6.50874">
        <ele>1960.8</ele>
        <time>2021-03-23T12:49:44Z</time>
      </trkpt>
      <trkpt lat="45.98061" lon="6.50878">
        <ele>1951</ele>
        <time>2021-03-23T12:49:57Z</time>
      </trkpt>
      <trkpt lat="45.98059" lon="6.50878">
        <ele>1938</ele>
        <time>2021-03-23T12:50:22Z</time>
      </trkpt>
      <trkpt lat="45.98054" lon="6.50877">
        <ele>1922.2</ele>
        <time>2021-03-23T12:52:07Z</time>
      </trkpt>
      <trkpt lat="45.98052" lon="6.50871">
        <ele>1921.6</ele>
        <time>2021-03-23T12:52:09Z</time>
      </trkpt>
      <trkpt lat="45.98052" lon="6.50865">
        <ele>1921.2</ele>
        <time>2021-03-23T12:52:10Z</time>
      </trkpt>
      <trkpt lat="45.98055" lon="6.50856">
        <ele>1920.6</ele>
        <time>2021-03-23T12:52:11Z</time>
      </trkpt>
      <trkpt lat="45.98063" lon="6.50849">
        <ele>1919.8</ele>
        <time>2021-03-23T12:52:12Z</time>
      </trkpt>
      <trkpt lat="45.98072" lon="6.50847">
        <ele>1919.2</ele>
        <time>2021-03-23T12:52:13Z</time>
      </trkpt>
      <trkpt lat="45.98078" lon="6.50849">
        <ele>1918.8</ele>
        <time>2021-03-23T12:52:14Z</time>
      </trkpt>
      <trkpt lat="45.98085" lon="6.50845">
        <ele>1918.2</ele>
        <time>2021-03-23T12:52:16Z</time>
      </trkpt>
      <trkpt lat="45.98088" lon="6.5084">
        <ele>1917.8</ele>
        <time>2021-03-23T12:52:17Z</time>
      </trkpt>
      <trkpt lat="45.98092" lon="6.50834">
        <ele>1917.4</ele>
        <time>2021-03-23T12:52:18Z</time>
      </trkpt>
      <trkpt lat="45.98093" lon="6.50827">
        <ele>1917.2</ele>
        <time>2021-03-23T12:52:19Z</time>
      </trkpt>
      <trkpt lat="45.98091" lon="6.50818">
        <ele>1916.8</ele>
        <time>2021-03-23T12:52:20Z</time>
      </trkpt>
      <trkpt lat="45.98092" lon="6.50807">
        <ele>1916</ele>
        <time>2021-03-23T12:52:21Z</time>
      </trkpt>
      <trkpt lat="45.98095" lon="6.50797">
        <ele>1915.8</ele>
        <time>2021-03-23T12:52:22Z</time>
      </trkpt>
      <trkpt lat="45.98096" lon="6.50777">
        <ele>1915</ele>
        <time>2021-03-23T12:52:24Z</time>
      </trkpt>
      <trkpt lat="45.98101" lon="6.50754">
        <ele>1914.2</ele>
        <time>2021-03-23T12:52:26Z</time>
      </trkpt>
      <trkpt lat="45.98102" lon="6.5073">
        <ele>1913</ele>
        <time>2021-03-23T12:52:28Z</time>
      </trkpt>
      <trkpt lat="45.98107" lon="6.50712">
        <ele>1912</ele>
        <time>2021-03-23T12:52:30Z</time>
      </trkpt>
      <trkpt lat="45.98109" lon="6.50691">
        <ele>1911</ele>
        <time>2021-03-23T12:52:32Z</time>
      </trkpt>
      <trkpt lat="45.98106" lon="6.50663">
        <ele>1908.6</ele>
        <time>2021-03-23T12:52:35Z</time>
      </trkpt>
      <trkpt lat="45.98106" lon="6.5065">
        <ele>1907.8</ele>
        <time>2021-03-23T12:52:36Z</time>
      </trkpt>
      <trkpt lat="45.98106" lon="6.50627">
        <ele>1906.2</ele>
        <time>2021-03-23T12:52:38Z</time>
      </trkpt>
      <trkpt lat="45.98107" lon="6.50613">
        <ele>1904.8</ele>
        <time>2021-03-23T12:52:39Z</time>
      </trkpt>
      <trkpt lat="45.98109" lon="6.50599">
        <ele>1903.6</ele>
        <time>2021-03-23T12:52:40Z</time>
      </trkpt>
      <trkpt lat="45.9811" lon="6.50577">
        <ele>1901</ele>
        <time>2021-03-23T12:52:42Z</time>
      </trkpt>
      <trkpt lat="45.98111" lon="6.50562">
        <ele>1899.4</ele>
        <time>2021-03-23T12:52:43Z</time>
      </trkpt>
      <trkpt lat="45.98113" lon="6.50548">
        <ele>1898</ele>
        <time>2021-03-23T12:52:44Z</time>
      </trkpt>
      <trkpt lat="45.98116" lon="6.50525">
        <ele>1894.2</ele>
        <time>2021-03-23T12:52:46Z</time>
      </trkpt>
      <trkpt lat="45.98119" lon="6.50503">
        <ele>1891</ele>
        <time>2021-03-23T12:52:48Z</time>
      </trkpt>
      <trkpt lat="45.98123" lon="6.50486">
        <ele>1888.2</ele>
        <time>2021-03-23T12:52:50Z</time>
      </trkpt>
      <trkpt lat="45.98118" lon="6.50463">
        <ele>1883.6</ele>
        <time>2021-03-23T12:52:52Z</time>
      </trkpt>
      <trkpt lat="45.98117" lon="6.50445">
        <ele>1881.2</ele>
        <time>2021-03-23T12:52:54Z</time>
      </trkpt>
      <trkpt lat="45.98115" lon="6.50453">
        <ele>1858</ele>
        <time>2021-03-23T12:53:21Z</time>
      </trkpt>
      <trkpt lat="45.98113" lon="6.50454">
        <ele>1854.8</ele>
        <time>2021-03-23T12:53:51Z</time>
      </trkpt>
      <trkpt lat="45.98111" lon="6.50462">
        <ele>1841.8</ele>
        <time>2021-03-23T12:54:32Z</time>
      </trkpt>
      <trkpt lat="45.98116" lon="6.5046">
        <ele>1837.8</ele>
        <time>2021-03-23T12:54:49Z</time>
      </trkpt>
      <trkpt lat="45.98117" lon="6.50458">
        <ele>1836.2</ele>
        <time>2021-03-23T12:54:55Z</time>
      </trkpt>
      <trkpt lat="45.98113" lon="6.50445">
        <ele>1835.6</ele>
        <time>2021-03-23T12:56:34Z</time>
      </trkpt>
      <trkpt lat="45.98115" lon="6.50459">
        <ele>1835.6</ele>
        <time>2021-03-23T12:57:47Z</time>
      </trkpt>
      <trkpt lat="45.98116" lon="6.50445">
        <ele>1833.2</ele>
        <time>2021-03-23T12:58:23Z</time>
      </trkpt>
      <trkpt lat="45.98114" lon="6.50458">
        <ele>1830</ele>
        <time>2021-03-23T12:58:52Z</time>
      </trkpt>
      <trkpt lat="45.98114" lon="6.50461">
        <ele>1828.4</ele>
        <time>2021-03-23T12:59:17Z</time>
      </trkpt>
      <trkpt lat="45.98113" lon="6.50463">
        <ele>1827.4</ele>
        <time>2021-03-23T12:59:52Z</time>
      </trkpt>
      <trkpt lat="45.98109" lon="6.50461">
        <ele>1827</ele>
        <time>2021-03-23T12:59:56Z</time>
      </trkpt>
      <trkpt lat="45.98102" lon="6.50474">
        <ele>1826.4</ele>
        <time>2021-03-23T12:59:59Z</time>
      </trkpt>
      <trkpt lat="45.98097" lon="6.50473">
        <ele>1826</ele>
        <time>2021-03-23T13:00:00Z</time>
      </trkpt>
      <trkpt lat="45.98093" lon="6.50454">
        <ele>1824.2</ele>
        <time>2021-03-23T13:00:02Z</time>
      </trkpt>
      <trkpt lat="45.98096" lon="6.50446">
        <ele>1824</ele>
        <time>2021-03-23T13:00:03Z</time>
      </trkpt>
      <trkpt lat="45.98099" lon="6.50439">
        <ele>1823.8</ele>
        <time>2021-03-23T13:00:04Z</time>
      </trkpt>
      <trkpt lat="45.981" lon="6.50431">
        <ele>1823.4</ele>
        <time>2021-03-23T13:00:05Z</time>
      </trkpt>
      <trkpt lat="45.98101" lon="6.50422">
        <ele>1823</ele>
        <time>2021-03-23T13:00:06Z</time>
      </trkpt>
      <trkpt lat="45.98102" lon="6.5041">
        <ele>1822.6</ele>
        <time>2021-03-23T13:00:07Z</time>
      </trkpt>
      <trkpt lat="45.98104" lon="6.50395">
        <ele>1821.8</ele>
        <time>2021-03-23T13:00:08Z</time>
      </trkpt>
      <trkpt lat="45.98113" lon="6.50371">
        <ele>1820.4</ele>
        <time>2021-03-23T13:00:10Z</time>
      </trkpt>
      <trkpt lat="45.98117" lon="6.50364">
        <ele>1819.8</ele>
        <time>2021-03-23T13:00:11Z</time>
      </trkpt>
      <trkpt lat="45.98121" lon="6.50358">
        <ele>1819.2</ele>
        <time>2021-03-23T13:00:12Z</time>
      </trkpt>
      <trkpt lat="45.98123" lon="6.50341">
        <ele>1815.2</ele>
        <time>2021-03-23T13:00:17Z</time>
      </trkpt>
      <trkpt lat="45.98125" lon="6.50316">
        <ele>1812.2</ele>
        <time>2021-03-23T13:00:19Z</time>
      </trkpt>
      <trkpt lat="45.98136" lon="6.50299">
        <ele>1810.2</ele>
        <time>2021-03-23T13:00:21Z</time>
      </trkpt>
      <trkpt lat="45.98149" lon="6.50293">
        <ele>1808</ele>
        <time>2021-03-23T13:00:23Z</time>
      </trkpt>
      <trkpt lat="45.98154" lon="6.50287">
        <ele>1806</ele>
        <time>2021-03-23T13:00:25Z</time>
      </trkpt>
      <trkpt lat="45.98154" lon="6.5029">
        <ele>1802</ele>
        <time>2021-03-23T13:00:28Z</time>
      </trkpt>
      <trkpt lat="45.98152" lon="6.50292">
        <ele>1800.2</ele>
        <time>2021-03-23T13:00:32Z</time>
      </trkpt>
      <trkpt lat="45.98153" lon="6.50294">
        <ele>1796.8</ele>
        <time>2021-03-23T13:00:37Z</time>
      </trkpt>
      <trkpt lat="45.98155" lon="6.50296">
        <ele>1793.8</ele>
        <time>2021-03-23T13:00:42Z</time>
      </trkpt>
      <trkpt lat="45.98155" lon="6.50298">
        <ele>1791.4</ele>
        <time>2021-03-23T13:00:57Z</time>
      </trkpt>
      <trkpt lat="45.98156" lon="6.50295">
        <ele>1789.2</ele>
        <time>2021-03-23T13:02:06Z</time>
      </trkpt>
      <trkpt lat="45.98158" lon="6.50294">
        <ele>1789</ele>
        <time>2021-03-23T13:02:08Z</time>
      </trkpt>
      <trkpt lat="45.9816" lon="6.50292">
        <ele>1788.6</ele>
        <time>2021-03-23T13:02:10Z</time>
      </trkpt>
      <trkpt lat="45.98163" lon="6.5029">
        <ele>1788.4</ele>
        <time>2021-03-23T13:02:12Z</time>
      </trkpt>
      <trkpt lat="45.98164" lon="6.50287">
        <ele>1788</ele>
        <time>2021-03-23T13:02:13Z</time>
      </trkpt>
      <trkpt lat="45.98166" lon="6.50283">
        <ele>1787.6</ele>
        <time>2021-03-23T13:02:14Z</time>
      </trkpt>
      <trkpt lat="45.9817" lon="6.50279">
        <ele>1787</ele>
        <time>2021-03-23T13:02:15Z</time>
      </trkpt>
      <trkpt lat="45.98175" lon="6.50277">
        <ele>1786.6</ele>
        <time>2021-03-23T13:02:16Z</time>
      </trkpt>
      <trkpt lat="45.9818" lon="6.50278">
        <ele>1786.2</ele>
        <time>2021-03-23T13:02:17Z</time>
      </trkpt>
      <trkpt lat="45.98184" lon="6.50283">
        <ele>1785.6</ele>
        <time>2021-03-23T13:02:18Z</time>
      </trkpt>
      <trkpt lat="45.98189" lon="6.50288">
        <ele>1785</ele>
        <time>2021-03-23T13:02:19Z</time>
      </trkpt>
      <trkpt lat="45.98194" lon="6.50294">
        <ele>1784.6</ele>
        <time>2021-03-23T13:02:20Z</time>
      </trkpt>
      <trkpt lat="45.98199" lon="6.50299">
        <ele>1784.4</ele>
        <time>2021-03-23T13:02:21Z</time>
      </trkpt>
      <trkpt lat="45.98202" lon="6.503">
        <ele>1784.2</ele>
        <time>2021-03-23T13:02:22Z</time>
      </trkpt>
      <trkpt lat="45.98203" lon="6.50296">
        <ele>1783.8</ele>
        <time>2021-03-23T13:02:23Z</time>
      </trkpt>
      <trkpt lat="45.98202" lon="6.50294">
        <ele>1782.6</ele>
        <time>2021-03-23T13:02:28Z</time>
      </trkpt>
      <trkpt lat="45.98202" lon="6.50292">
        <ele>1781.4</ele>
        <time>2021-03-23T13:02:32Z</time>
      </trkpt>
      <trkpt lat="45.98203" lon="6.50288">
        <ele>1778.8</ele>
        <time>2021-03-23T13:03:10Z</time>
      </trkpt>
      <trkpt lat="45.98204" lon="6.50286">
        <ele>1778.4</ele>
        <time>2021-03-23T13:03:11Z</time>
      </trkpt>
      <trkpt lat="45.98204" lon="6.50283">
        <ele>1777.8</ele>
        <time>2021-03-23T13:03:12Z</time>
      </trkpt>
      <trkpt lat="45.98205" lon="6.5028">
        <ele>1777.2</ele>
        <time>2021-03-23T13:03:14Z</time>
      </trkpt>
      <trkpt lat="45.98205" lon="6.50275">
        <ele>1775.6</ele>
        <time>2021-03-23T13:03:51Z</time>
      </trkpt>
      <trkpt lat="45.98206" lon="6.50271">
        <ele>1774.2</ele>
        <time>2021-03-23T13:04:12Z</time>
      </trkpt>
      <trkpt lat="45.98207" lon="6.50268">
        <ele>1774</ele>
        <time>2021-03-23T13:04:13Z</time>
      </trkpt>
      <trkpt lat="45.98209" lon="6.50262">
        <ele>1774</ele>
        <time>2021-03-23T13:04:14Z</time>
      </trkpt>
      <trkpt lat="45.98211" lon="6.50255">
        <ele>1774</ele>
        <time>2021-03-23T13:04:15Z</time>
      </trkpt>
      <trkpt lat="45.98213" lon="6.50249">
        <ele>1774</ele>
        <time>2021-03-23T13:04:16Z</time>
      </trkpt>
      <trkpt lat="45.98214" lon="6.50243">
        <ele>1774</ele>
        <time>2021-03-23T13:04:17Z</time>
      </trkpt>
      <trkpt lat="45.98214" lon="6.5024">
        <ele>1774</ele>
        <time>2021-03-23T13:04:18Z</time>
      </trkpt>
      <trkpt lat="45.98216" lon="6.50236">
        <ele>1774</ele>
        <time>2021-03-23T13:04:20Z</time>
      </trkpt>
      <trkpt lat="45.98217" lon="6.50233">
        <ele>1774</ele>
        <time>2021-03-23T13:04:21Z</time>
      </trkpt>
      <trkpt lat="45.98217" lon="6.50231">
        <ele>1774</ele>
        <time>2021-03-23T13:04:22Z</time>
      </trkpt>
      <trkpt lat="45.98217" lon="6.50227">
        <ele>1773.8</ele>
        <time>2021-03-23T13:04:24Z</time>
      </trkpt>
      <trkpt lat="45.98219" lon="6.50223">
        <ele>1772.8</ele>
        <time>2021-03-23T13:04:32Z</time>
      </trkpt>
      <trkpt lat="45.9822" lon="6.5022">
        <ele>1772.8</ele>
        <time>2021-03-23T13:04:33Z</time>
      </trkpt>
      <trkpt lat="45.98221" lon="6.50215">
        <ele>1772.6</ele>
        <time>2021-03-23T13:04:34Z</time>
      </trkpt>
      <trkpt lat="45.98222" lon="6.50211">
        <ele>1772.4</ele>
        <time>2021-03-23T13:04:35Z</time>
      </trkpt>
      <trkpt lat="45.98223" lon="6.50206">
        <ele>1772.4</ele>
        <time>2021-03-23T13:04:36Z</time>
      </trkpt>
      <trkpt lat="45.98224" lon="6.50202">
        <ele>1772.4</ele>
        <time>2021-03-23T13:04:37Z</time>
      </trkpt>
      <trkpt lat="45.98225" lon="6.50199">
        <ele>1772.4</ele>
        <time>2021-03-23T13:04:38Z</time>
      </trkpt>
      <trkpt lat="45.98226" lon="6.50196">
        <ele>1772.2</ele>
        <time>2021-03-23T13:04:40Z</time>
      </trkpt>
      <trkpt lat="45.98227" lon="6.50192">
        <ele>1772</ele>
        <time>2021-03-23T13:04:43Z</time>
      </trkpt>
      <trkpt lat="45.98228" lon="6.50188">
        <ele>1772.2</ele>
        <time>2021-03-23T13:04:45Z</time>
      </trkpt>
      <trkpt lat="45.9823" lon="6.50185">
        <ele>1771.6</ele>
        <time>2021-03-23T13:04:49Z</time>
      </trkpt>
      <trkpt lat="45.98231" lon="6.50182">
        <ele>1771.6</ele>
        <time>2021-03-23T13:04:50Z</time>
      </trkpt>
      <trkpt lat="45.98232" lon="6.50179">
        <ele>1771.6</ele>
        <time>2021-03-23T13:04:51Z</time>
      </trkpt>
      <trkpt lat="45.98233" lon="6.50175">
        <ele>1771.6</ele>
        <time>2021-03-23T13:04:52Z</time>
      </trkpt>
      <trkpt lat="45.98235" lon="6.50171">
        <ele>1771.6</ele>
        <time>2021-03-23T13:04:53Z</time>
      </trkpt>
      <trkpt lat="45.98236" lon="6.50167">
        <ele>1771.2</ele>
        <time>2021-03-23T13:04:54Z</time>
      </trkpt>
      <trkpt lat="45.98237" lon="6.50162">
        <ele>1771.2</ele>
        <time>2021-03-23T13:04:55Z</time>
      </trkpt>
      <trkpt lat="45.98239" lon="6.50161">
        <ele>1770.2</ele>
        <time>2021-03-23T13:04:56Z</time>
      </trkpt>
      <trkpt lat="45.98247" lon="6.50171">
        <ele>1768</ele>
        <time>2021-03-23T13:04:58Z</time>
      </trkpt>
      <trkpt lat="45.98252" lon="6.50178">
        <ele>1766.6</ele>
        <time>2021-03-23T13:05:01Z</time>
      </trkpt>
      <trkpt lat="45.98254" lon="6.50181">
        <ele>1766.2</ele>
        <time>2021-03-23T13:05:02Z</time>
      </trkpt>
      <trkpt lat="45.98259" lon="6.50197">
        <ele>1764.8</ele>
        <time>2021-03-23T13:05:05Z</time>
      </trkpt>
      <trkpt lat="45.98271" lon="6.502">
        <ele>1764</ele>
        <time>2021-03-23T13:05:08Z</time>
      </trkpt>
      <trkpt lat="45.98281" lon="6.50203">
        <ele>1763.2</ele>
        <time>2021-03-23T13:05:10Z</time>
      </trkpt>
      <trkpt lat="45.98288" lon="6.50216">
        <ele>1762.4</ele>
        <time>2021-03-23T13:05:12Z</time>
      </trkpt>
      <trkpt lat="45.98297" lon="6.50201">
        <ele>1760.8</ele>
        <time>2021-03-23T13:05:15Z</time>
      </trkpt>
      <trkpt lat="45.98299" lon="6.50182">
        <ele>1759.2</ele>
        <time>2021-03-23T13:05:17Z</time>
      </trkpt>
      <trkpt lat="45.98301" lon="6.50169">
        <ele>1758.4</ele>
        <time>2021-03-23T13:05:19Z</time>
      </trkpt>
      <trkpt lat="45.9831" lon="6.50155">
        <ele>1757.8</ele>
        <time>2021-03-23T13:05:21Z</time>
      </trkpt>
      <trkpt lat="45.98313" lon="6.50143">
        <ele>1756.8</ele>
        <time>2021-03-23T13:05:23Z</time>
      </trkpt>
      <trkpt lat="45.98314" lon="6.50128">
        <ele>1756</ele>
        <time>2021-03-23T13:05:26Z</time>
      </trkpt>
      <trkpt lat="45.98325" lon="6.50121">
        <ele>1753.4</ele>
        <time>2021-03-23T13:05:29Z</time>
      </trkpt>
      <trkpt lat="45.98338" lon="6.50115">
        <ele>1752</ele>
        <time>2021-03-23T13:05:31Z</time>
      </trkpt>
      <trkpt lat="45.98348" lon="6.501">
        <ele>1749.4</ele>
        <time>2021-03-23T13:05:33Z</time>
      </trkpt>
      <trkpt lat="45.98362" lon="6.50097">
        <ele>1747.2</ele>
        <time>2021-03-23T13:05:35Z</time>
      </trkpt>
      <trkpt lat="45.98378" lon="6.50105">
        <ele>1744.4</ele>
        <time>2021-03-23T13:05:37Z</time>
      </trkpt>
      <trkpt lat="45.98393" lon="6.50102">
        <ele>1743.8</ele>
        <time>2021-03-23T13:05:39Z</time>
      </trkpt>
      <trkpt lat="45.984" lon="6.50086">
        <ele>1743.4</ele>
        <time>2021-03-23T13:05:41Z</time>
      </trkpt>
      <trkpt lat="45.98403" lon="6.50072">
        <ele>1743</ele>
        <time>2021-03-23T13:05:43Z</time>
      </trkpt>
      <trkpt lat="45.98396" lon="6.50061">
        <ele>1739.4</ele>
        <time>2021-03-23T13:05:50Z</time>
      </trkpt>
      <trkpt lat="45.98387" lon="6.50065">
        <ele>1721.6</ele>
        <time>2021-03-23T13:06:09Z</time>
      </trkpt>
      <trkpt lat="45.98377" lon="6.50063">
        <ele>1715.8</ele>
        <time>2021-03-23T13:06:17Z</time>
      </trkpt>
      <trkpt lat="45.98384" lon="6.50055">
        <ele>1708.8</ele>
        <time>2021-03-23T13:06:34Z</time>
      </trkpt>
      <trkpt lat="45.98375" lon="6.50052">
        <ele>1689</ele>
        <time>2021-03-23T13:07:48Z</time>
      </trkpt>
      <trkpt lat="45.98373" lon="6.50051">
        <ele>1681.4</ele>
        <time>2021-03-23T13:08:59Z</time>
      </trkpt>
      <trkpt lat="45.98375" lon="6.50051">
        <ele>1682</ele>
        <time>2021-03-23T13:09:23Z</time>
      </trkpt>
      <trkpt lat="45.98374" lon="6.50055">
        <ele>1681</ele>
        <time>2021-03-23T13:09:45Z</time>
      </trkpt>
      <trkpt lat="45.98371" lon="6.50054">
        <ele>1677.6</ele>
        <time>2021-03-23T13:11:05Z</time>
      </trkpt>
      <trkpt lat="45.98371" lon="6.50058">
        <ele>1676.4</ele>
        <time>2021-03-23T13:11:14Z</time>
      </trkpt>
      <trkpt lat="45.98373" lon="6.50054">
        <ele>1674.4</ele>
        <time>2021-03-23T13:11:51Z</time>
      </trkpt>
      <trkpt lat="45.98373" lon="6.50046">
        <ele>1678.4</ele>
        <time>2021-03-23T13:12:23Z</time>
      </trkpt>
      <trkpt lat="45.9837" lon="6.50059">
        <ele>1678.2</ele>
        <time>2021-03-23T13:16:30Z</time>
      </trkpt>
      <trkpt lat="45.98368" lon="6.50046">
        <ele>1676.6</ele>
        <time>2021-03-23T13:16:55Z</time>
      </trkpt>
      <trkpt lat="45.98368" lon="6.50032">
        <ele>1678</ele>
        <time>2021-03-23T13:17:31Z</time>
      </trkpt>
      <trkpt lat="45.98372" lon="6.5002">
        <ele>1678.4</ele>
        <time>2021-03-23T13:17:39Z</time>
      </trkpt>
      <trkpt lat="45.9837" lon="6.50007">
        <ele>1677.2</ele>
        <time>2021-03-23T13:17:55Z</time>
      </trkpt>
      <trkpt lat="45.98371" lon="6.49994">
        <ele>1677.8</ele>
        <time>2021-03-23T13:18:04Z</time>
      </trkpt>
      <trkpt lat="45.98369" lon="6.49981">
        <ele>1678</ele>
        <time>2021-03-23T13:18:20Z</time>
      </trkpt>
      <trkpt lat="45.98371" lon="6.49968">
        <ele>1680.4</ele>
        <time>2021-03-23T13:18:39Z</time>
      </trkpt>
      <trkpt lat="45.98372" lon="6.49954">
        <ele>1683</ele>
        <time>2021-03-23T13:18:55Z</time>
      </trkpt>
      <trkpt lat="45.98378" lon="6.49944">
        <ele>1686.2</ele>
        <time>2021-03-23T13:19:10Z</time>
      </trkpt>
      <trkpt lat="45.98376" lon="6.49931">
        <ele>1686.8</ele>
        <time>2021-03-23T13:19:25Z</time>
      </trkpt>
      <trkpt lat="45.98381" lon="6.49919">
        <ele>1688.8</ele>
        <time>2021-03-23T13:19:41Z</time>
      </trkpt>
      <trkpt lat="45.98387" lon="6.49907">
        <ele>1691.2</ele>
        <time>2021-03-23T13:20:03Z</time>
      </trkpt>
      <trkpt lat="45.98391" lon="6.49895">
        <ele>1691.4</ele>
        <time>2021-03-23T13:20:15Z</time>
      </trkpt>
      <trkpt lat="45.98395" lon="6.49882">
        <ele>1690.4</ele>
        <time>2021-03-23T13:20:29Z</time>
      </trkpt>
      <trkpt lat="45.98397" lon="6.49868">
        <ele>1691</ele>
        <time>2021-03-23T13:20:43Z</time>
      </trkpt>
      <trkpt lat="45.98397" lon="6.49854">
        <ele>1692</ele>
        <time>2021-03-23T13:20:53Z</time>
      </trkpt>
      <trkpt lat="45.98402" lon="6.49841">
        <ele>1695</ele>
        <time>2021-03-23T13:21:08Z</time>
      </trkpt>
      <trkpt lat="45.98406" lon="6.49829">
        <ele>1695.8</ele>
        <time>2021-03-23T13:21:18Z</time>
      </trkpt>
      <trkpt lat="45.9841" lon="6.49816">
        <ele>1697.4</ele>
        <time>2021-03-23T13:21:32Z</time>
      </trkpt>
      <trkpt lat="45.98414" lon="6.49804">
        <ele>1699.6</ele>
        <time>2021-03-23T13:21:42Z</time>
      </trkpt>
      <trkpt lat="45.98419" lon="6.49793">
        <ele>1702.8</ele>
        <time>2021-03-23T13:21:59Z</time>
      </trkpt>
      <trkpt lat="45.98426" lon="6.49784">
        <ele>1704.2</ele>
        <time>2021-03-23T13:22:12Z</time>
      </trkpt>
      <trkpt lat="45.98423" lon="6.49771">
        <ele>1705.4</ele>
        <time>2021-03-23T13:22:27Z</time>
      </trkpt>
      <trkpt lat="45.98422" lon="6.49758">
        <ele>1710.2</ele>
        <time>2021-03-23T13:22:52Z</time>
      </trkpt>
      <trkpt lat="45.98424" lon="6.49745">
        <ele>1713.4</ele>
        <time>2021-03-23T13:23:07Z</time>
      </trkpt>
      <trkpt lat="45.98418" lon="6.49734">
        <ele>1716.2</ele>
        <time>2021-03-23T13:23:26Z</time>
      </trkpt>
      <trkpt lat="45.98418" lon="6.4972">
        <ele>1719.8</ele>
        <time>2021-03-23T13:23:42Z</time>
      </trkpt>
      <trkpt lat="45.98417" lon="6.49705">
        <ele>1723.2</ele>
        <time>2021-03-23T13:24:04Z</time>
      </trkpt>
      <trkpt lat="45.98413" lon="6.49693">
        <ele>1725.4</ele>
        <time>2021-03-23T13:24:21Z</time>
      </trkpt>
      <trkpt lat="45.98414" lon="6.49688">
        <ele>1725.6</ele>
        <time>2021-03-23T13:24:25Z</time>
      </trkpt>
      <trkpt lat="45.98415" lon="6.49677">
        <ele>1726.2</ele>
        <time>2021-03-23T13:25:23Z</time>
      </trkpt>
      <trkpt lat="45.98414" lon="6.49674">
        <ele>1726.4</ele>
        <time>2021-03-23T13:25:28Z</time>
      </trkpt>
      <trkpt lat="45.98413" lon="6.49667">
        <ele>1727.2</ele>
        <time>2021-03-23T13:25:35Z</time>
      </trkpt>
      <trkpt lat="45.98413" lon="6.49664">
        <ele>1727.8</ele>
        <time>2021-03-23T13:25:38Z</time>
      </trkpt>
      <trkpt lat="45.98412" lon="6.4966">
        <ele>1729</ele>
        <time>2021-03-23T13:25:43Z</time>
      </trkpt>
      <trkpt lat="45.98412" lon="6.49656">
        <ele>1729.8</ele>
        <time>2021-03-23T13:25:47Z</time>
      </trkpt>
      <trkpt lat="45.98411" lon="6.49643">
        <ele>1731.8</ele>
        <time>2021-03-23T13:25:59Z</time>
      </trkpt>
      <trkpt lat="45.98412" lon="6.4963">
        <ele>1734.8</ele>
        <time>2021-03-23T13:26:21Z</time>
      </trkpt>
      <trkpt lat="45.98414" lon="6.49617">
        <ele>1736.8</ele>
        <time>2021-03-23T13:26:37Z</time>
      </trkpt>
      <trkpt lat="45.98414" lon="6.49604">
        <ele>1738</ele>
        <time>2021-03-23T13:26:51Z</time>
      </trkpt>
      <trkpt lat="45.9841" lon="6.49592">
        <ele>1740.2</ele>
        <time>2021-03-23T13:27:06Z</time>
      </trkpt>
      <trkpt lat="45.98407" lon="6.49579">
        <ele>1741.4</ele>
        <time>2021-03-23T13:27:20Z</time>
      </trkpt>
      <trkpt lat="45.98407" lon="6.49566">
        <ele>1743.4</ele>
        <time>2021-03-23T13:27:33Z</time>
      </trkpt>
      <trkpt lat="45.98406" lon="6.49553">
        <ele>1746.6</ele>
        <time>2021-03-23T13:27:50Z</time>
      </trkpt>
      <trkpt lat="45.98406" lon="6.4954">
        <ele>1748.8</ele>
        <time>2021-03-23T13:28:05Z</time>
      </trkpt>
      <trkpt lat="45.98408" lon="6.49527">
        <ele>1752.4</ele>
        <time>2021-03-23T13:28:19Z</time>
      </trkpt>
      <trkpt lat="45.9841" lon="6.49514">
        <ele>1756.4</ele>
        <time>2021-03-23T13:28:38Z</time>
      </trkpt>
      <trkpt lat="45.9841" lon="6.495">
        <ele>1758.8</ele>
        <time>2021-03-23T13:28:59Z</time>
      </trkpt>
      <trkpt lat="45.9841" lon="6.49487">
        <ele>1760</ele>
        <time>2021-03-23T13:29:18Z</time>
      </trkpt>
      <trkpt lat="45.98411" lon="6.49474">
        <ele>1761.4</ele>
        <time>2021-03-23T13:29:30Z</time>
      </trkpt>
      <trkpt lat="45.98409" lon="6.49461">
        <ele>1764.2</ele>
        <time>2021-03-23T13:29:46Z</time>
      </trkpt>
      <trkpt lat="45.9841" lon="6.49448">
        <ele>1766.4</ele>
        <time>2021-03-23T13:30:00Z</time>
      </trkpt>
      <trkpt lat="45.9841" lon="6.49443">
        <ele>1766.8</ele>
        <time>2021-03-23T13:30:07Z</time>
      </trkpt>
      <trkpt lat="45.98414" lon="6.49431">
        <ele>1768</ele>
        <time>2021-03-23T13:30:22Z</time>
      </trkpt>
      <trkpt lat="45.98414" lon="6.49417">
        <ele>1770.6</ele>
        <time>2021-03-23T13:30:36Z</time>
      </trkpt>
      <trkpt lat="45.98416" lon="6.49404">
        <ele>1772.6</ele>
        <time>2021-03-23T13:30:53Z</time>
      </trkpt>
      <trkpt lat="45.98415" lon="6.4939">
        <ele>1775.6</ele>
        <time>2021-03-23T13:31:11Z</time>
      </trkpt>
      <trkpt lat="45.98415" lon="6.49376">
        <ele>1778</ele>
        <time>2021-03-23T13:31:30Z</time>
      </trkpt>
      <trkpt lat="45.98415" lon="6.49363">
        <ele>1779.6</ele>
        <time>2021-03-23T13:31:44Z</time>
      </trkpt>
      <trkpt lat="45.98415" lon="6.4935">
        <ele>1780.2</ele>
        <time>2021-03-23T13:31:57Z</time>
      </trkpt>
      <trkpt lat="45.98417" lon="6.49337">
        <ele>1782.8</ele>
        <time>2021-03-23T13:32:15Z</time>
      </trkpt>
      <trkpt lat="45.98422" lon="6.49325">
        <ele>1785.8</ele>
        <time>2021-03-23T13:32:28Z</time>
      </trkpt>
      <trkpt lat="45.98421" lon="6.49312">
        <ele>1786.6</ele>
        <time>2021-03-23T13:32:44Z</time>
      </trkpt>
      <trkpt lat="45.98424" lon="6.49299">
        <ele>1788.8</ele>
        <time>2021-03-23T13:33:00Z</time>
      </trkpt>
      <trkpt lat="45.98427" lon="6.49286">
        <ele>1790</ele>
        <time>2021-03-23T13:33:14Z</time>
      </trkpt>
      <trkpt lat="45.9843" lon="6.49274">
        <ele>1790.8</ele>
        <time>2021-03-23T13:33:29Z</time>
      </trkpt>
      <trkpt lat="45.98435" lon="6.49262">
        <ele>1792</ele>
        <time>2021-03-23T13:33:40Z</time>
      </trkpt>
      <trkpt lat="45.98442" lon="6.49254">
        <ele>1794</ele>
        <time>2021-03-23T13:33:53Z</time>
      </trkpt>
      <trkpt lat="45.98448" lon="6.49244">
        <ele>1798.2</ele>
        <time>2021-03-23T13:34:10Z</time>
      </trkpt>
      <trkpt lat="45.98451" lon="6.49231">
        <ele>1799.4</ele>
        <time>2021-03-23T13:34:27Z</time>
      </trkpt>
      <trkpt lat="45.98455" lon="6.49218">
        <ele>1800</ele>
        <time>2021-03-23T13:34:42Z</time>
      </trkpt>
      <trkpt lat="45.98457" lon="6.49205">
        <ele>1802.2</ele>
        <time>2021-03-23T13:34:57Z</time>
      </trkpt>
      <trkpt lat="45.98456" lon="6.49192">
        <ele>1803.6</ele>
        <time>2021-03-23T13:35:31Z</time>
      </trkpt>
      <trkpt lat="45.98458" lon="6.49178">
        <ele>1803.8</ele>
        <time>2021-03-23T13:35:42Z</time>
      </trkpt>
      <trkpt lat="45.98462" lon="6.49165">
        <ele>1803.6</ele>
        <time>2021-03-23T13:35:50Z</time>
      </trkpt>
      <trkpt lat="45.98463" lon="6.49152">
        <ele>1804</ele>
        <time>2021-03-23T13:35:59Z</time>
      </trkpt>
      <trkpt lat="45.98461" lon="6.49139">
        <ele>1805.6</ele>
        <time>2021-03-23T13:36:16Z</time>
      </trkpt>
      <trkpt lat="45.98458" lon="6.49126">
        <ele>1805.4</ele>
        <time>2021-03-23T13:36:27Z</time>
      </trkpt>
      <trkpt lat="45.98453" lon="6.49114">
        <ele>1804.6</ele>
        <time>2021-03-23T13:36:39Z</time>
      </trkpt>
      <trkpt lat="45.98456" lon="6.49102">
        <ele>1805</ele>
        <time>2021-03-23T13:36:53Z</time>
      </trkpt>
      <trkpt lat="45.98461" lon="6.49089">
        <ele>1806.4</ele>
        <time>2021-03-23T13:37:11Z</time>
      </trkpt>
      <trkpt lat="45.98461" lon="6.49076">
        <ele>1808.2</ele>
        <time>2021-03-23T13:38:00Z</time>
      </trkpt>
      <trkpt lat="45.98461" lon="6.49063">
        <ele>1811.4</ele>
        <time>2021-03-23T13:38:43Z</time>
      </trkpt>
      <trkpt lat="45.98463" lon="6.49057">
        <ele>1814.4</ele>
        <time>2021-03-23T13:39:14Z</time>
      </trkpt>
      <trkpt lat="45.98461" lon="6.49056">
        <ele>1814</ele>
        <time>2021-03-23T13:40:34Z</time>
      </trkpt>
      <trkpt lat="45.98457" lon="6.49053">
        <ele>1812.4</ele>
        <time>2021-03-23T13:42:28Z</time>
      </trkpt>
      <trkpt lat="45.98459" lon="6.49055">
        <ele>1812.6</ele>
        <time>2021-03-23T13:43:12Z</time>
      </trkpt>
      <trkpt lat="45.98461" lon="6.49055">
        <ele>1812.6</ele>
        <time>2021-03-23T13:44:52Z</time>
      </trkpt>
      <trkpt lat="45.98459" lon="6.49055">
        <ele>1813.6</ele>
        <time>2021-03-23T13:49:41Z</time>
      </trkpt>
      <trkpt lat="45.98461" lon="6.49054">
        <ele>1812.2</ele>
        <time>2021-03-23T13:51:15Z</time>
      </trkpt>
      <trkpt lat="45.98459" lon="6.49056">
        <ele>1813.2</ele>
        <time>2021-03-23T13:55:59Z</time>
      </trkpt>
      <trkpt lat="45.98461" lon="6.49054">
        <ele>1813</ele>
        <time>2021-03-23T13:56:51Z</time>
      </trkpt>
      <trkpt lat="45.98462" lon="6.49057">
        <ele>1814.2</ele>
        <time>2021-03-23T13:57:12Z</time>
      </trkpt>
      <trkpt lat="45.98461" lon="6.49055">
        <ele>1814.8</ele>
        <time>2021-03-23T13:58:23Z</time>
      </trkpt>
      <trkpt lat="45.98462" lon="6.49058">
        <ele>1814.2</ele>
        <time>2021-03-23T14:00:44Z</time>
      </trkpt>
      <trkpt lat="45.98463" lon="6.49057">
        <ele>1813.6</ele>
        <time>2021-03-23T14:02:03Z</time>
      </trkpt>
      <trkpt lat="45.98463" lon="6.49054">
        <ele>1814</ele>
        <time>2021-03-23T14:02:22Z</time>
      </trkpt>
      <trkpt lat="45.98464" lon="6.49058">
        <ele>1813.8</ele>
        <time>2021-03-23T14:02:24Z</time>
      </trkpt>
      <trkpt lat="45.98463" lon="6.49056">
        <ele>1814.4</ele>
        <time>2021-03-23T14:02:39Z</time>
      </trkpt>
      <trkpt lat="45.98462" lon="6.49054">
        <ele>1814</ele>
        <time>2021-03-23T14:03:31Z</time>
      </trkpt>
      <trkpt lat="45.9846" lon="6.49053">
        <ele>1814.4</ele>
        <time>2021-03-23T14:03:43Z</time>
      </trkpt>
      <trkpt lat="45.98462" lon="6.49055">
        <ele>1814.8</ele>
        <time>2021-03-23T14:05:42Z</time>
      </trkpt>
      <trkpt lat="45.98459" lon="6.49044">
        <ele>1814.2</ele>
        <time>2021-03-23T14:06:07Z</time>
      </trkpt>
      <trkpt lat="45.9846" lon="6.49042">
        <ele>1813.8</ele>
        <time>2021-03-23T14:06:08Z</time>
      </trkpt>
      <trkpt lat="45.98464" lon="6.49039">
        <ele>1813.4</ele>
        <time>2021-03-23T14:06:09Z</time>
      </trkpt>
      <trkpt lat="45.98467" lon="6.49038">
        <ele>1813</ele>
        <time>2021-03-23T14:06:10Z</time>
      </trkpt>
      <trkpt lat="45.98477" lon="6.49038">
        <ele>1812.4</ele>
        <time>2021-03-23T14:06:15Z</time>
      </trkpt>
      <trkpt lat="45.98488" lon="6.49041">
        <ele>1812</ele>
        <time>2021-03-23T14:06:46Z</time>
      </trkpt>
      <trkpt lat="45.9849" lon="6.49043">
        <ele>1811.6</ele>
        <time>2021-03-23T14:06:49Z</time>
      </trkpt>
      <trkpt lat="45.98499" lon="6.49045">
        <ele>1810.6</ele>
        <time>2021-03-23T14:07:03Z</time>
      </trkpt>
      <trkpt lat="45.98499" lon="6.49032">
        <ele>1809.4</ele>
        <time>2021-03-23T14:07:08Z</time>
      </trkpt>
      <trkpt lat="45.98506" lon="6.49021">
        <ele>1808.2</ele>
        <time>2021-03-23T14:07:14Z</time>
      </trkpt>
      <trkpt lat="45.98516" lon="6.49017">
        <ele>1807.8</ele>
        <time>2021-03-23T14:07:16Z</time>
      </trkpt>
      <trkpt lat="45.98528" lon="6.49001">
        <ele>1807</ele>
        <time>2021-03-23T14:07:19Z</time>
      </trkpt>
      <trkpt lat="45.98538" lon="6.48986">
        <ele>1806.6</ele>
        <time>2021-03-23T14:07:21Z</time>
      </trkpt>
      <trkpt lat="45.98554" lon="6.4896">
        <ele>1805.6</ele>
        <time>2021-03-23T14:07:24Z</time>
      </trkpt>
      <trkpt lat="45.98569" lon="6.48967">
        <ele>1794</ele>
        <time>2021-03-23T14:07:54Z</time>
      </trkpt>
      <trkpt lat="45.98585" lon="6.48967">
        <ele>1793.2</ele>
        <time>2021-03-23T14:07:56Z</time>
      </trkpt>
      <trkpt lat="45.98595" lon="6.48953">
        <ele>1792.6</ele>
        <time>2021-03-23T14:07:58Z</time>
      </trkpt>
      <trkpt lat="45.986" lon="6.48936">
        <ele>1780</ele>
        <time>2021-03-23T14:08:14Z</time>
      </trkpt>
      <trkpt lat="45.98609" lon="6.48923">
        <ele>1779.6</ele>
        <time>2021-03-23T14:08:17Z</time>
      </trkpt>
      <trkpt lat="45.98617" lon="6.48914">
        <ele>1779</ele>
        <time>2021-03-23T14:08:20Z</time>
      </trkpt>
      <trkpt lat="45.98631" lon="6.48914">
        <ele>1777.6</ele>
        <time>2021-03-23T14:08:23Z</time>
      </trkpt>
      <trkpt lat="45.98642" lon="6.48919">
        <ele>1776.2</ele>
        <time>2021-03-23T14:08:25Z</time>
      </trkpt>
      <trkpt lat="45.98649" lon="6.48932">
        <ele>1774.8</ele>
        <time>2021-03-23T14:08:27Z</time>
      </trkpt>
      <trkpt lat="45.98655" lon="6.48946">
        <ele>1772.2</ele>
        <time>2021-03-23T14:08:29Z</time>
      </trkpt>
      <trkpt lat="45.98664" lon="6.4895">
        <ele>1770.8</ele>
        <time>2021-03-23T14:08:31Z</time>
      </trkpt>
      <trkpt lat="45.98654" lon="6.48951">
        <ele>1763</ele>
        <time>2021-03-23T14:08:44Z</time>
      </trkpt>
      <trkpt lat="45.98655" lon="6.48938">
        <ele>1757.4</ele>
        <time>2021-03-23T14:08:52Z</time>
      </trkpt>
      <trkpt lat="45.98665" lon="6.48925">
        <ele>1756</ele>
        <time>2021-03-23T14:08:55Z</time>
      </trkpt>
      <trkpt lat="45.98673" lon="6.48936">
        <ele>1753.2</ele>
        <time>2021-03-23T14:08:57Z</time>
      </trkpt>
      <trkpt lat="45.9868" lon="6.48951">
        <ele>1750</ele>
        <time>2021-03-23T14:08:59Z</time>
      </trkpt>
      <trkpt lat="45.9869" lon="6.48956">
        <ele>1746.8</ele>
        <time>2021-03-23T14:09:01Z</time>
      </trkpt>
      <trkpt lat="45.98696" lon="6.4894">
        <ele>1745</ele>
        <time>2021-03-23T14:09:03Z</time>
      </trkpt>
      <trkpt lat="45.98704" lon="6.48924">
        <ele>1743.8</ele>
        <time>2021-03-23T14:09:05Z</time>
      </trkpt>
      <trkpt lat="45.98711" lon="6.48913">
        <ele>1742.6</ele>
        <time>2021-03-23T14:09:07Z</time>
      </trkpt>
      <trkpt lat="45.9872" lon="6.48905">
        <ele>1741.2</ele>
        <time>2021-03-23T14:09:10Z</time>
      </trkpt>
      <trkpt lat="45.98729" lon="6.48897">
        <ele>1739.2</ele>
        <time>2021-03-23T14:09:13Z</time>
      </trkpt>
      <trkpt lat="45.98739" lon="6.4889">
        <ele>1737.4</ele>
        <time>2021-03-23T14:09:16Z</time>
      </trkpt>
      <trkpt lat="45.98749" lon="6.48879">
        <ele>1736.2</ele>
        <time>2021-03-23T14:09:18Z</time>
      </trkpt>
      <trkpt lat="45.98759" lon="6.48867">
        <ele>1734.2</ele>
        <time>2021-03-23T14:09:20Z</time>
      </trkpt>
      <trkpt lat="45.98768" lon="6.4886">
        <ele>1732</ele>
        <time>2021-03-23T14:09:22Z</time>
      </trkpt>
      <trkpt lat="45.98779" lon="6.48855">
        <ele>1728.6</ele>
        <time>2021-03-23T14:09:25Z</time>
      </trkpt>
      <trkpt lat="45.98787" lon="6.48848">
        <ele>1722.2</ele>
        <time>2021-03-23T14:09:29Z</time>
      </trkpt>
      <trkpt lat="45.98783" lon="6.48846">
        <ele>1718.2</ele>
        <time>2021-03-23T14:09:30Z</time>
      </trkpt>
      <trkpt lat="45.98787" lon="6.48844">
        <ele>1716.8</ele>
        <time>2021-03-23T14:09:31Z</time>
      </trkpt>
      <trkpt lat="45.98793" lon="6.48841">
        <ele>1715.6</ele>
        <time>2021-03-23T14:09:32Z</time>
      </trkpt>
      <trkpt lat="45.98797" lon="6.4884">
        <ele>1714.2</ele>
        <time>2021-03-23T14:09:33Z</time>
      </trkpt>
      <trkpt lat="45.98799" lon="6.48838">
        <ele>1712.4</ele>
        <time>2021-03-23T14:09:34Z</time>
      </trkpt>
      <trkpt lat="45.98801" lon="6.48837">
        <ele>1711.2</ele>
        <time>2021-03-23T14:09:35Z</time>
      </trkpt>
      <trkpt lat="45.98804" lon="6.48837">
        <ele>1710.2</ele>
        <time>2021-03-23T14:09:36Z</time>
      </trkpt>
      <trkpt lat="45.98808" lon="6.48835">
        <ele>1708.4</ele>
        <time>2021-03-23T14:09:38Z</time>
      </trkpt>
      <trkpt lat="45.9881" lon="6.48834">
        <ele>1707.8</ele>
        <time>2021-03-23T14:09:39Z</time>
      </trkpt>
      <trkpt lat="45.98812" lon="6.48834">
        <ele>1707.2</ele>
        <time>2021-03-23T14:09:40Z</time>
      </trkpt>
      <trkpt lat="45.98815" lon="6.48833">
        <ele>1706.6</ele>
        <time>2021-03-23T14:09:41Z</time>
      </trkpt>
      <trkpt lat="45.98817" lon="6.48832">
        <ele>1706</ele>
        <time>2021-03-23T14:09:42Z</time>
      </trkpt>
      <trkpt lat="45.9882" lon="6.48831">
        <ele>1705.6</ele>
        <time>2021-03-23T14:09:43Z</time>
      </trkpt>
      <trkpt lat="45.98823" lon="6.48829">
        <ele>1704.8</ele>
        <time>2021-03-23T14:09:45Z</time>
      </trkpt>
      <trkpt lat="45.98825" lon="6.48829">
        <ele>1704.2</ele>
        <time>2021-03-23T14:09:46Z</time>
      </trkpt>
      <trkpt lat="45.98827" lon="6.48828">
        <ele>1703.8</ele>
        <time>2021-03-23T14:09:47Z</time>
      </trkpt>
      <trkpt lat="45.98831" lon="6.48827">
        <ele>1703.4</ele>
        <time>2021-03-23T14:09:48Z</time>
      </trkpt>
      <trkpt lat="45.98834" lon="6.48827">
        <ele>1703</ele>
        <time>2021-03-23T14:09:49Z</time>
      </trkpt>
      <trkpt lat="45.98836" lon="6.48826">
        <ele>1702.6</ele>
        <time>2021-03-23T14:09:50Z</time>
      </trkpt>
      <trkpt lat="45.98838" lon="6.48826">
        <ele>1702.4</ele>
        <time>2021-03-23T14:09:51Z</time>
      </trkpt>
      <trkpt lat="45.98841" lon="6.48825">
        <ele>1702.2</ele>
        <time>2021-03-23T14:09:52Z</time>
      </trkpt>
      <trkpt lat="45.98843" lon="6.48825">
        <ele>1702</ele>
        <time>2021-03-23T14:09:53Z</time>
      </trkpt>
      <trkpt lat="45.98845" lon="6.48824">
        <ele>1701.8</ele>
        <time>2021-03-23T14:09:54Z</time>
      </trkpt>
      <trkpt lat="45.98847" lon="6.48824">
        <ele>1701.4</ele>
        <time>2021-03-23T14:09:55Z</time>
      </trkpt>
      <trkpt lat="45.98849" lon="6.48824">
        <ele>1701</ele>
        <time>2021-03-23T14:09:56Z</time>
      </trkpt>
      <trkpt lat="45.98853" lon="6.48822">
        <ele>1700.4</ele>
        <time>2021-03-23T14:09:58Z</time>
      </trkpt>
      <trkpt lat="45.98855" lon="6.48821">
        <ele>1700</ele>
        <time>2021-03-23T14:09:59Z</time>
      </trkpt>
      <trkpt lat="45.98858" lon="6.48821">
        <ele>1699.6</ele>
        <time>2021-03-23T14:10:00Z</time>
      </trkpt>
      <trkpt lat="45.98861" lon="6.48819">
        <ele>1699</ele>
        <time>2021-03-23T14:10:01Z</time>
      </trkpt>
      <trkpt lat="45.98864" lon="6.48818">
        <ele>1698.6</ele>
        <time>2021-03-23T14:10:02Z</time>
      </trkpt>
      <trkpt lat="45.98868" lon="6.48816">
        <ele>1698.2</ele>
        <time>2021-03-23T14:10:03Z</time>
      </trkpt>
      <trkpt lat="45.98871" lon="6.48813">
        <ele>1697.6</ele>
        <time>2021-03-23T14:10:04Z</time>
      </trkpt>
      <trkpt lat="45.98875" lon="6.48809">
        <ele>1697.4</ele>
        <time>2021-03-23T14:10:05Z</time>
      </trkpt>
      <trkpt lat="45.98878" lon="6.48804">
        <ele>1697</ele>
        <time>2021-03-23T14:10:06Z</time>
      </trkpt>
      <trkpt lat="45.98881" lon="6.48799">
        <ele>1696.6</ele>
        <time>2021-03-23T14:10:07Z</time>
      </trkpt>
      <trkpt lat="45.98884" lon="6.48792">
        <ele>1696</ele>
        <time>2021-03-23T14:10:08Z</time>
      </trkpt>
      <trkpt lat="45.98886" lon="6.48786">
        <ele>1695.6</ele>
        <time>2021-03-23T14:10:09Z</time>
      </trkpt>
      <trkpt lat="45.98889" lon="6.48781">
        <ele>1695.2</ele>
        <time>2021-03-23T14:10:10Z</time>
      </trkpt>
      <trkpt lat="45.98892" lon="6.48776">
        <ele>1694.2</ele>
        <time>2021-03-23T14:10:11Z</time>
      </trkpt>
      <trkpt lat="45.98895" lon="6.48771">
        <ele>1693.8</ele>
        <time>2021-03-23T14:10:12Z</time>
      </trkpt>
      <trkpt lat="45.98899" lon="6.48767">
        <ele>1693.4</ele>
        <time>2021-03-23T14:10:13Z</time>
      </trkpt>
      <trkpt lat="45.98903" lon="6.48763">
        <ele>1693</ele>
        <time>2021-03-23T14:10:14Z</time>
      </trkpt>
      <trkpt lat="45.98907" lon="6.4876">
        <ele>1692.6</ele>
        <time>2021-03-23T14:10:15Z</time>
      </trkpt>
      <trkpt lat="45.98911" lon="6.48757">
        <ele>1692.2</ele>
        <time>2021-03-23T14:10:16Z</time>
      </trkpt>
      <trkpt lat="45.98914" lon="6.48754">
        <ele>1691.8</ele>
        <time>2021-03-23T14:10:17Z</time>
      </trkpt>
      <trkpt lat="45.98918" lon="6.48753">
        <ele>1691.6</ele>
        <time>2021-03-23T14:10:18Z</time>
      </trkpt>
      <trkpt lat="45.98921" lon="6.48752">
        <ele>1691.2</ele>
        <time>2021-03-23T14:10:19Z</time>
      </trkpt>
      <trkpt lat="45.98925" lon="6.48751">
        <ele>1691</ele>
        <time>2021-03-23T14:10:20Z</time>
      </trkpt>
      <trkpt lat="45.9893" lon="6.48751">
        <ele>1690.4</ele>
        <time>2021-03-23T14:10:21Z</time>
      </trkpt>
      <trkpt lat="45.98936" lon="6.48752">
        <ele>1689.6</ele>
        <time>2021-03-23T14:10:22Z</time>
      </trkpt>
      <trkpt lat="45.98942" lon="6.48753">
        <ele>1689.2</ele>
        <time>2021-03-23T14:10:23Z</time>
      </trkpt>
      <trkpt lat="45.98948" lon="6.48755">
        <ele>1688.8</ele>
        <time>2021-03-23T14:10:24Z</time>
      </trkpt>
      <trkpt lat="45.98952" lon="6.48759">
        <ele>1688.4</ele>
        <time>2021-03-23T14:10:25Z</time>
      </trkpt>
      <trkpt lat="45.98955" lon="6.48763">
        <ele>1687.4</ele>
        <time>2021-03-23T14:10:26Z</time>
      </trkpt>
      <trkpt lat="45.98958" lon="6.48768">
        <ele>1686.6</ele>
        <time>2021-03-23T14:10:27Z</time>
      </trkpt>
      <trkpt lat="45.98962" lon="6.48772">
        <ele>1686</ele>
        <time>2021-03-23T14:10:28Z</time>
      </trkpt>
      <trkpt lat="45.98965" lon="6.48775">
        <ele>1685.8</ele>
        <time>2021-03-23T14:10:29Z</time>
      </trkpt>
      <trkpt lat="45.98969" lon="6.48777">
        <ele>1685.6</ele>
        <time>2021-03-23T14:10:30Z</time>
      </trkpt>
      <trkpt lat="45.98972" lon="6.48777">
        <ele>1685.6</ele>
        <time>2021-03-23T14:10:31Z</time>
      </trkpt>
      <trkpt lat="45.98973" lon="6.48778">
        <ele>1683</ele>
        <time>2021-03-23T14:11:26Z</time>
      </trkpt>
      <trkpt lat="45.98977" lon="6.48778">
        <ele>1683</ele>
        <time>2021-03-23T14:11:28Z</time>
      </trkpt>
      <trkpt lat="45.98979" lon="6.48777">
        <ele>1683</ele>
        <time>2021-03-23T14:11:30Z</time>
      </trkpt>
      <trkpt lat="45.9898" lon="6.48779">
        <ele>1681.4</ele>
        <time>2021-03-23T14:11:45Z</time>
      </trkpt>
      <trkpt lat="45.98982" lon="6.48778">
        <ele>1679.4</ele>
        <time>2021-03-23T14:12:10Z</time>
      </trkpt>
      <trkpt lat="45.98984" lon="6.48777">
        <ele>1679.2</ele>
        <time>2021-03-23T14:12:12Z</time>
      </trkpt>
      <trkpt lat="45.98987" lon="6.48775">
        <ele>1679.2</ele>
        <time>2021-03-23T14:12:14Z</time>
      </trkpt>
      <trkpt lat="45.98986" lon="6.48773">
        <ele>1679.4</ele>
        <time>2021-03-23T14:12:23Z</time>
      </trkpt>
      <trkpt lat="45.98989" lon="6.4877">
        <ele>1679</ele>
        <time>2021-03-23T14:12:40Z</time>
      </trkpt>
      <trkpt lat="45.98992" lon="6.48767">
        <ele>1678.8</ele>
        <time>2021-03-23T14:12:41Z</time>
      </trkpt>
      <trkpt lat="45.98997" lon="6.48763">
        <ele>1678.6</ele>
        <time>2021-03-23T14:12:42Z</time>
      </trkpt>
      <trkpt lat="45.99002" lon="6.4876">
        <ele>1678.6</ele>
        <time>2021-03-23T14:12:43Z</time>
      </trkpt>
      <trkpt lat="45.99006" lon="6.48757">
        <ele>1678.4</ele>
        <time>2021-03-23T14:12:44Z</time>
      </trkpt>
      <trkpt lat="45.9901" lon="6.48755">
        <ele>1678.2</ele>
        <time>2021-03-23T14:12:45Z</time>
      </trkpt>
      <trkpt lat="45.99013" lon="6.48754">
        <ele>1678</ele>
        <time>2021-03-23T14:12:46Z</time>
      </trkpt>
      <trkpt lat="45.99016" lon="6.48752">
        <ele>1677.8</ele>
        <time>2021-03-23T14:12:47Z</time>
      </trkpt>
      <trkpt lat="45.99018" lon="6.4875">
        <ele>1677.8</ele>
        <time>2021-03-23T14:12:48Z</time>
      </trkpt>
      <trkpt lat="45.9902" lon="6.48749">
        <ele>1677.8</ele>
        <time>2021-03-23T14:12:49Z</time>
      </trkpt>
      <trkpt lat="45.9902" lon="6.48746">
        <ele>1677.4</ele>
        <time>2021-03-23T14:12:52Z</time>
      </trkpt>
      <trkpt lat="45.99021" lon="6.48743">
        <ele>1676</ele>
        <time>2021-03-23T14:13:15Z</time>
      </trkpt>
      <trkpt lat="45.99022" lon="6.48741">
        <ele>1675.8</ele>
        <time>2021-03-23T14:13:18Z</time>
      </trkpt>
      <trkpt lat="45.99024" lon="6.48739">
        <ele>1675.6</ele>
        <time>2021-03-23T14:13:20Z</time>
      </trkpt>
      <trkpt lat="45.99027" lon="6.48735">
        <ele>1675.2</ele>
        <time>2021-03-23T14:13:21Z</time>
      </trkpt>
      <trkpt lat="45.99031" lon="6.48729">
        <ele>1675</ele>
        <time>2021-03-23T14:13:22Z</time>
      </trkpt>
      <trkpt lat="45.99035" lon="6.48717">
        <ele>1674.4</ele>
        <time>2021-03-23T14:13:25Z</time>
      </trkpt>
      <trkpt lat="45.99031" lon="6.48717">
        <ele>1672.8</ele>
        <time>2021-03-23T14:13:32Z</time>
      </trkpt>
      <trkpt lat="45.99039" lon="6.48707">
        <ele>1670</ele>
        <time>2021-03-23T14:13:49Z</time>
      </trkpt>
      <trkpt lat="45.99047" lon="6.48694">
        <ele>1669.2</ele>
        <time>2021-03-23T14:13:51Z</time>
      </trkpt>
      <trkpt lat="45.99051" lon="6.48687">
        <ele>1669</ele>
        <time>2021-03-23T14:13:52Z</time>
      </trkpt>
      <trkpt lat="45.99058" lon="6.48673">
        <ele>1668.4</ele>
        <time>2021-03-23T14:13:54Z</time>
      </trkpt>
      <trkpt lat="45.99067" lon="6.48656">
        <ele>1667.6</ele>
        <time>2021-03-23T14:13:56Z</time>
      </trkpt>
      <trkpt lat="45.99077" lon="6.48635">
        <ele>1666.2</ele>
        <time>2021-03-23T14:13:58Z</time>
      </trkpt>
      <trkpt lat="45.99084" lon="6.48625">
        <ele>1665</ele>
        <time>2021-03-23T14:13:59Z</time>
      </trkpt>
      <trkpt lat="45.99092" lon="6.48618">
        <ele>1664.4</ele>
        <time>2021-03-23T14:14:00Z</time>
      </trkpt>
      <trkpt lat="45.991" lon="6.48613">
        <ele>1663.6</ele>
        <time>2021-03-23T14:14:01Z</time>
      </trkpt>
      <trkpt lat="45.99109" lon="6.48608">
        <ele>1663</ele>
        <time>2021-03-23T14:14:02Z</time>
      </trkpt>
      <trkpt lat="45.9912" lon="6.48594">
        <ele>1661.6</ele>
        <time>2021-03-23T14:14:04Z</time>
      </trkpt>
      <trkpt lat="45.99127" lon="6.48582">
        <ele>1660.6</ele>
        <time>2021-03-23T14:14:06Z</time>
      </trkpt>
      <trkpt lat="45.99134" lon="6.48568">
        <ele>1657.8</ele>
        <time>2021-03-23T14:14:09Z</time>
      </trkpt>
      <trkpt lat="45.9914" lon="6.48557">
        <ele>1655</ele>
        <time>2021-03-23T14:14:12Z</time>
      </trkpt>
      <trkpt lat="45.99149" lon="6.48548">
        <ele>1652.6</ele>
        <time>2021-03-23T14:14:14Z</time>
      </trkpt>
      <trkpt lat="45.99161" lon="6.48536">
        <ele>1651</ele>
        <time>2021-03-23T14:14:16Z</time>
      </trkpt>
      <trkpt lat="45.99169" lon="6.48524">
        <ele>1649.8</ele>
        <time>2021-03-23T14:14:18Z</time>
      </trkpt>
      <trkpt lat="45.99163" lon="6.48526">
        <ele>1642</ele>
        <time>2021-03-23T14:14:28Z</time>
      </trkpt>
      <trkpt lat="45.99161" lon="6.48526">
        <ele>1639.8</ele>
        <time>2021-03-23T14:14:32Z</time>
      </trkpt>
      <trkpt lat="45.99159" lon="6.48526">
        <ele>1636.2</ele>
        <time>2021-03-23T14:14:49Z</time>
      </trkpt>
      <trkpt lat="45.99157" lon="6.48525">
        <ele>1634.2</ele>
        <time>2021-03-23T14:15:02Z</time>
      </trkpt>
      <trkpt lat="45.99157" lon="6.48522">
        <ele>1633.6</ele>
        <time>2021-03-23T14:15:10Z</time>
      </trkpt>
      <trkpt lat="45.99156" lon="6.4852">
        <ele>1632.8</ele>
        <time>2021-03-23T14:15:13Z</time>
      </trkpt>
      <trkpt lat="45.99154" lon="6.48518">
        <ele>1632.2</ele>
        <time>2021-03-23T14:15:15Z</time>
      </trkpt>
      <trkpt lat="45.99152" lon="6.48517">
        <ele>1631.8</ele>
        <time>2021-03-23T14:15:18Z</time>
      </trkpt>
      <trkpt lat="45.9915" lon="6.48515">
        <ele>1631.2</ele>
        <time>2021-03-23T14:15:22Z</time>
      </trkpt>
      <trkpt lat="45.99149" lon="6.48513">
        <ele>1630.6</ele>
        <time>2021-03-23T14:15:26Z</time>
      </trkpt>
      <trkpt lat="45.99146" lon="6.48509">
        <ele>1630</ele>
        <time>2021-03-23T14:15:32Z</time>
      </trkpt>
      <trkpt lat="45.99145" lon="6.48506">
        <ele>1630.4</ele>
        <time>2021-03-23T14:15:36Z</time>
      </trkpt>
      <trkpt lat="45.99143" lon="6.48505">
        <ele>1630.4</ele>
        <time>2021-03-23T14:15:41Z</time>
      </trkpt>
      <trkpt lat="45.99142" lon="6.48502">
        <ele>1630.4</ele>
        <time>2021-03-23T14:15:46Z</time>
      </trkpt>
      <trkpt lat="45.99141" lon="6.485">
        <ele>1629.8</ele>
        <time>2021-03-23T14:15:53Z</time>
      </trkpt>
      <trkpt lat="45.9914" lon="6.48498">
        <ele>1629.4</ele>
        <time>2021-03-23T14:16:03Z</time>
      </trkpt>
      <trkpt lat="45.99139" lon="6.48495">
        <ele>1629.6</ele>
        <time>2021-03-23T14:16:11Z</time>
      </trkpt>
      <trkpt lat="45.99138" lon="6.48494">
        <ele>1629.6</ele>
        <time>2021-03-23T14:16:15Z</time>
      </trkpt>
      <trkpt lat="45.99137" lon="6.48491">
        <ele>1629.2</ele>
        <time>2021-03-23T14:16:20Z</time>
      </trkpt>
      <trkpt lat="45.99137" lon="6.48488">
        <ele>1629.2</ele>
        <time>2021-03-23T14:16:23Z</time>
      </trkpt>
      <trkpt lat="45.99136" lon="6.48485">
        <ele>1629.4</ele>
        <time>2021-03-23T14:16:27Z</time>
      </trkpt>
      <trkpt lat="45.99135" lon="6.48483">
        <ele>1629.6</ele>
        <time>2021-03-23T14:16:31Z</time>
      </trkpt>
      <trkpt lat="45.99136" lon="6.48481">
        <ele>1630.2</ele>
        <time>2021-03-23T14:16:43Z</time>
      </trkpt>
      <trkpt lat="45.99135" lon="6.48479">
        <ele>1630.2</ele>
        <time>2021-03-23T14:17:15Z</time>
      </trkpt>
      <trkpt lat="45.99134" lon="6.48476">
        <ele>1630.2</ele>
        <time>2021-03-23T14:17:20Z</time>
      </trkpt>
      <trkpt lat="45.99133" lon="6.48473">
        <ele>1630.4</ele>
        <time>2021-03-23T14:17:25Z</time>
      </trkpt>
      <trkpt lat="45.99132" lon="6.4847">
        <ele>1630.8</ele>
        <time>2021-03-23T14:17:32Z</time>
      </trkpt>
      <trkpt lat="45.9913" lon="6.48469">
        <ele>1631.6</ele>
        <time>2021-03-23T14:17:51Z</time>
      </trkpt>
      <trkpt lat="45.9913" lon="6.48466">
        <ele>1631.6</ele>
        <time>2021-03-23T14:17:56Z</time>
      </trkpt>
      <trkpt lat="45.99128" lon="6.48464">
        <ele>1632.6</ele>
        <time>2021-03-23T14:18:05Z</time>
      </trkpt>
      <trkpt lat="45.99128" lon="6.48461">
        <ele>1632.8</ele>
        <time>2021-03-23T14:18:08Z</time>
      </trkpt>
      <trkpt lat="45.99127" lon="6.48458">
        <ele>1632.8</ele>
        <time>2021-03-23T14:18:12Z</time>
      </trkpt>
      <trkpt lat="45.99127" lon="6.48456">
        <ele>1632.6</ele>
        <time>2021-03-23T14:18:15Z</time>
      </trkpt>
      <trkpt lat="45.99126" lon="6.48453">
        <ele>1632.8</ele>
        <time>2021-03-23T14:18:18Z</time>
      </trkpt>
      <trkpt lat="45.99127" lon="6.48447">
        <ele>1632.4</ele>
        <time>2021-03-23T14:18:20Z</time>
      </trkpt>
      <trkpt lat="45.9913" lon="6.48431">
        <ele>1631.8</ele>
        <time>2021-03-23T14:18:23Z</time>
      </trkpt>
      <trkpt lat="45.99129" lon="6.48413">
        <ele>1631.6</ele>
        <time>2021-03-23T14:18:26Z</time>
      </trkpt>
      <trkpt lat="45.99129" lon="6.48399">
        <ele>1631.4</ele>
        <time>2021-03-23T14:18:29Z</time>
      </trkpt>
      <trkpt lat="45.99128" lon="6.48384">
        <ele>1631.4</ele>
        <time>2021-03-23T14:18:33Z</time>
      </trkpt>
      <trkpt lat="45.99127" lon="6.48371">
        <ele>1631.2</ele>
        <time>2021-03-23T14:18:37Z</time>
      </trkpt>
      <trkpt lat="45.99127" lon="6.48356">
        <ele>1631</ele>
        <time>2021-03-23T14:18:41Z</time>
      </trkpt>
      <trkpt lat="45.99129" lon="6.48342">
        <ele>1630.8</ele>
        <time>2021-03-23T14:18:44Z</time>
      </trkpt>
      <trkpt lat="45.99128" lon="6.48327">
        <ele>1630.6</ele>
        <time>2021-03-23T14:18:47Z</time>
      </trkpt>
      <trkpt lat="45.99129" lon="6.48314">
        <ele>1630.6</ele>
        <time>2021-03-23T14:18:49Z</time>
      </trkpt>
      <trkpt lat="45.99127" lon="6.48297">
        <ele>1630.6</ele>
        <time>2021-03-23T14:18:52Z</time>
      </trkpt>
      <trkpt lat="45.99121" lon="6.48285">
        <ele>1630.2</ele>
        <time>2021-03-23T14:18:58Z</time>
      </trkpt>
      <trkpt lat="45.99118" lon="6.48273">
        <ele>1629.2</ele>
        <time>2021-03-23T14:19:16Z</time>
      </trkpt>
      <trkpt lat="45.99118" lon="6.48266">
        <ele>1629</ele>
        <time>2021-03-23T14:19:21Z</time>
      </trkpt>
      <trkpt lat="45.99116" lon="6.48264">
        <ele>1629.8</ele>
        <time>2021-03-23T14:19:35Z</time>
      </trkpt>
      <trkpt lat="45.99116" lon="6.48261">
        <ele>1629.6</ele>
        <time>2021-03-23T14:19:40Z</time>
      </trkpt>
      <trkpt lat="45.99109" lon="6.48252">
        <ele>1628.8</ele>
        <time>2021-03-23T14:20:02Z</time>
      </trkpt>
      <trkpt lat="45.99113" lon="6.4824">
        <ele>1628.4</ele>
        <time>2021-03-23T14:20:11Z</time>
      </trkpt>
      <trkpt lat="45.99116" lon="6.48227">
        <ele>1628</ele>
        <time>2021-03-23T14:20:22Z</time>
      </trkpt>
      <trkpt lat="45.99122" lon="6.48218">
        <ele>1628</ele>
        <time>2021-03-23T14:20:39Z</time>
      </trkpt>
      <trkpt lat="45.99124" lon="6.48212">
        <ele>1628.2</ele>
        <time>2021-03-23T14:20:46Z</time>
      </trkpt>
      <trkpt lat="45.99125" lon="6.48209">
        <ele>1628.2</ele>
        <time>2021-03-23T14:20:49Z</time>
      </trkpt>
      <trkpt lat="45.99125" lon="6.48207">
        <ele>1628.6</ele>
        <time>2021-03-23T14:20:54Z</time>
      </trkpt>
      <trkpt lat="45.99124" lon="6.48204">
        <ele>1628.4</ele>
        <time>2021-03-23T14:21:01Z</time>
      </trkpt>
      <trkpt lat="45.99125" lon="6.48201">
        <ele>1627</ele>
        <time>2021-03-23T14:21:42Z</time>
      </trkpt>
      <trkpt lat="45.99125" lon="6.48198">
        <ele>1626.6</ele>
        <time>2021-03-23T14:21:46Z</time>
      </trkpt>
      <trkpt lat="45.99125" lon="6.48195">
        <ele>1626.4</ele>
        <time>2021-03-23T14:21:49Z</time>
      </trkpt>
      <trkpt lat="45.99125" lon="6.48192">
        <ele>1626.2</ele>
        <time>2021-03-23T14:21:51Z</time>
      </trkpt>
      <trkpt lat="45.99125" lon="6.48189">
        <ele>1626.4</ele>
        <time>2021-03-23T14:21:53Z</time>
      </trkpt>
      <trkpt lat="45.99125" lon="6.48185">
        <ele>1626.4</ele>
        <time>2021-03-23T14:21:55Z</time>
      </trkpt>
      <trkpt lat="45.99124" lon="6.48182">
        <ele>1626</ele>
        <time>2021-03-23T14:21:57Z</time>
      </trkpt>
      <trkpt lat="45.99123" lon="6.48179">
        <ele>1626</ele>
        <time>2021-03-23T14:22:00Z</time>
      </trkpt>
      <trkpt lat="45.99123" lon="6.48176">
        <ele>1626.2</ele>
        <time>2021-03-23T14:22:03Z</time>
      </trkpt>
      <trkpt lat="45.99122" lon="6.48172">
        <ele>1626.2</ele>
        <time>2021-03-23T14:22:05Z</time>
      </trkpt>
      <trkpt lat="45.9912" lon="6.48158">
        <ele>1625.8</ele>
        <time>2021-03-23T14:22:11Z</time>
      </trkpt>
      <trkpt lat="45.99121" lon="6.48145">
        <ele>1625.8</ele>
        <time>2021-03-23T14:22:20Z</time>
      </trkpt>
      <trkpt lat="45.9912" lon="6.48142">
        <ele>1626</ele>
        <time>2021-03-23T14:22:23Z</time>
      </trkpt>
      <trkpt lat="45.9912" lon="6.48138">
        <ele>1626.6</ele>
        <time>2021-03-23T14:22:28Z</time>
      </trkpt>
      <trkpt lat="45.99121" lon="6.48135">
        <ele>1626.8</ele>
        <time>2021-03-23T14:22:31Z</time>
      </trkpt>
      <trkpt lat="45.99121" lon="6.48133">
        <ele>1627.2</ele>
        <time>2021-03-23T14:22:34Z</time>
      </trkpt>
      <trkpt lat="45.99122" lon="6.4813">
        <ele>1627.4</ele>
        <time>2021-03-23T14:22:37Z</time>
      </trkpt>
      <trkpt lat="45.99122" lon="6.48126">
        <ele>1627.2</ele>
        <time>2021-03-23T14:22:40Z</time>
      </trkpt>
      <trkpt lat="45.99122" lon="6.48122">
        <ele>1627.4</ele>
        <time>2021-03-23T14:22:43Z</time>
      </trkpt>
      <trkpt lat="45.99123" lon="6.4812">
        <ele>1627.6</ele>
        <time>2021-03-23T14:22:46Z</time>
      </trkpt>
      <trkpt lat="45.99124" lon="6.48117">
        <ele>1627.6</ele>
        <time>2021-03-23T14:22:49Z</time>
      </trkpt>
      <trkpt lat="45.99125" lon="6.48113">
        <ele>1627.4</ele>
        <time>2021-03-23T14:22:52Z</time>
      </trkpt>
      <trkpt lat="45.99126" lon="6.48111">
        <ele>1627.8</ele>
        <time>2021-03-23T14:22:55Z</time>
      </trkpt>
      <trkpt lat="45.99127" lon="6.48108">
        <ele>1627.8</ele>
        <time>2021-03-23T14:22:58Z</time>
      </trkpt>
      <trkpt lat="45.99126" lon="6.48105">
        <ele>1628</ele>
        <time>2021-03-23T14:23:00Z</time>
      </trkpt>
      <trkpt lat="45.99126" lon="6.48102">
        <ele>1628.2</ele>
        <time>2021-03-23T14:23:04Z</time>
      </trkpt>
      <trkpt lat="45.99126" lon="6.48099">
        <ele>1628.4</ele>
        <time>2021-03-23T14:23:08Z</time>
      </trkpt>
      <trkpt lat="45.99126" lon="6.48096">
        <ele>1628.4</ele>
        <time>2021-03-23T14:23:11Z</time>
      </trkpt>
      <trkpt lat="45.99125" lon="6.48093">
        <ele>1628.4</ele>
        <time>2021-03-23T14:23:15Z</time>
      </trkpt>
      <trkpt lat="45.99125" lon="6.48091">
        <ele>1628.2</ele>
        <time>2021-03-23T14:23:19Z</time>
      </trkpt>
      <trkpt lat="45.99126" lon="6.48088">
        <ele>1628</ele>
        <time>2021-03-23T14:23:24Z</time>
      </trkpt>
      <trkpt lat="45.99125" lon="6.48085">
        <ele>1627.8</ele>
        <time>2021-03-23T14:23:30Z</time>
      </trkpt>
      <trkpt lat="45.99126" lon="6.48083">
        <ele>1626.8</ele>
        <time>2021-03-23T14:23:37Z</time>
      </trkpt>
      <trkpt lat="45.99125" lon="6.4808">
        <ele>1626.8</ele>
        <time>2021-03-23T14:23:40Z</time>
      </trkpt>
      <trkpt lat="45.99126" lon="6.48077">
        <ele>1626.8</ele>
        <time>2021-03-23T14:23:43Z</time>
      </trkpt>
      <trkpt lat="45.99126" lon="6.48073">
        <ele>1627</ele>
        <time>2021-03-23T14:23:45Z</time>
      </trkpt>
      <trkpt lat="45.99126" lon="6.4807">
        <ele>1627</ele>
        <time>2021-03-23T14:23:47Z</time>
      </trkpt>
      <trkpt lat="45.99125" lon="6.48067">
        <ele>1627</ele>
        <time>2021-03-23T14:23:50Z</time>
      </trkpt>
      <trkpt lat="45.99124" lon="6.48064">
        <ele>1627</ele>
        <time>2021-03-23T14:23:54Z</time>
      </trkpt>
      <trkpt lat="45.99122" lon="6.48061">
        <ele>1627.2</ele>
        <time>2021-03-23T14:23:58Z</time>
      </trkpt>
      <trkpt lat="45.99124" lon="6.48056">
        <ele>1627.6</ele>
        <time>2021-03-23T14:24:03Z</time>
      </trkpt>
      <trkpt lat="45.99124" lon="6.48053">
        <ele>1627.6</ele>
        <time>2021-03-23T14:24:08Z</time>
      </trkpt>
      <trkpt lat="45.99123" lon="6.4805">
        <ele>1627.4</ele>
        <time>2021-03-23T14:24:11Z</time>
      </trkpt>
      <trkpt lat="45.99122" lon="6.48047">
        <ele>1627.4</ele>
        <time>2021-03-23T14:24:14Z</time>
      </trkpt>
      <trkpt lat="45.99122" lon="6.48043">
        <ele>1627.6</ele>
        <time>2021-03-23T14:24:17Z</time>
      </trkpt>
      <trkpt lat="45.99122" lon="6.48041">
        <ele>1627.4</ele>
        <time>2021-03-23T14:24:19Z</time>
      </trkpt>
      <trkpt lat="45.99122" lon="6.48038">
        <ele>1628</ele>
        <time>2021-03-23T14:24:24Z</time>
      </trkpt>
      <trkpt lat="45.99122" lon="6.48035">
        <ele>1628.2</ele>
        <time>2021-03-23T14:24:26Z</time>
      </trkpt>
      <trkpt lat="45.99122" lon="6.48033">
        <ele>1628</ele>
        <time>2021-03-23T14:24:28Z</time>
      </trkpt>
      <trkpt lat="45.99121" lon="6.48031">
        <ele>1628.6</ele>
        <time>2021-03-23T14:24:32Z</time>
      </trkpt>
      <trkpt lat="45.9912" lon="6.48028">
        <ele>1629</ele>
        <time>2021-03-23T14:24:36Z</time>
      </trkpt>
      <trkpt lat="45.99119" lon="6.48026">
        <ele>1629.2</ele>
        <time>2021-03-23T14:24:40Z</time>
      </trkpt>
      <trkpt lat="45.99119" lon="6.48023">
        <ele>1629</ele>
        <time>2021-03-23T14:24:43Z</time>
      </trkpt>
      <trkpt lat="45.99118" lon="6.4802">
        <ele>1629</ele>
        <time>2021-03-23T14:24:46Z</time>
      </trkpt>
      <trkpt lat="45.99118" lon="6.48017">
        <ele>1629</ele>
        <time>2021-03-23T14:24:52Z</time>
      </trkpt>
      <trkpt lat="45.99118" lon="6.48014">
        <ele>1629.2</ele>
        <time>2021-03-23T14:24:57Z</time>
      </trkpt>
      <trkpt lat="45.99118" lon="6.4801">
        <ele>1629.2</ele>
        <time>2021-03-23T14:25:00Z</time>
      </trkpt>
      <trkpt lat="45.99118" lon="6.48005">
        <ele>1629.2</ele>
        <time>2021-03-23T14:25:02Z</time>
      </trkpt>
      <trkpt lat="45.99118" lon="6.48001">
        <ele>1629.4</ele>
        <time>2021-03-23T14:25:04Z</time>
      </trkpt>
      <trkpt lat="45.99119" lon="6.47998">
        <ele>1629.6</ele>
        <time>2021-03-23T14:25:06Z</time>
      </trkpt>
      <trkpt lat="45.9912" lon="6.47995">
        <ele>1629.8</ele>
        <time>2021-03-23T14:25:09Z</time>
      </trkpt>
      <trkpt lat="45.9912" lon="6.47991">
        <ele>1629.8</ele>
        <time>2021-03-23T14:25:12Z</time>
      </trkpt>
      <trkpt lat="45.99119" lon="6.47988">
        <ele>1630</ele>
        <time>2021-03-23T14:25:14Z</time>
      </trkpt>
      <trkpt lat="45.99119" lon="6.47985">
        <ele>1630.6</ele>
        <time>2021-03-23T14:25:18Z</time>
      </trkpt>
      <trkpt lat="45.9912" lon="6.47982">
        <ele>1631</ele>
        <time>2021-03-23T14:25:22Z</time>
      </trkpt>
      <trkpt lat="45.99119" lon="6.47979">
        <ele>1631</ele>
        <time>2021-03-23T14:25:25Z</time>
      </trkpt>
      <trkpt lat="45.99118" lon="6.47976">
        <ele>1631</ele>
        <time>2021-03-23T14:25:28Z</time>
      </trkpt>
      <trkpt lat="45.99119" lon="6.47974">
        <ele>1631</ele>
        <time>2021-03-23T14:25:31Z</time>
      </trkpt>
      <trkpt lat="45.9912" lon="6.47971">
        <ele>1630.8</ele>
        <time>2021-03-23T14:25:53Z</time>
      </trkpt>
      <trkpt lat="45.99121" lon="6.47966">
        <ele>1630.6</ele>
        <time>2021-03-23T14:25:55Z</time>
      </trkpt>
      <trkpt lat="45.99121" lon="6.47953">
        <ele>1630.6</ele>
        <time>2021-03-23T14:26:00Z</time>
      </trkpt>
      <trkpt lat="45.99126" lon="6.4794">
        <ele>1630.4</ele>
        <time>2021-03-23T14:26:06Z</time>
      </trkpt>
      <trkpt lat="45.99125" lon="6.47929">
        <ele>1630.8</ele>
        <time>2021-03-23T14:26:17Z</time>
      </trkpt>
      <trkpt lat="45.99124" lon="6.47926">
        <ele>1631</ele>
        <time>2021-03-23T14:26:22Z</time>
      </trkpt>
      <trkpt lat="45.99125" lon="6.47924">
        <ele>1631.4</ele>
        <time>2021-03-23T14:26:27Z</time>
      </trkpt>
      <trkpt lat="45.99126" lon="6.47921">
        <ele>1631.4</ele>
        <time>2021-03-23T14:26:31Z</time>
      </trkpt>
      <trkpt lat="45.99127" lon="6.47918">
        <ele>1631.8</ele>
        <time>2021-03-23T14:26:36Z</time>
      </trkpt>
      <trkpt lat="45.99127" lon="6.47915">
        <ele>1632</ele>
        <time>2021-03-23T14:26:39Z</time>
      </trkpt>
      <trkpt lat="45.99127" lon="6.47912">
        <ele>1631.8</ele>
        <time>2021-03-23T14:26:43Z</time>
      </trkpt>
      <trkpt lat="45.99127" lon="6.4791">
        <ele>1631.6</ele>
        <time>2021-03-23T14:26:45Z</time>
      </trkpt>
      <trkpt lat="45.99127" lon="6.47907">
        <ele>1631.4</ele>
        <time>2021-03-23T14:26:47Z</time>
      </trkpt>
      <trkpt lat="45.99128" lon="6.47903">
        <ele>1631</ele>
        <time>2021-03-23T14:26:49Z</time>
      </trkpt>
      <trkpt lat="45.99128" lon="6.47899">
        <ele>1630.8</ele>
        <time>2021-03-23T14:26:51Z</time>
      </trkpt>
      <trkpt lat="45.99129" lon="6.47895">
        <ele>1631</ele>
        <time>2021-03-23T14:26:52Z</time>
      </trkpt>
      <trkpt lat="45.99129" lon="6.47891">
        <ele>1631</ele>
        <time>2021-03-23T14:26:53Z</time>
      </trkpt>
      <trkpt lat="45.99129" lon="6.47887">
        <ele>1631</ele>
        <time>2021-03-23T14:26:54Z</time>
      </trkpt>
      <trkpt lat="45.9913" lon="6.47882">
        <ele>1631</ele>
        <time>2021-03-23T14:26:55Z</time>
      </trkpt>
      <trkpt lat="45.9913" lon="6.47878">
        <ele>1631</ele>
        <time>2021-03-23T14:26:56Z</time>
      </trkpt>
      <trkpt lat="45.9913" lon="6.47874">
        <ele>1631</ele>
        <time>2021-03-23T14:26:57Z</time>
      </trkpt>
      <trkpt lat="45.99131" lon="6.4787">
        <ele>1631</ele>
        <time>2021-03-23T14:26:58Z</time>
      </trkpt>
      <trkpt lat="45.99131" lon="6.47866">
        <ele>1631</ele>
        <time>2021-03-23T14:26:59Z</time>
      </trkpt>
      <trkpt lat="45.99131" lon="6.47863">
        <ele>1630.8</ele>
        <time>2021-03-23T14:27:00Z</time>
      </trkpt>
      <trkpt lat="45.99132" lon="6.47859">
        <ele>1630.8</ele>
        <time>2021-03-23T14:27:01Z</time>
      </trkpt>
      <trkpt lat="45.99132" lon="6.47855">
        <ele>1630.6</ele>
        <time>2021-03-23T14:27:02Z</time>
      </trkpt>
      <trkpt lat="45.99133" lon="6.47851">
        <ele>1630.6</ele>
        <time>2021-03-23T14:27:03Z</time>
      </trkpt>
      <trkpt lat="45.99133" lon="6.47846">
        <ele>1630.4</ele>
        <time>2021-03-23T14:27:04Z</time>
      </trkpt>
      <trkpt lat="45.99135" lon="6.47841">
        <ele>1630.4</ele>
        <time>2021-03-23T14:27:05Z</time>
      </trkpt>
      <trkpt lat="45.99136" lon="6.47837">
        <ele>1630.2</ele>
        <time>2021-03-23T14:27:06Z</time>
      </trkpt>
      <trkpt lat="45.99137" lon="6.47833">
        <ele>1630.2</ele>
        <time>2021-03-23T14:27:07Z</time>
      </trkpt>
      <trkpt lat="45.99138" lon="6.47829">
        <ele>1630.2</ele>
        <time>2021-03-23T14:27:08Z</time>
      </trkpt>
      <trkpt lat="45.99139" lon="6.47826">
        <ele>1630.4</ele>
        <time>2021-03-23T14:27:09Z</time>
      </trkpt>
      <trkpt lat="45.99141" lon="6.47822">
        <ele>1630.4</ele>
        <time>2021-03-23T14:27:10Z</time>
      </trkpt>
      <trkpt lat="45.99142" lon="6.47819">
        <ele>1630.4</ele>
        <time>2021-03-23T14:27:11Z</time>
      </trkpt>
      <trkpt lat="45.99143" lon="6.47816">
        <ele>1630.4</ele>
        <time>2021-03-23T14:27:12Z</time>
      </trkpt>
      <trkpt lat="45.99144" lon="6.47813">
        <ele>1630.4</ele>
        <time>2021-03-23T14:27:13Z</time>
      </trkpt>
      <trkpt lat="45.99145" lon="6.4781">
        <ele>1630.4</ele>
        <time>2021-03-23T14:27:14Z</time>
      </trkpt>
      <trkpt lat="45.99146" lon="6.47807">
        <ele>1630.4</ele>
        <time>2021-03-23T14:27:15Z</time>
      </trkpt>
      <trkpt lat="45.99146" lon="6.47805">
        <ele>1630.4</ele>
        <time>2021-03-23T14:27:16Z</time>
      </trkpt>
      <trkpt lat="45.99147" lon="6.47802">
        <ele>1630.2</ele>
        <time>2021-03-23T14:27:17Z</time>
      </trkpt>
      <trkpt lat="45.99148" lon="6.47799">
        <ele>1630.2</ele>
        <time>2021-03-23T14:27:18Z</time>
      </trkpt>
      <trkpt lat="45.99149" lon="6.47796">
        <ele>1630</ele>
        <time>2021-03-23T14:27:19Z</time>
      </trkpt>
      <trkpt lat="45.99149" lon="6.47794">
        <ele>1630</ele>
        <time>2021-03-23T14:27:20Z</time>
      </trkpt>
      <trkpt lat="45.9915" lon="6.47789">
        <ele>1630.2</ele>
        <time>2021-03-23T14:27:22Z</time>
      </trkpt>
      <trkpt lat="45.99151" lon="6.47785">
        <ele>1630.4</ele>
        <time>2021-03-23T14:27:24Z</time>
      </trkpt>
      <trkpt lat="45.99153" lon="6.47781">
        <ele>1630.4</ele>
        <time>2021-03-23T14:27:26Z</time>
      </trkpt>
      <trkpt lat="45.99153" lon="6.47778">
        <ele>1630.4</ele>
        <time>2021-03-23T14:27:27Z</time>
      </trkpt>
      <trkpt lat="45.99153" lon="6.47775">
        <ele>1630.2</ele>
        <time>2021-03-23T14:27:28Z</time>
      </trkpt>
      <trkpt lat="45.99154" lon="6.47772">
        <ele>1630</ele>
        <time>2021-03-23T14:27:29Z</time>
      </trkpt>
      <trkpt lat="45.99155" lon="6.47768">
        <ele>1630</ele>
        <time>2021-03-23T14:27:30Z</time>
      </trkpt>
      <trkpt lat="45.99156" lon="6.47765">
        <ele>1629.8</ele>
        <time>2021-03-23T14:27:31Z</time>
      </trkpt>
      <trkpt lat="45.99158" lon="6.4776">
        <ele>1629.8</ele>
        <time>2021-03-23T14:27:32Z</time>
      </trkpt>
      <trkpt lat="45.9916" lon="6.47754">
        <ele>1629.8</ele>
        <time>2021-03-23T14:27:33Z</time>
      </trkpt>
      <trkpt lat="45.99161" lon="6.47749">
        <ele>1629.6</ele>
        <time>2021-03-23T14:27:34Z</time>
      </trkpt>
      <trkpt lat="45.99163" lon="6.47745">
        <ele>1629.6</ele>
        <time>2021-03-23T14:27:35Z</time>
      </trkpt>
      <trkpt lat="45.99164" lon="6.47741">
        <ele>1629.6</ele>
        <time>2021-03-23T14:27:36Z</time>
      </trkpt>
      <trkpt lat="45.99166" lon="6.47737">
        <ele>1629.4</ele>
        <time>2021-03-23T14:27:37Z</time>
      </trkpt>
      <trkpt lat="45.99168" lon="6.47732">
        <ele>1629.4</ele>
        <time>2021-03-23T14:27:38Z</time>
      </trkpt>
      <trkpt lat="45.99171" lon="6.47727">
        <ele>1629.2</ele>
        <time>2021-03-23T14:27:39Z</time>
      </trkpt>
      <trkpt lat="45.99174" lon="6.47723">
        <ele>1629.2</ele>
        <time>2021-03-23T14:27:40Z</time>
      </trkpt>
      <trkpt lat="45.99176" lon="6.4772">
        <ele>1629</ele>
        <time>2021-03-23T14:27:41Z</time>
      </trkpt>
      <trkpt lat="45.99178" lon="6.47718">
        <ele>1628.8</ele>
        <time>2021-03-23T14:27:42Z</time>
      </trkpt>
      <trkpt lat="45.9918" lon="6.47715">
        <ele>1628.8</ele>
        <time>2021-03-23T14:27:43Z</time>
      </trkpt>
      <trkpt lat="45.99182" lon="6.47711">
        <ele>1628.6</ele>
        <time>2021-03-23T14:27:44Z</time>
      </trkpt>
      <trkpt lat="45.99183" lon="6.47708">
        <ele>1628.6</ele>
        <time>2021-03-23T14:27:45Z</time>
      </trkpt>
      <trkpt lat="45.99184" lon="6.47705">
        <ele>1628.4</ele>
        <time>2021-03-23T14:27:46Z</time>
      </trkpt>
      <trkpt lat="45.99185" lon="6.47701">
        <ele>1628.4</ele>
        <time>2021-03-23T14:27:47Z</time>
      </trkpt>
      <trkpt lat="45.99186" lon="6.47697">
        <ele>1628.2</ele>
        <time>2021-03-23T14:27:48Z</time>
      </trkpt>
      <trkpt lat="45.99188" lon="6.47692">
        <ele>1628</ele>
        <time>2021-03-23T14:27:49Z</time>
      </trkpt>
      <trkpt lat="45.99191" lon="6.47679">
        <ele>1627.4</ele>
        <time>2021-03-23T14:27:51Z</time>
      </trkpt>
      <trkpt lat="45.99192" lon="6.47671">
        <ele>1627.4</ele>
        <time>2021-03-23T14:27:52Z</time>
      </trkpt>
      <trkpt lat="45.99193" lon="6.47662">
        <ele>1627.2</ele>
        <time>2021-03-23T14:27:53Z</time>
      </trkpt>
      <trkpt lat="45.99195" lon="6.47649">
        <ele>1626.8</ele>
        <time>2021-03-23T14:27:55Z</time>
      </trkpt>
      <trkpt lat="45.99195" lon="6.47645">
        <ele>1626.6</ele>
        <time>2021-03-23T14:27:56Z</time>
      </trkpt>
      <trkpt lat="45.99195" lon="6.47642">
        <ele>1626.4</ele>
        <time>2021-03-23T14:27:58Z</time>
      </trkpt>
      <trkpt lat="45.99196" lon="6.47639">
        <ele>1625.6</ele>
        <time>2021-03-23T14:28:04Z</time>
      </trkpt>
      <trkpt lat="45.99196" lon="6.47636">
        <ele>1624.8</ele>
        <time>2021-03-23T14:28:10Z</time>
      </trkpt>
      <trkpt lat="45.99196" lon="6.47632">
        <ele>1624.6</ele>
        <time>2021-03-23T14:28:14Z</time>
      </trkpt>
      <trkpt lat="45.99197" lon="6.4763">
        <ele>1623.8</ele>
        <time>2021-03-23T14:28:18Z</time>
      </trkpt>
      <trkpt lat="45.99198" lon="6.47627">
        <ele>1623.4</ele>
        <time>2021-03-23T14:28:21Z</time>
      </trkpt>
      <trkpt lat="45.99199" lon="6.47625">
        <ele>1623.2</ele>
        <time>2021-03-23T14:28:24Z</time>
      </trkpt>
      <trkpt lat="45.992" lon="6.47623">
        <ele>1622.8</ele>
        <time>2021-03-23T14:28:29Z</time>
      </trkpt>
      <trkpt lat="45.99202" lon="6.47621">
        <ele>1622.6</ele>
        <time>2021-03-23T14:28:33Z</time>
      </trkpt>
      <trkpt lat="45.99203" lon="6.47618">
        <ele>1622.6</ele>
        <time>2021-03-23T14:28:38Z</time>
      </trkpt>
      <trkpt lat="45.99204" lon="6.47615">
        <ele>1622.4</ele>
        <time>2021-03-23T14:28:41Z</time>
      </trkpt>
      <trkpt lat="45.99204" lon="6.47612">
        <ele>1622.4</ele>
        <time>2021-03-23T14:28:44Z</time>
      </trkpt>
      <trkpt lat="45.99206" lon="6.47611">
        <ele>1620.8</ele>
        <time>2021-03-23T14:29:36Z</time>
      </trkpt>
      <trkpt lat="45.99208" lon="6.47609">
        <ele>1620.6</ele>
        <time>2021-03-23T14:30:07Z</time>
      </trkpt>
      <trkpt lat="45.99205" lon="6.47608">
        <ele>1620.2</ele>
        <time>2021-03-23T14:30:39Z</time>
      </trkpt>
      <trkpt lat="45.99206" lon="6.47605">
        <ele>1619.8</ele>
        <time>2021-03-23T14:30:43Z</time>
      </trkpt>
      <trkpt lat="45.99206" lon="6.47601">
        <ele>1619.6</ele>
        <time>2021-03-23T14:30:46Z</time>
      </trkpt>
      <trkpt lat="45.99206" lon="6.47597">
        <ele>1619.6</ele>
        <time>2021-03-23T14:30:48Z</time>
      </trkpt>
      <trkpt lat="45.99205" lon="6.47594">
        <ele>1619.2</ele>
        <time>2021-03-23T14:30:50Z</time>
      </trkpt>
      <trkpt lat="45.99204" lon="6.47592">
        <ele>1619.2</ele>
        <time>2021-03-23T14:30:52Z</time>
      </trkpt>
      <trkpt lat="45.99203" lon="6.47585">
        <ele>1619.4</ele>
        <time>2021-03-23T14:30:57Z</time>
      </trkpt>
      <trkpt lat="45.99201" lon="6.47584">
        <ele>1618.4</ele>
        <time>2021-03-23T14:31:31Z</time>
      </trkpt>
      <trkpt lat="45.99203" lon="6.47584">
        <ele>1618.4</ele>
        <time>2021-03-23T14:31:35Z</time>
      </trkpt>
      <trkpt lat="45.99205" lon="6.47585">
        <ele>1617</ele>
        <time>2021-03-23T14:32:51Z</time>
      </trkpt>
      <trkpt lat="45.99206" lon="6.47582">
        <ele>1616.8</ele>
        <time>2021-03-23T14:33:35Z</time>
      </trkpt>
      <trkpt lat="45.99207" lon="6.4758">
        <ele>1616.8</ele>
        <time>2021-03-23T14:33:36Z</time>
      </trkpt>
      <trkpt lat="45.9921" lon="6.47579">
        <ele>1616.8</ele>
        <time>2021-03-23T14:33:37Z</time>
      </trkpt>
      <trkpt lat="45.99223" lon="6.47577">
        <ele>1616.6</ele>
        <time>2021-03-23T14:33:39Z</time>
      </trkpt>
      <trkpt lat="45.99235" lon="6.47583">
        <ele>1616.4</ele>
        <time>2021-03-23T14:33:41Z</time>
      </trkpt>
      <trkpt lat="45.99239" lon="6.47594">
        <ele>1616</ele>
        <time>2021-03-23T14:33:45Z</time>
      </trkpt>
      <trkpt lat="45.99237" lon="6.47592">
        <ele>1613.6</ele>
        <time>2021-03-23T14:34:39Z</time>
      </trkpt>
      <trkpt lat="45.99236" lon="6.4759">
        <ele>1613.4</ele>
        <time>2021-03-23T14:34:42Z</time>
      </trkpt>
      <trkpt lat="45.99234" lon="6.47588">
        <ele>1613.4</ele>
        <time>2021-03-23T14:34:45Z</time>
      </trkpt>
      <trkpt lat="45.99232" lon="6.47585">
        <ele>1613.2</ele>
        <time>2021-03-23T14:34:48Z</time>
      </trkpt>
      <trkpt lat="45.99231" lon="6.47583">
        <ele>1613.2</ele>
        <time>2021-03-23T14:34:52Z</time>
      </trkpt>
      <trkpt lat="45.9923" lon="6.47586">
        <ele>1613</ele>
        <time>2021-03-23T14:35:20Z</time>
      </trkpt>
      <trkpt lat="45.9923" lon="6.47588">
        <ele>1612.8</ele>
        <time>2021-03-23T14:35:47Z</time>
      </trkpt>
      <trkpt lat="45.99232" lon="6.47594">
        <ele>1612.8</ele>
        <time>2021-03-23T14:35:52Z</time>
      </trkpt>
      <trkpt lat="45.99232" lon="6.47597">
        <ele>1612.8</ele>
        <time>2021-03-23T14:35:54Z</time>
      </trkpt>
      <trkpt lat="45.99233" lon="6.47603">
        <ele>1612.6</ele>
        <time>2021-03-23T14:35:56Z</time>
      </trkpt>
      <trkpt lat="45.99234" lon="6.47605">
        <ele>1612.6</ele>
        <time>2021-03-23T14:35:57Z</time>
      </trkpt>
      <trkpt lat="45.99235" lon="6.4761">
        <ele>1612.6</ele>
        <time>2021-03-23T14:35:59Z</time>
      </trkpt>
      <trkpt lat="45.99236" lon="6.47616">
        <ele>1612.4</ele>
        <time>2021-03-23T14:36:02Z</time>
      </trkpt>
      <trkpt lat="45.99237" lon="6.47618">
        <ele>1612.4</ele>
        <time>2021-03-23T14:36:03Z</time>
      </trkpt>
      <trkpt lat="45.99239" lon="6.47622">
        <ele>1612.2</ele>
        <time>2021-03-23T14:36:04Z</time>
      </trkpt>
      <trkpt lat="45.99241" lon="6.47627">
        <ele>1612.2</ele>
        <time>2021-03-23T14:36:05Z</time>
      </trkpt>
      <trkpt lat="45.99243" lon="6.47633">
        <ele>1612.2</ele>
        <time>2021-03-23T14:36:06Z</time>
      </trkpt>
      <trkpt lat="45.99245" lon="6.47641">
        <ele>1612</ele>
        <time>2021-03-23T14:36:07Z</time>
      </trkpt>
      <trkpt lat="45.99247" lon="6.47649">
        <ele>1611.6</ele>
        <time>2021-03-23T14:36:08Z</time>
      </trkpt>
      <trkpt lat="45.99253" lon="6.47665">
        <ele>1611.2</ele>
        <time>2021-03-23T14:36:10Z</time>
      </trkpt>
      <trkpt lat="45.99257" lon="6.47673">
        <ele>1610.8</ele>
        <time>2021-03-23T14:36:11Z</time>
      </trkpt>
      <trkpt lat="45.99265" lon="6.47686">
        <ele>1609.6</ele>
        <time>2021-03-23T14:36:13Z</time>
      </trkpt>
      <trkpt lat="45.99275" lon="6.477">
        <ele>1608.8</ele>
        <time>2021-03-23T14:36:15Z</time>
      </trkpt>
      <trkpt lat="45.99284" lon="6.4771">
        <ele>1607.8</ele>
        <time>2021-03-23T14:36:17Z</time>
      </trkpt>
      <trkpt lat="45.99287" lon="6.47716">
        <ele>1607.6</ele>
        <time>2021-03-23T14:36:18Z</time>
      </trkpt>
      <trkpt lat="45.99293" lon="6.47726">
        <ele>1606.8</ele>
        <time>2021-03-23T14:36:20Z</time>
      </trkpt>
      <trkpt lat="45.99299" lon="6.47734">
        <ele>1606.4</ele>
        <time>2021-03-23T14:36:22Z</time>
      </trkpt>
      <trkpt lat="45.99301" lon="6.47736">
        <ele>1606.2</ele>
        <time>2021-03-23T14:36:23Z</time>
      </trkpt>
      <trkpt lat="45.99303" lon="6.47739">
        <ele>1605.8</ele>
        <time>2021-03-23T14:36:25Z</time>
      </trkpt>
      <trkpt lat="45.99304" lon="6.47742">
        <ele>1605.4</ele>
        <time>2021-03-23T14:36:27Z</time>
      </trkpt>
      <trkpt lat="45.99313" lon="6.47747">
        <ele>1605.2</ele>
        <time>2021-03-23T14:36:31Z</time>
      </trkpt>
      <trkpt lat="45.99323" lon="6.47757">
        <ele>1604.6</ele>
        <time>2021-03-23T14:36:34Z</time>
      </trkpt>
      <trkpt lat="45.99331" lon="6.47769">
        <ele>1604.2</ele>
        <time>2021-03-23T14:36:36Z</time>
      </trkpt>
      <trkpt lat="45.99342" lon="6.47773">
        <ele>1603.8</ele>
        <time>2021-03-23T14:36:39Z</time>
      </trkpt>
      <trkpt lat="45.99354" lon="6.4777">
        <ele>1600</ele>
        <time>2021-03-23T14:36:50Z</time>
      </trkpt>
      <trkpt lat="45.99361" lon="6.47778">
        <ele>1597</ele>
        <time>2021-03-23T14:37:22Z</time>
      </trkpt>
      <trkpt lat="45.9937" lon="6.47789">
        <ele>1596.6</ele>
        <time>2021-03-23T14:37:25Z</time>
      </trkpt>
      <trkpt lat="45.99377" lon="6.478">
        <ele>1596</ele>
        <time>2021-03-23T14:37:27Z</time>
      </trkpt>
      <trkpt lat="45.99382" lon="6.47811">
        <ele>1595.6</ele>
        <time>2021-03-23T14:37:29Z</time>
      </trkpt>
      <trkpt lat="45.99394" lon="6.47818">
        <ele>1595</ele>
        <time>2021-03-23T14:37:31Z</time>
      </trkpt>
      <trkpt lat="45.99404" lon="6.47827">
        <ele>1594.4</ele>
        <time>2021-03-23T14:37:33Z</time>
      </trkpt>
      <trkpt lat="45.99416" lon="6.47841">
        <ele>1593</ele>
        <time>2021-03-23T14:37:35Z</time>
      </trkpt>
      <trkpt lat="45.9943" lon="6.47857">
        <ele>1591.4</ele>
        <time>2021-03-23T14:37:37Z</time>
      </trkpt>
      <trkpt lat="45.99436" lon="6.47867">
        <ele>1590.8</ele>
        <time>2021-03-23T14:37:38Z</time>
      </trkpt>
      <trkpt lat="45.99438" lon="6.47891">
        <ele>1588.8</ele>
        <time>2021-03-23T14:37:40Z</time>
      </trkpt>
      <trkpt lat="45.99443" lon="6.47915">
        <ele>1587</ele>
        <time>2021-03-23T14:37:42Z</time>
      </trkpt>
      <trkpt lat="45.99446" lon="6.47928">
        <ele>1586.2</ele>
        <time>2021-03-23T14:37:43Z</time>
      </trkpt>
      <trkpt lat="45.99449" lon="6.4794">
        <ele>1585.2</ele>
        <time>2021-03-23T14:37:44Z</time>
      </trkpt>
      <trkpt lat="45.99452" lon="6.47952">
        <ele>1584.6</ele>
        <time>2021-03-23T14:37:45Z</time>
      </trkpt>
      <trkpt lat="45.99457" lon="6.47975">
        <ele>1583.4</ele>
        <time>2021-03-23T14:37:47Z</time>
      </trkpt>
      <trkpt lat="45.99462" lon="6.47988">
        <ele>1582.2</ele>
        <time>2021-03-23T14:37:49Z</time>
      </trkpt>
      <trkpt lat="45.99467" lon="6.48002">
        <ele>1580.4</ele>
        <time>2021-03-23T14:37:51Z</time>
      </trkpt>
      <trkpt lat="45.99471" lon="6.48016">
        <ele>1578.8</ele>
        <time>2021-03-23T14:37:53Z</time>
      </trkpt>
      <trkpt lat="45.99477" lon="6.48035">
        <ele>1577.4</ele>
        <time>2021-03-23T14:37:55Z</time>
      </trkpt>
      <trkpt lat="45.99482" lon="6.48053">
        <ele>1576</ele>
        <time>2021-03-23T14:37:57Z</time>
      </trkpt>
      <trkpt lat="45.99488" lon="6.4807">
        <ele>1574.6</ele>
        <time>2021-03-23T14:37:59Z</time>
      </trkpt>
      <trkpt lat="45.99493" lon="6.48087">
        <ele>1573.6</ele>
        <time>2021-03-23T14:38:01Z</time>
      </trkpt>
      <trkpt lat="45.99499" lon="6.48101">
        <ele>1572.4</ele>
        <time>2021-03-23T14:38:03Z</time>
      </trkpt>
      <trkpt lat="45.99507" lon="6.48097">
        <ele>1566.4</ele>
        <time>2021-03-23T14:38:30Z</time>
      </trkpt>
      <trkpt lat="45.99516" lon="6.48103">
        <ele>1561.4</ele>
        <time>2021-03-23T14:39:03Z</time>
      </trkpt>
      <trkpt lat="45.99522" lon="6.48114">
        <ele>1561</ele>
        <time>2021-03-23T14:39:06Z</time>
      </trkpt>
      <trkpt lat="45.99527" lon="6.48126">
        <ele>1560.4</ele>
        <time>2021-03-23T14:39:08Z</time>
      </trkpt>
      <trkpt lat="45.99535" lon="6.48137">
        <ele>1560</ele>
        <time>2021-03-23T14:39:10Z</time>
      </trkpt>
      <trkpt lat="45.99544" lon="6.48147">
        <ele>1559.6</ele>
        <time>2021-03-23T14:39:12Z</time>
      </trkpt>
      <trkpt lat="45.99552" lon="6.48158">
        <ele>1559.4</ele>
        <time>2021-03-23T14:39:14Z</time>
      </trkpt>
      <trkpt lat="45.9956" lon="6.48168">
        <ele>1558.6</ele>
        <time>2021-03-23T14:39:16Z</time>
      </trkpt>
      <trkpt lat="45.99567" lon="6.4818">
        <ele>1558</ele>
        <time>2021-03-23T14:39:18Z</time>
      </trkpt>
      <trkpt lat="45.99575" lon="6.48192">
        <ele>1557</ele>
        <time>2021-03-23T14:39:20Z</time>
      </trkpt>
      <trkpt lat="45.99585" lon="6.48204">
        <ele>1555.8</ele>
        <time>2021-03-23T14:39:22Z</time>
      </trkpt>
      <trkpt lat="45.99595" lon="6.48211">
        <ele>1555.2</ele>
        <time>2021-03-23T14:39:24Z</time>
      </trkpt>
      <trkpt lat="45.99607" lon="6.48212">
        <ele>1554.4</ele>
        <time>2021-03-23T14:39:27Z</time>
      </trkpt>
      <trkpt lat="45.99617" lon="6.48212">
        <ele>1553.4</ele>
        <time>2021-03-23T14:39:29Z</time>
      </trkpt>
      <trkpt lat="45.99629" lon="6.48219">
        <ele>1552</ele>
        <time>2021-03-23T14:39:32Z</time>
      </trkpt>
      <trkpt lat="45.99636" lon="6.48225">
        <ele>1551</ele>
        <time>2021-03-23T14:39:34Z</time>
      </trkpt>
      <trkpt lat="45.99644" lon="6.48233">
        <ele>1550.6</ele>
        <time>2021-03-23T14:39:36Z</time>
      </trkpt>
      <trkpt lat="45.99648" lon="6.4824">
        <ele>1550.2</ele>
        <time>2021-03-23T14:39:37Z</time>
      </trkpt>
      <trkpt lat="45.99656" lon="6.4826">
        <ele>1548.6</ele>
        <time>2021-03-23T14:39:39Z</time>
      </trkpt>
      <trkpt lat="45.99662" lon="6.48281">
        <ele>1546.8</ele>
        <time>2021-03-23T14:39:41Z</time>
      </trkpt>
      <trkpt lat="45.99667" lon="6.48302">
        <ele>1545.2</ele>
        <time>2021-03-23T14:39:43Z</time>
      </trkpt>
      <trkpt lat="45.99672" lon="6.48321">
        <ele>1543.6</ele>
        <time>2021-03-23T14:39:45Z</time>
      </trkpt>
      <trkpt lat="45.99678" lon="6.48339">
        <ele>1541.6</ele>
        <time>2021-03-23T14:39:47Z</time>
      </trkpt>
      <trkpt lat="45.99683" lon="6.48353">
        <ele>1540.2</ele>
        <time>2021-03-23T14:39:49Z</time>
      </trkpt>
      <trkpt lat="45.9969" lon="6.48366">
        <ele>1539.6</ele>
        <time>2021-03-23T14:39:51Z</time>
      </trkpt>
      <trkpt lat="45.99697" lon="6.48378">
        <ele>1538.6</ele>
        <time>2021-03-23T14:39:53Z</time>
      </trkpt>
      <trkpt lat="45.99702" lon="6.48393">
        <ele>1537</ele>
        <time>2021-03-23T14:39:55Z</time>
      </trkpt>
      <trkpt lat="45.99709" lon="6.48406">
        <ele>1536</ele>
        <time>2021-03-23T14:39:57Z</time>
      </trkpt>
      <trkpt lat="45.99715" lon="6.48418">
        <ele>1534.4</ele>
        <time>2021-03-23T14:40:00Z</time>
      </trkpt>
      <trkpt lat="45.99719" lon="6.48433">
        <ele>1532.4</ele>
        <time>2021-03-23T14:40:03Z</time>
      </trkpt>
      <trkpt lat="45.99721" lon="6.48448">
        <ele>1531.2</ele>
        <time>2021-03-23T14:40:05Z</time>
      </trkpt>
      <trkpt lat="45.99723" lon="6.48462">
        <ele>1529.8</ele>
        <time>2021-03-23T14:40:07Z</time>
      </trkpt>
      <trkpt lat="45.99727" lon="6.48473">
        <ele>1528.4</ele>
        <time>2021-03-23T14:40:10Z</time>
      </trkpt>
      <trkpt lat="45.99729" lon="6.4848">
        <ele>1524.4</ele>
        <time>2021-03-23T14:40:18Z</time>
      </trkpt>
      <trkpt lat="45.9973" lon="6.48485">
        <ele>1523.2</ele>
        <time>2021-03-23T14:40:21Z</time>
      </trkpt>
      <trkpt lat="45.99731" lon="6.48488">
        <ele>1523</ele>
        <time>2021-03-23T14:40:22Z</time>
      </trkpt>
      <trkpt lat="45.99732" lon="6.48492">
        <ele>1522.8</ele>
        <time>2021-03-23T14:40:23Z</time>
      </trkpt>
      <trkpt lat="45.99733" lon="6.48496">
        <ele>1522.4</ele>
        <time>2021-03-23T14:40:24Z</time>
      </trkpt>
      <trkpt lat="45.99734" lon="6.48501">
        <ele>1522</ele>
        <time>2021-03-23T14:40:25Z</time>
      </trkpt>
      <trkpt lat="45.99736" lon="6.48507">
        <ele>1522</ele>
        <time>2021-03-23T14:40:26Z</time>
      </trkpt>
      <trkpt lat="45.99738" lon="6.48512">
        <ele>1521.8</ele>
        <time>2021-03-23T14:40:27Z</time>
      </trkpt>
      <trkpt lat="45.99741" lon="6.48527">
        <ele>1520.4</ele>
        <time>2021-03-23T14:40:31Z</time>
      </trkpt>
      <trkpt lat="45.99747" lon="6.48543">
        <ele>1518.8</ele>
        <time>2021-03-23T14:40:34Z</time>
      </trkpt>
      <trkpt lat="45.99752" lon="6.48556">
        <ele>1517.8</ele>
        <time>2021-03-23T14:40:36Z</time>
      </trkpt>
      <trkpt lat="45.99757" lon="6.4857">
        <ele>1517</ele>
        <time>2021-03-23T14:40:38Z</time>
      </trkpt>
      <trkpt lat="45.99759" lon="6.48576">
        <ele>1516.6</ele>
        <time>2021-03-23T14:40:39Z</time>
      </trkpt>
      <trkpt lat="45.99763" lon="6.48591">
        <ele>1516.2</ele>
        <time>2021-03-23T14:40:41Z</time>
      </trkpt>
      <trkpt lat="45.99766" lon="6.4861">
        <ele>1515.2</ele>
        <time>2021-03-23T14:40:43Z</time>
      </trkpt>
      <trkpt lat="45.99767" lon="6.4863">
        <ele>1514</ele>
        <time>2021-03-23T14:40:45Z</time>
      </trkpt>
      <trkpt lat="45.99764" lon="6.48648">
        <ele>1512.4</ele>
        <time>2021-03-23T14:40:47Z</time>
      </trkpt>
      <trkpt lat="45.99763" lon="6.48656">
        <ele>1512</ele>
        <time>2021-03-23T14:40:48Z</time>
      </trkpt>
      <trkpt lat="45.99763" lon="6.48661">
        <ele>1511.6</ele>
        <time>2021-03-23T14:40:49Z</time>
      </trkpt>
      <trkpt lat="45.99762" lon="6.48676">
        <ele>1507.8</ele>
        <time>2021-03-23T14:40:59Z</time>
      </trkpt>
      <trkpt lat="45.99763" lon="6.48694">
        <ele>1506.6</ele>
        <time>2021-03-23T14:41:04Z</time>
      </trkpt>
      <trkpt lat="45.99765" lon="6.48705">
        <ele>1506</ele>
        <time>2021-03-23T14:41:06Z</time>
      </trkpt>
      <trkpt lat="45.99766" lon="6.48712">
        <ele>1505.4</ele>
        <time>2021-03-23T14:41:07Z</time>
      </trkpt>
      <trkpt lat="45.99768" lon="6.48727">
        <ele>1504.6</ele>
        <time>2021-03-23T14:41:09Z</time>
      </trkpt>
      <trkpt lat="45.9977" lon="6.48741">
        <ele>1503.8</ele>
        <time>2021-03-23T14:41:11Z</time>
      </trkpt>
      <trkpt lat="45.99771" lon="6.48755">
        <ele>1503</ele>
        <time>2021-03-23T14:41:13Z</time>
      </trkpt>
      <trkpt lat="45.99773" lon="6.4877">
        <ele>1502.2</ele>
        <time>2021-03-23T14:41:15Z</time>
      </trkpt>
      <trkpt lat="45.99771" lon="6.48786">
        <ele>1501</ele>
        <time>2021-03-23T14:41:18Z</time>
      </trkpt>
      <trkpt lat="45.99772" lon="6.48799">
        <ele>1499</ele>
        <time>2021-03-23T14:41:24Z</time>
      </trkpt>
      <trkpt lat="45.99775" lon="6.48816">
        <ele>1498</ele>
        <time>2021-03-23T14:41:27Z</time>
      </trkpt>
      <trkpt lat="45.99779" lon="6.48829">
        <ele>1497.4</ele>
        <time>2021-03-23T14:41:29Z</time>
      </trkpt>
      <trkpt lat="45.99783" lon="6.48844">
        <ele>1497</ele>
        <time>2021-03-23T14:41:31Z</time>
      </trkpt>
      <trkpt lat="45.99786" lon="6.48859">
        <ele>1496.2</ele>
        <time>2021-03-23T14:41:33Z</time>
      </trkpt>
      <trkpt lat="45.99788" lon="6.48875">
        <ele>1495.6</ele>
        <time>2021-03-23T14:41:35Z</time>
      </trkpt>
      <trkpt lat="45.99789" lon="6.4889">
        <ele>1494.8</ele>
        <time>2021-03-23T14:41:37Z</time>
      </trkpt>
      <trkpt lat="45.99786" lon="6.48898">
        <ele>1493.6</ele>
        <time>2021-03-23T14:41:45Z</time>
      </trkpt>
      <trkpt lat="45.99786" lon="6.48893">
        <ele>1491.8</ele>
        <time>2021-03-23T14:41:50Z</time>
      </trkpt>
      <trkpt lat="45.9979" lon="6.48908">
        <ele>1488</ele>
        <time>2021-03-23T14:42:21Z</time>
      </trkpt>
      <trkpt lat="45.99795" lon="6.48921">
        <ele>1487.2</ele>
        <time>2021-03-23T14:42:24Z</time>
      </trkpt>
      <trkpt lat="45.99798" lon="6.48933">
        <ele>1486</ele>
        <time>2021-03-23T14:42:27Z</time>
      </trkpt>
      <trkpt lat="45.99802" lon="6.4895">
        <ele>1485.2</ele>
        <time>2021-03-23T14:42:30Z</time>
      </trkpt>
      <trkpt lat="45.99805" lon="6.48963">
        <ele>1484.4</ele>
        <time>2021-03-23T14:42:32Z</time>
      </trkpt>
      <trkpt lat="45.99812" lon="6.48978">
        <ele>1483.2</ele>
        <time>2021-03-23T14:42:35Z</time>
      </trkpt>
      <trkpt lat="45.99817" lon="6.48992">
        <ele>1482.4</ele>
        <time>2021-03-23T14:42:38Z</time>
      </trkpt>
      <trkpt lat="45.99827" lon="6.49006">
        <ele>1482</ele>
        <time>2021-03-23T14:42:41Z</time>
      </trkpt>
      <trkpt lat="45.99834" lon="6.49016">
        <ele>1481.4</ele>
        <time>2021-03-23T14:42:43Z</time>
      </trkpt>
      <trkpt lat="45.99841" lon="6.49028">
        <ele>1480.8</ele>
        <time>2021-03-23T14:42:45Z</time>
      </trkpt>
      <trkpt lat="45.99848" lon="6.49037">
        <ele>1480.4</ele>
        <time>2021-03-23T14:42:47Z</time>
      </trkpt>
      <trkpt lat="45.99857" lon="6.49044">
        <ele>1479.6</ele>
        <time>2021-03-23T14:42:49Z</time>
      </trkpt>
      <trkpt lat="45.99867" lon="6.4905">
        <ele>1478.6</ele>
        <time>2021-03-23T14:42:52Z</time>
      </trkpt>
      <trkpt lat="45.99876" lon="6.49065">
        <ele>1477.8</ele>
        <time>2021-03-23T14:42:55Z</time>
      </trkpt>
      <trkpt lat="45.99886" lon="6.49077">
        <ele>1477.2</ele>
        <time>2021-03-23T14:42:58Z</time>
      </trkpt>
      <trkpt lat="45.99896" lon="6.49086">
        <ele>1477</ele>
        <time>2021-03-23T14:43:00Z</time>
      </trkpt>
      <trkpt lat="45.99902" lon="6.491">
        <ele>1476.4</ele>
        <time>2021-03-23T14:43:02Z</time>
      </trkpt>
      <trkpt lat="45.99908" lon="6.49117">
        <ele>1475.2</ele>
        <time>2021-03-23T14:43:04Z</time>
      </trkpt>
      <trkpt lat="45.99913" lon="6.4913">
        <ele>1474.8</ele>
        <time>2021-03-23T14:43:06Z</time>
      </trkpt>
      <trkpt lat="45.99918" lon="6.49142">
        <ele>1474.4</ele>
        <time>2021-03-23T14:43:08Z</time>
      </trkpt>
      <trkpt lat="45.99925" lon="6.49155">
        <ele>1474</ele>
        <time>2021-03-23T14:43:10Z</time>
      </trkpt>
      <trkpt lat="45.99933" lon="6.49169">
        <ele>1473.2</ele>
        <time>2021-03-23T14:43:12Z</time>
      </trkpt>
      <trkpt lat="45.99939" lon="6.49184">
        <ele>1472.4</ele>
        <time>2021-03-23T14:43:14Z</time>
      </trkpt>
      <trkpt lat="45.99945" lon="6.49199">
        <ele>1471.4</ele>
        <time>2021-03-23T14:43:16Z</time>
      </trkpt>
      <trkpt lat="45.99953" lon="6.49214">
        <ele>1468.6</ele>
        <time>2021-03-23T14:43:18Z</time>
      </trkpt>
      <trkpt lat="45.9996" lon="6.49226">
        <ele>1466.6</ele>
        <time>2021-03-23T14:43:20Z</time>
      </trkpt>
      <trkpt lat="45.99966" lon="6.49237">
        <ele>1465.8</ele>
        <time>2021-03-23T14:43:22Z</time>
      </trkpt>
      <trkpt lat="45.99976" lon="6.49247">
        <ele>1464.6</ele>
        <time>2021-03-23T14:43:25Z</time>
      </trkpt>
      <trkpt lat="45.99985" lon="6.49251">
        <ele>1463.8</ele>
        <time>2021-03-23T14:43:27Z</time>
      </trkpt>
      <trkpt lat="45.99996" lon="6.49256">
        <ele>1463.2</ele>
        <time>2021-03-23T14:43:29Z</time>
      </trkpt>
      <trkpt lat="46.00006" lon="6.49264">
        <ele>1462.4</ele>
        <time>2021-03-23T14:43:31Z</time>
      </trkpt>
      <trkpt lat="46.00017" lon="6.49274">
        <ele>1461.8</ele>
        <time>2021-03-23T14:43:33Z</time>
      </trkpt>
      <trkpt lat="46.00031" lon="6.49286">
        <ele>1460.6</ele>
        <time>2021-03-23T14:43:35Z</time>
      </trkpt>
      <trkpt lat="46.00042" lon="6.49291">
        <ele>1459</ele>
        <time>2021-03-23T14:43:37Z</time>
      </trkpt>
      <trkpt lat="46.00049" lon="6.49289">
        <ele>1456.6</ele>
        <time>2021-03-23T14:43:41Z</time>
      </trkpt>
      <trkpt lat="46.00051" lon="6.4929">
        <ele>1455.4</ele>
        <time>2021-03-23T14:43:45Z</time>
      </trkpt>
      <trkpt lat="46.00053" lon="6.49293">
        <ele>1455.2</ele>
        <time>2021-03-23T14:43:48Z</time>
      </trkpt>
      <trkpt lat="46.00055" lon="6.49296">
        <ele>1455.4</ele>
        <time>2021-03-23T14:43:50Z</time>
      </trkpt>
      <trkpt lat="46.00058" lon="6.49307">
        <ele>1455.4</ele>
        <time>2021-03-23T14:43:53Z</time>
      </trkpt>
      <trkpt lat="46.00058" lon="6.49312">
        <ele>1455.2</ele>
        <time>2021-03-23T14:43:54Z</time>
      </trkpt>
      <trkpt lat="46.00059" lon="6.49316">
        <ele>1455.4</ele>
        <time>2021-03-23T14:43:55Z</time>
      </trkpt>
      <trkpt lat="46.00056" lon="6.49329">
        <ele>1455</ele>
        <time>2021-03-23T14:43:58Z</time>
      </trkpt>
      <trkpt lat="46.00052" lon="6.49345">
        <ele>1454.6</ele>
        <time>2021-03-23T14:44:00Z</time>
      </trkpt>
      <trkpt lat="46.00048" lon="6.49364">
        <ele>1454.2</ele>
        <time>2021-03-23T14:44:02Z</time>
      </trkpt>
      <trkpt lat="46.00045" lon="6.49382">
        <ele>1453.8</ele>
        <time>2021-03-23T14:44:04Z</time>
      </trkpt>
      <trkpt lat="46.00044" lon="6.49398">
        <ele>1453.4</ele>
        <time>2021-03-23T14:44:06Z</time>
      </trkpt>
      <trkpt lat="46.00043" lon="6.49414">
        <ele>1452.6</ele>
        <time>2021-03-23T14:44:08Z</time>
      </trkpt>
      <trkpt lat="46.00042" lon="6.49428">
        <ele>1452</ele>
        <time>2021-03-23T14:44:10Z</time>
      </trkpt>
      <trkpt lat="46.00045" lon="6.49445">
        <ele>1450.4</ele>
        <time>2021-03-23T14:44:13Z</time>
      </trkpt>
      <trkpt lat="46.00044" lon="6.49459">
        <ele>1449.2</ele>
        <time>2021-03-23T14:44:16Z</time>
      </trkpt>
      <trkpt lat="46.00042" lon="6.49474">
        <ele>1448.6</ele>
        <time>2021-03-23T14:44:20Z</time>
      </trkpt>
      <trkpt lat="46.00042" lon="6.49488">
        <ele>1448</ele>
        <time>2021-03-23T14:44:25Z</time>
      </trkpt>
      <trkpt lat="46.00042" lon="6.49492">
        <ele>1447.6</ele>
        <time>2021-03-23T14:44:28Z</time>
      </trkpt>
      <trkpt lat="46.0004" lon="6.49505">
        <ele>1442</ele>
        <time>2021-03-23T14:44:56Z</time>
      </trkpt>
      <trkpt lat="46.00038" lon="6.49515">
        <ele>1439.6</ele>
        <time>2021-03-23T14:45:00Z</time>
      </trkpt>
      <trkpt lat="46.00039" lon="6.49524">
        <ele>1437.8</ele>
        <time>2021-03-23T14:45:02Z</time>
      </trkpt>
      <trkpt lat="46.00039" lon="6.49529">
        <ele>1437</ele>
        <time>2021-03-23T14:45:03Z</time>
      </trkpt>
      <trkpt lat="46.0004" lon="6.49534">
        <ele>1435.2</ele>
        <time>2021-03-23T14:45:04Z</time>
      </trkpt>
      <trkpt lat="46.0004" lon="6.49538">
        <ele>1433.8</ele>
        <time>2021-03-23T14:45:05Z</time>
      </trkpt>
      <trkpt lat="46.0004" lon="6.49543">
        <ele>1432.8</ele>
        <time>2021-03-23T14:45:06Z</time>
      </trkpt>
      <trkpt lat="46.00041" lon="6.49546">
        <ele>1432.4</ele>
        <time>2021-03-23T14:45:07Z</time>
      </trkpt>
      <trkpt lat="46.00042" lon="6.4955">
        <ele>1431.6</ele>
        <time>2021-03-23T14:45:08Z</time>
      </trkpt>
      <trkpt lat="46.00048" lon="6.49565">
        <ele>1428.6</ele>
        <time>2021-03-23T14:45:11Z</time>
      </trkpt>
      <trkpt lat="46.0005" lon="6.4957">
        <ele>1428</ele>
        <time>2021-03-23T14:45:12Z</time>
      </trkpt>
      <trkpt lat="46.00052" lon="6.49576">
        <ele>1427.4</ele>
        <time>2021-03-23T14:45:13Z</time>
      </trkpt>
      <trkpt lat="46.00054" lon="6.49581">
        <ele>1426.8</ele>
        <time>2021-03-23T14:45:14Z</time>
      </trkpt>
      <trkpt lat="46.00057" lon="6.49587">
        <ele>1426.2</ele>
        <time>2021-03-23T14:45:15Z</time>
      </trkpt>
      <trkpt lat="46.00059" lon="6.49592">
        <ele>1425.6</ele>
        <time>2021-03-23T14:45:16Z</time>
      </trkpt>
      <trkpt lat="46.00062" lon="6.49598">
        <ele>1425</ele>
        <time>2021-03-23T14:45:17Z</time>
      </trkpt>
      <trkpt lat="46.00065" lon="6.49604">
        <ele>1424.6</ele>
        <time>2021-03-23T14:45:18Z</time>
      </trkpt>
      <trkpt lat="46.00068" lon="6.49609">
        <ele>1424</ele>
        <time>2021-03-23T14:45:19Z</time>
      </trkpt>
      <trkpt lat="46.00071" lon="6.49615">
        <ele>1423.4</ele>
        <time>2021-03-23T14:45:20Z</time>
      </trkpt>
      <trkpt lat="46.00075" lon="6.4962">
        <ele>1423</ele>
        <time>2021-03-23T14:45:21Z</time>
      </trkpt>
      <trkpt lat="46.00078" lon="6.49626">
        <ele>1422.4</ele>
        <time>2021-03-23T14:45:22Z</time>
      </trkpt>
      <trkpt lat="46.00081" lon="6.49632">
        <ele>1422</ele>
        <time>2021-03-23T14:45:23Z</time>
      </trkpt>
      <trkpt lat="46.00085" lon="6.49638">
        <ele>1421.8</ele>
        <time>2021-03-23T14:45:24Z</time>
      </trkpt>
      <trkpt lat="46.00091" lon="6.49651">
        <ele>1421.4</ele>
        <time>2021-03-23T14:45:26Z</time>
      </trkpt>
      <trkpt lat="46.00098" lon="6.49664">
        <ele>1421</ele>
        <time>2021-03-23T14:45:28Z</time>
      </trkpt>
      <trkpt lat="46.00104" lon="6.49676">
        <ele>1420.6</ele>
        <time>2021-03-23T14:45:30Z</time>
      </trkpt>
      <trkpt lat="46.00107" lon="6.49683">
        <ele>1420.2</ele>
        <time>2021-03-23T14:45:31Z</time>
      </trkpt>
      <trkpt lat="46.0011" lon="6.49691">
        <ele>1419.2</ele>
        <time>2021-03-23T14:45:32Z</time>
      </trkpt>
      <trkpt lat="46.00114" lon="6.49698">
        <ele>1418.4</ele>
        <time>2021-03-23T14:45:33Z</time>
      </trkpt>
      <trkpt lat="46.00117" lon="6.49705">
        <ele>1417.6</ele>
        <time>2021-03-23T14:45:34Z</time>
      </trkpt>
      <trkpt lat="46.00121" lon="6.49713">
        <ele>1417</ele>
        <time>2021-03-23T14:45:35Z</time>
      </trkpt>
      <trkpt lat="46.00124" lon="6.4972">
        <ele>1416.2</ele>
        <time>2021-03-23T14:45:36Z</time>
      </trkpt>
      <trkpt lat="46.00127" lon="6.49727">
        <ele>1415.6</ele>
        <time>2021-03-23T14:45:37Z</time>
      </trkpt>
      <trkpt lat="46.00131" lon="6.49735">
        <ele>1415</ele>
        <time>2021-03-23T14:45:38Z</time>
      </trkpt>
      <trkpt lat="46.00134" lon="6.49742">
        <ele>1414.2</ele>
        <time>2021-03-23T14:45:39Z</time>
      </trkpt>
      <trkpt lat="46.00138" lon="6.49749">
        <ele>1413.6</ele>
        <time>2021-03-23T14:45:40Z</time>
      </trkpt>
      <trkpt lat="46.00141" lon="6.49756">
        <ele>1412.8</ele>
        <time>2021-03-23T14:45:41Z</time>
      </trkpt>
      <trkpt lat="46.00145" lon="6.49762">
        <ele>1412.2</ele>
        <time>2021-03-23T14:45:42Z</time>
      </trkpt>
      <trkpt lat="46.00149" lon="6.49769">
        <ele>1411.6</ele>
        <time>2021-03-23T14:45:43Z</time>
      </trkpt>
      <trkpt lat="46.00152" lon="6.49776">
        <ele>1410.8</ele>
        <time>2021-03-23T14:45:44Z</time>
      </trkpt>
      <trkpt lat="46.00156" lon="6.49783">
        <ele>1410.2</ele>
        <time>2021-03-23T14:45:45Z</time>
      </trkpt>
      <trkpt lat="46.00159" lon="6.4979">
        <ele>1409.6</ele>
        <time>2021-03-23T14:45:46Z</time>
      </trkpt>
      <trkpt lat="46.00163" lon="6.49797">
        <ele>1408.8</ele>
        <time>2021-03-23T14:45:47Z</time>
      </trkpt>
      <trkpt lat="46.00167" lon="6.49804">
        <ele>1408.2</ele>
        <time>2021-03-23T14:45:48Z</time>
      </trkpt>
      <trkpt lat="46.0017" lon="6.49812">
        <ele>1407.6</ele>
        <time>2021-03-23T14:45:49Z</time>
      </trkpt>
      <trkpt lat="46.00174" lon="6.49819">
        <ele>1406.8</ele>
        <time>2021-03-23T14:45:50Z</time>
      </trkpt>
      <trkpt lat="46.00177" lon="6.49827">
        <ele>1406.2</ele>
        <time>2021-03-23T14:45:51Z</time>
      </trkpt>
      <trkpt lat="46.00181" lon="6.49835">
        <ele>1405.4</ele>
        <time>2021-03-23T14:45:52Z</time>
      </trkpt>
      <trkpt lat="46.00183" lon="6.49844">
        <ele>1404.6</ele>
        <time>2021-03-23T14:45:53Z</time>
      </trkpt>
      <trkpt lat="46.00186" lon="6.49853">
        <ele>1404</ele>
        <time>2021-03-23T14:45:54Z</time>
      </trkpt>
      <trkpt lat="46.00188" lon="6.49862">
        <ele>1403.4</ele>
        <time>2021-03-23T14:45:55Z</time>
      </trkpt>
      <trkpt lat="46.00191" lon="6.4987">
        <ele>1402.8</ele>
        <time>2021-03-23T14:45:56Z</time>
      </trkpt>
      <trkpt lat="46.00193" lon="6.49879">
        <ele>1402</ele>
        <time>2021-03-23T14:45:57Z</time>
      </trkpt>
      <trkpt lat="46.00196" lon="6.49888">
        <ele>1401.4</ele>
        <time>2021-03-23T14:45:58Z</time>
      </trkpt>
      <trkpt lat="46.00199" lon="6.49896">
        <ele>1400.6</ele>
        <time>2021-03-23T14:45:59Z</time>
      </trkpt>
      <trkpt lat="46.00202" lon="6.49905">
        <ele>1400</ele>
        <time>2021-03-23T14:46:00Z</time>
      </trkpt>
      <trkpt lat="46.00204" lon="6.49914">
        <ele>1399.2</ele>
        <time>2021-03-23T14:46:01Z</time>
      </trkpt>
      <trkpt lat="46.00206" lon="6.49923">
        <ele>1398.6</ele>
        <time>2021-03-23T14:46:02Z</time>
      </trkpt>
      <trkpt lat="46.00207" lon="6.49933">
        <ele>1398.2</ele>
        <time>2021-03-23T14:46:03Z</time>
      </trkpt>
      <trkpt lat="46.00208" lon="6.49942">
        <ele>1397.6</ele>
        <time>2021-03-23T14:46:04Z</time>
      </trkpt>
      <trkpt lat="46.0021" lon="6.49951">
        <ele>1397</ele>
        <time>2021-03-23T14:46:05Z</time>
      </trkpt>
      <trkpt lat="46.00211" lon="6.49961">
        <ele>1396.6</ele>
        <time>2021-03-23T14:46:06Z</time>
      </trkpt>
      <trkpt lat="46.00212" lon="6.4997">
        <ele>1396</ele>
        <time>2021-03-23T14:46:07Z</time>
      </trkpt>
      <trkpt lat="46.00214" lon="6.49979">
        <ele>1395.4</ele>
        <time>2021-03-23T14:46:08Z</time>
      </trkpt>
      <trkpt lat="46.00215" lon="6.49989">
        <ele>1395</ele>
        <time>2021-03-23T14:46:09Z</time>
      </trkpt>
      <trkpt lat="46.00217" lon="6.49998">
        <ele>1394.6</ele>
        <time>2021-03-23T14:46:10Z</time>
      </trkpt>
      <trkpt lat="46.0022" lon="6.50006">
        <ele>1394.2</ele>
        <time>2021-03-23T14:46:11Z</time>
      </trkpt>
      <trkpt lat="46.00223" lon="6.50012">
        <ele>1393.8</ele>
        <time>2021-03-23T14:46:12Z</time>
      </trkpt>
      <trkpt lat="46.0023" lon="6.50025">
        <ele>1392.2</ele>
        <time>2021-03-23T14:46:14Z</time>
      </trkpt>
      <trkpt lat="46.00238" lon="6.50039">
        <ele>1391.2</ele>
        <time>2021-03-23T14:46:16Z</time>
      </trkpt>
      <trkpt lat="46.00246" lon="6.50054">
        <ele>1391</ele>
        <time>2021-03-23T14:46:18Z</time>
      </trkpt>
      <trkpt lat="46.00252" lon="6.50068">
        <ele>1390.8</ele>
        <time>2021-03-23T14:46:20Z</time>
      </trkpt>
      <trkpt lat="46.00257" lon="6.50082">
        <ele>1390.6</ele>
        <time>2021-03-23T14:46:22Z</time>
      </trkpt>
      <trkpt lat="46.00262" lon="6.50097">
        <ele>1390.4</ele>
        <time>2021-03-23T14:46:24Z</time>
      </trkpt>
      <trkpt lat="46.00267" lon="6.50111">
        <ele>1390.2</ele>
        <time>2021-03-23T14:46:26Z</time>
      </trkpt>
      <trkpt lat="46.00271" lon="6.50126">
        <ele>1390</ele>
        <time>2021-03-23T14:46:28Z</time>
      </trkpt>
      <trkpt lat="46.00276" lon="6.50141">
        <ele>1390</ele>
        <time>2021-03-23T14:46:30Z</time>
      </trkpt>
      <trkpt lat="46.00279" lon="6.50156">
        <ele>1390</ele>
        <time>2021-03-23T14:46:32Z</time>
      </trkpt>
      <trkpt lat="46.00283" lon="6.50172">
        <ele>1389.8</ele>
        <time>2021-03-23T14:46:34Z</time>
      </trkpt>
      <trkpt lat="46.00286" lon="6.50189">
        <ele>1389.8</ele>
        <time>2021-03-23T14:46:36Z</time>
      </trkpt>
      <trkpt lat="46.00289" lon="6.50205">
        <ele>1389.4</ele>
        <time>2021-03-23T14:46:38Z</time>
      </trkpt>
      <trkpt lat="46.00289" lon="6.50224">
        <ele>1389.2</ele>
        <time>2021-03-23T14:46:40Z</time>
      </trkpt>
      <trkpt lat="46.00291" lon="6.50241">
        <ele>1389</ele>
        <time>2021-03-23T14:46:42Z</time>
      </trkpt>
      <trkpt lat="46.0029" lon="6.50257">
        <ele>1388.4</ele>
        <time>2021-03-23T14:46:44Z</time>
      </trkpt>
      <trkpt lat="46.00288" lon="6.50271">
        <ele>1388.2</ele>
        <time>2021-03-23T14:46:46Z</time>
      </trkpt>
      <trkpt lat="46.00285" lon="6.50284">
        <ele>1388</ele>
        <time>2021-03-23T14:46:48Z</time>
      </trkpt>
      <trkpt lat="46.00282" lon="6.50298">
        <ele>1388</ele>
        <time>2021-03-23T14:46:50Z</time>
      </trkpt>
      <trkpt lat="46.00278" lon="6.50312">
        <ele>1387.8</ele>
        <time>2021-03-23T14:46:52Z</time>
      </trkpt>
      <trkpt lat="46.00275" lon="6.50324">
        <ele>1387.8</ele>
        <time>2021-03-23T14:46:54Z</time>
      </trkpt>
      <trkpt lat="46.00272" lon="6.50343">
        <ele>1387.4</ele>
        <time>2021-03-23T14:46:57Z</time>
      </trkpt>
      <trkpt lat="46.00268" lon="6.50355">
        <ele>1387</ele>
        <time>2021-03-23T14:46:59Z</time>
      </trkpt>
      <trkpt lat="46.00261" lon="6.50366">
        <ele>1386.4</ele>
        <time>2021-03-23T14:47:01Z</time>
      </trkpt>
      <trkpt lat="46.00254" lon="6.50375">
        <ele>1385.8</ele>
        <time>2021-03-23T14:47:03Z</time>
      </trkpt>
      <trkpt lat="46.00246" lon="6.50385">
        <ele>1384.4</ele>
        <time>2021-03-23T14:47:07Z</time>
      </trkpt>
      <trkpt lat="46.00239" lon="6.50397">
        <ele>1381.6</ele>
        <time>2021-03-23T14:47:12Z</time>
      </trkpt>
      <trkpt lat="46.00236" lon="6.50411">
        <ele>1377.8</ele>
        <time>2021-03-23T14:47:16Z</time>
      </trkpt>
      <trkpt lat="46.00235" lon="6.50427">
        <ele>1369.8</ele>
        <time>2021-03-23T14:47:20Z</time>
      </trkpt>
      <trkpt lat="46.00232" lon="6.50441">
        <ele>1364</ele>
        <time>2021-03-23T14:47:25Z</time>
      </trkpt>
      <trkpt lat="46.00231" lon="6.50446">
        <ele>1361.4</ele>
        <time>2021-03-23T14:47:29Z</time>
      </trkpt>
      <trkpt lat="46.00232" lon="6.50444">
        <ele>1358.8</ele>
        <time>2021-03-23T14:47:43Z</time>
      </trkpt>
      <trkpt lat="46.0023" lon="6.50446">
        <ele>1353.4</ele>
        <time>2021-03-23T14:48:27Z</time>
      </trkpt>
      <trkpt lat="46.00227" lon="6.50447">
        <ele>1353</ele>
        <time>2021-03-23T14:48:29Z</time>
      </trkpt>
      <trkpt lat="46.00226" lon="6.50446">
        <ele>1352</ele>
        <time>2021-03-23T14:48:37Z</time>
      </trkpt>
      <trkpt lat="46.00227" lon="6.50444">
        <ele>1352.2</ele>
        <time>2021-03-23T14:48:41Z</time>
      </trkpt>
      <trkpt lat="46.00225" lon="6.50443">
        <ele>1349.8</ele>
        <time>2021-03-23T14:48:55Z</time>
      </trkpt>
      <trkpt lat="46.00225" lon="6.50446">
        <ele>1349.4</ele>
        <time>2021-03-23T14:49:06Z</time>
      </trkpt>
      <trkpt lat="46.00224" lon="6.50449">
        <ele>1349</ele>
        <time>2021-03-23T14:49:08Z</time>
      </trkpt>
      <trkpt lat="46.00223" lon="6.50452">
        <ele>1348.6</ele>
        <time>2021-03-23T14:49:10Z</time>
      </trkpt>
      <trkpt lat="46.00222" lon="6.50455">
        <ele>1348.4</ele>
        <time>2021-03-23T14:49:12Z</time>
      </trkpt>
      <trkpt lat="46.0022" lon="6.50459">
        <ele>1348.2</ele>
        <time>2021-03-23T14:49:14Z</time>
      </trkpt>
      <trkpt lat="46.00219" lon="6.50463">
        <ele>1348</ele>
        <time>2021-03-23T14:49:16Z</time>
      </trkpt>
      <trkpt lat="46.00218" lon="6.50467">
        <ele>1348</ele>
        <time>2021-03-23T14:49:18Z</time>
      </trkpt>
      <trkpt lat="46.00217" lon="6.50471">
        <ele>1348</ele>
        <time>2021-03-23T14:49:20Z</time>
      </trkpt>
      <trkpt lat="46.00216" lon="6.50474">
        <ele>1348</ele>
        <time>2021-03-23T14:49:22Z</time>
      </trkpt>
      <trkpt lat="46.00214" lon="6.50476">
        <ele>1347.8</ele>
        <time>2021-03-23T14:49:24Z</time>
      </trkpt>
      <trkpt lat="46.00213" lon="6.5048">
        <ele>1347.8</ele>
        <time>2021-03-23T14:49:26Z</time>
      </trkpt>
      <trkpt lat="46.00212" lon="6.50482">
        <ele>1347.4</ele>
        <time>2021-03-23T14:49:28Z</time>
      </trkpt>
      <trkpt lat="46.00212" lon="6.50486">
        <ele>1347.2</ele>
        <time>2021-03-23T14:49:30Z</time>
      </trkpt>
      <trkpt lat="46.00211" lon="6.50489">
        <ele>1347.4</ele>
        <time>2021-03-23T14:49:32Z</time>
      </trkpt>
      <trkpt lat="46.0021" lon="6.50493">
        <ele>1347.4</ele>
        <time>2021-03-23T14:49:34Z</time>
      </trkpt>
      <trkpt lat="46.00208" lon="6.50496">
        <ele>1347.4</ele>
        <time>2021-03-23T14:49:36Z</time>
      </trkpt>
      <trkpt lat="46.00207" lon="6.50499">
        <ele>1347.4</ele>
        <time>2021-03-23T14:49:38Z</time>
      </trkpt>
      <trkpt lat="46.00206" lon="6.50502">
        <ele>1347.4</ele>
        <time>2021-03-23T14:49:40Z</time>
      </trkpt>
      <trkpt lat="46.00204" lon="6.50504">
        <ele>1347.6</ele>
        <time>2021-03-23T14:49:42Z</time>
      </trkpt>
      <trkpt lat="46.00202" lon="6.50505">
        <ele>1347.4</ele>
        <time>2021-03-23T14:49:48Z</time>
      </trkpt>
      <trkpt lat="46.00201" lon="6.50502">
        <ele>1346.4</ele>
        <time>2021-03-23T14:50:04Z</time>
      </trkpt>
      <trkpt lat="46.002" lon="6.505">
        <ele>1347</ele>
        <time>2021-03-23T14:50:18Z</time>
      </trkpt>
      <trkpt lat="46.00199" lon="6.50497">
        <ele>1347.2</ele>
        <time>2021-03-23T14:50:22Z</time>
      </trkpt>
      <trkpt lat="46.00201" lon="6.50495">
        <ele>1347.2</ele>
        <time>2021-03-23T14:50:24Z</time>
      </trkpt>
      <trkpt lat="46.00202" lon="6.50497">
        <ele>1347.4</ele>
        <time>2021-03-23T14:50:31Z</time>
      </trkpt>
      <trkpt lat="46.00202" lon="6.505">
        <ele>1347.2</ele>
        <time>2021-03-23T14:50:49Z</time>
      </trkpt>
      <trkpt lat="46.002" lon="6.505">
        <ele>1347.6</ele>
        <time>2021-03-23T14:51:07Z</time>
      </trkpt>
      <trkpt lat="46.00202" lon="6.505">
        <ele>1344.2</ele>
        <time>2021-03-23T14:51:31Z</time>
      </trkpt>
    </trkseg>
  </trk>
</gpx>